<?xml version="1.0" encoding="UTF-8" standalone="no" ?>
<gpx xmlns="http://www.topografix.com/GPX/1/1" xmlns:xsi="http://www.w3.org/2001/XMLSchema-instance" xsi:schemaLocation="http://www.topografix.com/GPX/1/1 http://www.topografix.com/GPX/1/1/gpx.xsd" version="1.1" creator="VisuGPX - https://www.visugpx.com">
  <metadata>
    <name>15396748-Aller Derssoubre</name>
  </metadata>
  <trk>
    <name><![CDATA[15396748-Aller Derssoubre]]></name>
    <extensions>
      <line xmlns="http://www.topografix.com/GPX/gpx_style/0/2">
        <color>0000FF</color>
        <width>4</width>
      </line>
    </extensions>
    <trkseg>
      <trkpt lat="47.68304" lon="7.40707">
        <ele>266</ele>
        <time>2022-08-20T15:02:10Z</time>
      </trkpt>
      <trkpt lat="47.683" lon="7.40698">
        <ele>266</ele>
        <time>2022-08-20T15:02:16Z</time>
      </trkpt>
      <trkpt lat="47.68298" lon="7.40687">
        <ele>266</ele>
        <time>2022-08-20T15:02:22Z</time>
      </trkpt>
      <trkpt lat="47.68278" lon="7.4064">
        <ele>267</ele>
        <time>2022-08-20T15:02:52Z</time>
      </trkpt>
      <trkpt lat="47.68271" lon="7.40619">
        <ele>267</ele>
        <time>2022-08-20T15:03:05Z</time>
      </trkpt>
      <trkpt lat="47.68249" lon="7.40528">
        <ele>269</ele>
        <time>2022-08-20T15:03:57Z</time>
      </trkpt>
      <trkpt lat="47.68228" lon="7.40458">
        <ele>268</ele>
        <time>2022-08-20T15:04:38Z</time>
      </trkpt>
      <trkpt lat="47.68215" lon="7.40389">
        <ele>268</ele>
        <time>2022-08-20T15:05:17Z</time>
      </trkpt>
      <trkpt lat="47.68203" lon="7.40312">
        <ele>269</ele>
        <time>2022-08-20T15:05:59Z</time>
      </trkpt>
      <trkpt lat="47.68202" lon="7.40258">
        <ele>270</ele>
        <time>2022-08-20T15:06:28Z</time>
      </trkpt>
      <trkpt lat="47.68204" lon="7.4012">
        <ele>275</ele>
        <time>2022-08-20T15:07:43Z</time>
      </trkpt>
      <trkpt lat="47.6821" lon="7.40051">
        <ele>279</ele>
        <time>2022-08-20T15:08:20Z</time>
      </trkpt>
      <trkpt lat="47.68234" lon="7.39847">
        <ele>286</ele>
        <time>2022-08-20T15:10:12Z</time>
      </trkpt>
      <trkpt lat="47.68241" lon="7.39793">
        <ele>286</ele>
        <time>2022-08-20T15:10:42Z</time>
      </trkpt>
      <trkpt lat="47.68252" lon="7.39732">
        <ele>285</ele>
        <time>2022-08-20T15:11:16Z</time>
      </trkpt>
      <trkpt lat="47.68254" lon="7.3971">
        <ele>284</ele>
        <time>2022-08-20T15:11:28Z</time>
      </trkpt>
      <trkpt lat="47.6825" lon="7.39683">
        <ele>284</ele>
        <time>2022-08-20T15:11:42Z</time>
      </trkpt>
      <trkpt lat="47.68242" lon="7.39656">
        <ele>282</ele>
        <time>2022-08-20T15:11:58Z</time>
      </trkpt>
      <trkpt lat="47.68223" lon="7.39607">
        <ele>280</ele>
        <time>2022-08-20T15:12:29Z</time>
      </trkpt>
      <trkpt lat="47.68216" lon="7.39581">
        <ele>279</ele>
        <time>2022-08-20T15:12:44Z</time>
      </trkpt>
      <trkpt lat="47.68214" lon="7.3956">
        <ele>278</ele>
        <time>2022-08-20T15:12:55Z</time>
      </trkpt>
      <trkpt lat="47.68204" lon="7.39338">
        <ele>267</ele>
        <time>2022-08-20T15:14:55Z</time>
      </trkpt>
      <trkpt lat="47.68209" lon="7.39283">
        <ele>264</ele>
        <time>2022-08-20T15:15:25Z</time>
      </trkpt>
      <trkpt lat="47.6823" lon="7.39172">
        <ele>259</ele>
        <time>2022-08-20T15:16:27Z</time>
      </trkpt>
      <trkpt lat="47.68246" lon="7.39068">
        <ele>257</ele>
        <time>2022-08-20T15:17:25Z</time>
      </trkpt>
      <trkpt lat="47.68253" lon="7.3904">
        <ele>256</ele>
        <time>2022-08-20T15:17:41Z</time>
      </trkpt>
      <trkpt lat="47.68261" lon="7.39026">
        <ele>256</ele>
        <time>2022-08-20T15:17:51Z</time>
      </trkpt>
      <trkpt lat="47.68255" lon="7.38992">
        <ele>255</ele>
        <time>2022-08-20T15:18:10Z</time>
      </trkpt>
      <trkpt lat="47.6825" lon="7.38943">
        <ele>255</ele>
        <time>2022-08-20T15:18:37Z</time>
      </trkpt>
      <trkpt lat="47.68241" lon="7.3889">
        <ele>255</ele>
        <time>2022-08-20T15:19:06Z</time>
      </trkpt>
      <trkpt lat="47.68242" lon="7.38882">
        <ele>255</ele>
        <time>2022-08-20T15:19:10Z</time>
      </trkpt>
      <trkpt lat="47.68246" lon="7.38873">
        <ele>255</ele>
        <time>2022-08-20T15:19:16Z</time>
      </trkpt>
      <trkpt lat="47.68258" lon="7.38854">
        <ele>255</ele>
        <time>2022-08-20T15:19:30Z</time>
      </trkpt>
      <trkpt lat="47.68327" lon="7.38784">
        <ele>257</ele>
        <time>2022-08-20T15:20:37Z</time>
      </trkpt>
      <trkpt lat="47.68326" lon="7.38775">
        <ele>257</ele>
        <time>2022-08-20T15:20:42Z</time>
      </trkpt>
      <trkpt lat="47.68319" lon="7.38765">
        <ele>257</ele>
        <time>2022-08-20T15:20:50Z</time>
      </trkpt>
      <trkpt lat="47.68311" lon="7.38758">
        <ele>257</ele>
        <time>2022-08-20T15:20:57Z</time>
      </trkpt>
      <trkpt lat="47.6828" lon="7.38689">
        <ele>258</ele>
        <time>2022-08-20T15:21:42Z</time>
      </trkpt>
      <trkpt lat="47.68262" lon="7.38639">
        <ele>259</ele>
        <time>2022-08-20T15:22:13Z</time>
      </trkpt>
      <trkpt lat="47.68248" lon="7.38591">
        <ele>260</ele>
        <time>2022-08-20T15:22:41Z</time>
      </trkpt>
      <trkpt lat="47.68234" lon="7.38531">
        <ele>258</ele>
        <time>2022-08-20T15:23:15Z</time>
      </trkpt>
      <trkpt lat="47.6822" lon="7.38417">
        <ele>258</ele>
        <time>2022-08-20T15:24:17Z</time>
      </trkpt>
      <trkpt lat="47.68221" lon="7.38387">
        <ele>259</ele>
        <time>2022-08-20T15:24:34Z</time>
      </trkpt>
      <trkpt lat="47.68219" lon="7.38372">
        <ele>259</ele>
        <time>2022-08-20T15:24:42Z</time>
      </trkpt>
      <trkpt lat="47.68215" lon="7.38354">
        <ele>259</ele>
        <time>2022-08-20T15:24:52Z</time>
      </trkpt>
      <trkpt lat="47.68212" lon="7.38347">
        <ele>259</ele>
        <time>2022-08-20T15:24:57Z</time>
      </trkpt>
      <trkpt lat="47.68206" lon="7.38292">
        <ele>260</ele>
        <time>2022-08-20T15:25:27Z</time>
      </trkpt>
      <trkpt lat="47.68206" lon="7.38221">
        <ele>263</ele>
        <time>2022-08-20T15:26:05Z</time>
      </trkpt>
      <trkpt lat="47.68209" lon="7.3817">
        <ele>267</ele>
        <time>2022-08-20T15:26:32Z</time>
      </trkpt>
      <trkpt lat="47.68214" lon="7.38112">
        <ele>269</ele>
        <time>2022-08-20T15:27:04Z</time>
      </trkpt>
      <trkpt lat="47.68222" lon="7.38066">
        <ele>271</ele>
        <time>2022-08-20T15:27:30Z</time>
      </trkpt>
      <trkpt lat="47.68244" lon="7.37968">
        <ele>276</ele>
        <time>2022-08-20T15:28:25Z</time>
      </trkpt>
      <trkpt lat="47.68252" lon="7.37921">
        <ele>278</ele>
        <time>2022-08-20T15:28:51Z</time>
      </trkpt>
      <trkpt lat="47.68259" lon="7.37868">
        <ele>277</ele>
        <time>2022-08-20T15:29:21Z</time>
      </trkpt>
      <trkpt lat="47.68262" lon="7.37809">
        <ele>276</ele>
        <time>2022-08-20T15:29:52Z</time>
      </trkpt>
      <trkpt lat="47.68262" lon="7.37761">
        <ele>276</ele>
        <time>2022-08-20T15:30:18Z</time>
      </trkpt>
      <trkpt lat="47.68259" lon="7.37702">
        <ele>275</ele>
        <time>2022-08-20T15:30:50Z</time>
      </trkpt>
      <trkpt lat="47.68238" lon="7.37432">
        <ele>278</ele>
        <time>2022-08-20T15:33:17Z</time>
      </trkpt>
      <trkpt lat="47.68231" lon="7.37367">
        <ele>281</ele>
        <time>2022-08-20T15:33:52Z</time>
      </trkpt>
      <trkpt lat="47.6822" lon="7.37305">
        <ele>282</ele>
        <time>2022-08-20T15:34:27Z</time>
      </trkpt>
      <trkpt lat="47.68208" lon="7.37255">
        <ele>282</ele>
        <time>2022-08-20T15:34:55Z</time>
      </trkpt>
      <trkpt lat="47.68145" lon="7.37052">
        <ele>282</ele>
        <time>2022-08-20T15:36:56Z</time>
      </trkpt>
      <trkpt lat="47.68062" lon="7.367">
        <ele>288</ele>
        <time>2022-08-20T15:40:17Z</time>
      </trkpt>
      <trkpt lat="47.68062" lon="7.36688">
        <ele>288</ele>
        <time>2022-08-20T15:40:23Z</time>
      </trkpt>
      <trkpt lat="47.68055" lon="7.36638">
        <ele>289</ele>
        <time>2022-08-20T15:40:51Z</time>
      </trkpt>
      <trkpt lat="47.68041" lon="7.36645">
        <ele>289</ele>
        <time>2022-08-20T15:41:03Z</time>
      </trkpt>
      <trkpt lat="47.67977" lon="7.36665">
        <ele>287</ele>
        <time>2022-08-20T15:41:55Z</time>
      </trkpt>
      <trkpt lat="47.67888" lon="7.36681">
        <ele>287</ele>
        <time>2022-08-20T15:43:07Z</time>
      </trkpt>
      <trkpt lat="47.67873" lon="7.36686">
        <ele>287</ele>
        <time>2022-08-20T15:43:19Z</time>
      </trkpt>
      <trkpt lat="47.67862" lon="7.36693">
        <ele>287</ele>
        <time>2022-08-20T15:43:29Z</time>
      </trkpt>
      <trkpt lat="47.67849" lon="7.36707">
        <ele>286</ele>
        <time>2022-08-20T15:43:42Z</time>
      </trkpt>
      <trkpt lat="47.67808" lon="7.36769">
        <ele>284</ele>
        <time>2022-08-20T15:44:28Z</time>
      </trkpt>
      <trkpt lat="47.67795" lon="7.36782">
        <ele>283</ele>
        <time>2022-08-20T15:44:41Z</time>
      </trkpt>
      <trkpt lat="47.67771" lon="7.36796">
        <ele>281</ele>
        <time>2022-08-20T15:45:02Z</time>
      </trkpt>
      <trkpt lat="47.67743" lon="7.36804">
        <ele>279</ele>
        <time>2022-08-20T15:45:24Z</time>
      </trkpt>
      <trkpt lat="47.67683" lon="7.36814">
        <ele>275</ele>
        <time>2022-08-20T15:46:13Z</time>
      </trkpt>
      <trkpt lat="47.67661" lon="7.36815">
        <ele>273</ele>
        <time>2022-08-20T15:46:30Z</time>
      </trkpt>
      <trkpt lat="47.67654" lon="7.36809">
        <ele>273</ele>
        <time>2022-08-20T15:46:37Z</time>
      </trkpt>
      <trkpt lat="47.67647" lon="7.36796">
        <ele>272</ele>
        <time>2022-08-20T15:46:46Z</time>
      </trkpt>
      <trkpt lat="47.67625" lon="7.36728">
        <ele>271</ele>
        <time>2022-08-20T15:47:27Z</time>
      </trkpt>
      <trkpt lat="47.67618" lon="7.36719">
        <ele>270</ele>
        <time>2022-08-20T15:47:34Z</time>
      </trkpt>
      <trkpt lat="47.67606" lon="7.36717">
        <ele>270</ele>
        <time>2022-08-20T15:47:44Z</time>
      </trkpt>
      <trkpt lat="47.67527" lon="7.36729">
        <ele>270</ele>
        <time>2022-08-20T15:48:47Z</time>
      </trkpt>
      <trkpt lat="47.67392" lon="7.36753">
        <ele>274</ele>
        <time>2022-08-20T15:50:36Z</time>
      </trkpt>
      <trkpt lat="47.67312" lon="7.36761">
        <ele>273</ele>
        <time>2022-08-20T15:51:40Z</time>
      </trkpt>
      <trkpt lat="47.67303" lon="7.36758">
        <ele>273</ele>
        <time>2022-08-20T15:51:48Z</time>
      </trkpt>
      <trkpt lat="47.67299" lon="7.36754">
        <ele>273</ele>
        <time>2022-08-20T15:51:52Z</time>
      </trkpt>
      <trkpt lat="47.67217" lon="7.36616">
        <ele>272</ele>
        <time>2022-08-20T15:53:31Z</time>
      </trkpt>
      <trkpt lat="47.672" lon="7.36574">
        <ele>272</ele>
        <time>2022-08-20T15:53:57Z</time>
      </trkpt>
      <trkpt lat="47.67174" lon="7.36492">
        <ele>271</ele>
        <time>2022-08-20T15:54:46Z</time>
      </trkpt>
      <trkpt lat="47.67158" lon="7.36458">
        <ele>270</ele>
        <time>2022-08-20T15:55:08Z</time>
      </trkpt>
      <trkpt lat="47.66956" lon="7.36166">
        <ele>278</ele>
        <time>2022-08-20T15:58:54Z</time>
      </trkpt>
      <trkpt lat="47.66864" lon="7.36052">
        <ele>282</ele>
        <time>2022-08-20T16:00:30Z</time>
      </trkpt>
      <trkpt lat="47.668" lon="7.35965">
        <ele>285</ele>
        <time>2022-08-20T16:01:40Z</time>
      </trkpt>
      <trkpt lat="47.66777" lon="7.35924">
        <ele>286</ele>
        <time>2022-08-20T16:02:08Z</time>
      </trkpt>
      <trkpt lat="47.66597" lon="7.35529">
        <ele>285</ele>
        <time>2022-08-20T16:06:25Z</time>
      </trkpt>
      <trkpt lat="47.66529" lon="7.35405">
        <ele>283</ele>
        <time>2022-08-20T16:07:52Z</time>
      </trkpt>
      <trkpt lat="47.66508" lon="7.3537">
        <ele>281</ele>
        <time>2022-08-20T16:08:17Z</time>
      </trkpt>
      <trkpt lat="47.66389" lon="7.35192">
        <ele>277</ele>
        <time>2022-08-20T16:10:32Z</time>
      </trkpt>
      <trkpt lat="47.66319" lon="7.35048">
        <ele>277</ele>
        <time>2022-08-20T16:12:08Z</time>
      </trkpt>
      <trkpt lat="47.66289" lon="7.34967">
        <ele>278</ele>
        <time>2022-08-20T16:12:58Z</time>
      </trkpt>
      <trkpt lat="47.66267" lon="7.34925">
        <ele>279</ele>
        <time>2022-08-20T16:13:27Z</time>
      </trkpt>
      <trkpt lat="47.66251" lon="7.34908">
        <ele>278</ele>
        <time>2022-08-20T16:13:42Z</time>
      </trkpt>
      <trkpt lat="47.6623" lon="7.34895">
        <ele>279</ele>
        <time>2022-08-20T16:14:01Z</time>
      </trkpt>
      <trkpt lat="47.66092" lon="7.34851">
        <ele>280</ele>
        <time>2022-08-20T16:15:54Z</time>
      </trkpt>
      <trkpt lat="47.66067" lon="7.34835">
        <ele>280</ele>
        <time>2022-08-20T16:16:15Z</time>
      </trkpt>
      <trkpt lat="47.65992" lon="7.3477">
        <ele>281</ele>
        <time>2022-08-20T16:17:25Z</time>
      </trkpt>
      <trkpt lat="47.65893" lon="7.34709">
        <ele>278</ele>
        <time>2022-08-20T16:18:51Z</time>
      </trkpt>
      <trkpt lat="47.65802" lon="7.34636">
        <ele>280</ele>
        <time>2022-08-20T16:20:13Z</time>
      </trkpt>
      <trkpt lat="47.65745" lon="7.34596">
        <ele>281</ele>
        <time>2022-08-20T16:21:04Z</time>
      </trkpt>
      <trkpt lat="47.65651" lon="7.34507">
        <ele>282</ele>
        <time>2022-08-20T16:22:33Z</time>
      </trkpt>
      <trkpt lat="47.65638" lon="7.34487">
        <ele>284</ele>
        <time>2022-08-20T16:22:48Z</time>
      </trkpt>
      <trkpt lat="47.65612" lon="7.3444">
        <ele>288</ele>
        <time>2022-08-20T16:23:21Z</time>
      </trkpt>
      <trkpt lat="47.65599" lon="7.34421">
        <ele>290</ele>
        <time>2022-08-20T16:23:36Z</time>
      </trkpt>
      <trkpt lat="47.65559" lon="7.3438">
        <ele>293</ele>
        <time>2022-08-20T16:24:15Z</time>
      </trkpt>
      <trkpt lat="47.65543" lon="7.34361">
        <ele>295</ele>
        <time>2022-08-20T16:24:31Z</time>
      </trkpt>
      <trkpt lat="47.65536" lon="7.34343">
        <ele>296</ele>
        <time>2022-08-20T16:24:42Z</time>
      </trkpt>
      <trkpt lat="47.65535" lon="7.34323">
        <ele>297</ele>
        <time>2022-08-20T16:24:53Z</time>
      </trkpt>
      <trkpt lat="47.6554" lon="7.34269">
        <ele>297</ele>
        <time>2022-08-20T16:25:22Z</time>
      </trkpt>
      <trkpt lat="47.65541" lon="7.34232">
        <ele>298</ele>
        <time>2022-08-20T16:25:42Z</time>
      </trkpt>
      <trkpt lat="47.65539" lon="7.34167">
        <ele>299</ele>
        <time>2022-08-20T16:26:17Z</time>
      </trkpt>
      <trkpt lat="47.65536" lon="7.34136">
        <ele>300</ele>
        <time>2022-08-20T16:26:34Z</time>
      </trkpt>
      <trkpt lat="47.65529" lon="7.34099">
        <ele>301</ele>
        <time>2022-08-20T16:26:55Z</time>
      </trkpt>
      <trkpt lat="47.65497" lon="7.3397">
        <ele>303</ele>
        <time>2022-08-20T16:28:09Z</time>
      </trkpt>
      <trkpt lat="47.65487" lon="7.33942">
        <ele>304</ele>
        <time>2022-08-20T16:28:26Z</time>
      </trkpt>
      <trkpt lat="47.65476" lon="7.33916">
        <ele>305</ele>
        <time>2022-08-20T16:28:43Z</time>
      </trkpt>
      <trkpt lat="47.65451" lon="7.33874">
        <ele>307</ele>
        <time>2022-08-20T16:29:13Z</time>
      </trkpt>
      <trkpt lat="47.65415" lon="7.33821">
        <ele>307</ele>
        <time>2022-08-20T16:29:54Z</time>
      </trkpt>
      <trkpt lat="47.65379" lon="7.33752">
        <ele>305</ele>
        <time>2022-08-20T16:30:41Z</time>
      </trkpt>
      <trkpt lat="47.65353" lon="7.33699">
        <ele>302</ele>
        <time>2022-08-20T16:31:16Z</time>
      </trkpt>
      <trkpt lat="47.65315" lon="7.33575">
        <ele>298</ele>
        <time>2022-08-20T16:32:30Z</time>
      </trkpt>
      <trkpt lat="47.65281" lon="7.33492">
        <ele>296</ele>
        <time>2022-08-20T16:33:22Z</time>
      </trkpt>
      <trkpt lat="47.65248" lon="7.33435">
        <ele>293</ele>
        <time>2022-08-20T16:34:03Z</time>
      </trkpt>
      <trkpt lat="47.65232" lon="7.33422">
        <ele>293</ele>
        <time>2022-08-20T16:34:17Z</time>
      </trkpt>
      <trkpt lat="47.65215" lon="7.33419">
        <ele>292</ele>
        <time>2022-08-20T16:34:31Z</time>
      </trkpt>
      <trkpt lat="47.65178" lon="7.33427">
        <ele>291</ele>
        <time>2022-08-20T16:35:01Z</time>
      </trkpt>
      <trkpt lat="47.65171" lon="7.33426">
        <ele>291</ele>
        <time>2022-08-20T16:35:06Z</time>
      </trkpt>
      <trkpt lat="47.65158" lon="7.3342">
        <ele>291</ele>
        <time>2022-08-20T16:35:17Z</time>
      </trkpt>
      <trkpt lat="47.65147" lon="7.33409">
        <ele>290</ele>
        <time>2022-08-20T16:35:28Z</time>
      </trkpt>
      <trkpt lat="47.65135" lon="7.33391">
        <ele>290</ele>
        <time>2022-08-20T16:35:42Z</time>
      </trkpt>
      <trkpt lat="47.65121" lon="7.33359">
        <ele>290</ele>
        <time>2022-08-20T16:36:02Z</time>
      </trkpt>
      <trkpt lat="47.65112" lon="7.33326">
        <ele>290</ele>
        <time>2022-08-20T16:36:21Z</time>
      </trkpt>
      <trkpt lat="47.65032" lon="7.32637">
        <ele>304</ele>
        <time>2022-08-20T16:42:38Z</time>
      </trkpt>
      <trkpt lat="47.65027" lon="7.32612">
        <ele>304</ele>
        <time>2022-08-20T16:42:53Z</time>
      </trkpt>
      <trkpt lat="47.65019" lon="7.32586">
        <ele>305</ele>
        <time>2022-08-20T16:43:08Z</time>
      </trkpt>
      <trkpt lat="47.64864" lon="7.3224">
        <ele>312</ele>
        <time>2022-08-20T16:46:52Z</time>
      </trkpt>
      <trkpt lat="47.64823" lon="7.32142">
        <ele>311</ele>
        <time>2022-08-20T16:47:54Z</time>
      </trkpt>
      <trkpt lat="47.64708" lon="7.31879">
        <ele>310</ele>
        <time>2022-08-20T16:50:43Z</time>
      </trkpt>
      <trkpt lat="47.64632" lon="7.31699">
        <ele>314</ele>
        <time>2022-08-20T16:52:38Z</time>
      </trkpt>
      <trkpt lat="47.64563" lon="7.31524">
        <ele>315</ele>
        <time>2022-08-20T16:54:27Z</time>
      </trkpt>
      <trkpt lat="47.64522" lon="7.31427">
        <ele>315</ele>
        <time>2022-08-20T16:55:29Z</time>
      </trkpt>
      <trkpt lat="47.64487" lon="7.31337">
        <ele>313</ele>
        <time>2022-08-20T16:56:25Z</time>
      </trkpt>
      <trkpt lat="47.64484" lon="7.31319">
        <ele>312</ele>
        <time>2022-08-20T16:56:35Z</time>
      </trkpt>
      <trkpt lat="47.64484" lon="7.31286">
        <ele>311</ele>
        <time>2022-08-20T16:56:53Z</time>
      </trkpt>
      <trkpt lat="47.64489" lon="7.31269">
        <ele>311</ele>
        <time>2022-08-20T16:57:03Z</time>
      </trkpt>
      <trkpt lat="47.64539" lon="7.31144">
        <ele>311</ele>
        <time>2022-08-20T16:58:21Z</time>
      </trkpt>
      <trkpt lat="47.64542" lon="7.31127">
        <ele>311</ele>
        <time>2022-08-20T16:58:31Z</time>
      </trkpt>
      <trkpt lat="47.64541" lon="7.31113">
        <ele>311</ele>
        <time>2022-08-20T16:58:39Z</time>
      </trkpt>
      <trkpt lat="47.64536" lon="7.311">
        <ele>311</ele>
        <time>2022-08-20T16:58:47Z</time>
      </trkpt>
      <trkpt lat="47.64506" lon="7.31053">
        <ele>310</ele>
        <time>2022-08-20T16:59:22Z</time>
      </trkpt>
      <trkpt lat="47.64464" lon="7.31006">
        <ele>310</ele>
        <time>2022-08-20T17:00:04Z</time>
      </trkpt>
      <trkpt lat="47.64446" lon="7.30991">
        <ele>311</ele>
        <time>2022-08-20T17:00:20Z</time>
      </trkpt>
      <trkpt lat="47.64367" lon="7.30938">
        <ele>314</ele>
        <time>2022-08-20T17:01:30Z</time>
      </trkpt>
      <trkpt lat="47.64356" lon="7.30934">
        <ele>314</ele>
        <time>2022-08-20T17:01:39Z</time>
      </trkpt>
      <trkpt lat="47.64338" lon="7.30934">
        <ele>315</ele>
        <time>2022-08-20T17:01:53Z</time>
      </trkpt>
      <trkpt lat="47.64324" lon="7.30939">
        <ele>315</ele>
        <time>2022-08-20T17:02:05Z</time>
      </trkpt>
      <trkpt lat="47.64252" lon="7.30997">
        <ele>310</ele>
        <time>2022-08-20T17:03:10Z</time>
      </trkpt>
      <trkpt lat="47.64241" lon="7.30999">
        <ele>310</ele>
        <time>2022-08-20T17:03:19Z</time>
      </trkpt>
      <trkpt lat="47.64231" lon="7.30997">
        <ele>310</ele>
        <time>2022-08-20T17:03:27Z</time>
      </trkpt>
      <trkpt lat="47.64224" lon="7.30992">
        <ele>310</ele>
        <time>2022-08-20T17:03:33Z</time>
      </trkpt>
      <trkpt lat="47.64212" lon="7.30978">
        <ele>310</ele>
        <time>2022-08-20T17:03:46Z</time>
      </trkpt>
      <trkpt lat="47.64105" lon="7.30759">
        <ele>314</ele>
        <time>2022-08-20T17:06:12Z</time>
      </trkpt>
      <trkpt lat="47.64091" lon="7.30737">
        <ele>314</ele>
        <time>2022-08-20T17:06:28Z</time>
      </trkpt>
      <trkpt lat="47.64071" lon="7.30717">
        <ele>316</ele>
        <time>2022-08-20T17:06:47Z</time>
      </trkpt>
      <trkpt lat="47.64022" lon="7.30676">
        <ele>319</ele>
        <time>2022-08-20T17:07:32Z</time>
      </trkpt>
      <trkpt lat="47.63925" lon="7.30617">
        <ele>314</ele>
        <time>2022-08-20T17:08:56Z</time>
      </trkpt>
      <trkpt lat="47.63903" lon="7.306">
        <ele>312</ele>
        <time>2022-08-20T17:09:16Z</time>
      </trkpt>
      <trkpt lat="47.63676" lon="7.30358">
        <ele>304</ele>
        <time>2022-08-20T17:13:00Z</time>
      </trkpt>
      <trkpt lat="47.63492" lon="7.30206">
        <ele>304</ele>
        <time>2022-08-20T17:15:48Z</time>
      </trkpt>
      <trkpt lat="47.63459" lon="7.30175">
        <ele>304</ele>
        <time>2022-08-20T17:16:20Z</time>
      </trkpt>
      <trkpt lat="47.63427" lon="7.3014">
        <ele>304</ele>
        <time>2022-08-20T17:16:51Z</time>
      </trkpt>
      <trkpt lat="47.6322" lon="7.29877">
        <ele>314</ele>
        <time>2022-08-20T17:20:30Z</time>
      </trkpt>
      <trkpt lat="47.63154" lon="7.29801">
        <ele>313</ele>
        <time>2022-08-20T17:21:37Z</time>
      </trkpt>
      <trkpt lat="47.62988" lon="7.29606">
        <ele>312</ele>
        <time>2022-08-20T17:24:26Z</time>
      </trkpt>
      <trkpt lat="47.62896" lon="7.29509">
        <ele>315</ele>
        <time>2022-08-20T17:25:56Z</time>
      </trkpt>
      <trkpt lat="47.62872" lon="7.2949">
        <ele>316</ele>
        <time>2022-08-20T17:26:18Z</time>
      </trkpt>
      <trkpt lat="47.62774" lon="7.29462">
        <ele>315</ele>
        <time>2022-08-20T17:27:38Z</time>
      </trkpt>
      <trkpt lat="47.62688" lon="7.29433">
        <ele>312</ele>
        <time>2022-08-20T17:28:49Z</time>
      </trkpt>
      <trkpt lat="47.62581" lon="7.29404">
        <ele>305</ele>
        <time>2022-08-20T17:30:16Z</time>
      </trkpt>
      <trkpt lat="47.62569" lon="7.29399">
        <ele>304</ele>
        <time>2022-08-20T17:30:26Z</time>
      </trkpt>
      <trkpt lat="47.62537" lon="7.29379">
        <ele>302</ele>
        <time>2022-08-20T17:30:54Z</time>
      </trkpt>
      <trkpt lat="47.62478" lon="7.29309">
        <ele>297</ele>
        <time>2022-08-20T17:31:54Z</time>
      </trkpt>
      <trkpt lat="47.62376" lon="7.29231">
        <ele>291</ele>
        <time>2022-08-20T17:33:26Z</time>
      </trkpt>
      <trkpt lat="47.62363" lon="7.29226">
        <ele>291</ele>
        <time>2022-08-20T17:33:37Z</time>
      </trkpt>
      <trkpt lat="47.62355" lon="7.29225">
        <ele>290</ele>
        <time>2022-08-20T17:33:43Z</time>
      </trkpt>
      <trkpt lat="47.623" lon="7.29227">
        <ele>289</ele>
        <time>2022-08-20T17:34:27Z</time>
      </trkpt>
      <trkpt lat="47.62284" lon="7.29227">
        <ele>289</ele>
        <time>2022-08-20T17:34:40Z</time>
      </trkpt>
      <trkpt lat="47.62161" lon="7.29232">
        <ele>289</ele>
        <time>2022-08-20T17:36:19Z</time>
      </trkpt>
      <trkpt lat="47.62161" lon="7.29242">
        <ele>289</ele>
        <time>2022-08-20T17:36:24Z</time>
      </trkpt>
      <trkpt lat="47.62148" lon="7.29241">
        <ele>289</ele>
        <time>2022-08-20T17:36:34Z</time>
      </trkpt>
      <trkpt lat="47.62161" lon="7.29242">
        <ele>289</ele>
        <time>2022-08-20T17:36:45Z</time>
      </trkpt>
      <trkpt lat="47.62156" lon="7.29279">
        <ele>290</ele>
        <time>2022-08-20T17:37:05Z</time>
      </trkpt>
      <trkpt lat="47.62149" lon="7.29309">
        <ele>291</ele>
        <time>2022-08-20T17:37:22Z</time>
      </trkpt>
      <trkpt lat="47.62122" lon="7.29417">
        <ele>292</ele>
        <time>2022-08-20T17:38:24Z</time>
      </trkpt>
      <trkpt lat="47.62107" lon="7.29465">
        <ele>292</ele>
        <time>2022-08-20T17:38:53Z</time>
      </trkpt>
      <trkpt lat="47.62088" lon="7.29501">
        <ele>293</ele>
        <time>2022-08-20T17:39:18Z</time>
      </trkpt>
      <trkpt lat="47.62014" lon="7.29601">
        <ele>292</ele>
        <time>2022-08-20T17:40:38Z</time>
      </trkpt>
      <trkpt lat="47.61993" lon="7.29623">
        <ele>292</ele>
        <time>2022-08-20T17:40:58Z</time>
      </trkpt>
      <trkpt lat="47.61978" lon="7.29643">
        <ele>294</ele>
        <time>2022-08-20T17:41:15Z</time>
      </trkpt>
      <trkpt lat="47.61965" lon="7.29667">
        <ele>295</ele>
        <time>2022-08-20T17:41:31Z</time>
      </trkpt>
      <trkpt lat="47.61913" lon="7.29743">
        <ele>296</ele>
        <time>2022-08-20T17:42:30Z</time>
      </trkpt>
      <trkpt lat="47.61905" lon="7.29764">
        <ele>296</ele>
        <time>2022-08-20T17:42:43Z</time>
      </trkpt>
      <trkpt lat="47.61904" lon="7.29788">
        <ele>296</ele>
        <time>2022-08-20T17:42:56Z</time>
      </trkpt>
      <trkpt lat="47.61905" lon="7.29802">
        <ele>296</ele>
        <time>2022-08-20T17:43:03Z</time>
      </trkpt>
      <trkpt lat="47.61908" lon="7.29815">
        <ele>295</ele>
        <time>2022-08-20T17:43:11Z</time>
      </trkpt>
      <trkpt lat="47.61899" lon="7.29824">
        <ele>295</ele>
        <time>2022-08-20T17:43:19Z</time>
      </trkpt>
      <trkpt lat="47.6189" lon="7.29863">
        <ele>294</ele>
        <time>2022-08-20T17:43:42Z</time>
      </trkpt>
      <trkpt lat="47.61887" lon="7.29869">
        <ele>294</ele>
        <time>2022-08-20T17:43:46Z</time>
      </trkpt>
      <trkpt lat="47.6188" lon="7.29874">
        <ele>294</ele>
        <time>2022-08-20T17:43:52Z</time>
      </trkpt>
      <trkpt lat="47.61871" lon="7.29874">
        <ele>294</ele>
        <time>2022-08-20T17:43:59Z</time>
      </trkpt>
      <trkpt lat="47.61826" lon="7.29853">
        <ele>296</ele>
        <time>2022-08-20T17:44:37Z</time>
      </trkpt>
      <trkpt lat="47.61797" lon="7.29843">
        <ele>297</ele>
        <time>2022-08-20T17:45:01Z</time>
      </trkpt>
      <trkpt lat="47.61782" lon="7.29842">
        <ele>297</ele>
        <time>2022-08-20T17:45:13Z</time>
      </trkpt>
      <trkpt lat="47.61769" lon="7.29848">
        <ele>297</ele>
        <time>2022-08-20T17:45:24Z</time>
      </trkpt>
      <trkpt lat="47.61757" lon="7.29866">
        <ele>298</ele>
        <time>2022-08-20T17:45:37Z</time>
      </trkpt>
      <trkpt lat="47.61709" lon="7.29958">
        <ele>298</ele>
        <time>2022-08-20T17:46:40Z</time>
      </trkpt>
      <trkpt lat="47.61647" lon="7.30065">
        <ele>298</ele>
        <time>2022-08-20T17:47:56Z</time>
      </trkpt>
      <trkpt lat="47.61614" lon="7.30124">
        <ele>300</ele>
        <time>2022-08-20T17:48:38Z</time>
      </trkpt>
      <trkpt lat="47.61579" lon="7.30213">
        <ele>301</ele>
        <time>2022-08-20T17:49:33Z</time>
      </trkpt>
      <trkpt lat="47.61548" lon="7.30281">
        <ele>300</ele>
        <time>2022-08-20T17:50:17Z</time>
      </trkpt>
      <trkpt lat="47.61517" lon="7.30345">
        <ele>299</ele>
        <time>2022-08-20T17:51:00Z</time>
      </trkpt>
      <trkpt lat="47.6148" lon="7.30413">
        <ele>299</ele>
        <time>2022-08-20T17:51:47Z</time>
      </trkpt>
      <trkpt lat="47.61451" lon="7.30454">
        <ele>301</ele>
        <time>2022-08-20T17:52:19Z</time>
      </trkpt>
      <trkpt lat="47.61432" lon="7.30476">
        <ele>303</ele>
        <time>2022-08-20T17:52:39Z</time>
      </trkpt>
      <trkpt lat="47.61419" lon="7.30499">
        <ele>304</ele>
        <time>2022-08-20T17:52:55Z</time>
      </trkpt>
      <trkpt lat="47.61412" lon="7.30523">
        <ele>305</ele>
        <time>2022-08-20T17:53:09Z</time>
      </trkpt>
      <trkpt lat="47.61404" lon="7.3056">
        <ele>306</ele>
        <time>2022-08-20T17:53:30Z</time>
      </trkpt>
      <trkpt lat="47.61387" lon="7.30618">
        <ele>306</ele>
        <time>2022-08-20T17:54:04Z</time>
      </trkpt>
      <trkpt lat="47.6137" lon="7.30667">
        <ele>304</ele>
        <time>2022-08-20T17:54:34Z</time>
      </trkpt>
      <trkpt lat="47.61335" lon="7.30741">
        <ele>302</ele>
        <time>2022-08-20T17:55:23Z</time>
      </trkpt>
      <trkpt lat="47.61314" lon="7.30773">
        <ele>302</ele>
        <time>2022-08-20T17:55:47Z</time>
      </trkpt>
      <trkpt lat="47.61285" lon="7.30805">
        <ele>302</ele>
        <time>2022-08-20T17:56:16Z</time>
      </trkpt>
      <trkpt lat="47.61255" lon="7.30831">
        <ele>301</ele>
        <time>2022-08-20T17:56:43Z</time>
      </trkpt>
      <trkpt lat="47.61166" lon="7.30891">
        <ele>304</ele>
        <time>2022-08-20T17:58:02Z</time>
      </trkpt>
      <trkpt lat="47.61123" lon="7.30925">
        <ele>304</ele>
        <time>2022-08-20T17:58:41Z</time>
      </trkpt>
      <trkpt lat="47.61089" lon="7.30957">
        <ele>304</ele>
        <time>2022-08-20T17:59:13Z</time>
      </trkpt>
      <trkpt lat="47.61061" lon="7.30991">
        <ele>305</ele>
        <time>2022-08-20T17:59:42Z</time>
      </trkpt>
      <trkpt lat="47.60986" lon="7.31109">
        <ele>305</ele>
        <time>2022-08-20T18:01:09Z</time>
      </trkpt>
      <trkpt lat="47.60927" lon="7.3119">
        <ele>306</ele>
        <time>2022-08-20T18:02:14Z</time>
      </trkpt>
      <trkpt lat="47.60797" lon="7.31365">
        <ele>308</ele>
        <time>2022-08-20T18:04:34Z</time>
      </trkpt>
      <trkpt lat="47.6076" lon="7.31433">
        <ele>310</ele>
        <time>2022-08-20T18:05:22Z</time>
      </trkpt>
      <trkpt lat="47.60743" lon="7.31475">
        <ele>310</ele>
        <time>2022-08-20T18:05:48Z</time>
      </trkpt>
      <trkpt lat="47.60732" lon="7.3152">
        <ele>311</ele>
        <time>2022-08-20T18:06:14Z</time>
      </trkpt>
      <trkpt lat="47.60726" lon="7.31568">
        <ele>312</ele>
        <time>2022-08-20T18:06:40Z</time>
      </trkpt>
      <trkpt lat="47.60724" lon="7.31614">
        <ele>312</ele>
        <time>2022-08-20T18:07:05Z</time>
      </trkpt>
      <trkpt lat="47.60724" lon="7.31648">
        <ele>311</ele>
        <time>2022-08-20T18:07:23Z</time>
      </trkpt>
      <trkpt lat="47.60721" lon="7.31682">
        <ele>311</ele>
        <time>2022-08-20T18:07:42Z</time>
      </trkpt>
      <trkpt lat="47.60704" lon="7.31763">
        <ele>310</ele>
        <time>2022-08-20T18:08:28Z</time>
      </trkpt>
      <trkpt lat="47.60687" lon="7.31828">
        <ele>310</ele>
        <time>2022-08-20T18:09:05Z</time>
      </trkpt>
      <trkpt lat="47.60671" lon="7.31867">
        <ele>310</ele>
        <time>2022-08-20T18:09:30Z</time>
      </trkpt>
      <trkpt lat="47.6066" lon="7.31889">
        <ele>311</ele>
        <time>2022-08-20T18:09:45Z</time>
      </trkpt>
      <trkpt lat="47.60564" lon="7.32025">
        <ele>315</ele>
        <time>2022-08-20T18:11:31Z</time>
      </trkpt>
      <trkpt lat="47.60549" lon="7.32056">
        <ele>315</ele>
        <time>2022-08-20T18:11:52Z</time>
      </trkpt>
      <trkpt lat="47.60512" lon="7.32196">
        <ele>316</ele>
        <time>2022-08-20T18:13:13Z</time>
      </trkpt>
      <trkpt lat="47.60475" lon="7.32321">
        <ele>313</ele>
        <time>2022-08-20T18:14:27Z</time>
      </trkpt>
      <trkpt lat="47.60466" lon="7.32365">
        <ele>313</ele>
        <time>2022-08-20T18:14:51Z</time>
      </trkpt>
      <trkpt lat="47.6046" lon="7.32437">
        <ele>314</ele>
        <time>2022-08-20T18:15:31Z</time>
      </trkpt>
      <trkpt lat="47.60458" lon="7.32501">
        <ele>314</ele>
        <time>2022-08-20T18:16:05Z</time>
      </trkpt>
      <trkpt lat="47.60455" lon="7.32552">
        <ele>314</ele>
        <time>2022-08-20T18:16:33Z</time>
      </trkpt>
      <trkpt lat="47.60446" lon="7.32594">
        <ele>315</ele>
        <time>2022-08-20T18:16:57Z</time>
      </trkpt>
      <trkpt lat="47.60426" lon="7.32661">
        <ele>318</ele>
        <time>2022-08-20T18:17:36Z</time>
      </trkpt>
      <trkpt lat="47.60412" lon="7.32695">
        <ele>319</ele>
        <time>2022-08-20T18:17:58Z</time>
      </trkpt>
      <trkpt lat="47.60314" lon="7.32902">
        <ele>319</ele>
        <time>2022-08-20T18:20:14Z</time>
      </trkpt>
      <trkpt lat="47.60302" lon="7.32935">
        <ele>320</ele>
        <time>2022-08-20T18:20:34Z</time>
      </trkpt>
      <trkpt lat="47.60291" lon="7.32982">
        <ele>321</ele>
        <time>2022-08-20T18:21:01Z</time>
      </trkpt>
      <trkpt lat="47.60288" lon="7.33026">
        <ele>322</ele>
        <time>2022-08-20T18:21:25Z</time>
      </trkpt>
      <trkpt lat="47.60281" lon="7.33123">
        <ele>324</ele>
        <time>2022-08-20T18:22:18Z</time>
      </trkpt>
      <trkpt lat="47.60042" lon="7.32985">
        <ele>340</ele>
        <time>2022-08-20T18:25:43Z</time>
      </trkpt>
      <trkpt lat="47.5997" lon="7.32949">
        <ele>343</ele>
        <time>2022-08-20T18:26:44Z</time>
      </trkpt>
      <trkpt lat="47.5993" lon="7.32928">
        <ele>344</ele>
        <time>2022-08-20T18:27:18Z</time>
      </trkpt>
      <trkpt lat="47.59888" lon="7.32894">
        <ele>345</ele>
        <time>2022-08-20T18:27:56Z</time>
      </trkpt>
      <trkpt lat="47.59845" lon="7.32852">
        <ele>347</ele>
        <time>2022-08-20T18:28:38Z</time>
      </trkpt>
      <trkpt lat="47.59761" lon="7.32759">
        <ele>351</ele>
        <time>2022-08-20T18:30:01Z</time>
      </trkpt>
      <trkpt lat="47.59736" lon="7.32735">
        <ele>352</ele>
        <time>2022-08-20T18:30:25Z</time>
      </trkpt>
      <trkpt lat="47.59706" lon="7.32712">
        <ele>353</ele>
        <time>2022-08-20T18:30:52Z</time>
      </trkpt>
      <trkpt lat="47.59581" lon="7.32644">
        <ele>359</ele>
        <time>2022-08-20T18:32:39Z</time>
      </trkpt>
      <trkpt lat="47.59465" lon="7.32562">
        <ele>366</ele>
        <time>2022-08-20T18:34:22Z</time>
      </trkpt>
      <trkpt lat="47.59434" lon="7.32543">
        <ele>368</ele>
        <time>2022-08-20T18:34:49Z</time>
      </trkpt>
      <trkpt lat="47.59394" lon="7.32532">
        <ele>371</ele>
        <time>2022-08-20T18:35:21Z</time>
      </trkpt>
      <trkpt lat="47.59364" lon="7.32527">
        <ele>374</ele>
        <time>2022-08-20T18:35:45Z</time>
      </trkpt>
      <trkpt lat="47.59348" lon="7.32528">
        <ele>375</ele>
        <time>2022-08-20T18:35:58Z</time>
      </trkpt>
      <trkpt lat="47.59312" lon="7.32538">
        <ele>376</ele>
        <time>2022-08-20T18:36:28Z</time>
      </trkpt>
      <trkpt lat="47.59255" lon="7.32567">
        <ele>378</ele>
        <time>2022-08-20T18:37:16Z</time>
      </trkpt>
      <trkpt lat="47.5916" lon="7.32633">
        <ele>382</ele>
        <time>2022-08-20T18:38:40Z</time>
      </trkpt>
      <trkpt lat="47.59147" lon="7.32637">
        <ele>383</ele>
        <time>2022-08-20T18:38:50Z</time>
      </trkpt>
      <trkpt lat="47.59139" lon="7.32637">
        <ele>383</ele>
        <time>2022-08-20T18:38:57Z</time>
      </trkpt>
      <trkpt lat="47.59123" lon="7.32631">
        <ele>385</ele>
        <time>2022-08-20T18:39:10Z</time>
      </trkpt>
      <trkpt lat="47.59015" lon="7.32573">
        <ele>393</ele>
        <time>2022-08-20T18:40:42Z</time>
      </trkpt>
      <trkpt lat="47.5891" lon="7.32511">
        <ele>397</ele>
        <time>2022-08-20T18:42:13Z</time>
      </trkpt>
      <trkpt lat="47.58863" lon="7.32491">
        <ele>396</ele>
        <time>2022-08-20T18:42:52Z</time>
      </trkpt>
      <trkpt lat="47.5884" lon="7.32476">
        <ele>396</ele>
        <time>2022-08-20T18:43:12Z</time>
      </trkpt>
      <trkpt lat="47.58816" lon="7.32456">
        <ele>394</ele>
        <time>2022-08-20T18:43:34Z</time>
      </trkpt>
      <trkpt lat="47.58805" lon="7.32444">
        <ele>393</ele>
        <time>2022-08-20T18:43:45Z</time>
      </trkpt>
      <trkpt lat="47.588" lon="7.32434">
        <ele>392</ele>
        <time>2022-08-20T18:43:52Z</time>
      </trkpt>
      <trkpt lat="47.58796" lon="7.32408">
        <ele>391</ele>
        <time>2022-08-20T18:44:06Z</time>
      </trkpt>
      <trkpt lat="47.58792" lon="7.3235">
        <ele>389</ele>
        <time>2022-08-20T18:44:37Z</time>
      </trkpt>
      <trkpt lat="47.58794" lon="7.32297">
        <ele>387</ele>
        <time>2022-08-20T18:45:06Z</time>
      </trkpt>
      <trkpt lat="47.58799" lon="7.3227">
        <ele>386</ele>
        <time>2022-08-20T18:45:21Z</time>
      </trkpt>
      <trkpt lat="47.58807" lon="7.3223">
        <ele>384</ele>
        <time>2022-08-20T18:45:44Z</time>
      </trkpt>
      <trkpt lat="47.58821" lon="7.32176">
        <ele>381</ele>
        <time>2022-08-20T18:46:15Z</time>
      </trkpt>
      <trkpt lat="47.58823" lon="7.32156">
        <ele>380</ele>
        <time>2022-08-20T18:46:26Z</time>
      </trkpt>
      <trkpt lat="47.58822" lon="7.32136">
        <ele>380</ele>
        <time>2022-08-20T18:46:37Z</time>
      </trkpt>
      <trkpt lat="47.58812" lon="7.32074">
        <ele>378</ele>
        <time>2022-08-20T18:47:11Z</time>
      </trkpt>
      <trkpt lat="47.58807" lon="7.32055">
        <ele>378</ele>
        <time>2022-08-20T18:47:22Z</time>
      </trkpt>
      <trkpt lat="47.588" lon="7.32037">
        <ele>378</ele>
        <time>2022-08-20T18:47:33Z</time>
      </trkpt>
      <trkpt lat="47.58796" lon="7.32032">
        <ele>378</ele>
        <time>2022-08-20T18:47:38Z</time>
      </trkpt>
      <trkpt lat="47.58781" lon="7.32023">
        <ele>378</ele>
        <time>2022-08-20T18:47:51Z</time>
      </trkpt>
      <trkpt lat="47.58773" lon="7.32021">
        <ele>378</ele>
        <time>2022-08-20T18:47:57Z</time>
      </trkpt>
      <trkpt lat="47.58766" lon="7.32022">
        <ele>378</ele>
        <time>2022-08-20T18:48:03Z</time>
      </trkpt>
      <trkpt lat="47.58757" lon="7.32028">
        <ele>379</ele>
        <time>2022-08-20T18:48:11Z</time>
      </trkpt>
      <trkpt lat="47.587" lon="7.3208">
        <ele>382</ele>
        <time>2022-08-20T18:49:04Z</time>
      </trkpt>
      <trkpt lat="47.58688" lon="7.32085">
        <ele>382</ele>
        <time>2022-08-20T18:49:14Z</time>
      </trkpt>
      <trkpt lat="47.58677" lon="7.32078">
        <ele>383</ele>
        <time>2022-08-20T18:49:24Z</time>
      </trkpt>
      <trkpt lat="47.58654" lon="7.3205">
        <ele>386</ele>
        <time>2022-08-20T18:49:48Z</time>
      </trkpt>
      <trkpt lat="47.58643" lon="7.32034">
        <ele>387</ele>
        <time>2022-08-20T18:50:00Z</time>
      </trkpt>
      <trkpt lat="47.58626" lon="7.32">
        <ele>389</ele>
        <time>2022-08-20T18:50:23Z</time>
      </trkpt>
      <trkpt lat="47.58591" lon="7.31945">
        <ele>393</ele>
        <time>2022-08-20T18:51:04Z</time>
      </trkpt>
      <trkpt lat="47.58494" lon="7.31852">
        <ele>401</ele>
        <time>2022-08-20T18:52:36Z</time>
      </trkpt>
      <trkpt lat="47.58366" lon="7.3169">
        <ele>406</ele>
        <time>2022-08-20T18:54:51Z</time>
      </trkpt>
      <trkpt lat="47.58341" lon="7.31665">
        <ele>407</ele>
        <time>2022-08-20T18:55:15Z</time>
      </trkpt>
      <trkpt lat="47.5822" lon="7.31622">
        <ele>404</ele>
        <time>2022-08-20T18:56:55Z</time>
      </trkpt>
      <trkpt lat="47.58154" lon="7.31586">
        <ele>402</ele>
        <time>2022-08-20T18:57:51Z</time>
      </trkpt>
      <trkpt lat="47.58141" lon="7.31581">
        <ele>402</ele>
        <time>2022-08-20T18:58:02Z</time>
      </trkpt>
      <trkpt lat="47.58131" lon="7.3158">
        <ele>402</ele>
        <time>2022-08-20T18:58:10Z</time>
      </trkpt>
      <trkpt lat="47.58119" lon="7.31583">
        <ele>401</ele>
        <time>2022-08-20T18:58:19Z</time>
      </trkpt>
      <trkpt lat="47.58074" lon="7.31604">
        <ele>402</ele>
        <time>2022-08-20T18:58:57Z</time>
      </trkpt>
      <trkpt lat="47.58057" lon="7.31609">
        <ele>402</ele>
        <time>2022-08-20T18:59:11Z</time>
      </trkpt>
      <trkpt lat="47.58048" lon="7.31608">
        <ele>402</ele>
        <time>2022-08-20T18:59:18Z</time>
      </trkpt>
      <trkpt lat="47.5804" lon="7.31603">
        <ele>402</ele>
        <time>2022-08-20T18:59:25Z</time>
      </trkpt>
      <trkpt lat="47.58025" lon="7.31589">
        <ele>402</ele>
        <time>2022-08-20T18:59:39Z</time>
      </trkpt>
      <trkpt lat="47.57865" lon="7.31399">
        <ele>409</ele>
        <time>2022-08-20T19:02:24Z</time>
      </trkpt>
      <trkpt lat="47.5784" lon="7.31377">
        <ele>410</ele>
        <time>2022-08-20T19:02:47Z</time>
      </trkpt>
      <trkpt lat="47.57821" lon="7.31369">
        <ele>410</ele>
        <time>2022-08-20T19:03:03Z</time>
      </trkpt>
      <trkpt lat="47.57775" lon="7.3136">
        <ele>409</ele>
        <time>2022-08-20T19:03:40Z</time>
      </trkpt>
      <trkpt lat="47.57758" lon="7.31361">
        <ele>409</ele>
        <time>2022-08-20T19:03:53Z</time>
      </trkpt>
      <trkpt lat="47.57675" lon="7.31381">
        <ele>410</ele>
        <time>2022-08-20T19:05:01Z</time>
      </trkpt>
      <trkpt lat="47.57656" lon="7.31382">
        <ele>411</ele>
        <time>2022-08-20T19:05:16Z</time>
      </trkpt>
      <trkpt lat="47.57641" lon="7.31378">
        <ele>411</ele>
        <time>2022-08-20T19:05:28Z</time>
      </trkpt>
      <trkpt lat="47.57623" lon="7.31368">
        <ele>411</ele>
        <time>2022-08-20T19:05:44Z</time>
      </trkpt>
      <trkpt lat="47.57609" lon="7.31355">
        <ele>412</ele>
        <time>2022-08-20T19:05:57Z</time>
      </trkpt>
      <trkpt lat="47.57568" lon="7.31306">
        <ele>413</ele>
        <time>2022-08-20T19:06:39Z</time>
      </trkpt>
      <trkpt lat="47.57555" lon="7.31296">
        <ele>413</ele>
        <time>2022-08-20T19:06:51Z</time>
      </trkpt>
      <trkpt lat="47.57508" lon="7.31269">
        <ele>413</ele>
        <time>2022-08-20T19:07:31Z</time>
      </trkpt>
      <trkpt lat="47.5748" lon="7.31256">
        <ele>413</ele>
        <time>2022-08-20T19:07:55Z</time>
      </trkpt>
      <trkpt lat="47.57453" lon="7.31251">
        <ele>414</ele>
        <time>2022-08-20T19:08:16Z</time>
      </trkpt>
      <trkpt lat="47.57426" lon="7.31252">
        <ele>414</ele>
        <time>2022-08-20T19:08:38Z</time>
      </trkpt>
      <trkpt lat="47.57369" lon="7.31265">
        <ele>412</ele>
        <time>2022-08-20T19:09:24Z</time>
      </trkpt>
      <trkpt lat="47.57326" lon="7.31269">
        <ele>411</ele>
        <time>2022-08-20T19:09:59Z</time>
      </trkpt>
      <trkpt lat="47.57302" lon="7.31266">
        <ele>409</ele>
        <time>2022-08-20T19:10:18Z</time>
      </trkpt>
      <trkpt lat="47.57284" lon="7.31259">
        <ele>408</ele>
        <time>2022-08-20T19:10:33Z</time>
      </trkpt>
      <trkpt lat="47.57267" lon="7.31248">
        <ele>406</ele>
        <time>2022-08-20T19:10:48Z</time>
      </trkpt>
      <trkpt lat="47.57158" lon="7.31141">
        <ele>398</ele>
        <time>2022-08-20T19:12:32Z</time>
      </trkpt>
      <trkpt lat="47.57093" lon="7.31071">
        <ele>391</ele>
        <time>2022-08-20T19:13:37Z</time>
      </trkpt>
      <trkpt lat="47.56981" lon="7.30897">
        <ele>378</ele>
        <time>2022-08-20T19:15:47Z</time>
      </trkpt>
      <trkpt lat="47.56968" lon="7.30881">
        <ele>377</ele>
        <time>2022-08-20T19:16:00Z</time>
      </trkpt>
      <trkpt lat="47.5691" lon="7.30824">
        <ele>374</ele>
        <time>2022-08-20T19:16:56Z</time>
      </trkpt>
      <trkpt lat="47.56887" lon="7.30795">
        <ele>371</ele>
        <time>2022-08-20T19:17:20Z</time>
      </trkpt>
      <trkpt lat="47.56851" lon="7.30742">
        <ele>367</ele>
        <time>2022-08-20T19:18:01Z</time>
      </trkpt>
      <trkpt lat="47.56817" lon="7.30705">
        <ele>365</ele>
        <time>2022-08-20T19:18:34Z</time>
      </trkpt>
      <trkpt lat="47.56732" lon="7.30629">
        <ele>361</ele>
        <time>2022-08-20T19:19:54Z</time>
      </trkpt>
      <trkpt lat="47.56679" lon="7.30565">
        <ele>357</ele>
        <time>2022-08-20T19:20:49Z</time>
      </trkpt>
      <trkpt lat="47.56582" lon="7.30437">
        <ele>353</ele>
        <time>2022-08-20T19:22:33Z</time>
      </trkpt>
      <trkpt lat="47.56559" lon="7.30401">
        <ele>351</ele>
        <time>2022-08-20T19:22:59Z</time>
      </trkpt>
      <trkpt lat="47.56522" lon="7.30327">
        <ele>348</ele>
        <time>2022-08-20T19:23:49Z</time>
      </trkpt>
      <trkpt lat="47.56507" lon="7.30303">
        <ele>347</ele>
        <time>2022-08-20T19:24:07Z</time>
      </trkpt>
      <trkpt lat="47.56425" lon="7.30215">
        <ele>343</ele>
        <time>2022-08-20T19:25:28Z</time>
      </trkpt>
      <trkpt lat="47.56406" lon="7.30187">
        <ele>341</ele>
        <time>2022-08-20T19:25:49Z</time>
      </trkpt>
      <trkpt lat="47.56395" lon="7.30166">
        <ele>341</ele>
        <time>2022-08-20T19:26:04Z</time>
      </trkpt>
      <trkpt lat="47.56383" lon="7.30107">
        <ele>340</ele>
        <time>2022-08-20T19:26:37Z</time>
      </trkpt>
      <trkpt lat="47.56373" lon="7.30078">
        <ele>340</ele>
        <time>2022-08-20T19:26:55Z</time>
      </trkpt>
      <trkpt lat="47.5637" lon="7.30053">
        <ele>339</ele>
        <time>2022-08-20T19:27:08Z</time>
      </trkpt>
      <trkpt lat="47.56365" lon="7.30046">
        <ele>339</ele>
        <time>2022-08-20T19:27:14Z</time>
      </trkpt>
      <trkpt lat="47.56345" lon="7.3008">
        <ele>339</ele>
        <time>2022-08-20T19:27:38Z</time>
      </trkpt>
      <trkpt lat="47.56305" lon="7.30131">
        <ele>339</ele>
        <time>2022-08-20T19:28:20Z</time>
      </trkpt>
      <trkpt lat="47.56238" lon="7.30231">
        <ele>340</ele>
        <time>2022-08-20T19:29:37Z</time>
      </trkpt>
      <trkpt lat="47.56193" lon="7.30285">
        <ele>341</ele>
        <time>2022-08-20T19:30:23Z</time>
      </trkpt>
      <trkpt lat="47.5615" lon="7.3034">
        <ele>341</ele>
        <time>2022-08-20T19:31:08Z</time>
      </trkpt>
      <trkpt lat="47.56002" lon="7.30553">
        <ele>341</ele>
        <time>2022-08-20T19:33:54Z</time>
      </trkpt>
      <trkpt lat="47.55967" lon="7.30599">
        <ele>342</ele>
        <time>2022-08-20T19:34:31Z</time>
      </trkpt>
      <trkpt lat="47.55946" lon="7.30621">
        <ele>342</ele>
        <time>2022-08-20T19:34:52Z</time>
      </trkpt>
      <trkpt lat="47.55892" lon="7.30496">
        <ele>338</ele>
        <time>2022-08-20T19:36:12Z</time>
      </trkpt>
      <trkpt lat="47.55878" lon="7.30457">
        <ele>338</ele>
        <time>2022-08-20T19:36:36Z</time>
      </trkpt>
      <trkpt lat="47.5587" lon="7.30432">
        <ele>339</ele>
        <time>2022-08-20T19:36:51Z</time>
      </trkpt>
      <trkpt lat="47.55863" lon="7.30405">
        <ele>339</ele>
        <time>2022-08-20T19:37:06Z</time>
      </trkpt>
      <trkpt lat="47.55844" lon="7.30334">
        <ele>341</ele>
        <time>2022-08-20T19:37:48Z</time>
      </trkpt>
      <trkpt lat="47.55833" lon="7.30301">
        <ele>340</ele>
        <time>2022-08-20T19:38:07Z</time>
      </trkpt>
      <trkpt lat="47.55818" lon="7.30268">
        <ele>339</ele>
        <time>2022-08-20T19:38:29Z</time>
      </trkpt>
      <trkpt lat="47.5576" lon="7.30168">
        <ele>339</ele>
        <time>2022-08-20T19:39:40Z</time>
      </trkpt>
      <trkpt lat="47.5575" lon="7.30144">
        <ele>340</ele>
        <time>2022-08-20T19:39:55Z</time>
      </trkpt>
      <trkpt lat="47.55725" lon="7.30074">
        <ele>342</ele>
        <time>2022-08-20T19:40:38Z</time>
      </trkpt>
      <trkpt lat="47.55712" lon="7.30049">
        <ele>343</ele>
        <time>2022-08-20T19:40:55Z</time>
      </trkpt>
      <trkpt lat="47.55694" lon="7.30027">
        <ele>343</ele>
        <time>2022-08-20T19:41:14Z</time>
      </trkpt>
      <trkpt lat="47.55623" lon="7.29974">
        <ele>345</ele>
        <time>2022-08-20T19:42:18Z</time>
      </trkpt>
      <trkpt lat="47.55531" lon="7.29898">
        <ele>348</ele>
        <time>2022-08-20T19:43:42Z</time>
      </trkpt>
      <trkpt lat="47.55421" lon="7.29832">
        <ele>349</ele>
        <time>2022-08-20T19:45:17Z</time>
      </trkpt>
      <trkpt lat="47.55384" lon="7.29815">
        <ele>351</ele>
        <time>2022-08-20T19:45:48Z</time>
      </trkpt>
      <trkpt lat="47.55256" lon="7.2977">
        <ele>356</ele>
        <time>2022-08-20T19:47:33Z</time>
      </trkpt>
      <trkpt lat="47.55215" lon="7.2975">
        <ele>357</ele>
        <time>2022-08-20T19:48:08Z</time>
      </trkpt>
      <trkpt lat="47.55054" lon="7.29658">
        <ele>363</ele>
        <time>2022-08-20T19:50:26Z</time>
      </trkpt>
      <trkpt lat="47.55013" lon="7.29641">
        <ele>365</ele>
        <time>2022-08-20T19:51:00Z</time>
      </trkpt>
      <trkpt lat="47.54866" lon="7.29589">
        <ele>374</ele>
        <time>2022-08-20T19:53:01Z</time>
      </trkpt>
      <trkpt lat="47.54813" lon="7.29572">
        <ele>381</ele>
        <time>2022-08-20T19:53:45Z</time>
      </trkpt>
      <trkpt lat="47.54717" lon="7.29547">
        <ele>397</ele>
        <time>2022-08-20T19:55:03Z</time>
      </trkpt>
      <trkpt lat="47.54609" lon="7.29538">
        <ele>406</ele>
        <time>2022-08-20T19:56:29Z</time>
      </trkpt>
      <trkpt lat="47.54597" lon="7.29545">
        <ele>406</ele>
        <time>2022-08-20T19:56:40Z</time>
      </trkpt>
      <trkpt lat="47.54587" lon="7.29527">
        <ele>407</ele>
        <time>2022-08-20T19:56:52Z</time>
      </trkpt>
      <trkpt lat="47.5457" lon="7.29507">
        <ele>409</ele>
        <time>2022-08-20T19:57:10Z</time>
      </trkpt>
      <trkpt lat="47.54499" lon="7.29444">
        <ele>413</ele>
        <time>2022-08-20T19:58:16Z</time>
      </trkpt>
      <trkpt lat="47.54458" lon="7.29404">
        <ele>410</ele>
        <time>2022-08-20T19:58:55Z</time>
      </trkpt>
      <trkpt lat="47.54425" lon="7.29366">
        <ele>409</ele>
        <time>2022-08-20T19:59:29Z</time>
      </trkpt>
      <trkpt lat="47.54369" lon="7.29282">
        <ele>407</ele>
        <time>2022-08-20T20:00:32Z</time>
      </trkpt>
      <trkpt lat="47.54324" lon="7.29223">
        <ele>402</ele>
        <time>2022-08-20T20:01:21Z</time>
      </trkpt>
      <trkpt lat="47.54283" lon="7.29185">
        <ele>399</ele>
        <time>2022-08-20T20:01:59Z</time>
      </trkpt>
      <trkpt lat="47.54239" lon="7.29153">
        <ele>398</ele>
        <time>2022-08-20T20:02:38Z</time>
      </trkpt>
      <trkpt lat="47.54224" lon="7.2914">
        <ele>398</ele>
        <time>2022-08-20T20:02:52Z</time>
      </trkpt>
      <trkpt lat="47.54212" lon="7.29124">
        <ele>397</ele>
        <time>2022-08-20T20:03:05Z</time>
      </trkpt>
      <trkpt lat="47.54203" lon="7.29109">
        <ele>396</ele>
        <time>2022-08-20T20:03:16Z</time>
      </trkpt>
      <trkpt lat="47.54196" lon="7.29093">
        <ele>395</ele>
        <time>2022-08-20T20:03:26Z</time>
      </trkpt>
      <trkpt lat="47.54175" lon="7.28983">
        <ele>388</ele>
        <time>2022-08-20T20:04:28Z</time>
      </trkpt>
      <trkpt lat="47.54171" lon="7.28954">
        <ele>387</ele>
        <time>2022-08-20T20:04:44Z</time>
      </trkpt>
      <trkpt lat="47.54172" lon="7.2893">
        <ele>386</ele>
        <time>2022-08-20T20:04:57Z</time>
      </trkpt>
      <trkpt lat="47.54183" lon="7.28892">
        <ele>387</ele>
        <time>2022-08-20T20:05:20Z</time>
      </trkpt>
      <trkpt lat="47.54188" lon="7.28866">
        <ele>388</ele>
        <time>2022-08-20T20:05:34Z</time>
      </trkpt>
      <trkpt lat="47.54189" lon="7.28805">
        <ele>392</ele>
        <time>2022-08-20T20:06:07Z</time>
      </trkpt>
      <trkpt lat="47.5418" lon="7.28712">
        <ele>398</ele>
        <time>2022-08-20T20:06:58Z</time>
      </trkpt>
      <trkpt lat="47.54177" lon="7.28698">
        <ele>399</ele>
        <time>2022-08-20T20:07:06Z</time>
      </trkpt>
      <trkpt lat="47.54174" lon="7.28693">
        <ele>399</ele>
        <time>2022-08-20T20:07:10Z</time>
      </trkpt>
      <trkpt lat="47.54167" lon="7.28689">
        <ele>399</ele>
        <time>2022-08-20T20:07:16Z</time>
      </trkpt>
      <trkpt lat="47.54139" lon="7.28681">
        <ele>401</ele>
        <time>2022-08-20T20:07:38Z</time>
      </trkpt>
      <trkpt lat="47.54135" lon="7.28673">
        <ele>401</ele>
        <time>2022-08-20T20:07:44Z</time>
      </trkpt>
      <trkpt lat="47.54132" lon="7.28646">
        <ele>403</ele>
        <time>2022-08-20T20:07:59Z</time>
      </trkpt>
      <trkpt lat="47.54126" lon="7.28573">
        <ele>407</ele>
        <time>2022-08-20T20:08:38Z</time>
      </trkpt>
      <trkpt lat="47.54115" lon="7.28521">
        <ele>409</ele>
        <time>2022-08-20T20:09:08Z</time>
      </trkpt>
      <trkpt lat="47.54106" lon="7.28492">
        <ele>411</ele>
        <time>2022-08-20T20:09:25Z</time>
      </trkpt>
      <trkpt lat="47.54071" lon="7.28405">
        <ele>414</ele>
        <time>2022-08-20T20:10:20Z</time>
      </trkpt>
      <trkpt lat="47.54038" lon="7.28332">
        <ele>417</ele>
        <time>2022-08-20T20:11:07Z</time>
      </trkpt>
      <trkpt lat="47.54017" lon="7.28235">
        <ele>418</ele>
        <time>2022-08-20T20:12:02Z</time>
      </trkpt>
      <trkpt lat="47.5401" lon="7.28182">
        <ele>419</ele>
        <time>2022-08-20T20:12:31Z</time>
      </trkpt>
      <trkpt lat="47.53993" lon="7.27986">
        <ele>422</ele>
        <time>2022-08-20T20:14:18Z</time>
      </trkpt>
      <trkpt lat="47.53982" lon="7.27924">
        <ele>424</ele>
        <time>2022-08-20T20:14:53Z</time>
      </trkpt>
      <trkpt lat="47.53962" lon="7.27848">
        <ele>424</ele>
        <time>2022-08-20T20:15:37Z</time>
      </trkpt>
      <trkpt lat="47.53927" lon="7.27729">
        <ele>427</ele>
        <time>2022-08-20T20:16:47Z</time>
      </trkpt>
      <trkpt lat="47.53862" lon="7.27524">
        <ele>427</ele>
        <time>2022-08-20T20:18:50Z</time>
      </trkpt>
      <trkpt lat="47.53825" lon="7.27372">
        <ele>427</ele>
        <time>2022-08-20T20:20:17Z</time>
      </trkpt>
      <trkpt lat="47.53804" lon="7.27297">
        <ele>426</ele>
        <time>2022-08-20T20:21:01Z</time>
      </trkpt>
      <trkpt lat="47.53724" lon="7.27067">
        <ele>423</ele>
        <time>2022-08-20T20:23:21Z</time>
      </trkpt>
      <trkpt lat="47.53697" lon="7.26997">
        <ele>421</ele>
        <time>2022-08-20T20:24:04Z</time>
      </trkpt>
      <trkpt lat="47.53657" lon="7.26889">
        <ele>418</ele>
        <time>2022-08-20T20:25:11Z</time>
      </trkpt>
      <trkpt lat="47.53643" lon="7.26836">
        <ele>416</ele>
        <time>2022-08-20T20:25:42Z</time>
      </trkpt>
      <trkpt lat="47.5363" lon="7.26763">
        <ele>412</ele>
        <time>2022-08-20T20:26:22Z</time>
      </trkpt>
      <trkpt lat="47.53629" lon="7.26744">
        <ele>412</ele>
        <time>2022-08-20T20:26:33Z</time>
      </trkpt>
      <trkpt lat="47.53631" lon="7.26726">
        <ele>411</ele>
        <time>2022-08-20T20:26:43Z</time>
      </trkpt>
      <trkpt lat="47.53638" lon="7.26692">
        <ele>410</ele>
        <time>2022-08-20T20:27:02Z</time>
      </trkpt>
      <trkpt lat="47.5364" lon="7.26673">
        <ele>410</ele>
        <time>2022-08-20T20:27:12Z</time>
      </trkpt>
      <trkpt lat="47.53634" lon="7.26643">
        <ele>408</ele>
        <time>2022-08-20T20:27:29Z</time>
      </trkpt>
      <trkpt lat="47.53621" lon="7.26607">
        <ele>407</ele>
        <time>2022-08-20T20:27:51Z</time>
      </trkpt>
      <trkpt lat="47.53617" lon="7.26595">
        <ele>407</ele>
        <time>2022-08-20T20:27:58Z</time>
      </trkpt>
      <trkpt lat="47.53597" lon="7.26531">
        <ele>406</ele>
        <time>2022-08-20T20:28:37Z</time>
      </trkpt>
      <trkpt lat="47.5359" lon="7.26517">
        <ele>406</ele>
        <time>2022-08-20T20:28:46Z</time>
      </trkpt>
      <trkpt lat="47.53594" lon="7.26511">
        <ele>406</ele>
        <time>2022-08-20T20:28:51Z</time>
      </trkpt>
      <trkpt lat="47.53594" lon="7.26499">
        <ele>406</ele>
        <time>2022-08-20T20:28:57Z</time>
      </trkpt>
      <trkpt lat="47.5359" lon="7.26494">
        <ele>406</ele>
        <time>2022-08-20T20:29:01Z</time>
      </trkpt>
      <trkpt lat="47.53582" lon="7.26495">
        <ele>406</ele>
        <time>2022-08-20T20:29:08Z</time>
      </trkpt>
      <trkpt lat="47.53529" lon="7.26336">
        <ele>411</ele>
        <time>2022-08-20T20:30:43Z</time>
      </trkpt>
      <trkpt lat="47.53525" lon="7.26312">
        <ele>413</ele>
        <time>2022-08-20T20:30:57Z</time>
      </trkpt>
      <trkpt lat="47.53524" lon="7.26289">
        <ele>414</ele>
        <time>2022-08-20T20:31:09Z</time>
      </trkpt>
      <trkpt lat="47.53537" lon="7.26111">
        <ele>419</ele>
        <time>2022-08-20T20:32:46Z</time>
      </trkpt>
      <trkpt lat="47.53537" lon="7.26092">
        <ele>420</ele>
        <time>2022-08-20T20:32:56Z</time>
      </trkpt>
      <trkpt lat="47.53527" lon="7.25964">
        <ele>422</ele>
        <time>2022-08-20T20:34:06Z</time>
      </trkpt>
      <trkpt lat="47.53527" lon="7.25831">
        <ele>424</ele>
        <time>2022-08-20T20:35:18Z</time>
      </trkpt>
      <trkpt lat="47.53524" lon="7.25809">
        <ele>423</ele>
        <time>2022-08-20T20:35:30Z</time>
      </trkpt>
      <trkpt lat="47.5352" lon="7.258">
        <ele>423</ele>
        <time>2022-08-20T20:35:36Z</time>
      </trkpt>
      <trkpt lat="47.53525" lon="7.25792">
        <ele>423</ele>
        <time>2022-08-20T20:35:42Z</time>
      </trkpt>
      <trkpt lat="47.53529" lon="7.25779">
        <ele>422</ele>
        <time>2022-08-20T20:35:49Z</time>
      </trkpt>
      <trkpt lat="47.5353" lon="7.25762">
        <ele>421</ele>
        <time>2022-08-20T20:35:59Z</time>
      </trkpt>
      <trkpt lat="47.53529" lon="7.25753">
        <ele>421</ele>
        <time>2022-08-20T20:36:04Z</time>
      </trkpt>
      <trkpt lat="47.53529" lon="7.25693">
        <ele>419</ele>
        <time>2022-08-20T20:36:36Z</time>
      </trkpt>
      <trkpt lat="47.53533" lon="7.25595">
        <ele>417</ele>
        <time>2022-08-20T20:37:29Z</time>
      </trkpt>
      <trkpt lat="47.53547" lon="7.25386">
        <ele>415</ele>
        <time>2022-08-20T20:39:23Z</time>
      </trkpt>
      <trkpt lat="47.53548" lon="7.25344">
        <ele>416</ele>
        <time>2022-08-20T20:39:45Z</time>
      </trkpt>
      <trkpt lat="47.53545" lon="7.25303">
        <ele>417</ele>
        <time>2022-08-20T20:40:08Z</time>
      </trkpt>
      <trkpt lat="47.53541" lon="7.25275">
        <ele>418</ele>
        <time>2022-08-20T20:40:23Z</time>
      </trkpt>
      <trkpt lat="47.53534" lon="7.25248">
        <ele>419</ele>
        <time>2022-08-20T20:40:39Z</time>
      </trkpt>
      <trkpt lat="47.53495" lon="7.25116">
        <ele>423</ele>
        <time>2022-08-20T20:41:57Z</time>
      </trkpt>
      <trkpt lat="47.53479" lon="7.25049">
        <ele>425</ele>
        <time>2022-08-20T20:42:35Z</time>
      </trkpt>
      <trkpt lat="47.53463" lon="7.24953">
        <ele>427</ele>
        <time>2022-08-20T20:43:29Z</time>
      </trkpt>
      <trkpt lat="47.53426" lon="7.24754">
        <ele>429</ele>
        <time>2022-08-20T20:45:20Z</time>
      </trkpt>
      <trkpt lat="47.5338" lon="7.24542">
        <ele>421</ele>
        <time>2022-08-20T20:47:21Z</time>
      </trkpt>
      <trkpt lat="47.53364" lon="7.24402">
        <ele>424</ele>
        <time>2022-08-20T20:48:37Z</time>
      </trkpt>
      <trkpt lat="47.53346" lon="7.24314">
        <ele>427</ele>
        <time>2022-08-20T20:49:27Z</time>
      </trkpt>
      <trkpt lat="47.53319" lon="7.2421">
        <ele>428</ele>
        <time>2022-08-20T20:50:27Z</time>
      </trkpt>
      <trkpt lat="47.53278" lon="7.24066">
        <ele>428</ele>
        <time>2022-08-20T20:51:52Z</time>
      </trkpt>
      <trkpt lat="47.53263" lon="7.24">
        <ele>429</ele>
        <time>2022-08-20T20:52:29Z</time>
      </trkpt>
      <trkpt lat="47.53244" lon="7.23907">
        <ele>431</ele>
        <time>2022-08-20T20:53:22Z</time>
      </trkpt>
      <trkpt lat="47.5324" lon="7.23877">
        <ele>431</ele>
        <time>2022-08-20T20:53:38Z</time>
      </trkpt>
      <trkpt lat="47.53239" lon="7.23845">
        <ele>430</ele>
        <time>2022-08-20T20:53:56Z</time>
      </trkpt>
      <trkpt lat="47.53243" lon="7.23761">
        <ele>431</ele>
        <time>2022-08-20T20:54:41Z</time>
      </trkpt>
      <trkpt lat="47.53256" lon="7.23647">
        <ele>431</ele>
        <time>2022-08-20T20:55:44Z</time>
      </trkpt>
      <trkpt lat="47.53296" lon="7.23465">
        <ele>425</ele>
        <time>2022-08-20T20:57:27Z</time>
      </trkpt>
      <trkpt lat="47.53314" lon="7.23339">
        <ele>424</ele>
        <time>2022-08-20T20:58:37Z</time>
      </trkpt>
      <trkpt lat="47.53327" lon="7.23268">
        <ele>425</ele>
        <time>2022-08-20T20:59:17Z</time>
      </trkpt>
      <trkpt lat="47.53358" lon="7.23121">
        <ele>423</ele>
        <time>2022-08-20T21:00:40Z</time>
      </trkpt>
      <trkpt lat="47.53372" lon="7.23064">
        <ele>423</ele>
        <time>2022-08-20T21:01:13Z</time>
      </trkpt>
      <trkpt lat="47.5338" lon="7.23039">
        <ele>423</ele>
        <time>2022-08-20T21:01:28Z</time>
      </trkpt>
      <trkpt lat="47.53419" lon="7.22928">
        <ele>423</ele>
        <time>2022-08-20T21:02:35Z</time>
      </trkpt>
      <trkpt lat="47.5343" lon="7.22885">
        <ele>422</ele>
        <time>2022-08-20T21:03:00Z</time>
      </trkpt>
      <trkpt lat="47.53435" lon="7.22854">
        <ele>422</ele>
        <time>2022-08-20T21:03:17Z</time>
      </trkpt>
      <trkpt lat="47.53437" lon="7.2282">
        <ele>421</ele>
        <time>2022-08-20T21:03:36Z</time>
      </trkpt>
      <trkpt lat="47.53437" lon="7.22735">
        <ele>420</ele>
        <time>2022-08-20T21:04:22Z</time>
      </trkpt>
      <trkpt lat="47.53425" lon="7.22373">
        <ele>414</ele>
        <time>2022-08-20T21:07:38Z</time>
      </trkpt>
      <trkpt lat="47.53426" lon="7.22318">
        <ele>413</ele>
        <time>2022-08-20T21:08:07Z</time>
      </trkpt>
      <trkpt lat="47.53429" lon="7.22295">
        <ele>413</ele>
        <time>2022-08-20T21:08:20Z</time>
      </trkpt>
      <trkpt lat="47.53461" lon="7.22178">
        <ele>410</ele>
        <time>2022-08-20T21:09:28Z</time>
      </trkpt>
      <trkpt lat="47.5347" lon="7.22136">
        <ele>409</ele>
        <time>2022-08-20T21:09:52Z</time>
      </trkpt>
      <trkpt lat="47.53475" lon="7.22089">
        <ele>408</ele>
        <time>2022-08-20T21:10:18Z</time>
      </trkpt>
      <trkpt lat="47.53475" lon="7.22074">
        <ele>407</ele>
        <time>2022-08-20T21:10:26Z</time>
      </trkpt>
      <trkpt lat="47.53471" lon="7.22055">
        <ele>407</ele>
        <time>2022-08-20T21:10:37Z</time>
      </trkpt>
      <trkpt lat="47.53467" lon="7.22047">
        <ele>407</ele>
        <time>2022-08-20T21:10:42Z</time>
      </trkpt>
      <trkpt lat="47.53462" lon="7.22039">
        <ele>407</ele>
        <time>2022-08-20T21:10:48Z</time>
      </trkpt>
      <trkpt lat="47.53453" lon="7.2202">
        <ele>406</ele>
        <time>2022-08-20T21:11:01Z</time>
      </trkpt>
      <trkpt lat="47.53451" lon="7.22009">
        <ele>406</ele>
        <time>2022-08-20T21:11:07Z</time>
      </trkpt>
      <trkpt lat="47.53454" lon="7.21993">
        <ele>406</ele>
        <time>2022-08-20T21:11:16Z</time>
      </trkpt>
      <trkpt lat="47.53472" lon="7.21952">
        <ele>407</ele>
        <time>2022-08-20T21:11:42Z</time>
      </trkpt>
      <trkpt lat="47.53575" lon="7.21694">
        <ele>407</ele>
        <time>2022-08-20T21:14:24Z</time>
      </trkpt>
      <trkpt lat="47.5359" lon="7.21652">
        <ele>407</ele>
        <time>2022-08-20T21:14:50Z</time>
      </trkpt>
      <trkpt lat="47.53601" lon="7.21611">
        <ele>408</ele>
        <time>2022-08-20T21:15:14Z</time>
      </trkpt>
      <trkpt lat="47.53605" lon="7.21592">
        <ele>409</ele>
        <time>2022-08-20T21:15:24Z</time>
      </trkpt>
      <trkpt lat="47.53605" lon="7.21573">
        <ele>409</ele>
        <time>2022-08-20T21:15:35Z</time>
      </trkpt>
      <trkpt lat="47.53601" lon="7.21535">
        <ele>409</ele>
        <time>2022-08-20T21:15:55Z</time>
      </trkpt>
      <trkpt lat="47.53596" lon="7.21517">
        <ele>409</ele>
        <time>2022-08-20T21:16:06Z</time>
      </trkpt>
      <trkpt lat="47.53588" lon="7.21503">
        <ele>409</ele>
        <time>2022-08-20T21:16:16Z</time>
      </trkpt>
      <trkpt lat="47.53579" lon="7.21492">
        <ele>409</ele>
        <time>2022-08-20T21:16:25Z</time>
      </trkpt>
      <trkpt lat="47.53527" lon="7.2145">
        <ele>411</ele>
        <time>2022-08-20T21:17:13Z</time>
      </trkpt>
      <trkpt lat="47.53509" lon="7.2143">
        <ele>411</ele>
        <time>2022-08-20T21:17:31Z</time>
      </trkpt>
      <trkpt lat="47.53499" lon="7.21412">
        <ele>411</ele>
        <time>2022-08-20T21:17:43Z</time>
      </trkpt>
      <trkpt lat="47.53496" lon="7.21393">
        <ele>411</ele>
        <time>2022-08-20T21:17:54Z</time>
      </trkpt>
      <trkpt lat="47.53495" lon="7.21359">
        <ele>411</ele>
        <time>2022-08-20T21:18:12Z</time>
      </trkpt>
      <trkpt lat="47.53498" lon="7.21305">
        <ele>411</ele>
        <time>2022-08-20T21:18:42Z</time>
      </trkpt>
      <trkpt lat="47.53502" lon="7.21276">
        <ele>410</ele>
        <time>2022-08-20T21:18:58Z</time>
      </trkpt>
      <trkpt lat="47.53527" lon="7.21128">
        <ele>413</ele>
        <time>2022-08-20T21:20:20Z</time>
      </trkpt>
      <trkpt lat="47.53533" lon="7.21087">
        <ele>413</ele>
        <time>2022-08-20T21:20:43Z</time>
      </trkpt>
      <trkpt lat="47.53536" lon="7.21057">
        <ele>414</ele>
        <time>2022-08-20T21:20:59Z</time>
      </trkpt>
      <trkpt lat="47.53534" lon="7.21011">
        <ele>414</ele>
        <time>2022-08-20T21:21:24Z</time>
      </trkpt>
      <trkpt lat="47.53529" lon="7.20946">
        <ele>415</ele>
        <time>2022-08-20T21:21:59Z</time>
      </trkpt>
      <trkpt lat="47.53519" lon="7.20882">
        <ele>415</ele>
        <time>2022-08-20T21:22:35Z</time>
      </trkpt>
      <trkpt lat="47.535" lon="7.20774">
        <ele>416</ele>
        <time>2022-08-20T21:23:35Z</time>
      </trkpt>
      <trkpt lat="47.53497" lon="7.20749">
        <ele>416</ele>
        <time>2022-08-20T21:23:49Z</time>
      </trkpt>
      <trkpt lat="47.53495" lon="7.20723">
        <ele>417</ele>
        <time>2022-08-20T21:24:03Z</time>
      </trkpt>
      <trkpt lat="47.53497" lon="7.20686">
        <ele>417</ele>
        <time>2022-08-20T21:24:23Z</time>
      </trkpt>
      <trkpt lat="47.53502" lon="7.20638">
        <ele>418</ele>
        <time>2022-08-20T21:24:49Z</time>
      </trkpt>
      <trkpt lat="47.53509" lon="7.20598">
        <ele>418</ele>
        <time>2022-08-20T21:25:12Z</time>
      </trkpt>
      <trkpt lat="47.53532" lon="7.20497">
        <ele>416</ele>
        <time>2022-08-20T21:26:09Z</time>
      </trkpt>
      <trkpt lat="47.53538" lon="7.20462">
        <ele>416</ele>
        <time>2022-08-20T21:26:29Z</time>
      </trkpt>
      <trkpt lat="47.53541" lon="7.20431">
        <ele>415</ele>
        <time>2022-08-20T21:26:46Z</time>
      </trkpt>
      <trkpt lat="47.53536" lon="7.20376">
        <ele>414</ele>
        <time>2022-08-20T21:27:16Z</time>
      </trkpt>
      <trkpt lat="47.53529" lon="7.20329">
        <ele>414</ele>
        <time>2022-08-20T21:27:42Z</time>
      </trkpt>
      <trkpt lat="47.53505" lon="7.20195">
        <ele>415</ele>
        <time>2022-08-20T21:28:57Z</time>
      </trkpt>
      <trkpt lat="47.53491" lon="7.20125">
        <ele>414</ele>
        <time>2022-08-20T21:29:36Z</time>
      </trkpt>
      <trkpt lat="47.53486" lon="7.20087">
        <ele>413</ele>
        <time>2022-08-20T21:29:57Z</time>
      </trkpt>
      <trkpt lat="47.53483" lon="7.20048">
        <ele>413</ele>
        <time>2022-08-20T21:30:18Z</time>
      </trkpt>
      <trkpt lat="47.53478" lon="7.19901">
        <ele>411</ele>
        <time>2022-08-20T21:31:38Z</time>
      </trkpt>
      <trkpt lat="47.53473" lon="7.19846">
        <ele>410</ele>
        <time>2022-08-20T21:32:08Z</time>
      </trkpt>
      <trkpt lat="47.53466" lon="7.19785">
        <ele>409</ele>
        <time>2022-08-20T21:32:41Z</time>
      </trkpt>
      <trkpt lat="47.53464" lon="7.19742">
        <ele>408</ele>
        <time>2022-08-20T21:33:05Z</time>
      </trkpt>
      <trkpt lat="47.53472" lon="7.19641">
        <ele>407</ele>
        <time>2022-08-20T21:34:00Z</time>
      </trkpt>
      <trkpt lat="47.53476" lon="7.19608">
        <ele>408</ele>
        <time>2022-08-20T21:34:18Z</time>
      </trkpt>
      <trkpt lat="47.53494" lon="7.19529">
        <ele>407</ele>
        <time>2022-08-20T21:35:03Z</time>
      </trkpt>
      <trkpt lat="47.53501" lon="7.19473">
        <ele>407</ele>
        <time>2022-08-20T21:35:34Z</time>
      </trkpt>
      <trkpt lat="47.53503" lon="7.19417">
        <ele>408</ele>
        <time>2022-08-20T21:36:04Z</time>
      </trkpt>
      <trkpt lat="47.53501" lon="7.19377">
        <ele>408</ele>
        <time>2022-08-20T21:36:26Z</time>
      </trkpt>
      <trkpt lat="47.53493" lon="7.19338">
        <ele>409</ele>
        <time>2022-08-20T21:36:48Z</time>
      </trkpt>
      <trkpt lat="47.53466" lon="7.19267">
        <ele>410</ele>
        <time>2022-08-20T21:37:32Z</time>
      </trkpt>
      <trkpt lat="47.53453" lon="7.19218">
        <ele>410</ele>
        <time>2022-08-20T21:38:00Z</time>
      </trkpt>
      <trkpt lat="47.53432" lon="7.19126">
        <ele>409</ele>
        <time>2022-08-20T21:38:53Z</time>
      </trkpt>
      <trkpt lat="47.53417" lon="7.19071">
        <ele>407</ele>
        <time>2022-08-20T21:39:25Z</time>
      </trkpt>
      <trkpt lat="47.53403" lon="7.19036">
        <ele>404</ele>
        <time>2022-08-20T21:39:47Z</time>
      </trkpt>
      <trkpt lat="47.53389" lon="7.18989">
        <ele>400</ele>
        <time>2022-08-20T21:40:14Z</time>
      </trkpt>
      <trkpt lat="47.53387" lon="7.18971">
        <ele>398</ele>
        <time>2022-08-20T21:40:24Z</time>
      </trkpt>
      <trkpt lat="47.53387" lon="7.18952">
        <ele>397</ele>
        <time>2022-08-20T21:40:35Z</time>
      </trkpt>
      <trkpt lat="47.53393" lon="7.18931">
        <ele>397</ele>
        <time>2022-08-20T21:40:47Z</time>
      </trkpt>
      <trkpt lat="47.53404" lon="7.18915">
        <ele>397</ele>
        <time>2022-08-20T21:40:59Z</time>
      </trkpt>
      <trkpt lat="47.53541" lon="7.18747">
        <ele>395</ele>
        <time>2022-08-20T21:43:22Z</time>
      </trkpt>
      <trkpt lat="47.5355" lon="7.18725">
        <ele>394</ele>
        <time>2022-08-20T21:43:36Z</time>
      </trkpt>
      <trkpt lat="47.53553" lon="7.18693">
        <ele>392</ele>
        <time>2022-08-20T21:43:53Z</time>
      </trkpt>
      <trkpt lat="47.53547" lon="7.18673">
        <ele>389</ele>
        <time>2022-08-20T21:44:05Z</time>
      </trkpt>
      <trkpt lat="47.53539" lon="7.18661">
        <ele>388</ele>
        <time>2022-08-20T21:44:14Z</time>
      </trkpt>
      <trkpt lat="47.53529" lon="7.18651">
        <ele>387</ele>
        <time>2022-08-20T21:44:24Z</time>
      </trkpt>
      <trkpt lat="47.53456" lon="7.18603">
        <ele>383</ele>
        <time>2022-08-20T21:45:28Z</time>
      </trkpt>
      <trkpt lat="47.53433" lon="7.18587">
        <ele>383</ele>
        <time>2022-08-20T21:45:48Z</time>
      </trkpt>
      <trkpt lat="47.53407" lon="7.18571">
        <ele>382</ele>
        <time>2022-08-20T21:46:11Z</time>
      </trkpt>
      <trkpt lat="47.53361" lon="7.18551">
        <ele>381</ele>
        <time>2022-08-20T21:46:49Z</time>
      </trkpt>
      <trkpt lat="47.53266" lon="7.18515">
        <ele>384</ele>
        <time>2022-08-20T21:48:07Z</time>
      </trkpt>
      <trkpt lat="47.53261" lon="7.18511">
        <ele>385</ele>
        <time>2022-08-20T21:48:12Z</time>
      </trkpt>
      <trkpt lat="47.5326" lon="7.18503">
        <ele>385</ele>
        <time>2022-08-20T21:48:16Z</time>
      </trkpt>
      <trkpt lat="47.53284" lon="7.18425">
        <ele>385</ele>
        <time>2022-08-20T21:49:03Z</time>
      </trkpt>
      <trkpt lat="47.53292" lon="7.18392">
        <ele>385</ele>
        <time>2022-08-20T21:49:22Z</time>
      </trkpt>
      <trkpt lat="47.5331" lon="7.18291">
        <ele>384</ele>
        <time>2022-08-20T21:50:18Z</time>
      </trkpt>
      <trkpt lat="47.53322" lon="7.18258">
        <ele>383</ele>
        <time>2022-08-20T21:50:38Z</time>
      </trkpt>
      <trkpt lat="47.53363" lon="7.18181">
        <ele>386</ele>
        <time>2022-08-20T21:51:31Z</time>
      </trkpt>
      <trkpt lat="47.53479" lon="7.17946">
        <ele>387</ele>
        <time>2022-08-20T21:54:09Z</time>
      </trkpt>
      <trkpt lat="47.53558" lon="7.17801">
        <ele>387</ele>
        <time>2022-08-20T21:55:49Z</time>
      </trkpt>
      <trkpt lat="47.53592" lon="7.17728">
        <ele>386</ele>
        <time>2022-08-20T21:56:37Z</time>
      </trkpt>
      <trkpt lat="47.53598" lon="7.17705">
        <ele>385</ele>
        <time>2022-08-20T21:56:51Z</time>
      </trkpt>
      <trkpt lat="47.53608" lon="7.1765">
        <ele>385</ele>
        <time>2022-08-20T21:57:22Z</time>
      </trkpt>
      <trkpt lat="47.53618" lon="7.17606">
        <ele>384</ele>
        <time>2022-08-20T21:57:47Z</time>
      </trkpt>
      <trkpt lat="47.53616" lon="7.17594">
        <ele>384</ele>
        <time>2022-08-20T21:57:53Z</time>
      </trkpt>
      <trkpt lat="47.53593" lon="7.17548">
        <ele>386</ele>
        <time>2022-08-20T21:58:24Z</time>
      </trkpt>
      <trkpt lat="47.53583" lon="7.17516">
        <ele>387</ele>
        <time>2022-08-20T21:58:43Z</time>
      </trkpt>
      <trkpt lat="47.53564" lon="7.17432">
        <ele>394</ele>
        <time>2022-08-20T21:59:31Z</time>
      </trkpt>
      <trkpt lat="47.53554" lon="7.17339">
        <ele>401</ele>
        <time>2022-08-20T22:00:22Z</time>
      </trkpt>
      <trkpt lat="47.53525" lon="7.17127">
        <ele>408</ele>
        <time>2022-08-20T22:02:19Z</time>
      </trkpt>
      <trkpt lat="47.53489" lon="7.16941">
        <ele>414</ele>
        <time>2022-08-20T22:04:04Z</time>
      </trkpt>
      <trkpt lat="47.53453" lon="7.1677">
        <ele>418</ele>
        <time>2022-08-20T22:05:40Z</time>
      </trkpt>
      <trkpt lat="47.53431" lon="7.16672">
        <ele>419</ele>
        <time>2022-08-20T22:06:36Z</time>
      </trkpt>
      <trkpt lat="47.53427" lon="7.16647">
        <ele>419</ele>
        <time>2022-08-20T22:06:50Z</time>
      </trkpt>
      <trkpt lat="47.53416" lon="7.16498">
        <ele>422</ele>
        <time>2022-08-20T22:08:11Z</time>
      </trkpt>
      <trkpt lat="47.53407" lon="7.16438">
        <ele>422</ele>
        <time>2022-08-20T22:08:44Z</time>
      </trkpt>
      <trkpt lat="47.53363" lon="7.16217">
        <ele>424</ele>
        <time>2022-08-20T22:10:49Z</time>
      </trkpt>
      <trkpt lat="47.53344" lon="7.16108">
        <ele>425</ele>
        <time>2022-08-20T22:11:50Z</time>
      </trkpt>
      <trkpt lat="47.5332" lon="7.15901">
        <ele>432</ele>
        <time>2022-08-20T22:13:43Z</time>
      </trkpt>
      <trkpt lat="47.53306" lon="7.15803">
        <ele>430</ele>
        <time>2022-08-20T22:14:38Z</time>
      </trkpt>
      <trkpt lat="47.53277" lon="7.15686">
        <ele>426</ele>
        <time>2022-08-20T22:15:45Z</time>
      </trkpt>
      <trkpt lat="47.53272" lon="7.15646">
        <ele>425</ele>
        <time>2022-08-20T22:16:07Z</time>
      </trkpt>
      <trkpt lat="47.53266" lon="7.15621">
        <ele>424</ele>
        <time>2022-08-20T22:16:21Z</time>
      </trkpt>
      <trkpt lat="47.53255" lon="7.15586">
        <ele>423</ele>
        <time>2022-08-20T22:16:42Z</time>
      </trkpt>
      <trkpt lat="47.53244" lon="7.15565">
        <ele>423</ele>
        <time>2022-08-20T22:16:57Z</time>
      </trkpt>
      <trkpt lat="47.53167" lon="7.15437">
        <ele>424</ele>
        <time>2022-08-20T22:18:29Z</time>
      </trkpt>
      <trkpt lat="47.53135" lon="7.15373">
        <ele>423</ele>
        <time>2022-08-20T22:19:12Z</time>
      </trkpt>
      <trkpt lat="47.53112" lon="7.15319">
        <ele>423</ele>
        <time>2022-08-20T22:19:47Z</time>
      </trkpt>
      <trkpt lat="47.53067" lon="7.15186">
        <ele>426</ele>
        <time>2022-08-20T22:21:07Z</time>
      </trkpt>
      <trkpt lat="47.53016" lon="7.15019">
        <ele>431</ele>
        <time>2022-08-20T22:22:46Z</time>
      </trkpt>
      <trkpt lat="47.53011" lon="7.14985">
        <ele>432</ele>
        <time>2022-08-20T22:23:05Z</time>
      </trkpt>
      <trkpt lat="47.53006" lon="7.14889">
        <ele>434</ele>
        <time>2022-08-20T22:23:57Z</time>
      </trkpt>
      <trkpt lat="47.53029" lon="7.1431">
        <ele>426</ele>
        <time>2022-08-20T22:29:11Z</time>
      </trkpt>
      <trkpt lat="47.5303" lon="7.14136">
        <ele>425</ele>
        <time>2022-08-20T22:30:45Z</time>
      </trkpt>
      <trkpt lat="47.53035" lon="7.14018">
        <ele>425</ele>
        <time>2022-08-20T22:31:49Z</time>
      </trkpt>
      <trkpt lat="47.5303" lon="7.13808">
        <ele>419</ele>
        <time>2022-08-20T22:33:42Z</time>
      </trkpt>
      <trkpt lat="47.53034" lon="7.13758">
        <ele>418</ele>
        <time>2022-08-20T22:34:09Z</time>
      </trkpt>
      <trkpt lat="47.53053" lon="7.1365">
        <ele>414</ele>
        <time>2022-08-20T22:35:10Z</time>
      </trkpt>
      <trkpt lat="47.5305" lon="7.13607">
        <ele>412</ele>
        <time>2022-08-20T22:35:33Z</time>
      </trkpt>
      <trkpt lat="47.5304" lon="7.13559">
        <ele>411</ele>
        <time>2022-08-20T22:36:00Z</time>
      </trkpt>
      <trkpt lat="47.53021" lon="7.13497">
        <ele>410</ele>
        <time>2022-08-20T22:36:37Z</time>
      </trkpt>
      <trkpt lat="47.53001" lon="7.13441">
        <ele>410</ele>
        <time>2022-08-20T22:37:11Z</time>
      </trkpt>
      <trkpt lat="47.52975" lon="7.1338">
        <ele>410</ele>
        <time>2022-08-20T22:37:50Z</time>
      </trkpt>
      <trkpt lat="47.52908" lon="7.13239">
        <ele>414</ele>
        <time>2022-08-20T22:39:24Z</time>
      </trkpt>
      <trkpt lat="47.52889" lon="7.13193">
        <ele>414</ele>
        <time>2022-08-20T22:39:53Z</time>
      </trkpt>
      <trkpt lat="47.52833" lon="7.13041">
        <ele>414</ele>
        <time>2022-08-20T22:41:26Z</time>
      </trkpt>
      <trkpt lat="47.52809" lon="7.12985">
        <ele>414</ele>
        <time>2022-08-20T22:42:02Z</time>
      </trkpt>
      <trkpt lat="47.52751" lon="7.12863">
        <ele>417</ele>
        <time>2022-08-20T22:43:23Z</time>
      </trkpt>
      <trkpt lat="47.52722" lon="7.12778">
        <ele>416</ele>
        <time>2022-08-20T22:44:14Z</time>
      </trkpt>
      <trkpt lat="47.5266" lon="7.12576">
        <ele>411</ele>
        <time>2022-08-20T22:46:14Z</time>
      </trkpt>
      <trkpt lat="47.526" lon="7.12415">
        <ele>410</ele>
        <time>2022-08-20T22:47:54Z</time>
      </trkpt>
      <trkpt lat="47.52562" lon="7.12299">
        <ele>412</ele>
        <time>2022-08-20T22:49:04Z</time>
      </trkpt>
      <trkpt lat="47.52552" lon="7.12248">
        <ele>412</ele>
        <time>2022-08-20T22:49:32Z</time>
      </trkpt>
      <trkpt lat="47.52541" lon="7.12173">
        <ele>415</ele>
        <time>2022-08-20T22:50:14Z</time>
      </trkpt>
      <trkpt lat="47.52534" lon="7.12061">
        <ele>415</ele>
        <time>2022-08-20T22:51:15Z</time>
      </trkpt>
      <trkpt lat="47.5253" lon="7.11938">
        <ele>414</ele>
        <time>2022-08-20T22:52:21Z</time>
      </trkpt>
      <trkpt lat="47.52523" lon="7.11837">
        <ele>412</ele>
        <time>2022-08-20T22:53:16Z</time>
      </trkpt>
      <trkpt lat="47.52491" lon="7.1153">
        <ele>409</ele>
        <time>2022-08-20T22:56:04Z</time>
      </trkpt>
      <trkpt lat="47.52482" lon="7.11398">
        <ele>410</ele>
        <time>2022-08-20T22:57:16Z</time>
      </trkpt>
      <trkpt lat="47.52482" lon="7.11197">
        <ele>413</ele>
        <time>2022-08-20T22:59:04Z</time>
      </trkpt>
      <trkpt lat="47.52469" lon="7.10976">
        <ele>409</ele>
        <time>2022-08-20T23:01:04Z</time>
      </trkpt>
      <trkpt lat="47.52472" lon="7.10879">
        <ele>409</ele>
        <time>2022-08-20T23:01:57Z</time>
      </trkpt>
      <trkpt lat="47.52462" lon="7.1066">
        <ele>415</ele>
        <time>2022-08-20T23:03:55Z</time>
      </trkpt>
      <trkpt lat="47.52443" lon="7.10458">
        <ele>416</ele>
        <time>2022-08-20T23:05:46Z</time>
      </trkpt>
      <trkpt lat="47.52438" lon="7.10361">
        <ele>418</ele>
        <time>2022-08-20T23:06:38Z</time>
      </trkpt>
      <trkpt lat="47.52442" lon="7.1016">
        <ele>422</ele>
        <time>2022-08-20T23:08:27Z</time>
      </trkpt>
      <trkpt lat="47.5244" lon="7.1013">
        <ele>423</ele>
        <time>2022-08-20T23:08:43Z</time>
      </trkpt>
      <trkpt lat="47.52431" lon="7.101">
        <ele>423</ele>
        <time>2022-08-20T23:09:01Z</time>
      </trkpt>
      <trkpt lat="47.52418" lon="7.10075">
        <ele>423</ele>
        <time>2022-08-20T23:09:18Z</time>
      </trkpt>
      <trkpt lat="47.52228" lon="7.0977">
        <ele>420</ele>
        <time>2022-08-20T23:13:03Z</time>
      </trkpt>
      <trkpt lat="47.52183" lon="7.09705">
        <ele>418</ele>
        <time>2022-08-20T23:13:53Z</time>
      </trkpt>
      <trkpt lat="47.52141" lon="7.09645">
        <ele>417</ele>
        <time>2022-08-20T23:14:40Z</time>
      </trkpt>
      <trkpt lat="47.5205" lon="7.09493">
        <ele>416</ele>
        <time>2022-08-20T23:16:29Z</time>
      </trkpt>
      <trkpt lat="47.52029" lon="7.09448">
        <ele>415</ele>
        <time>2022-08-20T23:16:59Z</time>
      </trkpt>
      <trkpt lat="47.52017" lon="7.09416">
        <ele>415</ele>
        <time>2022-08-20T23:17:19Z</time>
      </trkpt>
      <trkpt lat="47.52008" lon="7.09373">
        <ele>414</ele>
        <time>2022-08-20T23:17:43Z</time>
      </trkpt>
      <trkpt lat="47.51978" lon="7.09158">
        <ele>410</ele>
        <time>2022-08-20T23:19:42Z</time>
      </trkpt>
      <trkpt lat="47.51972" lon="7.09124">
        <ele>410</ele>
        <time>2022-08-20T23:20:01Z</time>
      </trkpt>
      <trkpt lat="47.51962" lon="7.09091">
        <ele>411</ele>
        <time>2022-08-20T23:20:20Z</time>
      </trkpt>
      <trkpt lat="47.51952" lon="7.09067">
        <ele>411</ele>
        <time>2022-08-20T23:20:36Z</time>
      </trkpt>
      <trkpt lat="47.51915" lon="7.09006">
        <ele>413</ele>
        <time>2022-08-20T23:21:20Z</time>
      </trkpt>
      <trkpt lat="47.51905" lon="7.08983">
        <ele>412</ele>
        <time>2022-08-20T23:21:35Z</time>
      </trkpt>
      <trkpt lat="47.51899" lon="7.08959">
        <ele>411</ele>
        <time>2022-08-20T23:21:49Z</time>
      </trkpt>
      <trkpt lat="47.51858" lon="7.08674">
        <ele>404</ele>
        <time>2022-08-20T23:24:26Z</time>
      </trkpt>
      <trkpt lat="47.51851" lon="7.08592">
        <ele>404</ele>
        <time>2022-08-20T23:25:11Z</time>
      </trkpt>
      <trkpt lat="47.51846" lon="7.08504">
        <ele>401</ele>
        <time>2022-08-20T23:25:59Z</time>
      </trkpt>
      <trkpt lat="47.51828" lon="7.08361">
        <ele>400</ele>
        <time>2022-08-20T23:27:17Z</time>
      </trkpt>
      <trkpt lat="47.51806" lon="7.08167">
        <ele>401</ele>
        <time>2022-08-20T23:29:04Z</time>
      </trkpt>
      <trkpt lat="47.51806" lon="7.08145">
        <ele>401</ele>
        <time>2022-08-20T23:29:16Z</time>
      </trkpt>
      <trkpt lat="47.51814" lon="7.08058">
        <ele>404</ele>
        <time>2022-08-20T23:30:03Z</time>
      </trkpt>
      <trkpt lat="47.51813" lon="7.08011">
        <ele>404</ele>
        <time>2022-08-20T23:30:28Z</time>
      </trkpt>
      <trkpt lat="47.51809" lon="7.07976">
        <ele>403</ele>
        <time>2022-08-20T23:30:48Z</time>
      </trkpt>
      <trkpt lat="47.51802" lon="7.0794">
        <ele>403</ele>
        <time>2022-08-20T23:31:08Z</time>
      </trkpt>
      <trkpt lat="47.51749" lon="7.07726">
        <ele>398</ele>
        <time>2022-08-20T23:33:11Z</time>
      </trkpt>
      <trkpt lat="47.51746" lon="7.07736">
        <ele>398</ele>
        <time>2022-08-20T23:33:17Z</time>
      </trkpt>
      <trkpt lat="47.51749" lon="7.07787">
        <ele>397</ele>
        <time>2022-08-20T23:33:45Z</time>
      </trkpt>
      <trkpt lat="47.5175" lon="7.0781">
        <ele>397</ele>
        <time>2022-08-20T23:33:57Z</time>
      </trkpt>
      <trkpt lat="47.51746" lon="7.07821">
        <ele>397</ele>
        <time>2022-08-20T23:34:04Z</time>
      </trkpt>
      <trkpt lat="47.51738" lon="7.07832">
        <ele>396</ele>
        <time>2022-08-20T23:34:13Z</time>
      </trkpt>
      <trkpt lat="47.5173" lon="7.07841">
        <ele>395</ele>
        <time>2022-08-20T23:34:21Z</time>
      </trkpt>
      <trkpt lat="47.51741" lon="7.07851">
        <ele>396</ele>
        <time>2022-08-20T23:34:31Z</time>
      </trkpt>
      <trkpt lat="47.5175" lon="7.07862">
        <ele>397</ele>
        <time>2022-08-20T23:34:40Z</time>
      </trkpt>
      <trkpt lat="47.51761" lon="7.07877">
        <ele>398</ele>
        <time>2022-08-20T23:34:52Z</time>
      </trkpt>
      <trkpt lat="47.51804" lon="7.07975">
        <ele>403</ele>
        <time>2022-08-20T23:35:56Z</time>
      </trkpt>
      <trkpt lat="47.51809" lon="7.07976">
        <ele>403</ele>
        <time>2022-08-20T23:36:00Z</time>
      </trkpt>
      <trkpt lat="47.51802" lon="7.0794">
        <ele>403</ele>
        <time>2022-08-20T23:36:20Z</time>
      </trkpt>
      <trkpt lat="47.51749" lon="7.07726">
        <ele>398</ele>
        <time>2022-08-20T23:38:23Z</time>
      </trkpt>
      <trkpt lat="47.51734" lon="7.07672">
        <ele>397</ele>
        <time>2022-08-20T23:38:55Z</time>
      </trkpt>
      <trkpt lat="47.51703" lon="7.07575">
        <ele>395</ele>
        <time>2022-08-20T23:39:53Z</time>
      </trkpt>
      <trkpt lat="47.51677" lon="7.07455">
        <ele>397</ele>
        <time>2022-08-20T23:41:01Z</time>
      </trkpt>
      <trkpt lat="47.51665" lon="7.07395">
        <ele>397</ele>
        <time>2022-08-20T23:41:35Z</time>
      </trkpt>
      <trkpt lat="47.51657" lon="7.07335">
        <ele>395</ele>
        <time>2022-08-20T23:42:08Z</time>
      </trkpt>
      <trkpt lat="47.5165" lon="7.07223">
        <ele>396</ele>
        <time>2022-08-20T23:43:09Z</time>
      </trkpt>
      <trkpt lat="47.51643" lon="7.07186">
        <ele>396</ele>
        <time>2022-08-20T23:43:29Z</time>
      </trkpt>
      <trkpt lat="47.51631" lon="7.07146">
        <ele>396</ele>
        <time>2022-08-20T23:43:53Z</time>
      </trkpt>
      <trkpt lat="47.51589" lon="7.07043">
        <ele>393</ele>
        <time>2022-08-20T23:44:58Z</time>
      </trkpt>
      <trkpt lat="47.51577" lon="7.07">
        <ele>391</ele>
        <time>2022-08-20T23:45:23Z</time>
      </trkpt>
      <trkpt lat="47.51561" lon="7.06934">
        <ele>392</ele>
        <time>2022-08-20T23:46:01Z</time>
      </trkpt>
      <trkpt lat="47.51552" lon="7.06883">
        <ele>392</ele>
        <time>2022-08-20T23:46:30Z</time>
      </trkpt>
      <trkpt lat="47.51549" lon="7.06837">
        <ele>393</ele>
        <time>2022-08-20T23:46:55Z</time>
      </trkpt>
      <trkpt lat="47.51551" lon="7.06795">
        <ele>393</ele>
        <time>2022-08-20T23:47:18Z</time>
      </trkpt>
      <trkpt lat="47.51569" lon="7.06622">
        <ele>393</ele>
        <time>2022-08-20T23:48:52Z</time>
      </trkpt>
      <trkpt lat="47.51583" lon="7.06543">
        <ele>392</ele>
        <time>2022-08-20T23:49:36Z</time>
      </trkpt>
      <trkpt lat="47.51589" lon="7.06502">
        <ele>390</ele>
        <time>2022-08-20T23:49:59Z</time>
      </trkpt>
      <trkpt lat="47.516" lon="7.06331">
        <ele>390</ele>
        <time>2022-08-20T23:51:32Z</time>
      </trkpt>
      <trkpt lat="47.51601" lon="7.06148">
        <ele>385</ele>
        <time>2022-08-20T23:53:11Z</time>
      </trkpt>
      <trkpt lat="47.51606" lon="7.06104">
        <ele>384</ele>
        <time>2022-08-20T23:53:35Z</time>
      </trkpt>
      <trkpt lat="47.51614" lon="7.06065">
        <ele>383</ele>
        <time>2022-08-20T23:53:57Z</time>
      </trkpt>
      <trkpt lat="47.51625" lon="7.06026">
        <ele>383</ele>
        <time>2022-08-20T23:54:20Z</time>
      </trkpt>
      <trkpt lat="47.51741" lon="7.05765">
        <ele>387</ele>
        <time>2022-08-20T23:57:09Z</time>
      </trkpt>
      <trkpt lat="47.51812" lon="7.0561">
        <ele>389</ele>
        <time>2022-08-20T23:58:50Z</time>
      </trkpt>
      <trkpt lat="47.51845" lon="7.0552">
        <ele>382</ele>
        <time>2022-08-20T23:59:46Z</time>
      </trkpt>
      <trkpt lat="47.51856" lon="7.05474">
        <ele>381</ele>
        <time>2022-08-21T00:00:12Z</time>
      </trkpt>
      <trkpt lat="47.51867" lon="7.05413">
        <ele>381</ele>
        <time>2022-08-21T00:00:46Z</time>
      </trkpt>
      <trkpt lat="47.51874" lon="7.05337">
        <ele>382</ele>
        <time>2022-08-21T00:01:28Z</time>
      </trkpt>
      <trkpt lat="47.51876" lon="7.05274">
        <ele>382</ele>
        <time>2022-08-21T00:02:02Z</time>
      </trkpt>
      <trkpt lat="47.51875" lon="7.05248">
        <ele>383</ele>
        <time>2022-08-21T00:02:16Z</time>
      </trkpt>
      <trkpt lat="47.51865" lon="7.05123">
        <ele>384</ele>
        <time>2022-08-21T00:03:24Z</time>
      </trkpt>
      <trkpt lat="47.51867" lon="7.05054">
        <ele>383</ele>
        <time>2022-08-21T00:04:01Z</time>
      </trkpt>
      <trkpt lat="47.51884" lon="7.04949">
        <ele>383</ele>
        <time>2022-08-21T00:05:00Z</time>
      </trkpt>
      <trkpt lat="47.51915" lon="7.0482">
        <ele>387</ele>
        <time>2022-08-21T00:06:14Z</time>
      </trkpt>
      <trkpt lat="47.51976" lon="7.04668">
        <ele>391</ele>
        <time>2022-08-21T00:07:49Z</time>
      </trkpt>
      <trkpt lat="47.51989" lon="7.04609">
        <ele>391</ele>
        <time>2022-08-21T00:08:23Z</time>
      </trkpt>
      <trkpt lat="47.51993" lon="7.04565">
        <ele>390</ele>
        <time>2022-08-21T00:08:47Z</time>
      </trkpt>
      <trkpt lat="47.51992" lon="7.0452">
        <ele>390</ele>
        <time>2022-08-21T00:09:11Z</time>
      </trkpt>
      <trkpt lat="47.51984" lon="7.0447">
        <ele>388</ele>
        <time>2022-08-21T00:09:39Z</time>
      </trkpt>
      <trkpt lat="47.51958" lon="7.04373">
        <ele>384</ele>
        <time>2022-08-21T00:10:35Z</time>
      </trkpt>
      <trkpt lat="47.51949" lon="7.04321">
        <ele>382</ele>
        <time>2022-08-21T00:11:04Z</time>
      </trkpt>
      <trkpt lat="47.51944" lon="7.04269">
        <ele>379</ele>
        <time>2022-08-21T00:11:33Z</time>
      </trkpt>
      <trkpt lat="47.51942" lon="7.04225">
        <ele>377</ele>
        <time>2022-08-21T00:11:57Z</time>
      </trkpt>
      <trkpt lat="47.51945" lon="7.04158">
        <ele>377</ele>
        <time>2022-08-21T00:12:33Z</time>
      </trkpt>
      <trkpt lat="47.51949" lon="7.04114">
        <ele>378</ele>
        <time>2022-08-21T00:12:57Z</time>
      </trkpt>
      <trkpt lat="47.5196" lon="7.04054">
        <ele>379</ele>
        <time>2022-08-21T00:13:31Z</time>
      </trkpt>
      <trkpt lat="47.51987" lon="7.03954">
        <ele>380</ele>
        <time>2022-08-21T00:14:29Z</time>
      </trkpt>
      <trkpt lat="47.52006" lon="7.03872">
        <ele>379</ele>
        <time>2022-08-21T00:15:16Z</time>
      </trkpt>
      <trkpt lat="47.52024" lon="7.0379">
        <ele>380</ele>
        <time>2022-08-21T00:16:02Z</time>
      </trkpt>
      <trkpt lat="47.5205" lon="7.03645">
        <ele>380</ele>
        <time>2022-08-21T00:17:23Z</time>
      </trkpt>
      <trkpt lat="47.52063" lon="7.03583">
        <ele>379</ele>
        <time>2022-08-21T00:17:58Z</time>
      </trkpt>
      <trkpt lat="47.52075" lon="7.03498">
        <ele>374</ele>
        <time>2022-08-21T00:18:45Z</time>
      </trkpt>
      <trkpt lat="47.52067" lon="7.03494">
        <ele>373</ele>
        <time>2022-08-21T00:18:52Z</time>
      </trkpt>
      <trkpt lat="47.52038" lon="7.03456">
        <ele>372</ele>
        <time>2022-08-21T00:19:23Z</time>
      </trkpt>
      <trkpt lat="47.52018" lon="7.03442">
        <ele>371</ele>
        <time>2022-08-21T00:19:41Z</time>
      </trkpt>
      <trkpt lat="47.52004" lon="7.03439">
        <ele>370</ele>
        <time>2022-08-21T00:19:52Z</time>
      </trkpt>
      <trkpt lat="47.51979" lon="7.03438">
        <ele>370</ele>
        <time>2022-08-21T00:20:12Z</time>
      </trkpt>
      <trkpt lat="47.51953" lon="7.03446">
        <ele>369</ele>
        <time>2022-08-21T00:20:34Z</time>
      </trkpt>
      <trkpt lat="47.51892" lon="7.0348">
        <ele>368</ele>
        <time>2022-08-21T00:21:26Z</time>
      </trkpt>
      <trkpt lat="47.51872" lon="7.03479">
        <ele>367</ele>
        <time>2022-08-21T00:21:42Z</time>
      </trkpt>
      <trkpt lat="47.51803" lon="7.03435">
        <ele>367</ele>
        <time>2022-08-21T00:22:42Z</time>
      </trkpt>
      <trkpt lat="47.51779" lon="7.03425">
        <ele>367</ele>
        <time>2022-08-21T00:23:02Z</time>
      </trkpt>
      <trkpt lat="47.51763" lon="7.03421">
        <ele>367</ele>
        <time>2022-08-21T00:23:15Z</time>
      </trkpt>
      <trkpt lat="47.51714" lon="7.03405">
        <ele>369</ele>
        <time>2022-08-21T00:23:55Z</time>
      </trkpt>
      <trkpt lat="47.51699" lon="7.03395">
        <ele>370</ele>
        <time>2022-08-21T00:24:08Z</time>
      </trkpt>
      <trkpt lat="47.51688" lon="7.03383">
        <ele>371</ele>
        <time>2022-08-21T00:24:19Z</time>
      </trkpt>
      <trkpt lat="47.51681" lon="7.03364">
        <ele>372</ele>
        <time>2022-08-21T00:24:31Z</time>
      </trkpt>
      <trkpt lat="47.51668" lon="7.03294">
        <ele>374</ele>
        <time>2022-08-21T00:25:10Z</time>
      </trkpt>
      <trkpt lat="47.51656" lon="7.03248">
        <ele>377</ele>
        <time>2022-08-21T00:25:37Z</time>
      </trkpt>
      <trkpt lat="47.51652" lon="7.03216">
        <ele>381</ele>
        <time>2022-08-21T00:25:54Z</time>
      </trkpt>
      <trkpt lat="47.5165" lon="7.03194">
        <ele>383</ele>
        <time>2022-08-21T00:26:06Z</time>
      </trkpt>
      <trkpt lat="47.5165" lon="7.03124">
        <ele>389</ele>
        <time>2022-08-21T00:26:44Z</time>
      </trkpt>
      <trkpt lat="47.51647" lon="7.03084">
        <ele>392</ele>
        <time>2022-08-21T00:27:06Z</time>
      </trkpt>
      <trkpt lat="47.51631" lon="7.02976">
        <ele>391</ele>
        <time>2022-08-21T00:28:06Z</time>
      </trkpt>
      <trkpt lat="47.51628" lon="7.02915">
        <ele>392</ele>
        <time>2022-08-21T00:28:39Z</time>
      </trkpt>
      <trkpt lat="47.51631" lon="7.02876">
        <ele>391</ele>
        <time>2022-08-21T00:29:00Z</time>
      </trkpt>
      <trkpt lat="47.51651" lon="7.02728">
        <ele>390</ele>
        <time>2022-08-21T00:30:22Z</time>
      </trkpt>
      <trkpt lat="47.5166" lon="7.02666">
        <ele>388</ele>
        <time>2022-08-21T00:30:56Z</time>
      </trkpt>
      <trkpt lat="47.51676" lon="7.02593">
        <ele>386</ele>
        <time>2022-08-21T00:31:37Z</time>
      </trkpt>
      <trkpt lat="47.51681" lon="7.02557">
        <ele>385</ele>
        <time>2022-08-21T00:31:57Z</time>
      </trkpt>
      <trkpt lat="47.51681" lon="7.02524">
        <ele>384</ele>
        <time>2022-08-21T00:32:15Z</time>
      </trkpt>
      <trkpt lat="47.51678" lon="7.02495">
        <ele>384</ele>
        <time>2022-08-21T00:32:31Z</time>
      </trkpt>
      <trkpt lat="47.51668" lon="7.02459">
        <ele>384</ele>
        <time>2022-08-21T00:32:52Z</time>
      </trkpt>
      <trkpt lat="47.51655" lon="7.02423">
        <ele>385</ele>
        <time>2022-08-21T00:33:14Z</time>
      </trkpt>
      <trkpt lat="47.51602" lon="7.023">
        <ele>394</ele>
        <time>2022-08-21T00:34:33Z</time>
      </trkpt>
      <trkpt lat="47.51543" lon="7.02143">
        <ele>402</ele>
        <time>2022-08-21T00:36:10Z</time>
      </trkpt>
      <trkpt lat="47.51516" lon="7.0205">
        <ele>404</ele>
        <time>2022-08-21T00:37:05Z</time>
      </trkpt>
      <trkpt lat="47.51442" lon="7.01891">
        <ele>413</ele>
        <time>2022-08-21T00:38:49Z</time>
      </trkpt>
      <trkpt lat="47.51418" lon="7.01832">
        <ele>414</ele>
        <time>2022-08-21T00:39:27Z</time>
      </trkpt>
      <trkpt lat="47.51323" lon="7.01645">
        <ele>415</ele>
        <time>2022-08-21T00:41:33Z</time>
      </trkpt>
      <trkpt lat="47.51264" lon="7.01544">
        <ele>416</ele>
        <time>2022-08-21T00:42:45Z</time>
      </trkpt>
      <trkpt lat="47.5123" lon="7.01403">
        <ele>414</ele>
        <time>2022-08-21T00:44:06Z</time>
      </trkpt>
      <trkpt lat="47.51191" lon="7.01315">
        <ele>411</ele>
        <time>2022-08-21T00:45:03Z</time>
      </trkpt>
      <trkpt lat="47.51042" lon="7.01026">
        <ele>393</ele>
        <time>2022-08-21T00:48:20Z</time>
      </trkpt>
      <trkpt lat="47.51028" lon="7.00995">
        <ele>391</ele>
        <time>2022-08-21T00:48:40Z</time>
      </trkpt>
      <trkpt lat="47.50959" lon="7.00744">
        <ele>375</ele>
        <time>2022-08-21T00:51:07Z</time>
      </trkpt>
      <trkpt lat="47.50947" lon="7.00728">
        <ele>373</ele>
        <time>2022-08-21T00:51:20Z</time>
      </trkpt>
      <trkpt lat="47.50942" lon="7.00725">
        <ele>373</ele>
        <time>2022-08-21T00:51:24Z</time>
      </trkpt>
      <trkpt lat="47.50914" lon="7.00723">
        <ele>371</ele>
        <time>2022-08-21T00:51:46Z</time>
      </trkpt>
      <trkpt lat="47.50907" lon="7.00715">
        <ele>370</ele>
        <time>2022-08-21T00:51:53Z</time>
      </trkpt>
      <trkpt lat="47.50898" lon="7.00693">
        <ele>368</ele>
        <time>2022-08-21T00:52:07Z</time>
      </trkpt>
      <trkpt lat="47.50895" lon="7.00676">
        <ele>367</ele>
        <time>2022-08-21T00:52:17Z</time>
      </trkpt>
      <trkpt lat="47.50897" lon="7.00661">
        <ele>367</ele>
        <time>2022-08-21T00:52:25Z</time>
      </trkpt>
      <trkpt lat="47.50918" lon="7.00614">
        <ele>367</ele>
        <time>2022-08-21T00:52:56Z</time>
      </trkpt>
      <trkpt lat="47.50919" lon="7.00603">
        <ele>367</ele>
        <time>2022-08-21T00:53:02Z</time>
      </trkpt>
      <trkpt lat="47.50917" lon="7.00587">
        <ele>366</ele>
        <time>2022-08-21T00:53:10Z</time>
      </trkpt>
      <trkpt lat="47.50844" lon="7.00334">
        <ele>364</ele>
        <time>2022-08-21T00:55:39Z</time>
      </trkpt>
      <trkpt lat="47.50836" lon="7.00295">
        <ele>363</ele>
        <time>2022-08-21T00:56:01Z</time>
      </trkpt>
      <trkpt lat="47.5084" lon="7.00288">
        <ele>363</ele>
        <time>2022-08-21T00:56:06Z</time>
      </trkpt>
      <trkpt lat="47.50838" lon="7.00281">
        <ele>363</ele>
        <time>2022-08-21T00:56:10Z</time>
      </trkpt>
      <trkpt lat="47.50833" lon="7.00275">
        <ele>363</ele>
        <time>2022-08-21T00:56:15Z</time>
      </trkpt>
      <trkpt lat="47.50828" lon="7.00277">
        <ele>363</ele>
        <time>2022-08-21T00:56:20Z</time>
      </trkpt>
      <trkpt lat="47.50825" lon="7.00283">
        <ele>363</ele>
        <time>2022-08-21T00:56:24Z</time>
      </trkpt>
      <trkpt lat="47.50826" lon="7.00288">
        <ele>363</ele>
        <time>2022-08-21T00:56:26Z</time>
      </trkpt>
      <trkpt lat="47.50755" lon="7.00344">
        <ele>363</ele>
        <time>2022-08-21T00:57:31Z</time>
      </trkpt>
      <trkpt lat="47.50746" lon="7.00349">
        <ele>363</ele>
        <time>2022-08-21T00:57:39Z</time>
      </trkpt>
      <trkpt lat="47.50731" lon="7.00362">
        <ele>363</ele>
        <time>2022-08-21T00:57:52Z</time>
      </trkpt>
      <trkpt lat="47.50721" lon="7.00361">
        <ele>362</ele>
        <time>2022-08-21T00:58:00Z</time>
      </trkpt>
      <trkpt lat="47.50715" lon="7.00354">
        <ele>362</ele>
        <time>2022-08-21T00:58:07Z</time>
      </trkpt>
      <trkpt lat="47.507" lon="7.00343">
        <ele>362</ele>
        <time>2022-08-21T00:58:20Z</time>
      </trkpt>
      <trkpt lat="47.50667" lon="7.00306">
        <ele>362</ele>
        <time>2022-08-21T00:58:53Z</time>
      </trkpt>
      <trkpt lat="47.50644" lon="7.00283">
        <ele>363</ele>
        <time>2022-08-21T00:59:15Z</time>
      </trkpt>
      <trkpt lat="47.50619" lon="7.00257">
        <ele>363</ele>
        <time>2022-08-21T00:59:40Z</time>
      </trkpt>
      <trkpt lat="47.50597" lon="7.00223">
        <ele>364</ele>
        <time>2022-08-21T01:00:05Z</time>
      </trkpt>
      <trkpt lat="47.50588" lon="7.00203">
        <ele>364</ele>
        <time>2022-08-21T01:00:18Z</time>
      </trkpt>
      <trkpt lat="47.5058" lon="7.00173">
        <ele>364</ele>
        <time>2022-08-21T01:00:36Z</time>
      </trkpt>
      <trkpt lat="47.50571" lon="7.00072">
        <ele>363</ele>
        <time>2022-08-21T01:01:31Z</time>
      </trkpt>
      <trkpt lat="47.50568" lon="7.00058">
        <ele>364</ele>
        <time>2022-08-21T01:01:39Z</time>
      </trkpt>
      <trkpt lat="47.50562" lon="7.00045">
        <ele>365</ele>
        <time>2022-08-21T01:01:47Z</time>
      </trkpt>
      <trkpt lat="47.50563" lon="7.00034">
        <ele>366</ele>
        <time>2022-08-21T01:01:53Z</time>
      </trkpt>
      <trkpt lat="47.5056" lon="7.00024">
        <ele>367</ele>
        <time>2022-08-21T01:01:59Z</time>
      </trkpt>
      <trkpt lat="47.50556" lon="7.0002">
        <ele>368</ele>
        <time>2022-08-21T01:02:03Z</time>
      </trkpt>
      <trkpt lat="47.50547" lon="7.00019">
        <ele>369</ele>
        <time>2022-08-21T01:02:10Z</time>
      </trkpt>
      <trkpt lat="47.50547" lon="7.0001">
        <ele>370</ele>
        <time>2022-08-21T01:02:15Z</time>
      </trkpt>
      <trkpt lat="47.50548" lon="7.00003">
        <ele>370</ele>
        <time>2022-08-21T01:02:19Z</time>
      </trkpt>
      <trkpt lat="47.50558" lon="6.99979">
        <ele>369</ele>
        <time>2022-08-21T01:02:34Z</time>
      </trkpt>
      <trkpt lat="47.5056" lon="6.99963">
        <ele>369</ele>
        <time>2022-08-21T01:02:43Z</time>
      </trkpt>
      <trkpt lat="47.50559" lon="6.99934">
        <ele>370</ele>
        <time>2022-08-21T01:02:59Z</time>
      </trkpt>
      <trkpt lat="47.50554" lon="6.99822">
        <ele>371</ele>
        <time>2022-08-21T01:04:00Z</time>
      </trkpt>
      <trkpt lat="47.50554" lon="6.998">
        <ele>371</ele>
        <time>2022-08-21T01:04:11Z</time>
      </trkpt>
      <trkpt lat="47.50558" lon="6.99772">
        <ele>371</ele>
        <time>2022-08-21T01:04:27Z</time>
      </trkpt>
      <trkpt lat="47.50562" lon="6.99756">
        <ele>370</ele>
        <time>2022-08-21T01:04:36Z</time>
      </trkpt>
      <trkpt lat="47.50576" lon="6.99724">
        <ele>369</ele>
        <time>2022-08-21T01:04:57Z</time>
      </trkpt>
      <trkpt lat="47.50601" lon="6.99678">
        <ele>371</ele>
        <time>2022-08-21T01:05:29Z</time>
      </trkpt>
      <trkpt lat="47.50608" lon="6.99657">
        <ele>372</ele>
        <time>2022-08-21T01:05:41Z</time>
      </trkpt>
      <trkpt lat="47.50612" lon="6.99638">
        <ele>372</ele>
        <time>2022-08-21T01:05:52Z</time>
      </trkpt>
      <trkpt lat="47.50614" lon="6.99611">
        <ele>373</ele>
        <time>2022-08-21T01:06:07Z</time>
      </trkpt>
      <trkpt lat="47.50611" lon="6.99589">
        <ele>373</ele>
        <time>2022-08-21T01:06:19Z</time>
      </trkpt>
      <trkpt lat="47.50492" lon="6.99246">
        <ele>369</ele>
        <time>2022-08-21T01:09:48Z</time>
      </trkpt>
      <trkpt lat="47.50473" lon="6.99183">
        <ele>370</ele>
        <time>2022-08-21T01:10:25Z</time>
      </trkpt>
      <trkpt lat="47.50456" lon="6.99056">
        <ele>372</ele>
        <time>2022-08-21T01:11:35Z</time>
      </trkpt>
      <trkpt lat="47.50456" lon="6.99032">
        <ele>373</ele>
        <time>2022-08-21T01:11:48Z</time>
      </trkpt>
      <trkpt lat="47.50461" lon="6.98986">
        <ele>374</ele>
        <time>2022-08-21T01:12:13Z</time>
      </trkpt>
      <trkpt lat="47.50462" lon="6.98963">
        <ele>375</ele>
        <time>2022-08-21T01:12:25Z</time>
      </trkpt>
      <trkpt lat="47.50457" lon="6.98916">
        <ele>378</ele>
        <time>2022-08-21T01:12:51Z</time>
      </trkpt>
      <trkpt lat="47.50451" lon="6.98877">
        <ele>379</ele>
        <time>2022-08-21T01:13:13Z</time>
      </trkpt>
      <trkpt lat="47.5045" lon="6.98838">
        <ele>381</ele>
        <time>2022-08-21T01:13:34Z</time>
      </trkpt>
      <trkpt lat="47.50454" lon="6.98828">
        <ele>381</ele>
        <time>2022-08-21T01:13:40Z</time>
      </trkpt>
      <trkpt lat="47.50452" lon="6.98815">
        <ele>382</ele>
        <time>2022-08-21T01:13:47Z</time>
      </trkpt>
      <trkpt lat="47.50447" lon="6.98807">
        <ele>382</ele>
        <time>2022-08-21T01:13:53Z</time>
      </trkpt>
      <trkpt lat="47.50444" lon="6.98806">
        <ele>382</ele>
        <time>2022-08-21T01:13:56Z</time>
      </trkpt>
      <trkpt lat="47.50439" lon="6.98797">
        <ele>382</ele>
        <time>2022-08-21T01:14:02Z</time>
      </trkpt>
      <trkpt lat="47.50431" lon="6.98771">
        <ele>383</ele>
        <time>2022-08-21T01:14:18Z</time>
      </trkpt>
      <trkpt lat="47.50331" lon="6.98199">
        <ele>401</ele>
        <time>2022-08-21T01:19:37Z</time>
      </trkpt>
      <trkpt lat="47.50324" lon="6.98149">
        <ele>400</ele>
        <time>2022-08-21T01:20:05Z</time>
      </trkpt>
      <trkpt lat="47.50323" lon="6.98115">
        <ele>400</ele>
        <time>2022-08-21T01:20:23Z</time>
      </trkpt>
      <trkpt lat="47.50326" lon="6.98066">
        <ele>399</ele>
        <time>2022-08-21T01:20:50Z</time>
      </trkpt>
      <trkpt lat="47.50331" lon="6.98032">
        <ele>398</ele>
        <time>2022-08-21T01:21:09Z</time>
      </trkpt>
      <trkpt lat="47.50336" lon="6.98011">
        <ele>398</ele>
        <time>2022-08-21T01:21:21Z</time>
      </trkpt>
      <trkpt lat="47.50354" lon="6.97955">
        <ele>400</ele>
        <time>2022-08-21T01:21:54Z</time>
      </trkpt>
      <trkpt lat="47.50365" lon="6.97929">
        <ele>401</ele>
        <time>2022-08-21T01:22:11Z</time>
      </trkpt>
      <trkpt lat="47.50451" lon="6.97774">
        <ele>399</ele>
        <time>2022-08-21T01:23:59Z</time>
      </trkpt>
      <trkpt lat="47.50468" lon="6.97738">
        <ele>397</ele>
        <time>2022-08-21T01:24:23Z</time>
      </trkpt>
      <trkpt lat="47.5048" lon="6.977">
        <ele>397</ele>
        <time>2022-08-21T01:24:46Z</time>
      </trkpt>
      <trkpt lat="47.50506" lon="6.97588">
        <ele>398</ele>
        <time>2022-08-21T01:25:50Z</time>
      </trkpt>
      <trkpt lat="47.50522" lon="6.97534">
        <ele>401</ele>
        <time>2022-08-21T01:26:22Z</time>
      </trkpt>
      <trkpt lat="47.50539" lon="6.97498">
        <ele>403</ele>
        <time>2022-08-21T01:26:45Z</time>
      </trkpt>
      <trkpt lat="47.50621" lon="6.97363">
        <ele>419</ele>
        <time>2022-08-21T01:28:24Z</time>
      </trkpt>
      <trkpt lat="47.50642" lon="6.97335">
        <ele>421</ele>
        <time>2022-08-21T01:28:46Z</time>
      </trkpt>
      <trkpt lat="47.50654" lon="6.97323">
        <ele>421</ele>
        <time>2022-08-21T01:28:58Z</time>
      </trkpt>
      <trkpt lat="47.50661" lon="6.97319">
        <ele>420</ele>
        <time>2022-08-21T01:29:04Z</time>
      </trkpt>
      <trkpt lat="47.50665" lon="6.9732">
        <ele>420</ele>
        <time>2022-08-21T01:29:07Z</time>
      </trkpt>
      <trkpt lat="47.50672" lon="6.97316">
        <ele>421</ele>
        <time>2022-08-21T01:29:13Z</time>
      </trkpt>
      <trkpt lat="47.50678" lon="6.97308">
        <ele>421</ele>
        <time>2022-08-21T01:29:20Z</time>
      </trkpt>
      <trkpt lat="47.50681" lon="6.97296">
        <ele>421</ele>
        <time>2022-08-21T01:29:27Z</time>
      </trkpt>
      <trkpt lat="47.5068" lon="6.97286">
        <ele>421</ele>
        <time>2022-08-21T01:29:32Z</time>
      </trkpt>
      <trkpt lat="47.50676" lon="6.97278">
        <ele>421</ele>
        <time>2022-08-21T01:29:37Z</time>
      </trkpt>
      <trkpt lat="47.50671" lon="6.97272">
        <ele>421</ele>
        <time>2022-08-21T01:29:43Z</time>
      </trkpt>
      <trkpt lat="47.50665" lon="6.9727">
        <ele>421</ele>
        <time>2022-08-21T01:29:47Z</time>
      </trkpt>
      <trkpt lat="47.50656" lon="6.97254">
        <ele>421</ele>
        <time>2022-08-21T01:29:59Z</time>
      </trkpt>
      <trkpt lat="47.5065" lon="6.97238">
        <ele>421</ele>
        <time>2022-08-21T01:30:09Z</time>
      </trkpt>
      <trkpt lat="47.50645" lon="6.97217">
        <ele>419</ele>
        <time>2022-08-21T01:30:21Z</time>
      </trkpt>
      <trkpt lat="47.50635" lon="6.97183">
        <ele>417</ele>
        <time>2022-08-21T01:30:41Z</time>
      </trkpt>
      <trkpt lat="47.50629" lon="6.97156">
        <ele>415</ele>
        <time>2022-08-21T01:30:56Z</time>
      </trkpt>
      <trkpt lat="47.50629" lon="6.97132">
        <ele>414</ele>
        <time>2022-08-21T01:31:09Z</time>
      </trkpt>
      <trkpt lat="47.50631" lon="6.97124">
        <ele>413</ele>
        <time>2022-08-21T01:31:14Z</time>
      </trkpt>
      <trkpt lat="47.50631" lon="6.97108">
        <ele>413</ele>
        <time>2022-08-21T01:31:22Z</time>
      </trkpt>
      <trkpt lat="47.50627" lon="6.97098">
        <ele>412</ele>
        <time>2022-08-21T01:31:29Z</time>
      </trkpt>
      <trkpt lat="47.50672" lon="6.97036">
        <ele>414</ele>
        <time>2022-08-21T01:32:18Z</time>
      </trkpt>
      <trkpt lat="47.50691" lon="6.97013">
        <ele>415</ele>
        <time>2022-08-21T01:32:37Z</time>
      </trkpt>
      <trkpt lat="47.50721" lon="6.96989">
        <ele>415</ele>
        <time>2022-08-21T01:33:05Z</time>
      </trkpt>
      <trkpt lat="47.508" lon="6.96937">
        <ele>414</ele>
        <time>2022-08-21T01:34:14Z</time>
      </trkpt>
      <trkpt lat="47.50819" lon="6.96925">
        <ele>413</ele>
        <time>2022-08-21T01:34:31Z</time>
      </trkpt>
      <trkpt lat="47.50837" lon="6.9691">
        <ele>413</ele>
        <time>2022-08-21T01:34:47Z</time>
      </trkpt>
      <trkpt lat="47.50852" lon="6.96891">
        <ele>414</ele>
        <time>2022-08-21T01:35:03Z</time>
      </trkpt>
      <trkpt lat="47.50865" lon="6.96866">
        <ele>415</ele>
        <time>2022-08-21T01:35:20Z</time>
      </trkpt>
      <trkpt lat="47.50872" lon="6.96835">
        <ele>416</ele>
        <time>2022-08-21T01:35:38Z</time>
      </trkpt>
      <trkpt lat="47.50875" lon="6.96804">
        <ele>417</ele>
        <time>2022-08-21T01:35:55Z</time>
      </trkpt>
      <trkpt lat="47.5087" lon="6.96753">
        <ele>416</ele>
        <time>2022-08-21T01:36:22Z</time>
      </trkpt>
      <trkpt lat="47.50841" lon="6.96591">
        <ele>415</ele>
        <time>2022-08-21T01:37:53Z</time>
      </trkpt>
      <trkpt lat="47.50838" lon="6.96556">
        <ele>414</ele>
        <time>2022-08-21T01:38:12Z</time>
      </trkpt>
      <trkpt lat="47.50839" lon="6.96531">
        <ele>413</ele>
        <time>2022-08-21T01:38:26Z</time>
      </trkpt>
      <trkpt lat="47.50842" lon="6.96505">
        <ele>412</ele>
        <time>2022-08-21T01:38:40Z</time>
      </trkpt>
      <trkpt lat="47.50905" lon="6.96146">
        <ele>403</ele>
        <time>2022-08-21T01:42:01Z</time>
      </trkpt>
      <trkpt lat="47.50906" lon="6.96098">
        <ele>402</ele>
        <time>2022-08-21T01:42:27Z</time>
      </trkpt>
      <trkpt lat="47.50895" lon="6.96012">
        <ele>400</ele>
        <time>2022-08-21T01:43:14Z</time>
      </trkpt>
      <trkpt lat="47.50862" lon="6.95815">
        <ele>394</ele>
        <time>2022-08-21T01:45:04Z</time>
      </trkpt>
      <trkpt lat="47.50812" lon="6.95592">
        <ele>382</ele>
        <time>2022-08-21T01:47:11Z</time>
      </trkpt>
      <trkpt lat="47.50797" lon="6.95548">
        <ele>379</ele>
        <time>2022-08-21T01:47:37Z</time>
      </trkpt>
      <trkpt lat="47.50771" lon="6.9551">
        <ele>375</ele>
        <time>2022-08-21T01:48:07Z</time>
      </trkpt>
      <trkpt lat="47.50746" lon="6.95481">
        <ele>373</ele>
        <time>2022-08-21T01:48:32Z</time>
      </trkpt>
      <trkpt lat="47.50725" lon="6.95466">
        <ele>372</ele>
        <time>2022-08-21T01:48:51Z</time>
      </trkpt>
      <trkpt lat="47.5066" lon="6.9544">
        <ele>370</ele>
        <time>2022-08-21T01:49:45Z</time>
      </trkpt>
      <trkpt lat="47.50586" lon="6.95406">
        <ele>368</ele>
        <time>2022-08-21T01:50:47Z</time>
      </trkpt>
      <trkpt lat="47.50567" lon="6.95388">
        <ele>367</ele>
        <time>2022-08-21T01:51:05Z</time>
      </trkpt>
      <trkpt lat="47.50551" lon="6.95365">
        <ele>366</ele>
        <time>2022-08-21T01:51:23Z</time>
      </trkpt>
      <trkpt lat="47.50537" lon="6.95342">
        <ele>366</ele>
        <time>2022-08-21T01:51:39Z</time>
      </trkpt>
      <trkpt lat="47.50529" lon="6.95318">
        <ele>366</ele>
        <time>2022-08-21T01:51:54Z</time>
      </trkpt>
      <trkpt lat="47.5051" lon="6.95242">
        <ele>365</ele>
        <time>2022-08-21T01:52:38Z</time>
      </trkpt>
      <trkpt lat="47.50492" lon="6.95127">
        <ele>362</ele>
        <time>2022-08-21T01:53:42Z</time>
      </trkpt>
      <trkpt lat="47.50463" lon="6.95011">
        <ele>359</ele>
        <time>2022-08-21T01:54:48Z</time>
      </trkpt>
      <trkpt lat="47.50457" lon="6.94979">
        <ele>359</ele>
        <time>2022-08-21T01:55:06Z</time>
      </trkpt>
      <trkpt lat="47.5045" lon="6.9492">
        <ele>360</ele>
        <time>2022-08-21T01:55:39Z</time>
      </trkpt>
      <trkpt lat="47.50418" lon="6.94557">
        <ele>354</ele>
        <time>2022-08-21T01:58:57Z</time>
      </trkpt>
      <trkpt lat="47.50406" lon="6.94387">
        <ele>352</ele>
        <time>2022-08-21T02:00:29Z</time>
      </trkpt>
      <trkpt lat="47.50391" lon="6.94207">
        <ele>350</ele>
        <time>2022-08-21T02:02:07Z</time>
      </trkpt>
      <trkpt lat="47.50383" lon="6.94075">
        <ele>350</ele>
        <time>2022-08-21T02:03:19Z</time>
      </trkpt>
      <trkpt lat="47.50378" lon="6.94047">
        <ele>350</ele>
        <time>2022-08-21T02:03:35Z</time>
      </trkpt>
      <trkpt lat="47.50352" lon="6.93985">
        <ele>350</ele>
        <time>2022-08-21T02:04:14Z</time>
      </trkpt>
      <trkpt lat="47.50346" lon="6.93959">
        <ele>351</ele>
        <time>2022-08-21T02:04:29Z</time>
      </trkpt>
      <trkpt lat="47.50346" lon="6.9394">
        <ele>351</ele>
        <time>2022-08-21T02:04:39Z</time>
      </trkpt>
      <trkpt lat="47.50348" lon="6.93927">
        <ele>351</ele>
        <time>2022-08-21T02:04:47Z</time>
      </trkpt>
      <trkpt lat="47.50364" lon="6.93855">
        <ele>354</ele>
        <time>2022-08-21T02:05:28Z</time>
      </trkpt>
      <trkpt lat="47.50373" lon="6.93778">
        <ele>359</ele>
        <time>2022-08-21T02:06:10Z</time>
      </trkpt>
      <trkpt lat="47.50377" lon="6.9377">
        <ele>359</ele>
        <time>2022-08-21T02:06:15Z</time>
      </trkpt>
      <trkpt lat="47.50374" lon="6.93757">
        <ele>360</ele>
        <time>2022-08-21T02:06:23Z</time>
      </trkpt>
      <trkpt lat="47.50372" lon="6.93737">
        <ele>362</ele>
        <time>2022-08-21T02:06:34Z</time>
      </trkpt>
      <trkpt lat="47.50375" lon="6.93583">
        <ele>377</ele>
        <time>2022-08-21T02:07:57Z</time>
      </trkpt>
      <trkpt lat="47.50374" lon="6.93557">
        <ele>379</ele>
        <time>2022-08-21T02:08:11Z</time>
      </trkpt>
      <trkpt lat="47.50366" lon="6.93534">
        <ele>380</ele>
        <time>2022-08-21T02:08:25Z</time>
      </trkpt>
      <trkpt lat="47.50354" lon="6.93513">
        <ele>381</ele>
        <time>2022-08-21T02:08:40Z</time>
      </trkpt>
      <trkpt lat="47.50333" lon="6.93487">
        <ele>381</ele>
        <time>2022-08-21T02:09:02Z</time>
      </trkpt>
      <trkpt lat="47.50309" lon="6.93452">
        <ele>385</ele>
        <time>2022-08-21T02:09:29Z</time>
      </trkpt>
      <trkpt lat="47.50289" lon="6.93412">
        <ele>388</ele>
        <time>2022-08-21T02:09:56Z</time>
      </trkpt>
      <trkpt lat="47.50274" lon="6.93377">
        <ele>392</ele>
        <time>2022-08-21T02:10:18Z</time>
      </trkpt>
      <trkpt lat="47.50261" lon="6.93361">
        <ele>393</ele>
        <time>2022-08-21T02:10:32Z</time>
      </trkpt>
      <trkpt lat="47.50252" lon="6.93355">
        <ele>393</ele>
        <time>2022-08-21T02:10:39Z</time>
      </trkpt>
      <trkpt lat="47.50241" lon="6.93353">
        <ele>394</ele>
        <time>2022-08-21T02:10:48Z</time>
      </trkpt>
      <trkpt lat="47.50231" lon="6.93355">
        <ele>394</ele>
        <time>2022-08-21T02:10:56Z</time>
      </trkpt>
      <trkpt lat="47.5022" lon="6.93363">
        <ele>395</ele>
        <time>2022-08-21T02:11:06Z</time>
      </trkpt>
      <trkpt lat="47.50212" lon="6.93375">
        <ele>395</ele>
        <time>2022-08-21T02:11:15Z</time>
      </trkpt>
      <trkpt lat="47.50204" lon="6.93399">
        <ele>395</ele>
        <time>2022-08-21T02:11:30Z</time>
      </trkpt>
      <trkpt lat="47.5019" lon="6.93466">
        <ele>396</ele>
        <time>2022-08-21T02:12:08Z</time>
      </trkpt>
      <trkpt lat="47.5018" lon="6.93492">
        <ele>398</ele>
        <time>2022-08-21T02:12:24Z</time>
      </trkpt>
      <trkpt lat="47.50169" lon="6.93507">
        <ele>399</ele>
        <time>2022-08-21T02:12:36Z</time>
      </trkpt>
      <trkpt lat="47.50151" lon="6.93517">
        <ele>400</ele>
        <time>2022-08-21T02:12:51Z</time>
      </trkpt>
      <trkpt lat="47.50124" lon="6.93516">
        <ele>401</ele>
        <time>2022-08-21T02:13:13Z</time>
      </trkpt>
      <trkpt lat="47.5011" lon="6.93505">
        <ele>403</ele>
        <time>2022-08-21T02:13:26Z</time>
      </trkpt>
      <trkpt lat="47.50061" lon="6.93453">
        <ele>408</ele>
        <time>2022-08-21T02:14:14Z</time>
      </trkpt>
      <trkpt lat="47.50039" lon="6.93445">
        <ele>411</ele>
        <time>2022-08-21T02:14:32Z</time>
      </trkpt>
      <trkpt lat="47.49973" lon="6.93455">
        <ele>415</ele>
        <time>2022-08-21T02:15:25Z</time>
      </trkpt>
      <trkpt lat="47.49934" lon="6.93447">
        <ele>416</ele>
        <time>2022-08-21T02:15:57Z</time>
      </trkpt>
      <trkpt lat="47.49877" lon="6.93428">
        <ele>421</ele>
        <time>2022-08-21T02:16:44Z</time>
      </trkpt>
      <trkpt lat="47.49842" lon="6.93413">
        <ele>424</ele>
        <time>2022-08-21T02:17:13Z</time>
      </trkpt>
      <trkpt lat="47.498" lon="6.93381">
        <ele>428</ele>
        <time>2022-08-21T02:17:51Z</time>
      </trkpt>
      <trkpt lat="47.49766" lon="6.93344">
        <ele>432</ele>
        <time>2022-08-21T02:18:24Z</time>
      </trkpt>
      <trkpt lat="47.49659" lon="6.93213">
        <ele>439</ele>
        <time>2022-08-21T02:20:15Z</time>
      </trkpt>
      <trkpt lat="47.49515" lon="6.93086">
        <ele>446</ele>
        <time>2022-08-21T02:22:30Z</time>
      </trkpt>
      <trkpt lat="47.495" lon="6.93071">
        <ele>446</ele>
        <time>2022-08-21T02:22:44Z</time>
      </trkpt>
      <trkpt lat="47.4936" lon="6.92904">
        <ele>447</ele>
        <time>2022-08-21T02:25:08Z</time>
      </trkpt>
      <trkpt lat="47.49325" lon="6.92876">
        <ele>447</ele>
        <time>2022-08-21T02:25:40Z</time>
      </trkpt>
      <trkpt lat="47.49229" lon="6.92807">
        <ele>449</ele>
        <time>2022-08-21T02:27:05Z</time>
      </trkpt>
      <trkpt lat="47.49167" lon="6.92715">
        <ele>448</ele>
        <time>2022-08-21T02:28:16Z</time>
      </trkpt>
      <trkpt lat="47.49128" lon="6.92662">
        <ele>445</ele>
        <time>2022-08-21T02:28:58Z</time>
      </trkpt>
      <trkpt lat="47.49118" lon="6.92651">
        <ele>445</ele>
        <time>2022-08-21T02:29:08Z</time>
      </trkpt>
      <trkpt lat="47.49108" lon="6.92645">
        <ele>444</ele>
        <time>2022-08-21T02:29:17Z</time>
      </trkpt>
      <trkpt lat="47.49074" lon="6.92633">
        <ele>443</ele>
        <time>2022-08-21T02:29:45Z</time>
      </trkpt>
      <trkpt lat="47.49046" lon="6.9263">
        <ele>442</ele>
        <time>2022-08-21T02:30:07Z</time>
      </trkpt>
      <trkpt lat="47.48983" lon="6.92627">
        <ele>440</ele>
        <time>2022-08-21T02:30:58Z</time>
      </trkpt>
      <trkpt lat="47.48954" lon="6.92614">
        <ele>438</ele>
        <time>2022-08-21T02:31:22Z</time>
      </trkpt>
      <trkpt lat="47.48848" lon="6.92599">
        <ele>433</ele>
        <time>2022-08-21T02:32:47Z</time>
      </trkpt>
      <trkpt lat="47.48838" lon="6.92594">
        <ele>432</ele>
        <time>2022-08-21T02:32:56Z</time>
      </trkpt>
      <trkpt lat="47.48819" lon="6.92593">
        <ele>431</ele>
        <time>2022-08-21T02:33:11Z</time>
      </trkpt>
      <trkpt lat="47.48749" lon="6.926">
        <ele>429</ele>
        <time>2022-08-21T02:34:07Z</time>
      </trkpt>
      <trkpt lat="47.48737" lon="6.92604">
        <ele>429</ele>
        <time>2022-08-21T02:34:17Z</time>
      </trkpt>
      <trkpt lat="47.48725" lon="6.92605">
        <ele>429</ele>
        <time>2022-08-21T02:34:27Z</time>
      </trkpt>
      <trkpt lat="47.48654" lon="6.92593">
        <ele>429</ele>
        <time>2022-08-21T02:35:24Z</time>
      </trkpt>
      <trkpt lat="47.48619" lon="6.92582">
        <ele>430</ele>
        <time>2022-08-21T02:35:52Z</time>
      </trkpt>
      <trkpt lat="47.48616" lon="6.9258">
        <ele>430</ele>
        <time>2022-08-21T02:35:55Z</time>
      </trkpt>
      <trkpt lat="47.48609" lon="6.92569">
        <ele>429</ele>
        <time>2022-08-21T02:36:03Z</time>
      </trkpt>
      <trkpt lat="47.48594" lon="6.92433">
        <ele>427</ele>
        <time>2022-08-21T02:37:18Z</time>
      </trkpt>
      <trkpt lat="47.48591" lon="6.92427">
        <ele>427</ele>
        <time>2022-08-21T02:37:22Z</time>
      </trkpt>
      <trkpt lat="47.48587" lon="6.92426">
        <ele>427</ele>
        <time>2022-08-21T02:37:25Z</time>
      </trkpt>
      <trkpt lat="47.48582" lon="6.92428">
        <ele>427</ele>
        <time>2022-08-21T02:37:29Z</time>
      </trkpt>
      <trkpt lat="47.48546" lon="6.92456">
        <ele>429</ele>
        <time>2022-08-21T02:38:02Z</time>
      </trkpt>
      <trkpt lat="47.48529" lon="6.92471">
        <ele>430</ele>
        <time>2022-08-21T02:38:18Z</time>
      </trkpt>
      <trkpt lat="47.48525" lon="6.92473">
        <ele>431</ele>
        <time>2022-08-21T02:38:21Z</time>
      </trkpt>
      <trkpt lat="47.48492" lon="6.92476">
        <ele>434</ele>
        <time>2022-08-21T02:38:47Z</time>
      </trkpt>
      <trkpt lat="47.48486" lon="6.92479">
        <ele>434</ele>
        <time>2022-08-21T02:38:53Z</time>
      </trkpt>
      <trkpt lat="47.48479" lon="6.92485">
        <ele>435</ele>
        <time>2022-08-21T02:38:59Z</time>
      </trkpt>
      <trkpt lat="47.48474" lon="6.92474">
        <ele>436</ele>
        <time>2022-08-21T02:39:06Z</time>
      </trkpt>
      <trkpt lat="47.48437" lon="6.9243">
        <ele>441</ele>
        <time>2022-08-21T02:39:44Z</time>
      </trkpt>
      <trkpt lat="47.48428" lon="6.92415">
        <ele>442</ele>
        <time>2022-08-21T02:39:55Z</time>
      </trkpt>
      <trkpt lat="47.48427" lon="6.92405">
        <ele>442</ele>
        <time>2022-08-21T02:40:01Z</time>
      </trkpt>
      <trkpt lat="47.48434" lon="6.92365">
        <ele>444</ele>
        <time>2022-08-21T02:40:23Z</time>
      </trkpt>
      <trkpt lat="47.48491" lon="6.92301">
        <ele>443</ele>
        <time>2022-08-21T02:41:20Z</time>
      </trkpt>
      <trkpt lat="47.48494" lon="6.92294">
        <ele>443</ele>
        <time>2022-08-21T02:41:25Z</time>
      </trkpt>
      <trkpt lat="47.48496" lon="6.92285">
        <ele>444</ele>
        <time>2022-08-21T02:41:30Z</time>
      </trkpt>
      <trkpt lat="47.48495" lon="6.9213">
        <ele>454</ele>
        <time>2022-08-21T02:42:54Z</time>
      </trkpt>
      <trkpt lat="47.48501" lon="6.91894">
        <ele>457</ele>
        <time>2022-08-21T02:45:01Z</time>
      </trkpt>
      <trkpt lat="47.48501" lon="6.91871">
        <ele>456</ele>
        <time>2022-08-21T02:45:14Z</time>
      </trkpt>
      <trkpt lat="47.48463" lon="6.91674">
        <ele>464</ele>
        <time>2022-08-21T02:47:05Z</time>
      </trkpt>
      <trkpt lat="47.48458" lon="6.91663">
        <ele>464</ele>
        <time>2022-08-21T02:47:12Z</time>
      </trkpt>
      <trkpt lat="47.48454" lon="6.91657">
        <ele>464</ele>
        <time>2022-08-21T02:47:16Z</time>
      </trkpt>
      <trkpt lat="47.48379" lon="6.91623">
        <ele>461</ele>
        <time>2022-08-21T02:48:19Z</time>
      </trkpt>
      <trkpt lat="47.4837" lon="6.91617">
        <ele>460</ele>
        <time>2022-08-21T02:48:27Z</time>
      </trkpt>
      <trkpt lat="47.48358" lon="6.91603">
        <ele>460</ele>
        <time>2022-08-21T02:48:39Z</time>
      </trkpt>
      <trkpt lat="47.48342" lon="6.91569">
        <ele>458</ele>
        <time>2022-08-21T02:49:02Z</time>
      </trkpt>
      <trkpt lat="47.48325" lon="6.91523">
        <ele>458</ele>
        <time>2022-08-21T02:49:30Z</time>
      </trkpt>
      <trkpt lat="47.48308" lon="6.91468">
        <ele>456</ele>
        <time>2022-08-21T02:50:03Z</time>
      </trkpt>
      <trkpt lat="47.48295" lon="6.9142">
        <ele>454</ele>
        <time>2022-08-21T02:50:31Z</time>
      </trkpt>
      <trkpt lat="47.48289" lon="6.91392">
        <ele>453</ele>
        <time>2022-08-21T02:50:47Z</time>
      </trkpt>
      <trkpt lat="47.48295" lon="6.91272">
        <ele>448</ele>
        <time>2022-08-21T02:51:52Z</time>
      </trkpt>
      <trkpt lat="47.483" lon="6.91237">
        <ele>446</ele>
        <time>2022-08-21T02:52:11Z</time>
      </trkpt>
      <trkpt lat="47.48323" lon="6.91125">
        <ele>439</ele>
        <time>2022-08-21T02:53:15Z</time>
      </trkpt>
      <trkpt lat="47.48348" lon="6.91045">
        <ele>434</ele>
        <time>2022-08-21T02:54:02Z</time>
      </trkpt>
      <trkpt lat="47.4835" lon="6.91029">
        <ele>433</ele>
        <time>2022-08-21T02:54:11Z</time>
      </trkpt>
      <trkpt lat="47.48349" lon="6.91013">
        <ele>432</ele>
        <time>2022-08-21T02:54:20Z</time>
      </trkpt>
      <trkpt lat="47.4833" lon="6.90875">
        <ele>426</ele>
        <time>2022-08-21T02:55:36Z</time>
      </trkpt>
      <trkpt lat="47.48315" lon="6.90749">
        <ele>423</ele>
        <time>2022-08-21T02:56:45Z</time>
      </trkpt>
      <trkpt lat="47.48311" lon="6.90728">
        <ele>423</ele>
        <time>2022-08-21T02:56:57Z</time>
      </trkpt>
      <trkpt lat="47.48297" lon="6.90679">
        <ele>421</ele>
        <time>2022-08-21T02:57:26Z</time>
      </trkpt>
      <trkpt lat="47.48273" lon="6.90618">
        <ele>419</ele>
        <time>2022-08-21T02:58:04Z</time>
      </trkpt>
      <trkpt lat="47.48265" lon="6.90601">
        <ele>419</ele>
        <time>2022-08-21T02:58:15Z</time>
      </trkpt>
      <trkpt lat="47.48251" lon="6.90578">
        <ele>418</ele>
        <time>2022-08-21T02:58:32Z</time>
      </trkpt>
      <trkpt lat="47.48203" lon="6.90516">
        <ele>414</ele>
        <time>2022-08-21T02:59:23Z</time>
      </trkpt>
      <trkpt lat="47.4815" lon="6.9047">
        <ele>410</ele>
        <time>2022-08-21T03:00:12Z</time>
      </trkpt>
      <trkpt lat="47.48116" lon="6.90436">
        <ele>407</ele>
        <time>2022-08-21T03:00:45Z</time>
      </trkpt>
      <trkpt lat="47.48096" lon="6.90411">
        <ele>406</ele>
        <time>2022-08-21T03:01:06Z</time>
      </trkpt>
      <trkpt lat="47.4808" lon="6.90385">
        <ele>404</ele>
        <time>2022-08-21T03:01:25Z</time>
      </trkpt>
      <trkpt lat="47.48032" lon="6.90296">
        <ele>398</ele>
        <time>2022-08-21T03:02:27Z</time>
      </trkpt>
      <trkpt lat="47.47968" lon="6.90207">
        <ele>392</ele>
        <time>2022-08-21T03:03:37Z</time>
      </trkpt>
      <trkpt lat="47.47947" lon="6.90162">
        <ele>391</ele>
        <time>2022-08-21T03:04:07Z</time>
      </trkpt>
      <trkpt lat="47.47907" lon="6.90029">
        <ele>390</ele>
        <time>2022-08-21T03:05:25Z</time>
      </trkpt>
      <trkpt lat="47.47901" lon="6.90001">
        <ele>390</ele>
        <time>2022-08-21T03:05:41Z</time>
      </trkpt>
      <trkpt lat="47.47888" lon="6.8992">
        <ele>388</ele>
        <time>2022-08-21T03:06:26Z</time>
      </trkpt>
      <trkpt lat="47.47875" lon="6.89844">
        <ele>388</ele>
        <time>2022-08-21T03:07:09Z</time>
      </trkpt>
      <trkpt lat="47.47869" lon="6.89805">
        <ele>387</ele>
        <time>2022-08-21T03:07:30Z</time>
      </trkpt>
      <trkpt lat="47.47864" lon="6.89743">
        <ele>386</ele>
        <time>2022-08-21T03:08:04Z</time>
      </trkpt>
      <trkpt lat="47.47864" lon="6.89673">
        <ele>384</ele>
        <time>2022-08-21T03:08:42Z</time>
      </trkpt>
      <trkpt lat="47.47861" lon="6.8962">
        <ele>384</ele>
        <time>2022-08-21T03:09:11Z</time>
      </trkpt>
      <trkpt lat="47.47856" lon="6.896">
        <ele>384</ele>
        <time>2022-08-21T03:09:22Z</time>
      </trkpt>
      <trkpt lat="47.47848" lon="6.89578">
        <ele>384</ele>
        <time>2022-08-21T03:09:36Z</time>
      </trkpt>
      <trkpt lat="47.47818" lon="6.89529">
        <ele>383</ele>
        <time>2022-08-21T03:10:12Z</time>
      </trkpt>
      <trkpt lat="47.47798" lon="6.89485">
        <ele>382</ele>
        <time>2022-08-21T03:10:40Z</time>
      </trkpt>
      <trkpt lat="47.47785" lon="6.89452">
        <ele>382</ele>
        <time>2022-08-21T03:11:01Z</time>
      </trkpt>
      <trkpt lat="47.47781" lon="6.89436">
        <ele>382</ele>
        <time>2022-08-21T03:11:10Z</time>
      </trkpt>
      <trkpt lat="47.47764" lon="6.89334">
        <ele>380</ele>
        <time>2022-08-21T03:12:07Z</time>
      </trkpt>
      <trkpt lat="47.47759" lon="6.89314">
        <ele>379</ele>
        <time>2022-08-21T03:12:19Z</time>
      </trkpt>
      <trkpt lat="47.47755" lon="6.89305">
        <ele>379</ele>
        <time>2022-08-21T03:12:24Z</time>
      </trkpt>
      <trkpt lat="47.47747" lon="6.89304">
        <ele>379</ele>
        <time>2022-08-21T03:12:31Z</time>
      </trkpt>
      <trkpt lat="47.47699" lon="6.89321">
        <ele>377</ele>
        <time>2022-08-21T03:13:10Z</time>
      </trkpt>
      <trkpt lat="47.47679" lon="6.8934">
        <ele>377</ele>
        <time>2022-08-21T03:13:29Z</time>
      </trkpt>
      <trkpt lat="47.47665" lon="6.89347">
        <ele>376</ele>
        <time>2022-08-21T03:13:41Z</time>
      </trkpt>
      <trkpt lat="47.47657" lon="6.89344">
        <ele>376</ele>
        <time>2022-08-21T03:13:48Z</time>
      </trkpt>
      <trkpt lat="47.47639" lon="6.89332">
        <ele>376</ele>
        <time>2022-08-21T03:14:04Z</time>
      </trkpt>
      <trkpt lat="47.47621" lon="6.89315">
        <ele>376</ele>
        <time>2022-08-21T03:14:21Z</time>
      </trkpt>
      <trkpt lat="47.47614" lon="6.89305">
        <ele>376</ele>
        <time>2022-08-21T03:14:29Z</time>
      </trkpt>
      <trkpt lat="47.47611" lon="6.89297">
        <ele>376</ele>
        <time>2022-08-21T03:14:34Z</time>
      </trkpt>
      <trkpt lat="47.47608" lon="6.89282">
        <ele>376</ele>
        <time>2022-08-21T03:14:42Z</time>
      </trkpt>
      <trkpt lat="47.47606" lon="6.89227">
        <ele>376</ele>
        <time>2022-08-21T03:15:12Z</time>
      </trkpt>
      <trkpt lat="47.47595" lon="6.89153">
        <ele>375</ele>
        <time>2022-08-21T03:15:53Z</time>
      </trkpt>
      <trkpt lat="47.47594" lon="6.89126">
        <ele>375</ele>
        <time>2022-08-21T03:16:07Z</time>
      </trkpt>
      <trkpt lat="47.47595" lon="6.88975">
        <ele>372</ele>
        <time>2022-08-21T03:17:29Z</time>
      </trkpt>
      <trkpt lat="47.47605" lon="6.88819">
        <ele>372</ele>
        <time>2022-08-21T03:18:54Z</time>
      </trkpt>
      <trkpt lat="47.47617" lon="6.88712">
        <ele>370</ele>
        <time>2022-08-21T03:19:53Z</time>
      </trkpt>
      <trkpt lat="47.47644" lon="6.88608">
        <ele>367</ele>
        <time>2022-08-21T03:20:53Z</time>
      </trkpt>
      <trkpt lat="47.47647" lon="6.88577">
        <ele>366</ele>
        <time>2022-08-21T03:21:10Z</time>
      </trkpt>
      <trkpt lat="47.47657" lon="6.88408">
        <ele>366</ele>
        <time>2022-08-21T03:22:42Z</time>
      </trkpt>
      <trkpt lat="47.47662" lon="6.88364">
        <ele>366</ele>
        <time>2022-08-21T03:23:06Z</time>
      </trkpt>
      <trkpt lat="47.47674" lon="6.88297">
        <ele>365</ele>
        <time>2022-08-21T03:23:43Z</time>
      </trkpt>
      <trkpt lat="47.47696" lon="6.88208">
        <ele>368</ele>
        <time>2022-08-21T03:24:35Z</time>
      </trkpt>
      <trkpt lat="47.47716" lon="6.88106">
        <ele>366</ele>
        <time>2022-08-21T03:25:32Z</time>
      </trkpt>
      <trkpt lat="47.47726" lon="6.88042">
        <ele>364</ele>
        <time>2022-08-21T03:26:08Z</time>
      </trkpt>
      <trkpt lat="47.47749" lon="6.87761">
        <ele>368</ele>
        <time>2022-08-21T03:28:41Z</time>
      </trkpt>
      <trkpt lat="47.47803" lon="6.87542">
        <ele>362</ele>
        <time>2022-08-21T03:30:47Z</time>
      </trkpt>
      <trkpt lat="47.47871" lon="6.87122">
        <ele>354</ele>
        <time>2022-08-21T03:34:41Z</time>
      </trkpt>
      <trkpt lat="47.47904" lon="6.86924">
        <ele>351</ele>
        <time>2022-08-21T03:36:31Z</time>
      </trkpt>
      <trkpt lat="47.47954" lon="6.86391">
        <ele>350</ele>
        <time>2022-08-21T03:41:22Z</time>
      </trkpt>
      <trkpt lat="47.47969" lon="6.86248">
        <ele>349</ele>
        <time>2022-08-21T03:42:41Z</time>
      </trkpt>
      <trkpt lat="47.47969" lon="6.86218">
        <ele>348</ele>
        <time>2022-08-21T03:42:57Z</time>
      </trkpt>
      <trkpt lat="47.47964" lon="6.86169">
        <ele>348</ele>
        <time>2022-08-21T03:43:24Z</time>
      </trkpt>
      <trkpt lat="47.47948" lon="6.86077">
        <ele>349</ele>
        <time>2022-08-21T03:44:15Z</time>
      </trkpt>
      <trkpt lat="47.47932" lon="6.86006">
        <ele>347</ele>
        <time>2022-08-21T03:44:56Z</time>
      </trkpt>
      <trkpt lat="47.47919" lon="6.85961">
        <ele>345</ele>
        <time>2022-08-21T03:45:22Z</time>
      </trkpt>
      <trkpt lat="47.47889" lon="6.85879">
        <ele>345</ele>
        <time>2022-08-21T03:46:12Z</time>
      </trkpt>
      <trkpt lat="47.47809" lon="6.85703">
        <ele>342</ele>
        <time>2022-08-21T03:48:07Z</time>
      </trkpt>
      <trkpt lat="47.47814" lon="6.85696">
        <ele>341</ele>
        <time>2022-08-21T03:48:13Z</time>
      </trkpt>
      <trkpt lat="47.47815" lon="6.8569">
        <ele>341</ele>
        <time>2022-08-21T03:48:16Z</time>
      </trkpt>
      <trkpt lat="47.47812" lon="6.8568">
        <ele>341</ele>
        <time>2022-08-21T03:48:22Z</time>
      </trkpt>
      <trkpt lat="47.47807" lon="6.85676">
        <ele>341</ele>
        <time>2022-08-21T03:48:27Z</time>
      </trkpt>
      <trkpt lat="47.47798" lon="6.85418">
        <ele>342</ele>
        <time>2022-08-21T03:50:46Z</time>
      </trkpt>
      <trkpt lat="47.47787" lon="6.85218">
        <ele>339</ele>
        <time>2022-08-21T03:52:35Z</time>
      </trkpt>
      <trkpt lat="47.47786" lon="6.8517">
        <ele>338</ele>
        <time>2022-08-21T03:53:01Z</time>
      </trkpt>
      <trkpt lat="47.47788" lon="6.8511">
        <ele>336</ele>
        <time>2022-08-21T03:53:33Z</time>
      </trkpt>
      <trkpt lat="47.47795" lon="6.85037">
        <ele>333</ele>
        <time>2022-08-21T03:54:13Z</time>
      </trkpt>
      <trkpt lat="47.47801" lon="6.85">
        <ele>331</ele>
        <time>2022-08-21T03:54:34Z</time>
      </trkpt>
      <trkpt lat="47.4781" lon="6.84966">
        <ele>330</ele>
        <time>2022-08-21T03:54:54Z</time>
      </trkpt>
      <trkpt lat="47.47837" lon="6.84908">
        <ele>329</ele>
        <time>2022-08-21T03:55:32Z</time>
      </trkpt>
      <trkpt lat="47.47848" lon="6.84891">
        <ele>329</ele>
        <time>2022-08-21T03:55:45Z</time>
      </trkpt>
      <trkpt lat="47.47855" lon="6.84885">
        <ele>329</ele>
        <time>2022-08-21T03:55:51Z</time>
      </trkpt>
      <trkpt lat="47.47857" lon="6.84887">
        <ele>329</ele>
        <time>2022-08-21T03:55:53Z</time>
      </trkpt>
      <trkpt lat="47.47864" lon="6.84887">
        <ele>329</ele>
        <time>2022-08-21T03:55:59Z</time>
      </trkpt>
      <trkpt lat="47.47868" lon="6.84881">
        <ele>329</ele>
        <time>2022-08-21T03:56:03Z</time>
      </trkpt>
      <trkpt lat="47.47869" lon="6.8487">
        <ele>329</ele>
        <time>2022-08-21T03:56:09Z</time>
      </trkpt>
      <trkpt lat="47.47865" lon="6.84864">
        <ele>329</ele>
        <time>2022-08-21T03:56:14Z</time>
      </trkpt>
      <trkpt lat="47.4786" lon="6.84862">
        <ele>329</ele>
        <time>2022-08-21T03:56:18Z</time>
      </trkpt>
      <trkpt lat="47.47858" lon="6.8485">
        <ele>329</ele>
        <time>2022-08-21T03:56:25Z</time>
      </trkpt>
      <trkpt lat="47.47851" lon="6.84771">
        <ele>329</ele>
        <time>2022-08-21T03:57:08Z</time>
      </trkpt>
      <trkpt lat="47.4784" lon="6.84575">
        <ele>327</ele>
        <time>2022-08-21T03:58:54Z</time>
      </trkpt>
      <trkpt lat="47.47836" lon="6.84489">
        <ele>326</ele>
        <time>2022-08-21T03:59:41Z</time>
      </trkpt>
      <trkpt lat="47.47837" lon="6.84356">
        <ele>323</ele>
        <time>2022-08-21T04:00:53Z</time>
      </trkpt>
      <trkpt lat="47.47839" lon="6.84297">
        <ele>322</ele>
        <time>2022-08-21T04:01:25Z</time>
      </trkpt>
      <trkpt lat="47.47848" lon="6.84295">
        <ele>322</ele>
        <time>2022-08-21T04:01:32Z</time>
      </trkpt>
      <trkpt lat="47.47862" lon="6.84285">
        <ele>322</ele>
        <time>2022-08-21T04:01:44Z</time>
      </trkpt>
      <trkpt lat="47.47878" lon="6.84255">
        <ele>322</ele>
        <time>2022-08-21T04:02:05Z</time>
      </trkpt>
      <trkpt lat="47.47883" lon="6.84243">
        <ele>322</ele>
        <time>2022-08-21T04:02:13Z</time>
      </trkpt>
      <trkpt lat="47.47866" lon="6.84229">
        <ele>322</ele>
        <time>2022-08-21T04:02:28Z</time>
      </trkpt>
      <trkpt lat="47.47747" lon="6.84103">
        <ele>320</ele>
        <time>2022-08-21T04:04:26Z</time>
      </trkpt>
      <trkpt lat="47.47727" lon="6.84085">
        <ele>320</ele>
        <time>2022-08-21T04:04:44Z</time>
      </trkpt>
      <trkpt lat="47.47678" lon="6.84054">
        <ele>320</ele>
        <time>2022-08-21T04:05:27Z</time>
      </trkpt>
      <trkpt lat="47.47618" lon="6.84027">
        <ele>321</ele>
        <time>2022-08-21T04:06:17Z</time>
      </trkpt>
      <trkpt lat="47.47606" lon="6.84028">
        <ele>322</ele>
        <time>2022-08-21T04:06:27Z</time>
      </trkpt>
      <trkpt lat="47.47594" lon="6.84036">
        <ele>322</ele>
        <time>2022-08-21T04:06:37Z</time>
      </trkpt>
      <trkpt lat="47.47562" lon="6.84047">
        <ele>323</ele>
        <time>2022-08-21T04:07:04Z</time>
      </trkpt>
      <trkpt lat="47.47435" lon="6.84103">
        <ele>323</ele>
        <time>2022-08-21T04:08:50Z</time>
      </trkpt>
      <trkpt lat="47.47323" lon="6.84159">
        <ele>324</ele>
        <time>2022-08-21T04:10:24Z</time>
      </trkpt>
      <trkpt lat="47.47302" lon="6.84172">
        <ele>324</ele>
        <time>2022-08-21T04:10:43Z</time>
      </trkpt>
      <trkpt lat="47.47242" lon="6.84226">
        <ele>325</ele>
        <time>2022-08-21T04:11:39Z</time>
      </trkpt>
      <trkpt lat="47.47233" lon="6.84229">
        <ele>326</ele>
        <time>2022-08-21T04:11:46Z</time>
      </trkpt>
      <trkpt lat="47.47212" lon="6.84222">
        <ele>327</ele>
        <time>2022-08-21T04:12:03Z</time>
      </trkpt>
      <trkpt lat="47.47204" lon="6.84208">
        <ele>327</ele>
        <time>2022-08-21T04:12:13Z</time>
      </trkpt>
      <trkpt lat="47.47201" lon="6.84191">
        <ele>327</ele>
        <time>2022-08-21T04:12:23Z</time>
      </trkpt>
      <trkpt lat="47.47198" lon="6.84166">
        <ele>327</ele>
        <time>2022-08-21T04:12:37Z</time>
      </trkpt>
      <trkpt lat="47.47193" lon="6.84148">
        <ele>327</ele>
        <time>2022-08-21T04:12:47Z</time>
      </trkpt>
      <trkpt lat="47.47185" lon="6.84137">
        <ele>328</ele>
        <time>2022-08-21T04:12:56Z</time>
      </trkpt>
      <trkpt lat="47.47173" lon="6.84125">
        <ele>329</ele>
        <time>2022-08-21T04:13:07Z</time>
      </trkpt>
      <trkpt lat="47.47141" lon="6.8411">
        <ele>330</ele>
        <time>2022-08-21T04:13:34Z</time>
      </trkpt>
      <trkpt lat="47.47113" lon="6.84099">
        <ele>330</ele>
        <time>2022-08-21T04:13:58Z</time>
      </trkpt>
      <trkpt lat="47.471" lon="6.84096">
        <ele>330</ele>
        <time>2022-08-21T04:14:08Z</time>
      </trkpt>
      <trkpt lat="47.47066" lon="6.84095">
        <ele>330</ele>
        <time>2022-08-21T04:14:35Z</time>
      </trkpt>
      <trkpt lat="47.47041" lon="6.841">
        <ele>329</ele>
        <time>2022-08-21T04:14:56Z</time>
      </trkpt>
      <trkpt lat="47.46983" lon="6.84117">
        <ele>330</ele>
        <time>2022-08-21T04:15:43Z</time>
      </trkpt>
      <trkpt lat="47.46882" lon="6.84166">
        <ele>335</ele>
        <time>2022-08-21T04:17:08Z</time>
      </trkpt>
      <trkpt lat="47.4679" lon="6.84191">
        <ele>337</ele>
        <time>2022-08-21T04:18:23Z</time>
      </trkpt>
      <trkpt lat="47.46777" lon="6.84192">
        <ele>336</ele>
        <time>2022-08-21T04:18:33Z</time>
      </trkpt>
      <trkpt lat="47.46647" lon="6.84189">
        <ele>332</ele>
        <time>2022-08-21T04:20:17Z</time>
      </trkpt>
      <trkpt lat="47.46619" lon="6.84194">
        <ele>331</ele>
        <time>2022-08-21T04:20:40Z</time>
      </trkpt>
      <trkpt lat="47.46574" lon="6.84208">
        <ele>332</ele>
        <time>2022-08-21T04:21:17Z</time>
      </trkpt>
      <trkpt lat="47.46539" lon="6.84215">
        <ele>335</ele>
        <time>2022-08-21T04:21:45Z</time>
      </trkpt>
      <trkpt lat="47.46513" lon="6.84216">
        <ele>336</ele>
        <time>2022-08-21T04:22:06Z</time>
      </trkpt>
      <trkpt lat="47.4644" lon="6.84216">
        <ele>339</ele>
        <time>2022-08-21T04:23:04Z</time>
      </trkpt>
      <trkpt lat="47.46271" lon="6.84197">
        <ele>336</ele>
        <time>2022-08-21T04:25:20Z</time>
      </trkpt>
      <trkpt lat="47.46256" lon="6.84189">
        <ele>335</ele>
        <time>2022-08-21T04:25:33Z</time>
      </trkpt>
      <trkpt lat="47.46247" lon="6.84177">
        <ele>332</ele>
        <time>2022-08-21T04:25:43Z</time>
      </trkpt>
      <trkpt lat="47.46245" lon="6.8417">
        <ele>330</ele>
        <time>2022-08-21T04:25:47Z</time>
      </trkpt>
      <trkpt lat="47.46239" lon="6.84165">
        <ele>329</ele>
        <time>2022-08-21T04:25:52Z</time>
      </trkpt>
      <trkpt lat="47.46231" lon="6.84166">
        <ele>330</ele>
        <time>2022-08-21T04:25:59Z</time>
      </trkpt>
      <trkpt lat="47.46219" lon="6.84182">
        <ele>334</ele>
        <time>2022-08-21T04:26:12Z</time>
      </trkpt>
      <trkpt lat="47.46198" lon="6.84186">
        <ele>336</ele>
        <time>2022-08-21T04:26:28Z</time>
      </trkpt>
      <trkpt lat="47.46128" lon="6.84176">
        <ele>335</ele>
        <time>2022-08-21T04:27:25Z</time>
      </trkpt>
      <trkpt lat="47.46022" lon="6.84156">
        <ele>333</ele>
        <time>2022-08-21T04:28:50Z</time>
      </trkpt>
      <trkpt lat="47.45989" lon="6.84147">
        <ele>335</ele>
        <time>2022-08-21T04:29:17Z</time>
      </trkpt>
      <trkpt lat="47.45857" lon="6.8406">
        <ele>334</ele>
        <time>2022-08-21T04:31:13Z</time>
      </trkpt>
      <trkpt lat="47.45788" lon="6.84027">
        <ele>334</ele>
        <time>2022-08-21T04:32:11Z</time>
      </trkpt>
      <trkpt lat="47.45741" lon="6.84016">
        <ele>335</ele>
        <time>2022-08-21T04:32:49Z</time>
      </trkpt>
      <trkpt lat="47.45475" lon="6.83978">
        <ele>344</ele>
        <time>2022-08-21T04:36:23Z</time>
      </trkpt>
      <trkpt lat="47.45459" lon="6.83973">
        <ele>345</ele>
        <time>2022-08-21T04:36:36Z</time>
      </trkpt>
      <trkpt lat="47.45408" lon="6.83948">
        <ele>345</ele>
        <time>2022-08-21T04:37:19Z</time>
      </trkpt>
      <trkpt lat="47.45376" lon="6.83936">
        <ele>343</ele>
        <time>2022-08-21T04:37:46Z</time>
      </trkpt>
      <trkpt lat="47.45292" lon="6.83921">
        <ele>338</ele>
        <time>2022-08-21T04:38:53Z</time>
      </trkpt>
      <trkpt lat="47.45279" lon="6.83921">
        <ele>338</ele>
        <time>2022-08-21T04:39:04Z</time>
      </trkpt>
      <trkpt lat="47.45263" lon="6.83925">
        <ele>339</ele>
        <time>2022-08-21T04:39:17Z</time>
      </trkpt>
      <trkpt lat="47.45239" lon="6.83925">
        <ele>340</ele>
        <time>2022-08-21T04:39:36Z</time>
      </trkpt>
      <trkpt lat="47.45181" lon="6.83875">
        <ele>334</ele>
        <time>2022-08-21T04:40:30Z</time>
      </trkpt>
      <trkpt lat="47.45175" lon="6.83873">
        <ele>335</ele>
        <time>2022-08-21T04:40:35Z</time>
      </trkpt>
      <trkpt lat="47.45168" lon="6.8388">
        <ele>336</ele>
        <time>2022-08-21T04:40:41Z</time>
      </trkpt>
      <trkpt lat="47.45141" lon="6.83901">
        <ele>340</ele>
        <time>2022-08-21T04:41:06Z</time>
      </trkpt>
      <trkpt lat="47.45124" lon="6.83904">
        <ele>340</ele>
        <time>2022-08-21T04:41:20Z</time>
      </trkpt>
      <trkpt lat="47.45066" lon="6.83902">
        <ele>338</ele>
        <time>2022-08-21T04:42:06Z</time>
      </trkpt>
      <trkpt lat="47.45059" lon="6.839">
        <ele>337</ele>
        <time>2022-08-21T04:42:12Z</time>
      </trkpt>
      <trkpt lat="47.45027" lon="6.83888">
        <ele>333</ele>
        <time>2022-08-21T04:42:38Z</time>
      </trkpt>
      <trkpt lat="47.44954" lon="6.83852">
        <ele>331</ele>
        <time>2022-08-21T04:43:40Z</time>
      </trkpt>
      <trkpt lat="47.44923" lon="6.83826">
        <ele>331</ele>
        <time>2022-08-21T04:44:08Z</time>
      </trkpt>
      <trkpt lat="47.44913" lon="6.83809">
        <ele>331</ele>
        <time>2022-08-21T04:44:20Z</time>
      </trkpt>
      <trkpt lat="47.44903" lon="6.83788">
        <ele>331</ele>
        <time>2022-08-21T04:44:34Z</time>
      </trkpt>
      <trkpt lat="47.44891" lon="6.83752">
        <ele>330</ele>
        <time>2022-08-21T04:44:56Z</time>
      </trkpt>
      <trkpt lat="47.44869" lon="6.83702">
        <ele>329</ele>
        <time>2022-08-21T04:45:28Z</time>
      </trkpt>
      <trkpt lat="47.44817" lon="6.83623">
        <ele>329</ele>
        <time>2022-08-21T04:46:28Z</time>
      </trkpt>
      <trkpt lat="47.44784" lon="6.83566">
        <ele>328</ele>
        <time>2022-08-21T04:47:09Z</time>
      </trkpt>
      <trkpt lat="47.44745" lon="6.83474">
        <ele>329</ele>
        <time>2022-08-21T04:48:08Z</time>
      </trkpt>
      <trkpt lat="47.44691" lon="6.83319">
        <ele>329</ele>
        <time>2022-08-21T04:49:42Z</time>
      </trkpt>
      <trkpt lat="47.44687" lon="6.83295">
        <ele>329</ele>
        <time>2022-08-21T04:49:55Z</time>
      </trkpt>
      <trkpt lat="47.44685" lon="6.83275">
        <ele>328</ele>
        <time>2022-08-21T04:50:06Z</time>
      </trkpt>
      <trkpt lat="47.44687" lon="6.83247">
        <ele>328</ele>
        <time>2022-08-21T04:50:22Z</time>
      </trkpt>
      <trkpt lat="47.447" lon="6.83203">
        <ele>329</ele>
        <time>2022-08-21T04:50:48Z</time>
      </trkpt>
      <trkpt lat="47.44707" lon="6.83168">
        <ele>329</ele>
        <time>2022-08-21T04:51:07Z</time>
      </trkpt>
      <trkpt lat="47.44708" lon="6.83137">
        <ele>329</ele>
        <time>2022-08-21T04:51:24Z</time>
      </trkpt>
      <trkpt lat="47.44707" lon="6.83122">
        <ele>328</ele>
        <time>2022-08-21T04:51:32Z</time>
      </trkpt>
      <trkpt lat="47.44701" lon="6.83092">
        <ele>328</ele>
        <time>2022-08-21T04:51:49Z</time>
      </trkpt>
      <trkpt lat="47.44675" lon="6.83002">
        <ele>328</ele>
        <time>2022-08-21T04:52:42Z</time>
      </trkpt>
      <trkpt lat="47.44637" lon="6.82891">
        <ele>329</ele>
        <time>2022-08-21T04:53:50Z</time>
      </trkpt>
      <trkpt lat="47.44618" lon="6.82827">
        <ele>330</ele>
        <time>2022-08-21T04:54:27Z</time>
      </trkpt>
      <trkpt lat="47.44602" lon="6.8277">
        <ele>329</ele>
        <time>2022-08-21T04:55:01Z</time>
      </trkpt>
      <trkpt lat="47.44578" lon="6.82644">
        <ele>330</ele>
        <time>2022-08-21T04:56:12Z</time>
      </trkpt>
      <trkpt lat="47.44546" lon="6.82408">
        <ele>328</ele>
        <time>2022-08-21T04:58:22Z</time>
      </trkpt>
      <trkpt lat="47.44455" lon="6.81696">
        <ele>331</ele>
        <time>2022-08-21T05:04:54Z</time>
      </trkpt>
      <trkpt lat="47.44457" lon="6.8167">
        <ele>331</ele>
        <time>2022-08-21T05:05:09Z</time>
      </trkpt>
      <trkpt lat="47.44462" lon="6.81655">
        <ele>331</ele>
        <time>2022-08-21T05:05:18Z</time>
      </trkpt>
      <trkpt lat="47.44471" lon="6.81635">
        <ele>331</ele>
        <time>2022-08-21T05:05:31Z</time>
      </trkpt>
      <trkpt lat="47.44485" lon="6.81613">
        <ele>331</ele>
        <time>2022-08-21T05:05:47Z</time>
      </trkpt>
      <trkpt lat="47.44579" lon="6.81516">
        <ele>330</ele>
        <time>2022-08-21T05:07:19Z</time>
      </trkpt>
      <trkpt lat="47.44717" lon="6.81382">
        <ele>329</ele>
        <time>2022-08-21T05:09:31Z</time>
      </trkpt>
      <trkpt lat="47.44841" lon="6.81258">
        <ele>331</ele>
        <time>2022-08-21T05:11:31Z</time>
      </trkpt>
      <trkpt lat="47.44968" lon="6.81124">
        <ele>330</ele>
        <time>2022-08-21T05:13:36Z</time>
      </trkpt>
      <trkpt lat="47.44978" lon="6.81118">
        <ele>330</ele>
        <time>2022-08-21T05:13:44Z</time>
      </trkpt>
      <trkpt lat="47.45019" lon="6.81101">
        <ele>331</ele>
        <time>2022-08-21T05:14:18Z</time>
      </trkpt>
      <trkpt lat="47.45028" lon="6.81095">
        <ele>331</ele>
        <time>2022-08-21T05:14:26Z</time>
      </trkpt>
      <trkpt lat="47.45038" lon="6.81083">
        <ele>331</ele>
        <time>2022-08-21T05:14:37Z</time>
      </trkpt>
      <trkpt lat="47.45053" lon="6.8106">
        <ele>331</ele>
        <time>2022-08-21T05:14:54Z</time>
      </trkpt>
      <trkpt lat="47.45095" lon="6.80989">
        <ele>331</ele>
        <time>2022-08-21T05:15:45Z</time>
      </trkpt>
      <trkpt lat="47.45108" lon="6.80927">
        <ele>332</ele>
        <time>2022-08-21T05:16:20Z</time>
      </trkpt>
      <trkpt lat="47.4511" lon="6.80879">
        <ele>333</ele>
        <time>2022-08-21T05:16:46Z</time>
      </trkpt>
      <trkpt lat="47.45115" lon="6.8083">
        <ele>333</ele>
        <time>2022-08-21T05:17:13Z</time>
      </trkpt>
      <trkpt lat="47.45128" lon="6.80749">
        <ele>333</ele>
        <time>2022-08-21T05:17:58Z</time>
      </trkpt>
      <trkpt lat="47.45143" lon="6.80658">
        <ele>334</ele>
        <time>2022-08-21T05:18:49Z</time>
      </trkpt>
      <trkpt lat="47.45153" lon="6.80487">
        <ele>333</ele>
        <time>2022-08-21T05:20:22Z</time>
      </trkpt>
      <trkpt lat="47.45151" lon="6.80403">
        <ele>334</ele>
        <time>2022-08-21T05:21:07Z</time>
      </trkpt>
      <trkpt lat="47.45141" lon="6.80234">
        <ele>334</ele>
        <time>2022-08-21T05:22:39Z</time>
      </trkpt>
      <trkpt lat="47.45128" lon="6.79984">
        <ele>335</ele>
        <time>2022-08-21T05:24:55Z</time>
      </trkpt>
      <trkpt lat="47.45127" lon="6.79954">
        <ele>336</ele>
        <time>2022-08-21T05:25:11Z</time>
      </trkpt>
      <trkpt lat="47.45114" lon="6.7983">
        <ele>337</ele>
        <time>2022-08-21T05:26:19Z</time>
      </trkpt>
      <trkpt lat="47.45109" lon="6.79756">
        <ele>337</ele>
        <time>2022-08-21T05:26:59Z</time>
      </trkpt>
      <trkpt lat="47.4511" lon="6.79719">
        <ele>336</ele>
        <time>2022-08-21T05:27:19Z</time>
      </trkpt>
      <trkpt lat="47.4512" lon="6.79606">
        <ele>333</ele>
        <time>2022-08-21T05:28:21Z</time>
      </trkpt>
      <trkpt lat="47.45132" lon="6.7952">
        <ele>333</ele>
        <time>2022-08-21T05:29:09Z</time>
      </trkpt>
      <trkpt lat="47.452" lon="6.79223">
        <ele>334</ele>
        <time>2022-08-21T05:31:58Z</time>
      </trkpt>
      <trkpt lat="47.45218" lon="6.79136">
        <ele>333</ele>
        <time>2022-08-21T05:32:48Z</time>
      </trkpt>
      <trkpt lat="47.4523" lon="6.79083">
        <ele>332</ele>
        <time>2022-08-21T05:33:18Z</time>
      </trkpt>
      <trkpt lat="47.45234" lon="6.79048">
        <ele>332</ele>
        <time>2022-08-21T05:33:37Z</time>
      </trkpt>
      <trkpt lat="47.45235" lon="6.79011">
        <ele>332</ele>
        <time>2022-08-21T05:33:57Z</time>
      </trkpt>
      <trkpt lat="47.45232" lon="6.78985">
        <ele>333</ele>
        <time>2022-08-21T05:34:12Z</time>
      </trkpt>
      <trkpt lat="47.45225" lon="6.78947">
        <ele>333</ele>
        <time>2022-08-21T05:34:33Z</time>
      </trkpt>
      <trkpt lat="47.45209" lon="6.78905">
        <ele>334</ele>
        <time>2022-08-21T05:34:59Z</time>
      </trkpt>
      <trkpt lat="47.45202" lon="6.78889">
        <ele>334</ele>
        <time>2022-08-21T05:35:09Z</time>
      </trkpt>
      <trkpt lat="47.45182" lon="6.7886">
        <ele>334</ele>
        <time>2022-08-21T05:35:32Z</time>
      </trkpt>
      <trkpt lat="47.45165" lon="6.78842">
        <ele>334</ele>
        <time>2022-08-21T05:35:48Z</time>
      </trkpt>
      <trkpt lat="47.4515" lon="6.78831">
        <ele>334</ele>
        <time>2022-08-21T05:36:02Z</time>
      </trkpt>
      <trkpt lat="47.44778" lon="6.78618">
        <ele>333</ele>
        <time>2022-08-21T05:41:21Z</time>
      </trkpt>
      <trkpt lat="47.44622" lon="6.78542">
        <ele>334</ele>
        <time>2022-08-21T05:43:33Z</time>
      </trkpt>
      <trkpt lat="47.44571" lon="6.78531">
        <ele>334</ele>
        <time>2022-08-21T05:44:14Z</time>
      </trkpt>
      <trkpt lat="47.44359" lon="6.78552">
        <ele>334</ele>
        <time>2022-08-21T05:47:04Z</time>
      </trkpt>
      <trkpt lat="47.44359" lon="6.78541">
        <ele>334</ele>
        <time>2022-08-21T05:47:10Z</time>
      </trkpt>
      <trkpt lat="47.44461" lon="6.78121">
        <ele>335</ele>
        <time>2022-08-21T05:51:12Z</time>
      </trkpt>
      <trkpt lat="47.4449" lon="6.78034">
        <ele>334</ele>
        <time>2022-08-21T05:52:04Z</time>
      </trkpt>
      <trkpt lat="47.44512" lon="6.77984">
        <ele>335</ele>
        <time>2022-08-21T05:52:37Z</time>
      </trkpt>
      <trkpt lat="47.44532" lon="6.77944">
        <ele>336</ele>
        <time>2022-08-21T05:53:03Z</time>
      </trkpt>
      <trkpt lat="47.44574" lon="6.77883">
        <ele>339</ele>
        <time>2022-08-21T05:53:51Z</time>
      </trkpt>
      <trkpt lat="47.44588" lon="6.77845">
        <ele>343</ele>
        <time>2022-08-21T05:54:14Z</time>
      </trkpt>
      <trkpt lat="47.44595" lon="6.77837">
        <ele>345</ele>
        <time>2022-08-21T05:54:21Z</time>
      </trkpt>
      <trkpt lat="47.44606" lon="6.77832">
        <ele>346</ele>
        <time>2022-08-21T05:54:30Z</time>
      </trkpt>
      <trkpt lat="47.44632" lon="6.77836">
        <ele>348</ele>
        <time>2022-08-21T05:54:51Z</time>
      </trkpt>
      <trkpt lat="47.44765" lon="6.77913">
        <ele>350</ele>
        <time>2022-08-21T05:56:46Z</time>
      </trkpt>
      <trkpt lat="47.44782" lon="6.77914">
        <ele>351</ele>
        <time>2022-08-21T05:56:59Z</time>
      </trkpt>
      <trkpt lat="47.44794" lon="6.77912">
        <ele>352</ele>
        <time>2022-08-21T05:57:09Z</time>
      </trkpt>
      <trkpt lat="47.4481" lon="6.77898">
        <ele>354</ele>
        <time>2022-08-21T05:57:24Z</time>
      </trkpt>
      <trkpt lat="47.44823" lon="6.77876">
        <ele>356</ele>
        <time>2022-08-21T05:57:40Z</time>
      </trkpt>
      <trkpt lat="47.4485" lon="6.77805">
        <ele>357</ele>
        <time>2022-08-21T05:58:24Z</time>
      </trkpt>
      <trkpt lat="47.4484" lon="6.77766">
        <ele>357</ele>
        <time>2022-08-21T05:58:46Z</time>
      </trkpt>
      <trkpt lat="47.44872" lon="6.77723">
        <ele>358</ele>
        <time>2022-08-21T05:59:21Z</time>
      </trkpt>
      <trkpt lat="47.44891" lon="6.77687">
        <ele>359</ele>
        <time>2022-08-21T05:59:46Z</time>
      </trkpt>
      <trkpt lat="47.44909" lon="6.77646">
        <ele>359</ele>
        <time>2022-08-21T06:00:12Z</time>
      </trkpt>
      <trkpt lat="47.45041" lon="6.77282">
        <ele>367</ele>
        <time>2022-08-21T06:03:56Z</time>
      </trkpt>
      <trkpt lat="47.45052" lon="6.77234">
        <ele>370</ele>
        <time>2022-08-21T06:04:23Z</time>
      </trkpt>
      <trkpt lat="47.45059" lon="6.77188">
        <ele>373</ele>
        <time>2022-08-21T06:04:49Z</time>
      </trkpt>
      <trkpt lat="47.45064" lon="6.77139">
        <ele>375</ele>
        <time>2022-08-21T06:05:16Z</time>
      </trkpt>
      <trkpt lat="47.45072" lon="6.77098">
        <ele>377</ele>
        <time>2022-08-21T06:05:39Z</time>
      </trkpt>
      <trkpt lat="47.45083" lon="6.77055">
        <ele>378</ele>
        <time>2022-08-21T06:06:04Z</time>
      </trkpt>
      <trkpt lat="47.45104" lon="6.77">
        <ele>383</ele>
        <time>2022-08-21T06:06:38Z</time>
      </trkpt>
      <trkpt lat="47.45153" lon="6.76891">
        <ele>390</ele>
        <time>2022-08-21T06:07:49Z</time>
      </trkpt>
      <trkpt lat="47.45204" lon="6.76796">
        <ele>395</ele>
        <time>2022-08-21T06:08:54Z</time>
      </trkpt>
      <trkpt lat="47.45234" lon="6.76747">
        <ele>396</ele>
        <time>2022-08-21T06:09:30Z</time>
      </trkpt>
      <trkpt lat="47.4524" lon="6.76755">
        <ele>396</ele>
        <time>2022-08-21T06:09:37Z</time>
      </trkpt>
      <trkpt lat="47.45247" lon="6.76761">
        <ele>396</ele>
        <time>2022-08-21T06:09:43Z</time>
      </trkpt>
      <trkpt lat="47.45277" lon="6.76774">
        <ele>397</ele>
        <time>2022-08-21T06:10:08Z</time>
      </trkpt>
      <trkpt lat="47.45312" lon="6.76787">
        <ele>398</ele>
        <time>2022-08-21T06:10:37Z</time>
      </trkpt>
      <trkpt lat="47.45348" lon="6.76794">
        <ele>398</ele>
        <time>2022-08-21T06:11:06Z</time>
      </trkpt>
      <trkpt lat="47.45371" lon="6.76794">
        <ele>398</ele>
        <time>2022-08-21T06:11:24Z</time>
      </trkpt>
      <trkpt lat="47.45395" lon="6.76789">
        <ele>398</ele>
        <time>2022-08-21T06:11:44Z</time>
      </trkpt>
      <trkpt lat="47.45656" lon="6.76721">
        <ele>390</ele>
        <time>2022-08-21T06:15:16Z</time>
      </trkpt>
      <trkpt lat="47.45714" lon="6.7672">
        <ele>387</ele>
        <time>2022-08-21T06:16:03Z</time>
      </trkpt>
      <trkpt lat="47.45837" lon="6.76729">
        <ele>378</ele>
        <time>2022-08-21T06:17:41Z</time>
      </trkpt>
      <trkpt lat="47.45874" lon="6.76729">
        <ele>375</ele>
        <time>2022-08-21T06:18:11Z</time>
      </trkpt>
      <trkpt lat="47.45928" lon="6.76718">
        <ele>371</ele>
        <time>2022-08-21T06:18:54Z</time>
      </trkpt>
      <trkpt lat="47.45983" lon="6.76703">
        <ele>367</ele>
        <time>2022-08-21T06:19:39Z</time>
      </trkpt>
      <trkpt lat="47.46101" lon="6.76678">
        <ele>360</ele>
        <time>2022-08-21T06:21:15Z</time>
      </trkpt>
      <trkpt lat="47.46165" lon="6.7665">
        <ele>361</ele>
        <time>2022-08-21T06:22:08Z</time>
      </trkpt>
      <trkpt lat="47.46238" lon="6.766">
        <ele>365</ele>
        <time>2022-08-21T06:23:12Z</time>
      </trkpt>
      <trkpt lat="47.46295" lon="6.76556">
        <ele>358</ele>
        <time>2022-08-21T06:24:04Z</time>
      </trkpt>
      <trkpt lat="47.46311" lon="6.76544">
        <ele>356</ele>
        <time>2022-08-21T06:24:18Z</time>
      </trkpt>
      <trkpt lat="47.46327" lon="6.76534">
        <ele>355</ele>
        <time>2022-08-21T06:24:32Z</time>
      </trkpt>
      <trkpt lat="47.46364" lon="6.76522">
        <ele>350</ele>
        <time>2022-08-21T06:25:03Z</time>
      </trkpt>
      <trkpt lat="47.46393" lon="6.76519">
        <ele>347</ele>
        <time>2022-08-21T06:25:26Z</time>
      </trkpt>
      <trkpt lat="47.46419" lon="6.76522">
        <ele>345</ele>
        <time>2022-08-21T06:25:47Z</time>
      </trkpt>
      <trkpt lat="47.46506" lon="6.76539">
        <ele>345</ele>
        <time>2022-08-21T06:26:57Z</time>
      </trkpt>
      <trkpt lat="47.46541" lon="6.76539">
        <ele>345</ele>
        <time>2022-08-21T06:27:25Z</time>
      </trkpt>
      <trkpt lat="47.46573" lon="6.76532">
        <ele>343</ele>
        <time>2022-08-21T06:27:51Z</time>
      </trkpt>
      <trkpt lat="47.46753" lon="6.76439">
        <ele>333</ele>
        <time>2022-08-21T06:30:24Z</time>
      </trkpt>
      <trkpt lat="47.46782" lon="6.76428">
        <ele>331</ele>
        <time>2022-08-21T06:30:48Z</time>
      </trkpt>
      <trkpt lat="47.46791" lon="6.76426">
        <ele>330</ele>
        <time>2022-08-21T06:30:55Z</time>
      </trkpt>
      <trkpt lat="47.46807" lon="6.76429">
        <ele>330</ele>
        <time>2022-08-21T06:31:08Z</time>
      </trkpt>
      <trkpt lat="47.46839" lon="6.76437">
        <ele>329</ele>
        <time>2022-08-21T06:31:34Z</time>
      </trkpt>
      <trkpt lat="47.46855" lon="6.76443">
        <ele>328</ele>
        <time>2022-08-21T06:31:47Z</time>
      </trkpt>
      <trkpt lat="47.46888" lon="6.76462">
        <ele>327</ele>
        <time>2022-08-21T06:32:15Z</time>
      </trkpt>
      <trkpt lat="47.46926" lon="6.76494">
        <ele>326</ele>
        <time>2022-08-21T06:32:50Z</time>
      </trkpt>
      <trkpt lat="47.46955" lon="6.76514">
        <ele>326</ele>
        <time>2022-08-21T06:33:16Z</time>
      </trkpt>
      <trkpt lat="47.47001" lon="6.76534">
        <ele>325</ele>
        <time>2022-08-21T06:33:54Z</time>
      </trkpt>
      <trkpt lat="47.47037" lon="6.76542">
        <ele>324</ele>
        <time>2022-08-21T06:34:23Z</time>
      </trkpt>
      <trkpt lat="47.47081" lon="6.76541">
        <ele>323</ele>
        <time>2022-08-21T06:34:59Z</time>
      </trkpt>
      <trkpt lat="47.47178" lon="6.76531">
        <ele>320</ele>
        <time>2022-08-21T06:36:17Z</time>
      </trkpt>
      <trkpt lat="47.47212" lon="6.76532">
        <ele>319</ele>
        <time>2022-08-21T06:36:44Z</time>
      </trkpt>
      <trkpt lat="47.47288" lon="6.76518">
        <ele>317</ele>
        <time>2022-08-21T06:37:45Z</time>
      </trkpt>
      <trkpt lat="47.47402" lon="6.76507">
        <ele>312</ele>
        <time>2022-08-21T06:39:17Z</time>
      </trkpt>
      <trkpt lat="47.47416" lon="6.76509">
        <ele>311</ele>
        <time>2022-08-21T06:39:28Z</time>
      </trkpt>
      <trkpt lat="47.47417" lon="6.76515">
        <ele>311</ele>
        <time>2022-08-21T06:39:31Z</time>
      </trkpt>
      <trkpt lat="47.4742" lon="6.76521">
        <ele>310</ele>
        <time>2022-08-21T06:39:35Z</time>
      </trkpt>
      <trkpt lat="47.47426" lon="6.76527">
        <ele>310</ele>
        <time>2022-08-21T06:39:41Z</time>
      </trkpt>
      <trkpt lat="47.47435" lon="6.76524">
        <ele>310</ele>
        <time>2022-08-21T06:39:48Z</time>
      </trkpt>
      <trkpt lat="47.4744" lon="6.76512">
        <ele>310</ele>
        <time>2022-08-21T06:39:56Z</time>
      </trkpt>
      <trkpt lat="47.47438" lon="6.765">
        <ele>310</ele>
        <time>2022-08-21T06:40:03Z</time>
      </trkpt>
      <trkpt lat="47.47432" lon="6.76493">
        <ele>311</ele>
        <time>2022-08-21T06:40:09Z</time>
      </trkpt>
      <trkpt lat="47.47435" lon="6.76465">
        <ele>311</ele>
        <time>2022-08-21T06:40:24Z</time>
      </trkpt>
      <trkpt lat="47.47484" lon="6.76255">
        <ele>315</ele>
        <time>2022-08-21T06:42:24Z</time>
      </trkpt>
      <trkpt lat="47.47532" lon="6.76005">
        <ele>309</ele>
        <time>2022-08-21T06:44:45Z</time>
      </trkpt>
      <trkpt lat="47.47567" lon="6.75695">
        <ele>310</ele>
        <time>2022-08-21T06:47:35Z</time>
      </trkpt>
      <trkpt lat="47.47578" lon="6.75616">
        <ele>309</ele>
        <time>2022-08-21T06:48:19Z</time>
      </trkpt>
      <trkpt lat="47.47617" lon="6.75434">
        <ele>309</ele>
        <time>2022-08-21T06:50:02Z</time>
      </trkpt>
      <trkpt lat="47.47665" lon="6.75228">
        <ele>312</ele>
        <time>2022-08-21T06:52:00Z</time>
      </trkpt>
      <trkpt lat="47.47678" lon="6.75156">
        <ele>311</ele>
        <time>2022-08-21T06:52:40Z</time>
      </trkpt>
      <trkpt lat="47.47699" lon="6.75008">
        <ele>310</ele>
        <time>2022-08-21T06:54:02Z</time>
      </trkpt>
      <trkpt lat="47.47712" lon="6.7485">
        <ele>308</ele>
        <time>2022-08-21T06:55:28Z</time>
      </trkpt>
      <trkpt lat="47.47715" lon="6.74693">
        <ele>308</ele>
        <time>2022-08-21T06:56:53Z</time>
      </trkpt>
      <trkpt lat="47.47711" lon="6.74561">
        <ele>308</ele>
        <time>2022-08-21T06:58:05Z</time>
      </trkpt>
      <trkpt lat="47.47703" lon="6.74433">
        <ele>307</ele>
        <time>2022-08-21T06:59:14Z</time>
      </trkpt>
      <trkpt lat="47.4769" lon="6.74281">
        <ele>310</ele>
        <time>2022-08-21T07:00:37Z</time>
      </trkpt>
      <trkpt lat="47.47684" lon="6.74236">
        <ele>310</ele>
        <time>2022-08-21T07:01:02Z</time>
      </trkpt>
      <trkpt lat="47.47674" lon="6.74185">
        <ele>309</ele>
        <time>2022-08-21T07:01:31Z</time>
      </trkpt>
      <trkpt lat="47.47657" lon="6.74113">
        <ele>310</ele>
        <time>2022-08-21T07:02:12Z</time>
      </trkpt>
      <trkpt lat="47.47589" lon="6.73922">
        <ele>309</ele>
        <time>2022-08-21T07:04:09Z</time>
      </trkpt>
      <trkpt lat="47.47576" lon="6.73871">
        <ele>308</ele>
        <time>2022-08-21T07:04:38Z</time>
      </trkpt>
      <trkpt lat="47.47566" lon="6.73821">
        <ele>308</ele>
        <time>2022-08-21T07:05:07Z</time>
      </trkpt>
      <trkpt lat="47.47544" lon="6.73624">
        <ele>308</ele>
        <time>2022-08-21T07:06:55Z</time>
      </trkpt>
      <trkpt lat="47.47532" lon="6.73559">
        <ele>308</ele>
        <time>2022-08-21T07:07:31Z</time>
      </trkpt>
      <trkpt lat="47.47509" lon="6.73489">
        <ele>307</ele>
        <time>2022-08-21T07:08:13Z</time>
      </trkpt>
      <trkpt lat="47.47467" lon="6.73396">
        <ele>309</ele>
        <time>2022-08-21T07:09:14Z</time>
      </trkpt>
      <trkpt lat="47.47448" lon="6.73355">
        <ele>309</ele>
        <time>2022-08-21T07:09:41Z</time>
      </trkpt>
      <trkpt lat="47.47432" lon="6.73304">
        <ele>310</ele>
        <time>2022-08-21T07:10:11Z</time>
      </trkpt>
      <trkpt lat="47.47421" lon="6.73251">
        <ele>311</ele>
        <time>2022-08-21T07:10:41Z</time>
      </trkpt>
      <trkpt lat="47.47417" lon="6.73216">
        <ele>311</ele>
        <time>2022-08-21T07:11:00Z</time>
      </trkpt>
      <trkpt lat="47.47414" lon="6.7316">
        <ele>312</ele>
        <time>2022-08-21T07:11:31Z</time>
      </trkpt>
      <trkpt lat="47.47419" lon="6.73106">
        <ele>312</ele>
        <time>2022-08-21T07:12:00Z</time>
      </trkpt>
      <trkpt lat="47.47425" lon="6.73082">
        <ele>312</ele>
        <time>2022-08-21T07:12:14Z</time>
      </trkpt>
      <trkpt lat="47.47429" lon="6.73048">
        <ele>311</ele>
        <time>2022-08-21T07:12:33Z</time>
      </trkpt>
      <trkpt lat="47.47435" lon="6.73014">
        <ele>310</ele>
        <time>2022-08-21T07:12:52Z</time>
      </trkpt>
      <trkpt lat="47.47438" lon="6.72979">
        <ele>310</ele>
        <time>2022-08-21T07:13:11Z</time>
      </trkpt>
      <trkpt lat="47.47438" lon="6.72929">
        <ele>309</ele>
        <time>2022-08-21T07:13:38Z</time>
      </trkpt>
      <trkpt lat="47.47431" lon="6.72846">
        <ele>308</ele>
        <time>2022-08-21T07:14:23Z</time>
      </trkpt>
      <trkpt lat="47.47422" lon="6.72763">
        <ele>306</ele>
        <time>2022-08-21T07:15:09Z</time>
      </trkpt>
      <trkpt lat="47.47376" lon="6.72441">
        <ele>315</ele>
        <time>2022-08-21T07:18:07Z</time>
      </trkpt>
      <trkpt lat="47.47363" lon="6.72373">
        <ele>315</ele>
        <time>2022-08-21T07:18:45Z</time>
      </trkpt>
      <trkpt lat="47.47337" lon="6.72273">
        <ele>313</ele>
        <time>2022-08-21T07:19:43Z</time>
      </trkpt>
      <trkpt lat="47.47323" lon="6.72227">
        <ele>313</ele>
        <time>2022-08-21T07:20:10Z</time>
      </trkpt>
      <trkpt lat="47.47288" lon="6.72125">
        <ele>312</ele>
        <time>2022-08-21T07:21:12Z</time>
      </trkpt>
      <trkpt lat="47.47202" lon="6.7191">
        <ele>317</ele>
        <time>2022-08-21T07:23:28Z</time>
      </trkpt>
      <trkpt lat="47.47167" lon="6.71818">
        <ele>313</ele>
        <time>2022-08-21T07:24:25Z</time>
      </trkpt>
      <trkpt lat="47.47154" lon="6.71778">
        <ele>316</ele>
        <time>2022-08-21T07:24:49Z</time>
      </trkpt>
      <trkpt lat="47.47091" lon="6.71567">
        <ele>309</ele>
        <time>2022-08-21T07:26:54Z</time>
      </trkpt>
      <trkpt lat="47.47063" lon="6.7148">
        <ele>313</ele>
        <time>2022-08-21T07:27:46Z</time>
      </trkpt>
      <trkpt lat="47.47048" lon="6.71437">
        <ele>314</ele>
        <time>2022-08-21T07:28:12Z</time>
      </trkpt>
      <trkpt lat="47.46986" lon="6.71283">
        <ele>310</ele>
        <time>2022-08-21T07:29:49Z</time>
      </trkpt>
      <trkpt lat="47.46898" lon="6.71083">
        <ele>307</ele>
        <time>2022-08-21T07:31:58Z</time>
      </trkpt>
      <trkpt lat="47.46843" lon="6.70962">
        <ele>306</ele>
        <time>2022-08-21T07:33:17Z</time>
      </trkpt>
      <trkpt lat="47.46666" lon="6.70592">
        <ele>306</ele>
        <time>2022-08-21T07:37:22Z</time>
      </trkpt>
      <trkpt lat="47.4644" lon="6.70109">
        <ele>303</ele>
        <time>2022-08-21T07:42:40Z</time>
      </trkpt>
      <trkpt lat="47.46264" lon="6.6974">
        <ele>303</ele>
        <time>2022-08-21T07:46:45Z</time>
      </trkpt>
      <trkpt lat="47.462" lon="6.69631">
        <ele>306</ele>
        <time>2022-08-21T07:48:03Z</time>
      </trkpt>
      <trkpt lat="47.46189" lon="6.6961">
        <ele>306</ele>
        <time>2022-08-21T07:48:17Z</time>
      </trkpt>
      <trkpt lat="47.46184" lon="6.69592">
        <ele>305</ele>
        <time>2022-08-21T07:48:28Z</time>
      </trkpt>
      <trkpt lat="47.46177" lon="6.69557">
        <ele>304</ele>
        <time>2022-08-21T07:48:48Z</time>
      </trkpt>
      <trkpt lat="47.46163" lon="6.69522">
        <ele>304</ele>
        <time>2022-08-21T07:49:10Z</time>
      </trkpt>
      <trkpt lat="47.46136" lon="6.69485">
        <ele>303</ele>
        <time>2022-08-21T07:49:39Z</time>
      </trkpt>
      <trkpt lat="47.45897" lon="6.69216">
        <ele>302</ele>
        <time>2022-08-21T07:53:40Z</time>
      </trkpt>
      <trkpt lat="47.45853" lon="6.69154">
        <ele>302</ele>
        <time>2022-08-21T07:54:28Z</time>
      </trkpt>
      <trkpt lat="47.45818" lon="6.69095">
        <ele>302</ele>
        <time>2022-08-21T07:55:11Z</time>
      </trkpt>
      <trkpt lat="47.45728" lon="6.68901">
        <ele>303</ele>
        <time>2022-08-21T07:57:18Z</time>
      </trkpt>
      <trkpt lat="47.4571" lon="6.68872">
        <ele>303</ele>
        <time>2022-08-21T07:57:39Z</time>
      </trkpt>
      <trkpt lat="47.45568" lon="6.68675">
        <ele>302</ele>
        <time>2022-08-21T08:00:15Z</time>
      </trkpt>
      <trkpt lat="47.45434" lon="6.68446">
        <ele>301</ele>
        <time>2022-08-21T08:02:59Z</time>
      </trkpt>
      <trkpt lat="47.45367" lon="6.6835">
        <ele>301</ele>
        <time>2022-08-21T08:04:14Z</time>
      </trkpt>
      <trkpt lat="47.4536" lon="6.68328">
        <ele>301</ele>
        <time>2022-08-21T08:04:27Z</time>
      </trkpt>
      <trkpt lat="47.45361" lon="6.68304">
        <ele>301</ele>
        <time>2022-08-21T08:04:40Z</time>
      </trkpt>
      <trkpt lat="47.45369" lon="6.68285">
        <ele>301</ele>
        <time>2022-08-21T08:04:52Z</time>
      </trkpt>
      <trkpt lat="47.45383" lon="6.68269">
        <ele>301</ele>
        <time>2022-08-21T08:05:06Z</time>
      </trkpt>
      <trkpt lat="47.45486" lon="6.68174">
        <ele>302</ele>
        <time>2022-08-21T08:06:44Z</time>
      </trkpt>
      <trkpt lat="47.45522" lon="6.68141">
        <ele>304</ele>
        <time>2022-08-21T08:07:17Z</time>
      </trkpt>
      <trkpt lat="47.45534" lon="6.6812">
        <ele>304</ele>
        <time>2022-08-21T08:07:32Z</time>
      </trkpt>
      <trkpt lat="47.45538" lon="6.68108">
        <ele>305</ele>
        <time>2022-08-21T08:07:40Z</time>
      </trkpt>
      <trkpt lat="47.45543" lon="6.68078">
        <ele>306</ele>
        <time>2022-08-21T08:07:56Z</time>
      </trkpt>
      <trkpt lat="47.45541" lon="6.68047">
        <ele>310</ele>
        <time>2022-08-21T08:08:13Z</time>
      </trkpt>
      <trkpt lat="47.45508" lon="6.67944">
        <ele>312</ele>
        <time>2022-08-21T08:09:15Z</time>
      </trkpt>
      <trkpt lat="47.45495" lon="6.67896">
        <ele>312</ele>
        <time>2022-08-21T08:09:43Z</time>
      </trkpt>
      <trkpt lat="47.45483" lon="6.6783">
        <ele>313</ele>
        <time>2022-08-21T08:10:20Z</time>
      </trkpt>
      <trkpt lat="47.45479" lon="6.678">
        <ele>313</ele>
        <time>2022-08-21T08:10:36Z</time>
      </trkpt>
      <trkpt lat="47.4548" lon="6.67678">
        <ele>313</ele>
        <time>2022-08-21T08:11:42Z</time>
      </trkpt>
      <trkpt lat="47.45492" lon="6.67576">
        <ele>315</ele>
        <time>2022-08-21T08:12:39Z</time>
      </trkpt>
      <trkpt lat="47.45495" lon="6.67488">
        <ele>317</ele>
        <time>2022-08-21T08:13:26Z</time>
      </trkpt>
      <trkpt lat="47.45494" lon="6.67395">
        <ele>318</ele>
        <time>2022-08-21T08:14:17Z</time>
      </trkpt>
      <trkpt lat="47.45488" lon="6.67315">
        <ele>321</ele>
        <time>2022-08-21T08:15:00Z</time>
      </trkpt>
      <trkpt lat="47.45468" lon="6.67168">
        <ele>323</ele>
        <time>2022-08-21T08:16:21Z</time>
      </trkpt>
      <trkpt lat="47.4538" lon="6.6679">
        <ele>318</ele>
        <time>2022-08-21T08:19:58Z</time>
      </trkpt>
      <trkpt lat="47.45369" lon="6.66725">
        <ele>318</ele>
        <time>2022-08-21T08:20:34Z</time>
      </trkpt>
      <trkpt lat="47.45353" lon="6.66604">
        <ele>316</ele>
        <time>2022-08-21T08:21:41Z</time>
      </trkpt>
      <trkpt lat="47.45345" lon="6.66468">
        <ele>315</ele>
        <time>2022-08-21T08:22:55Z</time>
      </trkpt>
      <trkpt lat="47.45346" lon="6.66386">
        <ele>314</ele>
        <time>2022-08-21T08:23:39Z</time>
      </trkpt>
      <trkpt lat="47.45353" lon="6.66271">
        <ele>310</ele>
        <time>2022-08-21T08:24:42Z</time>
      </trkpt>
      <trkpt lat="47.45359" lon="6.66239">
        <ele>310</ele>
        <time>2022-08-21T08:25:00Z</time>
      </trkpt>
      <trkpt lat="47.45371" lon="6.66155">
        <ele>309</ele>
        <time>2022-08-21T08:25:46Z</time>
      </trkpt>
      <trkpt lat="47.4537" lon="6.66144">
        <ele>309</ele>
        <time>2022-08-21T08:25:52Z</time>
      </trkpt>
      <trkpt lat="47.45373" lon="6.66101">
        <ele>307</ele>
        <time>2022-08-21T08:26:16Z</time>
      </trkpt>
      <trkpt lat="47.45373" lon="6.66055">
        <ele>309</ele>
        <time>2022-08-21T08:26:40Z</time>
      </trkpt>
      <trkpt lat="47.4537" lon="6.66031">
        <ele>310</ele>
        <time>2022-08-21T08:26:54Z</time>
      </trkpt>
      <trkpt lat="47.45365" lon="6.66006">
        <ele>312</ele>
        <time>2022-08-21T08:27:08Z</time>
      </trkpt>
      <trkpt lat="47.45355" lon="6.65976">
        <ele>311</ele>
        <time>2022-08-21T08:27:26Z</time>
      </trkpt>
      <trkpt lat="47.45344" lon="6.65946">
        <ele>310</ele>
        <time>2022-08-21T08:27:44Z</time>
      </trkpt>
      <trkpt lat="47.45309" lon="6.65875">
        <ele>306</ele>
        <time>2022-08-21T08:28:32Z</time>
      </trkpt>
      <trkpt lat="47.45302" lon="6.65857">
        <ele>305</ele>
        <time>2022-08-21T08:28:43Z</time>
      </trkpt>
      <trkpt lat="47.45289" lon="6.658">
        <ele>305</ele>
        <time>2022-08-21T08:29:16Z</time>
      </trkpt>
      <trkpt lat="47.45268" lon="6.65721">
        <ele>305</ele>
        <time>2022-08-21T08:30:02Z</time>
      </trkpt>
      <trkpt lat="47.45255" lon="6.65641">
        <ele>303</ele>
        <time>2022-08-21T08:30:46Z</time>
      </trkpt>
      <trkpt lat="47.45225" lon="6.65502">
        <ele>305</ele>
        <time>2022-08-21T08:32:05Z</time>
      </trkpt>
      <trkpt lat="47.45219" lon="6.65486">
        <ele>305</ele>
        <time>2022-08-21T08:32:15Z</time>
      </trkpt>
      <trkpt lat="47.45215" lon="6.65472">
        <ele>305</ele>
        <time>2022-08-21T08:32:23Z</time>
      </trkpt>
      <trkpt lat="47.45209" lon="6.65442">
        <ele>305</ele>
        <time>2022-08-21T08:32:40Z</time>
      </trkpt>
      <trkpt lat="47.45207" lon="6.65424">
        <ele>305</ele>
        <time>2022-08-21T08:32:50Z</time>
      </trkpt>
      <trkpt lat="47.45154" lon="6.65163">
        <ele>300</ele>
        <time>2022-08-21T08:35:18Z</time>
      </trkpt>
      <trkpt lat="47.45148" lon="6.6513">
        <ele>299</ele>
        <time>2022-08-21T08:35:36Z</time>
      </trkpt>
      <trkpt lat="47.45144" lon="6.65066">
        <ele>299</ele>
        <time>2022-08-21T08:36:11Z</time>
      </trkpt>
      <trkpt lat="47.45164" lon="6.64822">
        <ele>299</ele>
        <time>2022-08-21T08:38:24Z</time>
      </trkpt>
      <trkpt lat="47.45183" lon="6.64622">
        <ele>298</ele>
        <time>2022-08-21T08:40:13Z</time>
      </trkpt>
      <trkpt lat="47.45233" lon="6.64155">
        <ele>302</ele>
        <time>2022-08-21T08:44:29Z</time>
      </trkpt>
      <trkpt lat="47.45244" lon="6.64029">
        <ele>303</ele>
        <time>2022-08-21T08:45:38Z</time>
      </trkpt>
      <trkpt lat="47.45293" lon="6.63644">
        <ele>301</ele>
        <time>2022-08-21T08:49:10Z</time>
      </trkpt>
      <trkpt lat="47.45316" lon="6.63558">
        <ele>301</ele>
        <time>2022-08-21T08:50:00Z</time>
      </trkpt>
      <trkpt lat="47.45408" lon="6.63328">
        <ele>307</ele>
        <time>2022-08-21T08:52:25Z</time>
      </trkpt>
      <trkpt lat="47.45423" lon="6.63245">
        <ele>313</ele>
        <time>2022-08-21T08:53:12Z</time>
      </trkpt>
      <trkpt lat="47.45426" lon="6.63198">
        <ele>314</ele>
        <time>2022-08-21T08:53:37Z</time>
      </trkpt>
      <trkpt lat="47.45427" lon="6.63126">
        <ele>316</ele>
        <time>2022-08-21T08:54:16Z</time>
      </trkpt>
      <trkpt lat="47.45418" lon="6.63062">
        <ele>315</ele>
        <time>2022-08-21T08:54:52Z</time>
      </trkpt>
      <trkpt lat="47.45405" lon="6.63004">
        <ele>314</ele>
        <time>2022-08-21T08:55:25Z</time>
      </trkpt>
      <trkpt lat="47.45388" lon="6.62942">
        <ele>315</ele>
        <time>2022-08-21T08:56:01Z</time>
      </trkpt>
      <trkpt lat="47.4524" lon="6.62591">
        <ele>328</ele>
        <time>2022-08-21T08:59:45Z</time>
      </trkpt>
      <trkpt lat="47.45129" lon="6.62335">
        <ele>326</ele>
        <time>2022-08-21T09:02:29Z</time>
      </trkpt>
      <trkpt lat="47.45085" lon="6.62254">
        <ele>327</ele>
        <time>2022-08-21T09:03:26Z</time>
      </trkpt>
      <trkpt lat="47.4495" lon="6.6202">
        <ele>330</ele>
        <time>2022-08-21T09:06:12Z</time>
      </trkpt>
      <trkpt lat="47.44919" lon="6.61959">
        <ele>334</ele>
        <time>2022-08-21T09:06:54Z</time>
      </trkpt>
      <trkpt lat="47.44825" lon="6.6173">
        <ele>344</ele>
        <time>2022-08-21T09:09:19Z</time>
      </trkpt>
      <trkpt lat="47.44696" lon="6.61374">
        <ele>326</ele>
        <time>2022-08-21T09:12:57Z</time>
      </trkpt>
      <trkpt lat="47.44682" lon="6.61315">
        <ele>322</ele>
        <time>2022-08-21T09:13:31Z</time>
      </trkpt>
      <trkpt lat="47.44678" lon="6.61237">
        <ele>320</ele>
        <time>2022-08-21T09:14:14Z</time>
      </trkpt>
      <trkpt lat="47.44679" lon="6.6121">
        <ele>320</ele>
        <time>2022-08-21T09:14:28Z</time>
      </trkpt>
      <trkpt lat="47.44681" lon="6.61183">
        <ele>319</ele>
        <time>2022-08-21T09:14:43Z</time>
      </trkpt>
      <trkpt lat="47.44688" lon="6.61144">
        <ele>318</ele>
        <time>2022-08-21T09:15:05Z</time>
      </trkpt>
      <trkpt lat="47.44705" lon="6.61091">
        <ele>316</ele>
        <time>2022-08-21T09:15:36Z</time>
      </trkpt>
      <trkpt lat="47.44754" lon="6.60975">
        <ele>311</ele>
        <time>2022-08-21T09:16:51Z</time>
      </trkpt>
      <trkpt lat="47.44803" lon="6.60869">
        <ele>310</ele>
        <time>2022-08-21T09:18:00Z</time>
      </trkpt>
      <trkpt lat="47.44842" lon="6.60797">
        <ele>307</ele>
        <time>2022-08-21T09:18:50Z</time>
      </trkpt>
      <trkpt lat="47.44907" lon="6.60699">
        <ele>302</ele>
        <time>2022-08-21T09:20:04Z</time>
      </trkpt>
      <trkpt lat="47.45115" lon="6.60422">
        <ele>291</ele>
        <time>2022-08-21T09:23:48Z</time>
      </trkpt>
      <trkpt lat="47.45209" lon="6.60301">
        <ele>291</ele>
        <time>2022-08-21T09:25:28Z</time>
      </trkpt>
      <trkpt lat="47.4527" lon="6.60229">
        <ele>291</ele>
        <time>2022-08-21T09:26:31Z</time>
      </trkpt>
      <trkpt lat="47.45336" lon="6.60159">
        <ele>290</ele>
        <time>2022-08-21T09:27:36Z</time>
      </trkpt>
      <trkpt lat="47.45409" lon="6.60068">
        <ele>290</ele>
        <time>2022-08-21T09:28:52Z</time>
      </trkpt>
      <trkpt lat="47.45488" lon="6.5995">
        <ele>290</ele>
        <time>2022-08-21T09:30:22Z</time>
      </trkpt>
      <trkpt lat="47.45538" lon="6.59852">
        <ele>291</ele>
        <time>2022-08-21T09:31:29Z</time>
      </trkpt>
      <trkpt lat="47.45608" lon="6.59683">
        <ele>289</ele>
        <time>2022-08-21T09:33:16Z</time>
      </trkpt>
      <trkpt lat="47.4575" lon="6.59227">
        <ele>291</ele>
        <time>2022-08-21T09:37:48Z</time>
      </trkpt>
      <trkpt lat="47.45782" lon="6.59164">
        <ele>302</ele>
        <time>2022-08-21T09:38:30Z</time>
      </trkpt>
      <trkpt lat="47.45791" lon="6.59142">
        <ele>305</ele>
        <time>2022-08-21T09:38:44Z</time>
      </trkpt>
      <trkpt lat="47.45794" lon="6.59115">
        <ele>306</ele>
        <time>2022-08-21T09:38:59Z</time>
      </trkpt>
      <trkpt lat="47.45792" lon="6.59051">
        <ele>308</ele>
        <time>2022-08-21T09:39:34Z</time>
      </trkpt>
      <trkpt lat="47.45778" lon="6.58933">
        <ele>311</ele>
        <time>2022-08-21T09:40:39Z</time>
      </trkpt>
      <trkpt lat="47.4576" lon="6.5886">
        <ele>308</ele>
        <time>2022-08-21T09:41:21Z</time>
      </trkpt>
      <trkpt lat="47.45706" lon="6.58672">
        <ele>310</ele>
        <time>2022-08-21T09:43:11Z</time>
      </trkpt>
      <trkpt lat="47.4569" lon="6.58637">
        <ele>309</ele>
        <time>2022-08-21T09:43:34Z</time>
      </trkpt>
      <trkpt lat="47.45553" lon="6.58406">
        <ele>301</ele>
        <time>2022-08-21T09:46:20Z</time>
      </trkpt>
      <trkpt lat="47.45395" lon="6.5811">
        <ele>301</ele>
        <time>2022-08-21T09:49:45Z</time>
      </trkpt>
      <trkpt lat="47.45355" lon="6.5803">
        <ele>299</ele>
        <time>2022-08-21T09:50:38Z</time>
      </trkpt>
      <trkpt lat="47.45173" lon="6.57817">
        <ele>297</ele>
        <time>2022-08-21T09:53:44Z</time>
      </trkpt>
      <trkpt lat="47.45153" lon="6.57803">
        <ele>297</ele>
        <time>2022-08-21T09:54:02Z</time>
      </trkpt>
      <trkpt lat="47.45143" lon="6.57821">
        <ele>293</ele>
        <time>2022-08-21T09:54:15Z</time>
      </trkpt>
      <trkpt lat="47.45126" lon="6.57852">
        <ele>290</ele>
        <time>2022-08-21T09:54:36Z</time>
      </trkpt>
      <trkpt lat="47.45092" lon="6.57919">
        <ele>289</ele>
        <time>2022-08-21T09:55:22Z</time>
      </trkpt>
      <trkpt lat="47.45039" lon="6.58018">
        <ele>288</ele>
        <time>2022-08-21T09:56:30Z</time>
      </trkpt>
      <trkpt lat="47.4503" lon="6.58028">
        <ele>289</ele>
        <time>2022-08-21T09:56:39Z</time>
      </trkpt>
      <trkpt lat="47.4502" lon="6.58035">
        <ele>289</ele>
        <time>2022-08-21T09:56:48Z</time>
      </trkpt>
      <trkpt lat="47.45006" lon="6.58049">
        <ele>290</ele>
        <time>2022-08-21T09:57:01Z</time>
      </trkpt>
      <trkpt lat="47.44959" lon="6.58117">
        <ele>290</ele>
        <time>2022-08-21T09:57:54Z</time>
      </trkpt>
      <trkpt lat="47.44936" lon="6.58147">
        <ele>289</ele>
        <time>2022-08-21T09:58:19Z</time>
      </trkpt>
      <trkpt lat="47.44926" lon="6.58153">
        <ele>289</ele>
        <time>2022-08-21T09:58:27Z</time>
      </trkpt>
      <trkpt lat="47.4492" lon="6.58148">
        <ele>289</ele>
        <time>2022-08-21T09:58:33Z</time>
      </trkpt>
      <trkpt lat="47.44913" lon="6.58149">
        <ele>289</ele>
        <time>2022-08-21T09:58:38Z</time>
      </trkpt>
      <trkpt lat="47.44908" lon="6.58156">
        <ele>289</ele>
        <time>2022-08-21T09:58:44Z</time>
      </trkpt>
      <trkpt lat="47.44907" lon="6.58167">
        <ele>289</ele>
        <time>2022-08-21T09:58:50Z</time>
      </trkpt>
      <trkpt lat="47.44911" lon="6.58177">
        <ele>289</ele>
        <time>2022-08-21T09:58:56Z</time>
      </trkpt>
      <trkpt lat="47.44914" lon="6.5818">
        <ele>289</ele>
        <time>2022-08-21T09:58:59Z</time>
      </trkpt>
      <trkpt lat="47.44913" lon="6.58191">
        <ele>289</ele>
        <time>2022-08-21T09:59:05Z</time>
      </trkpt>
      <trkpt lat="47.44907" lon="6.58204">
        <ele>289</ele>
        <time>2022-08-21T09:59:14Z</time>
      </trkpt>
      <trkpt lat="47.44896" lon="6.58221">
        <ele>290</ele>
        <time>2022-08-21T09:59:26Z</time>
      </trkpt>
      <trkpt lat="47.44886" lon="6.58237">
        <ele>290</ele>
        <time>2022-08-21T09:59:38Z</time>
      </trkpt>
      <trkpt lat="47.44862" lon="6.58269">
        <ele>290</ele>
        <time>2022-08-21T10:00:04Z</time>
      </trkpt>
      <trkpt lat="47.44837" lon="6.58307">
        <ele>290</ele>
        <time>2022-08-21T10:00:33Z</time>
      </trkpt>
      <trkpt lat="47.44821" lon="6.58329">
        <ele>290</ele>
        <time>2022-08-21T10:00:50Z</time>
      </trkpt>
      <trkpt lat="47.44817" lon="6.58339">
        <ele>290</ele>
        <time>2022-08-21T10:00:57Z</time>
      </trkpt>
      <trkpt lat="47.44815" lon="6.58342">
        <ele>290</ele>
        <time>2022-08-21T10:00:59Z</time>
      </trkpt>
      <trkpt lat="47.44801" lon="6.58344">
        <ele>290</ele>
        <time>2022-08-21T10:01:10Z</time>
      </trkpt>
      <trkpt lat="47.44788" lon="6.58344">
        <ele>290</ele>
        <time>2022-08-21T10:01:20Z</time>
      </trkpt>
      <trkpt lat="47.44755" lon="6.5831">
        <ele>290</ele>
        <time>2022-08-21T10:01:53Z</time>
      </trkpt>
      <trkpt lat="47.44718" lon="6.58268">
        <ele>290</ele>
        <time>2022-08-21T10:02:30Z</time>
      </trkpt>
      <trkpt lat="47.44698" lon="6.58251">
        <ele>290</ele>
        <time>2022-08-21T10:02:48Z</time>
      </trkpt>
      <trkpt lat="47.44671" lon="6.58232">
        <ele>290</ele>
        <time>2022-08-21T10:03:12Z</time>
      </trkpt>
      <trkpt lat="47.44256" lon="6.57997">
        <ele>292</ele>
        <time>2022-08-21T10:09:08Z</time>
      </trkpt>
      <trkpt lat="47.44249" lon="6.5799">
        <ele>292</ele>
        <time>2022-08-21T10:09:15Z</time>
      </trkpt>
      <trkpt lat="47.44244" lon="6.57977">
        <ele>292</ele>
        <time>2022-08-21T10:09:23Z</time>
      </trkpt>
      <trkpt lat="47.44243" lon="6.57961">
        <ele>291</ele>
        <time>2022-08-21T10:09:32Z</time>
      </trkpt>
      <trkpt lat="47.44214" lon="6.57963">
        <ele>291</ele>
        <time>2022-08-21T10:09:55Z</time>
      </trkpt>
      <trkpt lat="47.44145" lon="6.57962">
        <ele>292</ele>
        <time>2022-08-21T10:10:50Z</time>
      </trkpt>
      <trkpt lat="47.44118" lon="6.57968">
        <ele>293</ele>
        <time>2022-08-21T10:11:12Z</time>
      </trkpt>
      <trkpt lat="47.44086" lon="6.57982">
        <ele>295</ele>
        <time>2022-08-21T10:11:39Z</time>
      </trkpt>
      <trkpt lat="47.43999" lon="6.58026">
        <ele>303</ele>
        <time>2022-08-21T10:12:53Z</time>
      </trkpt>
      <trkpt lat="47.43954" lon="6.58045">
        <ele>305</ele>
        <time>2022-08-21T10:13:30Z</time>
      </trkpt>
      <trkpt lat="47.43934" lon="6.58049">
        <ele>305</ele>
        <time>2022-08-21T10:13:46Z</time>
      </trkpt>
      <trkpt lat="47.43922" lon="6.58049">
        <ele>305</ele>
        <time>2022-08-21T10:13:56Z</time>
      </trkpt>
      <trkpt lat="47.43906" lon="6.58045">
        <ele>306</ele>
        <time>2022-08-21T10:14:09Z</time>
      </trkpt>
      <trkpt lat="47.43892" lon="6.58037">
        <ele>307</ele>
        <time>2022-08-21T10:14:21Z</time>
      </trkpt>
      <trkpt lat="47.43823" lon="6.5798">
        <ele>310</ele>
        <time>2022-08-21T10:15:24Z</time>
      </trkpt>
      <trkpt lat="47.43794" lon="6.57961">
        <ele>311</ele>
        <time>2022-08-21T10:15:49Z</time>
      </trkpt>
      <trkpt lat="47.43781" lon="6.57957">
        <ele>311</ele>
        <time>2022-08-21T10:16:00Z</time>
      </trkpt>
      <trkpt lat="47.43768" lon="6.57956">
        <ele>312</ele>
        <time>2022-08-21T10:16:10Z</time>
      </trkpt>
      <trkpt lat="47.43735" lon="6.57967">
        <ele>314</ele>
        <time>2022-08-21T10:16:38Z</time>
      </trkpt>
      <trkpt lat="47.43702" lon="6.57969">
        <ele>317</ele>
        <time>2022-08-21T10:17:04Z</time>
      </trkpt>
      <trkpt lat="47.43699" lon="6.57965">
        <ele>318</ele>
        <time>2022-08-21T10:17:07Z</time>
      </trkpt>
      <trkpt lat="47.43691" lon="6.57962">
        <ele>319</ele>
        <time>2022-08-21T10:17:14Z</time>
      </trkpt>
      <trkpt lat="47.43684" lon="6.57965">
        <ele>320</ele>
        <time>2022-08-21T10:17:20Z</time>
      </trkpt>
      <trkpt lat="47.43677" lon="6.57974">
        <ele>320</ele>
        <time>2022-08-21T10:17:27Z</time>
      </trkpt>
      <trkpt lat="47.43674" lon="6.57986">
        <ele>319</ele>
        <time>2022-08-21T10:17:34Z</time>
      </trkpt>
      <trkpt lat="47.43664" lon="6.58001">
        <ele>318</ele>
        <time>2022-08-21T10:17:45Z</time>
      </trkpt>
      <trkpt lat="47.43493" lon="6.58151">
        <ele>326</ele>
        <time>2022-08-21T10:20:25Z</time>
      </trkpt>
      <trkpt lat="47.43464" lon="6.58167">
        <ele>329</ele>
        <time>2022-08-21T10:20:49Z</time>
      </trkpt>
      <trkpt lat="47.43439" lon="6.58178">
        <ele>334</ele>
        <time>2022-08-21T10:21:10Z</time>
      </trkpt>
      <trkpt lat="47.43409" lon="6.58186">
        <ele>338</ele>
        <time>2022-08-21T10:21:35Z</time>
      </trkpt>
      <trkpt lat="47.43375" lon="6.58189">
        <ele>338</ele>
        <time>2022-08-21T10:22:02Z</time>
      </trkpt>
      <trkpt lat="47.43346" lon="6.58186">
        <ele>338</ele>
        <time>2022-08-21T10:22:25Z</time>
      </trkpt>
      <trkpt lat="47.43288" lon="6.58166">
        <ele>339</ele>
        <time>2022-08-21T10:23:13Z</time>
      </trkpt>
      <trkpt lat="47.43258" lon="6.58148">
        <ele>340</ele>
        <time>2022-08-21T10:23:39Z</time>
      </trkpt>
      <trkpt lat="47.43223" lon="6.58117">
        <ele>342</ele>
        <time>2022-08-21T10:24:12Z</time>
      </trkpt>
      <trkpt lat="47.43203" lon="6.58092">
        <ele>343</ele>
        <time>2022-08-21T10:24:33Z</time>
      </trkpt>
      <trkpt lat="47.43173" lon="6.58049">
        <ele>343</ele>
        <time>2022-08-21T10:25:06Z</time>
      </trkpt>
      <trkpt lat="47.43057" lon="6.57802">
        <ele>336</ele>
        <time>2022-08-21T10:27:49Z</time>
      </trkpt>
      <trkpt lat="47.42963" lon="6.57593">
        <ele>328</ele>
        <time>2022-08-21T10:30:05Z</time>
      </trkpt>
      <trkpt lat="47.42941" lon="6.57494">
        <ele>327</ele>
        <time>2022-08-21T10:31:01Z</time>
      </trkpt>
      <trkpt lat="47.4294" lon="6.57385">
        <ele>323</ele>
        <time>2022-08-21T10:32:00Z</time>
      </trkpt>
      <trkpt lat="47.42966" lon="6.57298">
        <ele>318</ele>
        <time>2022-08-21T10:32:52Z</time>
      </trkpt>
      <trkpt lat="47.43067" lon="6.57087">
        <ele>314</ele>
        <time>2022-08-21T10:35:12Z</time>
      </trkpt>
      <trkpt lat="47.43082" lon="6.57041">
        <ele>313</ele>
        <time>2022-08-21T10:35:39Z</time>
      </trkpt>
      <trkpt lat="47.43091" lon="6.56988">
        <ele>312</ele>
        <time>2022-08-21T10:36:09Z</time>
      </trkpt>
      <trkpt lat="47.43091" lon="6.56937">
        <ele>314</ele>
        <time>2022-08-21T10:36:37Z</time>
      </trkpt>
      <trkpt lat="47.43086" lon="6.56876">
        <ele>314</ele>
        <time>2022-08-21T10:37:10Z</time>
      </trkpt>
      <trkpt lat="47.43075" lon="6.56838">
        <ele>313</ele>
        <time>2022-08-21T10:37:32Z</time>
      </trkpt>
      <trkpt lat="47.4306" lon="6.56799">
        <ele>311</ele>
        <time>2022-08-21T10:37:57Z</time>
      </trkpt>
      <trkpt lat="47.43034" lon="6.56755">
        <ele>306</ele>
        <time>2022-08-21T10:38:28Z</time>
      </trkpt>
      <trkpt lat="47.42867" lon="6.56558">
        <ele>298</ele>
        <time>2022-08-21T10:41:19Z</time>
      </trkpt>
      <trkpt lat="47.42831" lon="6.56505">
        <ele>293</ele>
        <time>2022-08-21T10:42:00Z</time>
      </trkpt>
      <trkpt lat="47.42794" lon="6.56437">
        <ele>295</ele>
        <time>2022-08-21T10:42:47Z</time>
      </trkpt>
      <trkpt lat="47.42788" lon="6.56415">
        <ele>295</ele>
        <time>2022-08-21T10:43:00Z</time>
      </trkpt>
      <trkpt lat="47.42747" lon="6.56304">
        <ele>291</ele>
        <time>2022-08-21T10:44:09Z</time>
      </trkpt>
      <trkpt lat="47.42739" lon="6.56288">
        <ele>291</ele>
        <time>2022-08-21T10:44:19Z</time>
      </trkpt>
      <trkpt lat="47.42728" lon="6.56271">
        <ele>291</ele>
        <time>2022-08-21T10:44:32Z</time>
      </trkpt>
      <trkpt lat="47.42717" lon="6.56261">
        <ele>291</ele>
        <time>2022-08-21T10:44:43Z</time>
      </trkpt>
      <trkpt lat="47.42704" lon="6.56241">
        <ele>290</ele>
        <time>2022-08-21T10:44:58Z</time>
      </trkpt>
      <trkpt lat="47.42683" lon="6.56223">
        <ele>289</ele>
        <time>2022-08-21T10:45:17Z</time>
      </trkpt>
      <trkpt lat="47.4266" lon="6.56212">
        <ele>288</ele>
        <time>2022-08-21T10:45:36Z</time>
      </trkpt>
      <trkpt lat="47.42607" lon="6.56211">
        <ele>290</ele>
        <time>2022-08-21T10:46:19Z</time>
      </trkpt>
      <trkpt lat="47.42544" lon="6.56221">
        <ele>292</ele>
        <time>2022-08-21T10:47:10Z</time>
      </trkpt>
      <trkpt lat="47.42514" lon="6.5622">
        <ele>291</ele>
        <time>2022-08-21T10:47:34Z</time>
      </trkpt>
      <trkpt lat="47.42473" lon="6.56212">
        <ele>290</ele>
        <time>2022-08-21T10:48:07Z</time>
      </trkpt>
      <trkpt lat="47.42436" lon="6.56212">
        <ele>289</ele>
        <time>2022-08-21T10:48:36Z</time>
      </trkpt>
      <trkpt lat="47.42399" lon="6.56216">
        <ele>289</ele>
        <time>2022-08-21T10:49:06Z</time>
      </trkpt>
      <trkpt lat="47.42369" lon="6.56222">
        <ele>288</ele>
        <time>2022-08-21T10:49:30Z</time>
      </trkpt>
      <trkpt lat="47.42336" lon="6.56234">
        <ele>289</ele>
        <time>2022-08-21T10:49:57Z</time>
      </trkpt>
      <trkpt lat="47.42298" lon="6.56252">
        <ele>290</ele>
        <time>2022-08-21T10:50:29Z</time>
      </trkpt>
      <trkpt lat="47.42251" lon="6.56268">
        <ele>293</ele>
        <time>2022-08-21T10:51:08Z</time>
      </trkpt>
      <trkpt lat="47.42203" lon="6.56278">
        <ele>295</ele>
        <time>2022-08-21T10:51:47Z</time>
      </trkpt>
      <trkpt lat="47.42147" lon="6.56284">
        <ele>296</ele>
        <time>2022-08-21T10:52:32Z</time>
      </trkpt>
      <trkpt lat="47.42042" lon="6.56287">
        <ele>297</ele>
        <time>2022-08-21T10:53:56Z</time>
      </trkpt>
      <trkpt lat="47.41988" lon="6.56281">
        <ele>296</ele>
        <time>2022-08-21T10:54:39Z</time>
      </trkpt>
      <trkpt lat="47.41897" lon="6.56256">
        <ele>295</ele>
        <time>2022-08-21T10:55:53Z</time>
      </trkpt>
      <trkpt lat="47.4184" lon="6.56226">
        <ele>298</ele>
        <time>2022-08-21T10:56:42Z</time>
      </trkpt>
      <trkpt lat="47.41765" lon="6.56178">
        <ele>300</ele>
        <time>2022-08-21T10:57:47Z</time>
      </trkpt>
      <trkpt lat="47.41622" lon="6.56055">
        <ele>303</ele>
        <time>2022-08-21T11:00:00Z</time>
      </trkpt>
      <trkpt lat="47.41504" lon="6.55908">
        <ele>306</ele>
        <time>2022-08-21T11:02:03Z</time>
      </trkpt>
      <trkpt lat="47.41411" lon="6.5575">
        <ele>296</ele>
        <time>2022-08-21T11:03:57Z</time>
      </trkpt>
      <trkpt lat="47.41353" lon="6.5557">
        <ele>308</ele>
        <time>2022-08-21T11:05:45Z</time>
      </trkpt>
      <trkpt lat="47.41275" lon="6.5526">
        <ele>309</ele>
        <time>2022-08-21T11:08:44Z</time>
      </trkpt>
      <trkpt lat="47.41253" lon="6.54814">
        <ele>305</ele>
        <time>2022-08-21T11:12:46Z</time>
      </trkpt>
      <trkpt lat="47.41264" lon="6.54511">
        <ele>296</ele>
        <time>2022-08-21T11:15:31Z</time>
      </trkpt>
      <trkpt lat="47.41258" lon="6.54393">
        <ele>293</ele>
        <time>2022-08-21T11:16:35Z</time>
      </trkpt>
      <trkpt lat="47.41251" lon="6.54333">
        <ele>291</ele>
        <time>2022-08-21T11:17:08Z</time>
      </trkpt>
      <trkpt lat="47.41241" lon="6.54273">
        <ele>289</ele>
        <time>2022-08-21T11:17:41Z</time>
      </trkpt>
      <trkpt lat="47.41214" lon="6.54158">
        <ele>290</ele>
        <time>2022-08-21T11:18:47Z</time>
      </trkpt>
      <trkpt lat="47.41195" lon="6.541">
        <ele>290</ele>
        <time>2022-08-21T11:19:22Z</time>
      </trkpt>
      <trkpt lat="47.4115" lon="6.53975">
        <ele>287</ele>
        <time>2022-08-21T11:20:39Z</time>
      </trkpt>
      <trkpt lat="47.41132" lon="6.53918">
        <ele>286</ele>
        <time>2022-08-21T11:21:13Z</time>
      </trkpt>
      <trkpt lat="47.41119" lon="6.53867">
        <ele>290</ele>
        <time>2022-08-21T11:21:42Z</time>
      </trkpt>
      <trkpt lat="47.41112" lon="6.53833">
        <ele>293</ele>
        <time>2022-08-21T11:22:02Z</time>
      </trkpt>
      <trkpt lat="47.41099" lon="6.5375">
        <ele>297</ele>
        <time>2022-08-21T11:22:48Z</time>
      </trkpt>
      <trkpt lat="47.41088" lon="6.53658">
        <ele>296</ele>
        <time>2022-08-21T11:23:38Z</time>
      </trkpt>
      <trkpt lat="47.41076" lon="6.53577">
        <ele>296</ele>
        <time>2022-08-21T11:24:23Z</time>
      </trkpt>
      <trkpt lat="47.41051" lon="6.53447">
        <ele>297</ele>
        <time>2022-08-21T11:25:37Z</time>
      </trkpt>
      <trkpt lat="47.41016" lon="6.53302">
        <ele>298</ele>
        <time>2022-08-21T11:27:00Z</time>
      </trkpt>
      <trkpt lat="47.4099" lon="6.53212">
        <ele>300</ele>
        <time>2022-08-21T11:27:53Z</time>
      </trkpt>
      <trkpt lat="47.4097" lon="6.53143">
        <ele>299</ele>
        <time>2022-08-21T11:28:34Z</time>
      </trkpt>
      <trkpt lat="47.40902" lon="6.52954">
        <ele>301</ele>
        <time>2022-08-21T11:30:30Z</time>
      </trkpt>
      <trkpt lat="47.40874" lon="6.5286">
        <ele>304</ele>
        <time>2022-08-21T11:31:25Z</time>
      </trkpt>
      <trkpt lat="47.40846" lon="6.5273">
        <ele>304</ele>
        <time>2022-08-21T11:32:39Z</time>
      </trkpt>
      <trkpt lat="47.40779" lon="6.52309">
        <ele>298</ele>
        <time>2022-08-21T11:36:34Z</time>
      </trkpt>
      <trkpt lat="47.40758" lon="6.52205">
        <ele>297</ele>
        <time>2022-08-21T11:37:32Z</time>
      </trkpt>
      <trkpt lat="47.40739" lon="6.52136">
        <ele>297</ele>
        <time>2022-08-21T11:38:13Z</time>
      </trkpt>
      <trkpt lat="47.40705" lon="6.52032">
        <ele>296</ele>
        <time>2022-08-21T11:39:15Z</time>
      </trkpt>
      <trkpt lat="47.40523" lon="6.51549">
        <ele>289</ele>
        <time>2022-08-21T11:44:15Z</time>
      </trkpt>
      <trkpt lat="47.40465" lon="6.51425">
        <ele>289</ele>
        <time>2022-08-21T11:45:37Z</time>
      </trkpt>
      <trkpt lat="47.40429" lon="6.51361">
        <ele>289</ele>
        <time>2022-08-21T11:46:22Z</time>
      </trkpt>
      <trkpt lat="47.40399" lon="6.51312">
        <ele>289</ele>
        <time>2022-08-21T11:46:58Z</time>
      </trkpt>
      <trkpt lat="47.40347" lon="6.51238">
        <ele>291</ele>
        <time>2022-08-21T11:47:55Z</time>
      </trkpt>
      <trkpt lat="47.4031" lon="6.51191">
        <ele>290</ele>
        <time>2022-08-21T11:48:34Z</time>
      </trkpt>
      <trkpt lat="47.40254" lon="6.51131">
        <ele>289</ele>
        <time>2022-08-21T11:49:30Z</time>
      </trkpt>
      <trkpt lat="47.40204" lon="6.51089">
        <ele>290</ele>
        <time>2022-08-21T11:50:16Z</time>
      </trkpt>
      <trkpt lat="47.40143" lon="6.51051">
        <ele>293</ele>
        <time>2022-08-21T11:51:09Z</time>
      </trkpt>
      <trkpt lat="47.40048" lon="6.51002">
        <ele>296</ele>
        <time>2022-08-21T11:52:29Z</time>
      </trkpt>
      <trkpt lat="47.39997" lon="6.50968">
        <ele>296</ele>
        <time>2022-08-21T11:53:14Z</time>
      </trkpt>
      <trkpt lat="47.39881" lon="6.5088">
        <ele>301</ele>
        <time>2022-08-21T11:54:59Z</time>
      </trkpt>
      <trkpt lat="47.39849" lon="6.50853">
        <ele>300</ele>
        <time>2022-08-21T11:55:28Z</time>
      </trkpt>
      <trkpt lat="47.39802" lon="6.50806">
        <ele>301</ele>
        <time>2022-08-21T11:56:14Z</time>
      </trkpt>
      <trkpt lat="47.39769" lon="6.50766">
        <ele>299</ele>
        <time>2022-08-21T11:56:48Z</time>
      </trkpt>
      <trkpt lat="47.39709" lon="6.50676">
        <ele>299</ele>
        <time>2022-08-21T11:57:56Z</time>
      </trkpt>
      <trkpt lat="47.39676" lon="6.50614">
        <ele>295</ele>
        <time>2022-08-21T11:58:39Z</time>
      </trkpt>
      <trkpt lat="47.39631" lon="6.50502">
        <ele>299</ele>
        <time>2022-08-21T11:59:50Z</time>
      </trkpt>
      <trkpt lat="47.39568" lon="6.50278">
        <ele>298</ele>
        <time>2022-08-21T12:02:01Z</time>
      </trkpt>
      <trkpt lat="47.39531" lon="6.50175">
        <ele>301</ele>
        <time>2022-08-21T12:03:04Z</time>
      </trkpt>
      <trkpt lat="47.39524" lon="6.50153">
        <ele>299</ele>
        <time>2022-08-21T12:03:17Z</time>
      </trkpt>
      <trkpt lat="47.3945" lon="6.49968">
        <ele>294</ele>
        <time>2022-08-21T12:05:14Z</time>
      </trkpt>
      <trkpt lat="47.39409" lon="6.49857">
        <ele>287</ele>
        <time>2022-08-21T12:06:22Z</time>
      </trkpt>
      <trkpt lat="47.39394" lon="6.4981">
        <ele>285</ele>
        <time>2022-08-21T12:06:51Z</time>
      </trkpt>
      <trkpt lat="47.39377" lon="6.49777">
        <ele>285</ele>
        <time>2022-08-21T12:07:13Z</time>
      </trkpt>
      <trkpt lat="47.3931" lon="6.49684">
        <ele>283</ele>
        <time>2022-08-21T12:08:27Z</time>
      </trkpt>
      <trkpt lat="47.39286" lon="6.4964">
        <ele>281</ele>
        <time>2022-08-21T12:08:57Z</time>
      </trkpt>
      <trkpt lat="47.39258" lon="6.49597">
        <ele>278</ele>
        <time>2022-08-21T12:09:30Z</time>
      </trkpt>
      <trkpt lat="47.39241" lon="6.49563">
        <ele>276</ele>
        <time>2022-08-21T12:09:53Z</time>
      </trkpt>
      <trkpt lat="47.39185" lon="6.49471">
        <ele>278</ele>
        <time>2022-08-21T12:11:00Z</time>
      </trkpt>
      <trkpt lat="47.39177" lon="6.49471">
        <ele>278</ele>
        <time>2022-08-21T12:11:06Z</time>
      </trkpt>
      <trkpt lat="47.39172" lon="6.49471">
        <ele>278</ele>
        <time>2022-08-21T12:11:10Z</time>
      </trkpt>
      <trkpt lat="47.39128" lon="6.49514">
        <ele>280</ele>
        <time>2022-08-21T12:11:52Z</time>
      </trkpt>
      <trkpt lat="47.391" lon="6.49537">
        <ele>281</ele>
        <time>2022-08-21T12:12:18Z</time>
      </trkpt>
      <trkpt lat="47.39073" lon="6.49551">
        <ele>282</ele>
        <time>2022-08-21T12:12:41Z</time>
      </trkpt>
      <trkpt lat="47.39049" lon="6.49549">
        <ele>283</ele>
        <time>2022-08-21T12:13:00Z</time>
      </trkpt>
      <trkpt lat="47.39021" lon="6.49543">
        <ele>285</ele>
        <time>2022-08-21T12:13:23Z</time>
      </trkpt>
      <trkpt lat="47.39002" lon="6.4954">
        <ele>287</ele>
        <time>2022-08-21T12:13:38Z</time>
      </trkpt>
      <trkpt lat="47.3899" lon="6.49543">
        <ele>289</ele>
        <time>2022-08-21T12:13:48Z</time>
      </trkpt>
      <trkpt lat="47.38965" lon="6.49559">
        <ele>293</ele>
        <time>2022-08-21T12:14:10Z</time>
      </trkpt>
      <trkpt lat="47.38949" lon="6.49575">
        <ele>293</ele>
        <time>2022-08-21T12:14:25Z</time>
      </trkpt>
      <trkpt lat="47.38921" lon="6.4961">
        <ele>292</ele>
        <time>2022-08-21T12:14:54Z</time>
      </trkpt>
      <trkpt lat="47.38817" lon="6.49745">
        <ele>303</ele>
        <time>2022-08-21T12:16:45Z</time>
      </trkpt>
      <trkpt lat="47.38707" lon="6.49909">
        <ele>298</ele>
        <time>2022-08-21T12:18:50Z</time>
      </trkpt>
      <trkpt lat="47.38687" lon="6.49934">
        <ele>297</ele>
        <time>2022-08-21T12:19:11Z</time>
      </trkpt>
      <trkpt lat="47.3867" lon="6.49951">
        <ele>297</ele>
        <time>2022-08-21T12:19:28Z</time>
      </trkpt>
      <trkpt lat="47.38645" lon="6.49967">
        <ele>295</ele>
        <time>2022-08-21T12:19:50Z</time>
      </trkpt>
      <trkpt lat="47.3862" lon="6.49975">
        <ele>295</ele>
        <time>2022-08-21T12:20:10Z</time>
      </trkpt>
      <trkpt lat="47.38609" lon="6.49977">
        <ele>296</ele>
        <time>2022-08-21T12:20:19Z</time>
      </trkpt>
      <trkpt lat="47.38593" lon="6.49976">
        <ele>297</ele>
        <time>2022-08-21T12:20:32Z</time>
      </trkpt>
      <trkpt lat="47.38561" lon="6.49971">
        <ele>300</ele>
        <time>2022-08-21T12:20:58Z</time>
      </trkpt>
      <trkpt lat="47.38462" lon="6.49941">
        <ele>305</ele>
        <time>2022-08-21T12:22:19Z</time>
      </trkpt>
      <trkpt lat="47.38412" lon="6.49925">
        <ele>305</ele>
        <time>2022-08-21T12:23:00Z</time>
      </trkpt>
      <trkpt lat="47.38395" lon="6.49917">
        <ele>305</ele>
        <time>2022-08-21T12:23:14Z</time>
      </trkpt>
      <trkpt lat="47.38381" lon="6.49908">
        <ele>306</ele>
        <time>2022-08-21T12:23:26Z</time>
      </trkpt>
      <trkpt lat="47.38354" lon="6.49884">
        <ele>307</ele>
        <time>2022-08-21T12:23:51Z</time>
      </trkpt>
      <trkpt lat="47.3833" lon="6.49852">
        <ele>309</ele>
        <time>2022-08-21T12:24:17Z</time>
      </trkpt>
      <trkpt lat="47.38305" lon="6.49803">
        <ele>314</ele>
        <time>2022-08-21T12:24:50Z</time>
      </trkpt>
      <trkpt lat="47.38293" lon="6.49764">
        <ele>317</ele>
        <time>2022-08-21T12:25:14Z</time>
      </trkpt>
      <trkpt lat="47.38283" lon="6.49717">
        <ele>319</ele>
        <time>2022-08-21T12:25:40Z</time>
      </trkpt>
      <trkpt lat="47.38168" lon="6.49062">
        <ele>312</ele>
        <time>2022-08-21T12:31:47Z</time>
      </trkpt>
      <trkpt lat="47.38143" lon="6.48942">
        <ele>308</ele>
        <time>2022-08-21T12:32:55Z</time>
      </trkpt>
      <trkpt lat="47.38062" lon="6.4855">
        <ele>299</ele>
        <time>2022-08-21T12:36:37Z</time>
      </trkpt>
      <trkpt lat="47.37835" lon="6.47477">
        <ele>288</ele>
        <time>2022-08-21T12:46:47Z</time>
      </trkpt>
      <trkpt lat="47.37738" lon="6.47011">
        <ele>280</ele>
        <time>2022-08-21T12:51:11Z</time>
      </trkpt>
      <trkpt lat="47.37725" lon="6.46918">
        <ele>278</ele>
        <time>2022-08-21T12:52:03Z</time>
      </trkpt>
      <trkpt lat="47.37686" lon="6.46536">
        <ele>287</ele>
        <time>2022-08-21T12:55:32Z</time>
      </trkpt>
      <trkpt lat="47.37678" lon="6.46493">
        <ele>288</ele>
        <time>2022-08-21T12:55:56Z</time>
      </trkpt>
      <trkpt lat="47.37666" lon="6.46444">
        <ele>287</ele>
        <time>2022-08-21T12:56:25Z</time>
      </trkpt>
      <trkpt lat="47.37601" lon="6.46225">
        <ele>287</ele>
        <time>2022-08-21T12:58:34Z</time>
      </trkpt>
      <trkpt lat="47.37551" lon="6.46018">
        <ele>290</ele>
        <time>2022-08-21T13:00:33Z</time>
      </trkpt>
      <trkpt lat="47.37543" lon="6.45987">
        <ele>291</ele>
        <time>2022-08-21T13:00:51Z</time>
      </trkpt>
      <trkpt lat="47.37528" lon="6.45943">
        <ele>291</ele>
        <time>2022-08-21T13:01:18Z</time>
      </trkpt>
      <trkpt lat="47.37511" lon="6.4591">
        <ele>287</ele>
        <time>2022-08-21T13:01:41Z</time>
      </trkpt>
      <trkpt lat="47.37498" lon="6.45892">
        <ele>285</ele>
        <time>2022-08-21T13:01:55Z</time>
      </trkpt>
      <trkpt lat="47.37493" lon="6.45887">
        <ele>284</ele>
        <time>2022-08-21T13:02:00Z</time>
      </trkpt>
      <trkpt lat="47.37466" lon="6.45868">
        <ele>281</ele>
        <time>2022-08-21T13:02:24Z</time>
      </trkpt>
      <trkpt lat="47.37455" lon="6.45854">
        <ele>279</ele>
        <time>2022-08-21T13:02:35Z</time>
      </trkpt>
      <trkpt lat="47.37449" lon="6.45839">
        <ele>278</ele>
        <time>2022-08-21T13:02:45Z</time>
      </trkpt>
      <trkpt lat="47.37423" lon="6.45759">
        <ele>280</ele>
        <time>2022-08-21T13:03:33Z</time>
      </trkpt>
      <trkpt lat="47.37397" lon="6.45695">
        <ele>284</ele>
        <time>2022-08-21T13:04:13Z</time>
      </trkpt>
      <trkpt lat="47.37379" lon="6.45657">
        <ele>286</ele>
        <time>2022-08-21T13:04:39Z</time>
      </trkpt>
      <trkpt lat="47.37351" lon="6.45611">
        <ele>285</ele>
        <time>2022-08-21T13:05:12Z</time>
      </trkpt>
      <trkpt lat="47.3718" lon="6.45367">
        <ele>286</ele>
        <time>2022-08-21T13:08:22Z</time>
      </trkpt>
      <trkpt lat="47.37152" lon="6.4533">
        <ele>283</ele>
        <time>2022-08-21T13:08:53Z</time>
      </trkpt>
      <trkpt lat="47.37111" lon="6.45285">
        <ele>288</ele>
        <time>2022-08-21T13:09:33Z</time>
      </trkpt>
      <trkpt lat="47.37084" lon="6.45261">
        <ele>288</ele>
        <time>2022-08-21T13:09:59Z</time>
      </trkpt>
      <trkpt lat="47.37056" lon="6.45243">
        <ele>288</ele>
        <time>2022-08-21T13:10:23Z</time>
      </trkpt>
      <trkpt lat="47.37028" lon="6.45229">
        <ele>288</ele>
        <time>2022-08-21T13:10:47Z</time>
      </trkpt>
      <trkpt lat="47.36991" lon="6.45216">
        <ele>288</ele>
        <time>2022-08-21T13:11:17Z</time>
      </trkpt>
      <trkpt lat="47.36911" lon="6.45198">
        <ele>291</ele>
        <time>2022-08-21T13:12:22Z</time>
      </trkpt>
      <trkpt lat="47.36865" lon="6.4519">
        <ele>292</ele>
        <time>2022-08-21T13:12:59Z</time>
      </trkpt>
      <trkpt lat="47.36808" lon="6.45187">
        <ele>293</ele>
        <time>2022-08-21T13:13:45Z</time>
      </trkpt>
      <trkpt lat="47.3674" lon="6.45186">
        <ele>294</ele>
        <time>2022-08-21T13:14:39Z</time>
      </trkpt>
      <trkpt lat="47.36708" lon="6.45184">
        <ele>291</ele>
        <time>2022-08-21T13:15:05Z</time>
      </trkpt>
      <trkpt lat="47.36668" lon="6.45178">
        <ele>287</ele>
        <time>2022-08-21T13:15:37Z</time>
      </trkpt>
      <trkpt lat="47.36542" lon="6.45134">
        <ele>283</ele>
        <time>2022-08-21T13:17:21Z</time>
      </trkpt>
      <trkpt lat="47.36497" lon="6.45117">
        <ele>281</ele>
        <time>2022-08-21T13:17:58Z</time>
      </trkpt>
      <trkpt lat="47.36474" lon="6.45104">
        <ele>279</ele>
        <time>2022-08-21T13:18:18Z</time>
      </trkpt>
      <trkpt lat="47.36462" lon="6.45095">
        <ele>278</ele>
        <time>2022-08-21T13:18:28Z</time>
      </trkpt>
      <trkpt lat="47.36452" lon="6.45085">
        <ele>277</ele>
        <time>2022-08-21T13:18:38Z</time>
      </trkpt>
      <trkpt lat="47.36438" lon="6.45068">
        <ele>276</ele>
        <time>2022-08-21T13:18:53Z</time>
      </trkpt>
      <trkpt lat="47.36426" lon="6.45048">
        <ele>276</ele>
        <time>2022-08-21T13:19:07Z</time>
      </trkpt>
      <trkpt lat="47.36413" lon="6.4502">
        <ele>276</ele>
        <time>2022-08-21T13:19:26Z</time>
      </trkpt>
      <trkpt lat="47.36397" lon="6.44974">
        <ele>275</ele>
        <time>2022-08-21T13:19:54Z</time>
      </trkpt>
      <trkpt lat="47.36391" lon="6.4495">
        <ele>275</ele>
        <time>2022-08-21T13:20:07Z</time>
      </trkpt>
      <trkpt lat="47.36383" lon="6.44912">
        <ele>274</ele>
        <time>2022-08-21T13:20:29Z</time>
      </trkpt>
      <trkpt lat="47.36378" lon="6.44857">
        <ele>273</ele>
        <time>2022-08-21T13:20:59Z</time>
      </trkpt>
      <trkpt lat="47.36379" lon="6.4481">
        <ele>272</ele>
        <time>2022-08-21T13:21:25Z</time>
      </trkpt>
      <trkpt lat="47.3638" lon="6.44787">
        <ele>272</ele>
        <time>2022-08-21T13:21:37Z</time>
      </trkpt>
      <trkpt lat="47.36391" lon="6.44716">
        <ele>273</ele>
        <time>2022-08-21T13:22:17Z</time>
      </trkpt>
      <trkpt lat="47.36402" lon="6.44665">
        <ele>274</ele>
        <time>2022-08-21T13:22:46Z</time>
      </trkpt>
      <trkpt lat="47.36412" lon="6.44635">
        <ele>273</ele>
        <time>2022-08-21T13:23:04Z</time>
      </trkpt>
      <trkpt lat="47.36423" lon="6.4461">
        <ele>272</ele>
        <time>2022-08-21T13:23:20Z</time>
      </trkpt>
      <trkpt lat="47.36495" lon="6.44465">
        <ele>272</ele>
        <time>2022-08-21T13:24:57Z</time>
      </trkpt>
      <trkpt lat="47.36693" lon="6.4407">
        <ele>281</ele>
        <time>2022-08-21T13:29:24Z</time>
      </trkpt>
      <trkpt lat="47.36714" lon="6.44018">
        <ele>286</ele>
        <time>2022-08-21T13:29:57Z</time>
      </trkpt>
      <trkpt lat="47.36721" lon="6.43994">
        <ele>287</ele>
        <time>2022-08-21T13:30:11Z</time>
      </trkpt>
      <trkpt lat="47.3673" lon="6.43962">
        <ele>288</ele>
        <time>2022-08-21T13:30:30Z</time>
      </trkpt>
      <trkpt lat="47.36737" lon="6.4391">
        <ele>286</ele>
        <time>2022-08-21T13:30:58Z</time>
      </trkpt>
      <trkpt lat="47.36741" lon="6.43863">
        <ele>283</ele>
        <time>2022-08-21T13:31:24Z</time>
      </trkpt>
      <trkpt lat="47.36744" lon="6.43738">
        <ele>275</ele>
        <time>2022-08-21T13:32:32Z</time>
      </trkpt>
      <trkpt lat="47.36749" lon="6.43687">
        <ele>274</ele>
        <time>2022-08-21T13:33:00Z</time>
      </trkpt>
      <trkpt lat="47.36767" lon="6.43584">
        <ele>273</ele>
        <time>2022-08-21T13:33:58Z</time>
      </trkpt>
      <trkpt lat="47.36789" lon="6.43484">
        <ele>274</ele>
        <time>2022-08-21T13:34:55Z</time>
      </trkpt>
      <trkpt lat="47.36822" lon="6.43319">
        <ele>272</ele>
        <time>2022-08-21T13:36:28Z</time>
      </trkpt>
      <trkpt lat="47.36837" lon="6.43259">
        <ele>271</ele>
        <time>2022-08-21T13:37:03Z</time>
      </trkpt>
      <trkpt lat="47.36856" lon="6.43205">
        <ele>272</ele>
        <time>2022-08-21T13:37:36Z</time>
      </trkpt>
      <trkpt lat="47.36878" lon="6.43157">
        <ele>271</ele>
        <time>2022-08-21T13:38:07Z</time>
      </trkpt>
      <trkpt lat="47.36892" lon="6.43131">
        <ele>271</ele>
        <time>2022-08-21T13:38:25Z</time>
      </trkpt>
      <trkpt lat="47.36934" lon="6.43071">
        <ele>272</ele>
        <time>2022-08-21T13:39:12Z</time>
      </trkpt>
      <trkpt lat="47.36968" lon="6.43034">
        <ele>273</ele>
        <time>2022-08-21T13:39:46Z</time>
      </trkpt>
      <trkpt lat="47.3701" lon="6.42999">
        <ele>274</ele>
        <time>2022-08-21T13:40:24Z</time>
      </trkpt>
      <trkpt lat="47.37093" lon="6.42948">
        <ele>272</ele>
        <time>2022-08-21T13:41:36Z</time>
      </trkpt>
      <trkpt lat="47.37115" lon="6.42932">
        <ele>271</ele>
        <time>2022-08-21T13:41:56Z</time>
      </trkpt>
      <trkpt lat="47.37148" lon="6.429">
        <ele>270</ele>
        <time>2022-08-21T13:42:28Z</time>
      </trkpt>
      <trkpt lat="47.37179" lon="6.42861">
        <ele>270</ele>
        <time>2022-08-21T13:43:00Z</time>
      </trkpt>
      <trkpt lat="47.37199" lon="6.42828">
        <ele>271</ele>
        <time>2022-08-21T13:43:24Z</time>
      </trkpt>
      <trkpt lat="47.37217" lon="6.4279">
        <ele>273</ele>
        <time>2022-08-21T13:43:49Z</time>
      </trkpt>
      <trkpt lat="47.37225" lon="6.42766">
        <ele>274</ele>
        <time>2022-08-21T13:44:04Z</time>
      </trkpt>
      <trkpt lat="47.37237" lon="6.42728">
        <ele>276</ele>
        <time>2022-08-21T13:44:27Z</time>
      </trkpt>
      <trkpt lat="47.37249" lon="6.42667">
        <ele>277</ele>
        <time>2022-08-21T13:45:01Z</time>
      </trkpt>
      <trkpt lat="47.37251" lon="6.42646">
        <ele>277</ele>
        <time>2022-08-21T13:45:12Z</time>
      </trkpt>
      <trkpt lat="47.37254" lon="6.42587">
        <ele>279</ele>
        <time>2022-08-21T13:45:45Z</time>
      </trkpt>
      <trkpt lat="47.37252" lon="6.42542">
        <ele>284</ele>
        <time>2022-08-21T13:46:09Z</time>
      </trkpt>
      <trkpt lat="47.37243" lon="6.42477">
        <ele>290</ele>
        <time>2022-08-21T13:46:45Z</time>
      </trkpt>
      <trkpt lat="47.37232" lon="6.4243">
        <ele>289</ele>
        <time>2022-08-21T13:47:12Z</time>
      </trkpt>
      <trkpt lat="47.37205" lon="6.42348">
        <ele>287</ele>
        <time>2022-08-21T13:48:01Z</time>
      </trkpt>
      <trkpt lat="47.37154" lon="6.42207">
        <ele>287</ele>
        <time>2022-08-21T13:49:28Z</time>
      </trkpt>
      <trkpt lat="47.37139" lon="6.42177">
        <ele>286</ele>
        <time>2022-08-21T13:49:48Z</time>
      </trkpt>
      <trkpt lat="47.37123" lon="6.42154">
        <ele>287</ele>
        <time>2022-08-21T13:50:06Z</time>
      </trkpt>
      <trkpt lat="47.37084" lon="6.42111">
        <ele>286</ele>
        <time>2022-08-21T13:50:45Z</time>
      </trkpt>
      <trkpt lat="47.37003" lon="6.42037">
        <ele>286</ele>
        <time>2022-08-21T13:52:01Z</time>
      </trkpt>
      <trkpt lat="47.3686" lon="6.41911">
        <ele>285</ele>
        <time>2022-08-21T13:54:15Z</time>
      </trkpt>
      <trkpt lat="47.36834" lon="6.4189">
        <ele>286</ele>
        <time>2022-08-21T13:54:38Z</time>
      </trkpt>
      <trkpt lat="47.36782" lon="6.41854">
        <ele>287</ele>
        <time>2022-08-21T13:55:24Z</time>
      </trkpt>
      <trkpt lat="47.36645" lon="6.41768">
        <ele>286</ele>
        <time>2022-08-21T13:57:24Z</time>
      </trkpt>
      <trkpt lat="47.36618" lon="6.41755">
        <ele>284</ele>
        <time>2022-08-21T13:57:46Z</time>
      </trkpt>
      <trkpt lat="47.36535" lon="6.41729">
        <ele>284</ele>
        <time>2022-08-21T13:58:54Z</time>
      </trkpt>
      <trkpt lat="47.3644" lon="6.41714">
        <ele>287</ele>
        <time>2022-08-21T14:00:11Z</time>
      </trkpt>
      <trkpt lat="47.36409" lon="6.41717">
        <ele>287</ele>
        <time>2022-08-21T14:00:36Z</time>
      </trkpt>
      <trkpt lat="47.36396" lon="6.41722">
        <ele>289</ele>
        <time>2022-08-21T14:00:46Z</time>
      </trkpt>
      <trkpt lat="47.36376" lon="6.41732">
        <ele>289</ele>
        <time>2022-08-21T14:01:03Z</time>
      </trkpt>
      <trkpt lat="47.36318" lon="6.41768">
        <ele>287</ele>
        <time>2022-08-21T14:01:54Z</time>
      </trkpt>
      <trkpt lat="47.36289" lon="6.41775">
        <ele>289</ele>
        <time>2022-08-21T14:02:17Z</time>
      </trkpt>
      <trkpt lat="47.36241" lon="6.41777">
        <ele>291</ele>
        <time>2022-08-21T14:02:56Z</time>
      </trkpt>
      <trkpt lat="47.36197" lon="6.41766">
        <ele>287</ele>
        <time>2022-08-21T14:03:31Z</time>
      </trkpt>
      <trkpt lat="47.36087" lon="6.41703">
        <ele>280</ele>
        <time>2022-08-21T14:05:06Z</time>
      </trkpt>
      <trkpt lat="47.36065" lon="6.41684">
        <ele>281</ele>
        <time>2022-08-21T14:05:26Z</time>
      </trkpt>
      <trkpt lat="47.3604" lon="6.41656">
        <ele>281</ele>
        <time>2022-08-21T14:05:51Z</time>
      </trkpt>
      <trkpt lat="47.36017" lon="6.41623">
        <ele>281</ele>
        <time>2022-08-21T14:06:17Z</time>
      </trkpt>
      <trkpt lat="47.35996" lon="6.41586">
        <ele>281</ele>
        <time>2022-08-21T14:06:43Z</time>
      </trkpt>
      <trkpt lat="47.35989" lon="6.41571">
        <ele>282</ele>
        <time>2022-08-21T14:06:53Z</time>
      </trkpt>
      <trkpt lat="47.35967" lon="6.41507">
        <ele>283</ele>
        <time>2022-08-21T14:07:32Z</time>
      </trkpt>
      <trkpt lat="47.35904" lon="6.41321">
        <ele>284</ele>
        <time>2022-08-21T14:09:25Z</time>
      </trkpt>
      <trkpt lat="47.35885" lon="6.41256">
        <ele>283</ele>
        <time>2022-08-21T14:10:03Z</time>
      </trkpt>
      <trkpt lat="47.35873" lon="6.41188">
        <ele>284</ele>
        <time>2022-08-21T14:10:41Z</time>
      </trkpt>
      <trkpt lat="47.35869" lon="6.41152">
        <ele>284</ele>
        <time>2022-08-21T14:11:01Z</time>
      </trkpt>
      <trkpt lat="47.35866" lon="6.41086">
        <ele>286</ele>
        <time>2022-08-21T14:11:37Z</time>
      </trkpt>
      <trkpt lat="47.35868" lon="6.41016">
        <ele>287</ele>
        <time>2022-08-21T14:12:15Z</time>
      </trkpt>
      <trkpt lat="47.35888" lon="6.40866">
        <ele>289</ele>
        <time>2022-08-21T14:13:38Z</time>
      </trkpt>
      <trkpt lat="47.35892" lon="6.4081">
        <ele>287</ele>
        <time>2022-08-21T14:14:09Z</time>
      </trkpt>
      <trkpt lat="47.35893" lon="6.40765">
        <ele>286</ele>
        <time>2022-08-21T14:14:33Z</time>
      </trkpt>
      <trkpt lat="47.35885" lon="6.40536">
        <ele>288</ele>
        <time>2022-08-21T14:16:37Z</time>
      </trkpt>
      <trkpt lat="47.35874" lon="6.40342">
        <ele>289</ele>
        <time>2022-08-21T14:18:23Z</time>
      </trkpt>
      <trkpt lat="47.3587" lon="6.40204">
        <ele>287</ele>
        <time>2022-08-21T14:19:38Z</time>
      </trkpt>
      <trkpt lat="47.35868" lon="6.40012">
        <ele>287</ele>
        <time>2022-08-21T14:21:22Z</time>
      </trkpt>
      <trkpt lat="47.35861" lon="6.39914">
        <ele>283</ele>
        <time>2022-08-21T14:22:15Z</time>
      </trkpt>
      <trkpt lat="47.35838" lon="6.39643">
        <ele>283</ele>
        <time>2022-08-21T14:24:44Z</time>
      </trkpt>
      <trkpt lat="47.35829" lon="6.3957">
        <ele>282</ele>
        <time>2022-08-21T14:25:24Z</time>
      </trkpt>
      <trkpt lat="47.35814" lon="6.39496">
        <ele>282</ele>
        <time>2022-08-21T14:26:06Z</time>
      </trkpt>
      <trkpt lat="47.358" lon="6.39443">
        <ele>286</ele>
        <time>2022-08-21T14:26:37Z</time>
      </trkpt>
      <trkpt lat="47.3579" lon="6.39414">
        <ele>286</ele>
        <time>2022-08-21T14:26:54Z</time>
      </trkpt>
      <trkpt lat="47.35774" lon="6.39374">
        <ele>285</ele>
        <time>2022-08-21T14:27:19Z</time>
      </trkpt>
      <trkpt lat="47.35748" lon="6.39326">
        <ele>279</ele>
        <time>2022-08-21T14:27:53Z</time>
      </trkpt>
      <trkpt lat="47.35729" lon="6.39297">
        <ele>283</ele>
        <time>2022-08-21T14:28:15Z</time>
      </trkpt>
      <trkpt lat="47.35717" lon="6.39282">
        <ele>284</ele>
        <time>2022-08-21T14:28:27Z</time>
      </trkpt>
      <trkpt lat="47.35647" lon="6.39219">
        <ele>282</ele>
        <time>2022-08-21T14:29:33Z</time>
      </trkpt>
      <trkpt lat="47.35619" lon="6.39187">
        <ele>282</ele>
        <time>2022-08-21T14:30:01Z</time>
      </trkpt>
      <trkpt lat="47.35591" lon="6.39148">
        <ele>281</ele>
        <time>2022-08-21T14:30:32Z</time>
      </trkpt>
      <trkpt lat="47.35505" lon="6.39007">
        <ele>275</ele>
        <time>2022-08-21T14:32:15Z</time>
      </trkpt>
      <trkpt lat="47.35492" lon="6.38979">
        <ele>275</ele>
        <time>2022-08-21T14:32:33Z</time>
      </trkpt>
      <trkpt lat="47.35481" lon="6.38943">
        <ele>276</ele>
        <time>2022-08-21T14:32:55Z</time>
      </trkpt>
      <trkpt lat="47.35444" lon="6.38799">
        <ele>281</ele>
        <time>2022-08-21T14:34:18Z</time>
      </trkpt>
      <trkpt lat="47.35429" lon="6.38754">
        <ele>280</ele>
        <time>2022-08-21T14:34:46Z</time>
      </trkpt>
      <trkpt lat="47.35401" lon="6.38688">
        <ele>278</ele>
        <time>2022-08-21T14:35:28Z</time>
      </trkpt>
      <trkpt lat="47.35389" lon="6.38648">
        <ele>278</ele>
        <time>2022-08-21T14:35:52Z</time>
      </trkpt>
      <trkpt lat="47.35346" lon="6.3846">
        <ele>271</ele>
        <time>2022-08-21T14:37:39Z</time>
      </trkpt>
      <trkpt lat="47.35341" lon="6.38429">
        <ele>270</ele>
        <time>2022-08-21T14:37:56Z</time>
      </trkpt>
      <trkpt lat="47.35339" lon="6.38378">
        <ele>270</ele>
        <time>2022-08-21T14:38:24Z</time>
      </trkpt>
      <trkpt lat="47.35341" lon="6.38339">
        <ele>270</ele>
        <time>2022-08-21T14:38:45Z</time>
      </trkpt>
      <trkpt lat="47.35369" lon="6.38107">
        <ele>272</ele>
        <time>2022-08-21T14:40:53Z</time>
      </trkpt>
      <trkpt lat="47.35377" lon="6.38057">
        <ele>273</ele>
        <time>2022-08-21T14:41:21Z</time>
      </trkpt>
      <trkpt lat="47.35403" lon="6.37932">
        <ele>276</ele>
        <time>2022-08-21T14:42:32Z</time>
      </trkpt>
      <trkpt lat="47.3542" lon="6.37819">
        <ele>273</ele>
        <time>2022-08-21T14:43:35Z</time>
      </trkpt>
      <trkpt lat="47.35431" lon="6.37774">
        <ele>274</ele>
        <time>2022-08-21T14:44:01Z</time>
      </trkpt>
      <trkpt lat="47.35482" lon="6.37618">
        <ele>276</ele>
        <time>2022-08-21T14:45:35Z</time>
      </trkpt>
      <trkpt lat="47.35491" lon="6.37576">
        <ele>276</ele>
        <time>2022-08-21T14:45:59Z</time>
      </trkpt>
      <trkpt lat="47.35503" lon="6.37493">
        <ele>274</ele>
        <time>2022-08-21T14:46:45Z</time>
      </trkpt>
      <trkpt lat="47.35551" lon="6.37311">
        <ele>285</ele>
        <time>2022-08-21T14:48:31Z</time>
      </trkpt>
      <trkpt lat="47.35559" lon="6.37276">
        <ele>286</ele>
        <time>2022-08-21T14:48:51Z</time>
      </trkpt>
      <trkpt lat="47.35562" lon="6.37241">
        <ele>288</ele>
        <time>2022-08-21T14:49:10Z</time>
      </trkpt>
      <trkpt lat="47.3556" lon="6.37205">
        <ele>290</ele>
        <time>2022-08-21T14:49:29Z</time>
      </trkpt>
      <trkpt lat="47.35556" lon="6.37174">
        <ele>291</ele>
        <time>2022-08-21T14:49:46Z</time>
      </trkpt>
      <trkpt lat="47.35546" lon="6.37138">
        <ele>296</ele>
        <time>2022-08-21T14:50:08Z</time>
      </trkpt>
      <trkpt lat="47.35531" lon="6.37104">
        <ele>301</ele>
        <time>2022-08-21T14:50:30Z</time>
      </trkpt>
      <trkpt lat="47.35517" lon="6.3708">
        <ele>302</ele>
        <time>2022-08-21T14:50:47Z</time>
      </trkpt>
      <trkpt lat="47.35447" lon="6.37">
        <ele>309</ele>
        <time>2022-08-21T14:51:58Z</time>
      </trkpt>
      <trkpt lat="47.35413" lon="6.36983">
        <ele>310</ele>
        <time>2022-08-21T14:52:26Z</time>
      </trkpt>
      <trkpt lat="47.35379" lon="6.36977">
        <ele>314</ele>
        <time>2022-08-21T14:52:54Z</time>
      </trkpt>
      <trkpt lat="47.35347" lon="6.3698">
        <ele>314</ele>
        <time>2022-08-21T14:53:19Z</time>
      </trkpt>
      <trkpt lat="47.35284" lon="6.37007">
        <ele>310</ele>
        <time>2022-08-21T14:54:12Z</time>
      </trkpt>
      <trkpt lat="47.35265" lon="6.37024">
        <ele>309</ele>
        <time>2022-08-21T14:54:30Z</time>
      </trkpt>
      <trkpt lat="47.35239" lon="6.37052">
        <ele>306</ele>
        <time>2022-08-21T14:54:56Z</time>
      </trkpt>
      <trkpt lat="47.35221" lon="6.37062">
        <ele>306</ele>
        <time>2022-08-21T14:55:11Z</time>
      </trkpt>
      <trkpt lat="47.35197" lon="6.37062">
        <ele>307</ele>
        <time>2022-08-21T14:55:30Z</time>
      </trkpt>
      <trkpt lat="47.35184" lon="6.37055">
        <ele>309</ele>
        <time>2022-08-21T14:55:41Z</time>
      </trkpt>
      <trkpt lat="47.35169" lon="6.37039">
        <ele>312</ele>
        <time>2022-08-21T14:55:56Z</time>
      </trkpt>
      <trkpt lat="47.3516" lon="6.37025">
        <ele>313</ele>
        <time>2022-08-21T14:56:06Z</time>
      </trkpt>
      <trkpt lat="47.35142" lon="6.36985">
        <ele>315</ele>
        <time>2022-08-21T14:56:33Z</time>
      </trkpt>
      <trkpt lat="47.35112" lon="6.36841">
        <ele>308</ele>
        <time>2022-08-21T14:57:54Z</time>
      </trkpt>
      <trkpt lat="47.351" lon="6.36776">
        <ele>305</ele>
        <time>2022-08-21T14:58:31Z</time>
      </trkpt>
      <trkpt lat="47.35081" lon="6.36666">
        <ele>299</ele>
        <time>2022-08-21T14:59:32Z</time>
      </trkpt>
      <trkpt lat="47.35065" lon="6.36565">
        <ele>301</ele>
        <time>2022-08-21T15:00:29Z</time>
      </trkpt>
      <trkpt lat="47.35053" lon="6.36451">
        <ele>301</ele>
        <time>2022-08-21T15:01:31Z</time>
      </trkpt>
      <trkpt lat="47.35051" lon="6.3638">
        <ele>297</ele>
        <time>2022-08-21T15:02:10Z</time>
      </trkpt>
      <trkpt lat="47.35052" lon="6.36274">
        <ele>290</ele>
        <time>2022-08-21T15:03:07Z</time>
      </trkpt>
      <trkpt lat="47.35055" lon="6.36244">
        <ele>288</ele>
        <time>2022-08-21T15:03:24Z</time>
      </trkpt>
      <trkpt lat="47.3504" lon="6.36224">
        <ele>287</ele>
        <time>2022-08-21T15:03:40Z</time>
      </trkpt>
      <trkpt lat="47.35022" lon="6.36208">
        <ele>286</ele>
        <time>2022-08-21T15:03:57Z</time>
      </trkpt>
      <trkpt lat="47.34912" lon="6.36134">
        <ele>279</ele>
        <time>2022-08-21T15:05:34Z</time>
      </trkpt>
      <trkpt lat="47.34894" lon="6.36123">
        <ele>278</ele>
        <time>2022-08-21T15:05:49Z</time>
      </trkpt>
      <trkpt lat="47.34855" lon="6.36107">
        <ele>277</ele>
        <time>2022-08-21T15:06:22Z</time>
      </trkpt>
      <trkpt lat="47.34817" lon="6.36094">
        <ele>276</ele>
        <time>2022-08-21T15:06:53Z</time>
      </trkpt>
      <trkpt lat="47.34784" lon="6.36092">
        <ele>275</ele>
        <time>2022-08-21T15:07:19Z</time>
      </trkpt>
      <trkpt lat="47.34502" lon="6.36123">
        <ele>270</ele>
        <time>2022-08-21T15:11:06Z</time>
      </trkpt>
      <trkpt lat="47.34477" lon="6.36129">
        <ele>269</ele>
        <time>2022-08-21T15:11:26Z</time>
      </trkpt>
      <trkpt lat="47.34475" lon="6.36119">
        <ele>269</ele>
        <time>2022-08-21T15:11:32Z</time>
      </trkpt>
      <trkpt lat="47.34472" lon="6.36115">
        <ele>268</ele>
        <time>2022-08-21T15:11:35Z</time>
      </trkpt>
      <trkpt lat="47.34465" lon="6.36112">
        <ele>268</ele>
        <time>2022-08-21T15:11:41Z</time>
      </trkpt>
      <trkpt lat="47.34458" lon="6.36116">
        <ele>267</ele>
        <time>2022-08-21T15:11:47Z</time>
      </trkpt>
      <trkpt lat="47.34454" lon="6.36126">
        <ele>267</ele>
        <time>2022-08-21T15:11:53Z</time>
      </trkpt>
      <trkpt lat="47.34454" lon="6.36131">
        <ele>268</ele>
        <time>2022-08-21T15:11:56Z</time>
      </trkpt>
      <trkpt lat="47.34392" lon="6.36138">
        <ele>264</ele>
        <time>2022-08-21T15:12:45Z</time>
      </trkpt>
      <trkpt lat="47.34274" lon="6.36151">
        <ele>264</ele>
        <time>2022-08-21T15:14:20Z</time>
      </trkpt>
      <trkpt lat="47.34238" lon="6.36161">
        <ele>265</ele>
        <time>2022-08-21T15:14:50Z</time>
      </trkpt>
      <trkpt lat="47.34207" lon="6.3618">
        <ele>266</ele>
        <time>2022-08-21T15:15:16Z</time>
      </trkpt>
      <trkpt lat="47.34177" lon="6.36211">
        <ele>268</ele>
        <time>2022-08-21T15:15:46Z</time>
      </trkpt>
      <trkpt lat="47.3415" lon="6.36265">
        <ele>274</ele>
        <time>2022-08-21T15:16:22Z</time>
      </trkpt>
      <trkpt lat="47.34138" lon="6.36347">
        <ele>280</ele>
        <time>2022-08-21T15:17:08Z</time>
      </trkpt>
      <trkpt lat="47.3411" lon="6.3664">
        <ele>285</ele>
        <time>2022-08-21T15:19:48Z</time>
      </trkpt>
      <trkpt lat="47.34094" lon="6.36839">
        <ele>281</ele>
        <time>2022-08-21T15:21:37Z</time>
      </trkpt>
      <trkpt lat="47.34091" lon="6.36896">
        <ele>280</ele>
        <time>2022-08-21T15:22:08Z</time>
      </trkpt>
      <trkpt lat="47.34093" lon="6.36943">
        <ele>280</ele>
        <time>2022-08-21T15:22:34Z</time>
      </trkpt>
      <trkpt lat="47.34113" lon="6.37122">
        <ele>290</ele>
        <time>2022-08-21T15:24:12Z</time>
      </trkpt>
      <trkpt lat="47.34115" lon="6.3718">
        <ele>293</ele>
        <time>2022-08-21T15:24:43Z</time>
      </trkpt>
      <trkpt lat="47.34106" lon="6.37268">
        <ele>292</ele>
        <time>2022-08-21T15:25:32Z</time>
      </trkpt>
      <trkpt lat="47.34041" lon="6.37582">
        <ele>292</ele>
        <time>2022-08-21T15:28:30Z</time>
      </trkpt>
      <trkpt lat="47.34037" lon="6.37622">
        <ele>291</ele>
        <time>2022-08-21T15:28:52Z</time>
      </trkpt>
      <trkpt lat="47.34036" lon="6.37694">
        <ele>287</ele>
        <time>2022-08-21T15:29:31Z</time>
      </trkpt>
      <trkpt lat="47.3404" lon="6.37763">
        <ele>285</ele>
        <time>2022-08-21T15:30:08Z</time>
      </trkpt>
      <trkpt lat="47.34047" lon="6.37808">
        <ele>284</ele>
        <time>2022-08-21T15:30:34Z</time>
      </trkpt>
      <trkpt lat="47.34056" lon="6.37835">
        <ele>283</ele>
        <time>2022-08-21T15:30:50Z</time>
      </trkpt>
      <trkpt lat="47.34082" lon="6.37892">
        <ele>282</ele>
        <time>2022-08-21T15:31:27Z</time>
      </trkpt>
      <trkpt lat="47.34159" lon="6.38032">
        <ele>274</ele>
        <time>2022-08-21T15:33:05Z</time>
      </trkpt>
      <trkpt lat="47.34166" lon="6.38049">
        <ele>273</ele>
        <time>2022-08-21T15:33:16Z</time>
      </trkpt>
      <trkpt lat="47.34169" lon="6.38064">
        <ele>273</ele>
        <time>2022-08-21T15:33:24Z</time>
      </trkpt>
      <trkpt lat="47.34169" lon="6.3808">
        <ele>273</ele>
        <time>2022-08-21T15:33:33Z</time>
      </trkpt>
      <trkpt lat="47.34166" lon="6.38098">
        <ele>273</ele>
        <time>2022-08-21T15:33:43Z</time>
      </trkpt>
      <trkpt lat="47.34162" lon="6.38114">
        <ele>273</ele>
        <time>2022-08-21T15:33:52Z</time>
      </trkpt>
      <trkpt lat="47.34154" lon="6.38125">
        <ele>273</ele>
        <time>2022-08-21T15:34:01Z</time>
      </trkpt>
      <trkpt lat="47.34144" lon="6.38135">
        <ele>273</ele>
        <time>2022-08-21T15:34:11Z</time>
      </trkpt>
      <trkpt lat="47.34132" lon="6.3814">
        <ele>273</ele>
        <time>2022-08-21T15:34:21Z</time>
      </trkpt>
      <trkpt lat="47.34119" lon="6.3814">
        <ele>274</ele>
        <time>2022-08-21T15:34:31Z</time>
      </trkpt>
      <trkpt lat="47.34105" lon="6.38132">
        <ele>274</ele>
        <time>2022-08-21T15:34:43Z</time>
      </trkpt>
      <trkpt lat="47.34077" lon="6.38099">
        <ele>277</ele>
        <time>2022-08-21T15:35:12Z</time>
      </trkpt>
      <trkpt lat="47.34045" lon="6.38055">
        <ele>279</ele>
        <time>2022-08-21T15:35:47Z</time>
      </trkpt>
      <trkpt lat="47.33981" lon="6.37925">
        <ele>285</ele>
        <time>2022-08-21T15:37:14Z</time>
      </trkpt>
      <trkpt lat="47.33959" lon="6.37869">
        <ele>285</ele>
        <time>2022-08-21T15:37:49Z</time>
      </trkpt>
      <trkpt lat="47.33943" lon="6.37814">
        <ele>282</ele>
        <time>2022-08-21T15:38:22Z</time>
      </trkpt>
      <trkpt lat="47.33915" lon="6.37671">
        <ele>282</ele>
        <time>2022-08-21T15:39:42Z</time>
      </trkpt>
      <trkpt lat="47.3387" lon="6.37489">
        <ele>293</ele>
        <time>2022-08-21T15:41:27Z</time>
      </trkpt>
      <trkpt lat="47.33812" lon="6.3731">
        <ele>291</ele>
        <time>2022-08-21T15:43:15Z</time>
      </trkpt>
      <trkpt lat="47.33757" lon="6.37124">
        <ele>285</ele>
        <time>2022-08-21T15:45:05Z</time>
      </trkpt>
      <trkpt lat="47.33728" lon="6.37001">
        <ele>292</ele>
        <time>2022-08-21T15:46:16Z</time>
      </trkpt>
      <trkpt lat="47.33716" lon="6.36927">
        <ele>296</ele>
        <time>2022-08-21T15:46:57Z</time>
      </trkpt>
      <trkpt lat="47.33695" lon="6.36841">
        <ele>297</ele>
        <time>2022-08-21T15:47:47Z</time>
      </trkpt>
      <trkpt lat="47.33669" lon="6.3678">
        <ele>295</ele>
        <time>2022-08-21T15:48:26Z</time>
      </trkpt>
      <trkpt lat="47.33644" lon="6.36742">
        <ele>296</ele>
        <time>2022-08-21T15:48:55Z</time>
      </trkpt>
      <trkpt lat="47.336" lon="6.36699">
        <ele>297</ele>
        <time>2022-08-21T15:49:37Z</time>
      </trkpt>
      <trkpt lat="47.33544" lon="6.36663">
        <ele>293</ele>
        <time>2022-08-21T15:50:26Z</time>
      </trkpt>
      <trkpt lat="47.33428" lon="6.36612">
        <ele>303</ele>
        <time>2022-08-21T15:52:03Z</time>
      </trkpt>
      <trkpt lat="47.33325" lon="6.36595">
        <ele>297</ele>
        <time>2022-08-21T15:53:26Z</time>
      </trkpt>
      <trkpt lat="47.33212" lon="6.36571">
        <ele>288</ele>
        <time>2022-08-21T15:54:57Z</time>
      </trkpt>
      <trkpt lat="47.3297" lon="6.36492">
        <ele>275</ele>
        <time>2022-08-21T15:58:16Z</time>
      </trkpt>
      <trkpt lat="47.32932" lon="6.36485">
        <ele>275</ele>
        <time>2022-08-21T15:58:46Z</time>
      </trkpt>
      <trkpt lat="47.32909" lon="6.36487">
        <ele>275</ele>
        <time>2022-08-21T15:59:05Z</time>
      </trkpt>
      <trkpt lat="47.32882" lon="6.36494">
        <ele>276</ele>
        <time>2022-08-21T15:59:27Z</time>
      </trkpt>
      <trkpt lat="47.3285" lon="6.36499">
        <ele>278</ele>
        <time>2022-08-21T15:59:52Z</time>
      </trkpt>
      <trkpt lat="47.32829" lon="6.36497">
        <ele>279</ele>
        <time>2022-08-21T16:00:09Z</time>
      </trkpt>
      <trkpt lat="47.32814" lon="6.3649">
        <ele>279</ele>
        <time>2022-08-21T16:00:22Z</time>
      </trkpt>
      <trkpt lat="47.32803" lon="6.3648">
        <ele>280</ele>
        <time>2022-08-21T16:00:32Z</time>
      </trkpt>
      <trkpt lat="47.32792" lon="6.36465">
        <ele>281</ele>
        <time>2022-08-21T16:00:44Z</time>
      </trkpt>
      <trkpt lat="47.32735" lon="6.36362">
        <ele>287</ele>
        <time>2022-08-21T16:01:56Z</time>
      </trkpt>
      <trkpt lat="47.32727" lon="6.36339">
        <ele>288</ele>
        <time>2022-08-21T16:02:10Z</time>
      </trkpt>
      <trkpt lat="47.32724" lon="6.36316">
        <ele>288</ele>
        <time>2022-08-21T16:02:23Z</time>
      </trkpt>
      <trkpt lat="47.32731" lon="6.36239">
        <ele>289</ele>
        <time>2022-08-21T16:03:05Z</time>
      </trkpt>
      <trkpt lat="47.3273" lon="6.3622">
        <ele>289</ele>
        <time>2022-08-21T16:03:16Z</time>
      </trkpt>
      <trkpt lat="47.32725" lon="6.36202">
        <ele>288</ele>
        <time>2022-08-21T16:03:26Z</time>
      </trkpt>
      <trkpt lat="47.32719" lon="6.36186">
        <ele>286</ele>
        <time>2022-08-21T16:03:36Z</time>
      </trkpt>
      <trkpt lat="47.32699" lon="6.36155">
        <ele>286</ele>
        <time>2022-08-21T16:03:59Z</time>
      </trkpt>
      <trkpt lat="47.32684" lon="6.36136">
        <ele>288</ele>
        <time>2022-08-21T16:04:15Z</time>
      </trkpt>
      <trkpt lat="47.32666" lon="6.36121">
        <ele>291</ele>
        <time>2022-08-21T16:04:32Z</time>
      </trkpt>
      <trkpt lat="47.32632" lon="6.36098">
        <ele>292</ele>
        <time>2022-08-21T16:05:02Z</time>
      </trkpt>
      <trkpt lat="47.32567" lon="6.36067">
        <ele>297</ele>
        <time>2022-08-21T16:05:56Z</time>
      </trkpt>
      <trkpt lat="47.32549" lon="6.36063">
        <ele>299</ele>
        <time>2022-08-21T16:06:11Z</time>
      </trkpt>
      <trkpt lat="47.3253" lon="6.36063">
        <ele>299</ele>
        <time>2022-08-21T16:06:26Z</time>
      </trkpt>
      <trkpt lat="47.3251" lon="6.36066">
        <ele>298</ele>
        <time>2022-08-21T16:06:42Z</time>
      </trkpt>
      <trkpt lat="47.32468" lon="6.36081">
        <ele>294</ele>
        <time>2022-08-21T16:07:17Z</time>
      </trkpt>
      <trkpt lat="47.32421" lon="6.36115">
        <ele>291</ele>
        <time>2022-08-21T16:07:59Z</time>
      </trkpt>
      <trkpt lat="47.32382" lon="6.36154">
        <ele>284</ele>
        <time>2022-08-21T16:08:36Z</time>
      </trkpt>
      <trkpt lat="47.32375" lon="6.36155">
        <ele>283</ele>
        <time>2022-08-21T16:08:42Z</time>
      </trkpt>
      <trkpt lat="47.32364" lon="6.36151">
        <ele>285</ele>
        <time>2022-08-21T16:08:51Z</time>
      </trkpt>
      <trkpt lat="47.32341" lon="6.36128">
        <ele>292</ele>
        <time>2022-08-21T16:09:13Z</time>
      </trkpt>
      <trkpt lat="47.32318" lon="6.36107">
        <ele>298</ele>
        <time>2022-08-21T16:09:35Z</time>
      </trkpt>
      <trkpt lat="47.32275" lon="6.36072">
        <ele>305</ele>
        <time>2022-08-21T16:10:14Z</time>
      </trkpt>
      <trkpt lat="47.32237" lon="6.36053">
        <ele>311</ele>
        <time>2022-08-21T16:10:46Z</time>
      </trkpt>
      <trkpt lat="47.32151" lon="6.36032">
        <ele>317</ele>
        <time>2022-08-21T16:11:56Z</time>
      </trkpt>
      <trkpt lat="47.32086" lon="6.35999">
        <ele>317</ele>
        <time>2022-08-21T16:12:51Z</time>
      </trkpt>
      <trkpt lat="47.32042" lon="6.35984">
        <ele>322</ele>
        <time>2022-08-21T16:13:27Z</time>
      </trkpt>
      <trkpt lat="47.31994" lon="6.35974">
        <ele>326</ele>
        <time>2022-08-21T16:14:06Z</time>
      </trkpt>
      <trkpt lat="47.31935" lon="6.35968">
        <ele>334</ele>
        <time>2022-08-21T16:14:54Z</time>
      </trkpt>
      <trkpt lat="47.31825" lon="6.3599">
        <ele>341</ele>
        <time>2022-08-21T16:16:22Z</time>
      </trkpt>
      <trkpt lat="47.31762" lon="6.35994">
        <ele>356</ele>
        <time>2022-08-21T16:17:13Z</time>
      </trkpt>
      <trkpt lat="47.31729" lon="6.36009">
        <ele>364</ele>
        <time>2022-08-21T16:17:41Z</time>
      </trkpt>
      <trkpt lat="47.31711" lon="6.36027">
        <ele>370</ele>
        <time>2022-08-21T16:17:58Z</time>
      </trkpt>
      <trkpt lat="47.31701" lon="6.36055">
        <ele>372</ele>
        <time>2022-08-21T16:18:15Z</time>
      </trkpt>
      <trkpt lat="47.31698" lon="6.36088">
        <ele>372</ele>
        <time>2022-08-21T16:18:33Z</time>
      </trkpt>
      <trkpt lat="47.31703" lon="6.36113">
        <ele>374</ele>
        <time>2022-08-21T16:18:47Z</time>
      </trkpt>
      <trkpt lat="47.31713" lon="6.36127">
        <ele>371</ele>
        <time>2022-08-21T16:18:58Z</time>
      </trkpt>
      <trkpt lat="47.31725" lon="6.36134">
        <ele>367</ele>
        <time>2022-08-21T16:19:09Z</time>
      </trkpt>
      <trkpt lat="47.31741" lon="6.36133">
        <ele>359</ele>
        <time>2022-08-21T16:19:22Z</time>
      </trkpt>
      <trkpt lat="47.31763" lon="6.36125">
        <ele>350</ele>
        <time>2022-08-21T16:19:40Z</time>
      </trkpt>
      <trkpt lat="47.31793" lon="6.36123">
        <ele>346</ele>
        <time>2022-08-21T16:20:04Z</time>
      </trkpt>
      <trkpt lat="47.3186" lon="6.36136">
        <ele>345</ele>
        <time>2022-08-21T16:20:58Z</time>
      </trkpt>
      <trkpt lat="47.31994" lon="6.36148">
        <ele>343</ele>
        <time>2022-08-21T16:22:45Z</time>
      </trkpt>
      <trkpt lat="47.32033" lon="6.36165">
        <ele>344</ele>
        <time>2022-08-21T16:23:18Z</time>
      </trkpt>
      <trkpt lat="47.32088" lon="6.36211">
        <ele>348</ele>
        <time>2022-08-21T16:24:09Z</time>
      </trkpt>
      <trkpt lat="47.32144" lon="6.36243">
        <ele>345</ele>
        <time>2022-08-21T16:24:57Z</time>
      </trkpt>
      <trkpt lat="47.32157" lon="6.36259">
        <ele>345</ele>
        <time>2022-08-21T16:25:10Z</time>
      </trkpt>
      <trkpt lat="47.32162" lon="6.36281">
        <ele>345</ele>
        <time>2022-08-21T16:25:23Z</time>
      </trkpt>
      <trkpt lat="47.32162" lon="6.36302">
        <ele>346</ele>
        <time>2022-08-21T16:25:34Z</time>
      </trkpt>
      <trkpt lat="47.32148" lon="6.36397">
        <ele>352</ele>
        <time>2022-08-21T16:26:27Z</time>
      </trkpt>
      <trkpt lat="47.32142" lon="6.36472">
        <ele>350</ele>
        <time>2022-08-21T16:27:08Z</time>
      </trkpt>
      <trkpt lat="47.32133" lon="6.365">
        <ele>350</ele>
        <time>2022-08-21T16:27:25Z</time>
      </trkpt>
      <trkpt lat="47.32121" lon="6.36512">
        <ele>349</ele>
        <time>2022-08-21T16:27:36Z</time>
      </trkpt>
      <trkpt lat="47.32109" lon="6.36518">
        <ele>349</ele>
        <time>2022-08-21T16:27:47Z</time>
      </trkpt>
      <trkpt lat="47.32093" lon="6.36515">
        <ele>352</ele>
        <time>2022-08-21T16:27:59Z</time>
      </trkpt>
      <trkpt lat="47.3202" lon="6.36458">
        <ele>362</ele>
        <time>2022-08-21T16:29:06Z</time>
      </trkpt>
      <trkpt lat="47.31995" lon="6.36442">
        <ele>366</ele>
        <time>2022-08-21T16:29:27Z</time>
      </trkpt>
      <trkpt lat="47.31971" lon="6.3643">
        <ele>370</ele>
        <time>2022-08-21T16:29:48Z</time>
      </trkpt>
      <trkpt lat="47.31942" lon="6.36419">
        <ele>373</ele>
        <time>2022-08-21T16:30:12Z</time>
      </trkpt>
      <trkpt lat="47.31899" lon="6.36409">
        <ele>376</ele>
        <time>2022-08-21T16:30:47Z</time>
      </trkpt>
      <trkpt lat="47.31863" lon="6.3641">
        <ele>378</ele>
        <time>2022-08-21T16:31:15Z</time>
      </trkpt>
      <trkpt lat="47.31834" lon="6.36416">
        <ele>379</ele>
        <time>2022-08-21T16:31:39Z</time>
      </trkpt>
      <trkpt lat="47.3178" lon="6.36431">
        <ele>383</ele>
        <time>2022-08-21T16:32:23Z</time>
      </trkpt>
      <trkpt lat="47.31759" lon="6.36444">
        <ele>382</ele>
        <time>2022-08-21T16:32:41Z</time>
      </trkpt>
      <trkpt lat="47.31739" lon="6.3646">
        <ele>382</ele>
        <time>2022-08-21T16:32:59Z</time>
      </trkpt>
      <trkpt lat="47.31642" lon="6.36547">
        <ele>390</ele>
        <time>2022-08-21T16:34:30Z</time>
      </trkpt>
      <trkpt lat="47.316" lon="6.36592">
        <ele>396</ele>
        <time>2022-08-21T16:35:12Z</time>
      </trkpt>
      <trkpt lat="47.3157" lon="6.36635">
        <ele>399</ele>
        <time>2022-08-21T16:35:45Z</time>
      </trkpt>
      <trkpt lat="47.31525" lon="6.36729">
        <ele>401</ele>
        <time>2022-08-21T16:36:48Z</time>
      </trkpt>
      <trkpt lat="47.3151" lon="6.36749">
        <ele>403</ele>
        <time>2022-08-21T16:37:04Z</time>
      </trkpt>
      <trkpt lat="47.31492" lon="6.36763">
        <ele>405</ele>
        <time>2022-08-21T16:37:20Z</time>
      </trkpt>
      <trkpt lat="47.31475" lon="6.36768">
        <ele>405</ele>
        <time>2022-08-21T16:37:34Z</time>
      </trkpt>
      <trkpt lat="47.31441" lon="6.36766">
        <ele>408</ele>
        <time>2022-08-21T16:38:01Z</time>
      </trkpt>
      <trkpt lat="47.31279" lon="6.36714">
        <ele>418</ele>
        <time>2022-08-21T16:40:14Z</time>
      </trkpt>
      <trkpt lat="47.31225" lon="6.36683">
        <ele>423</ele>
        <time>2022-08-21T16:41:00Z</time>
      </trkpt>
      <trkpt lat="47.31193" lon="6.36658">
        <ele>425</ele>
        <time>2022-08-21T16:41:29Z</time>
      </trkpt>
      <trkpt lat="47.31167" lon="6.36635">
        <ele>426</ele>
        <time>2022-08-21T16:41:54Z</time>
      </trkpt>
      <trkpt lat="47.31086" lon="6.36539">
        <ele>432</ele>
        <time>2022-08-21T16:43:17Z</time>
      </trkpt>
      <trkpt lat="47.31068" lon="6.36524">
        <ele>434</ele>
        <time>2022-08-21T16:43:33Z</time>
      </trkpt>
      <trkpt lat="47.31053" lon="6.36517">
        <ele>435</ele>
        <time>2022-08-21T16:43:46Z</time>
      </trkpt>
      <trkpt lat="47.31013" lon="6.36509">
        <ele>437</ele>
        <time>2022-08-21T16:44:18Z</time>
      </trkpt>
      <trkpt lat="47.30953" lon="6.3651">
        <ele>439</ele>
        <time>2022-08-21T16:45:06Z</time>
      </trkpt>
      <trkpt lat="47.30773" lon="6.36497">
        <ele>446</ele>
        <time>2022-08-21T16:47:31Z</time>
      </trkpt>
      <trkpt lat="47.30515" lon="6.36512">
        <ele>460</ele>
        <time>2022-08-21T16:50:57Z</time>
      </trkpt>
      <trkpt lat="47.30489" lon="6.36517">
        <ele>461</ele>
        <time>2022-08-21T16:51:18Z</time>
      </trkpt>
      <trkpt lat="47.30459" lon="6.36526">
        <ele>462</ele>
        <time>2022-08-21T16:51:43Z</time>
      </trkpt>
      <trkpt lat="47.30425" lon="6.36542">
        <ele>463</ele>
        <time>2022-08-21T16:52:12Z</time>
      </trkpt>
      <trkpt lat="47.30399" lon="6.36558">
        <ele>464</ele>
        <time>2022-08-21T16:52:34Z</time>
      </trkpt>
      <trkpt lat="47.30367" lon="6.36583">
        <ele>465</ele>
        <time>2022-08-21T16:53:03Z</time>
      </trkpt>
      <trkpt lat="47.30304" lon="6.3664">
        <ele>469</ele>
        <time>2022-08-21T16:54:02Z</time>
      </trkpt>
      <trkpt lat="47.30261" lon="6.36687">
        <ele>472</ele>
        <time>2022-08-21T16:54:45Z</time>
      </trkpt>
      <trkpt lat="47.30232" lon="6.36724">
        <ele>475</ele>
        <time>2022-08-21T16:55:16Z</time>
      </trkpt>
      <trkpt lat="47.30212" lon="6.36759">
        <ele>477</ele>
        <time>2022-08-21T16:55:41Z</time>
      </trkpt>
      <trkpt lat="47.30201" lon="6.36786">
        <ele>479</ele>
        <time>2022-08-21T16:55:58Z</time>
      </trkpt>
      <trkpt lat="47.30194" lon="6.36812">
        <ele>481</ele>
        <time>2022-08-21T16:56:13Z</time>
      </trkpt>
      <trkpt lat="47.30187" lon="6.36851">
        <ele>484</ele>
        <time>2022-08-21T16:56:35Z</time>
      </trkpt>
      <trkpt lat="47.30184" lon="6.36884">
        <ele>485</ele>
        <time>2022-08-21T16:56:53Z</time>
      </trkpt>
      <trkpt lat="47.30184" lon="6.3692">
        <ele>486</ele>
        <time>2022-08-21T16:57:12Z</time>
      </trkpt>
      <trkpt lat="47.30189" lon="6.36959">
        <ele>486</ele>
        <time>2022-08-21T16:57:34Z</time>
      </trkpt>
      <trkpt lat="47.30197" lon="6.36998">
        <ele>487</ele>
        <time>2022-08-21T16:57:56Z</time>
      </trkpt>
      <trkpt lat="47.30207" lon="6.37023">
        <ele>485</ele>
        <time>2022-08-21T16:58:12Z</time>
      </trkpt>
      <trkpt lat="47.30261" lon="6.37127">
        <ele>482</ele>
        <time>2022-08-21T16:59:23Z</time>
      </trkpt>
      <trkpt lat="47.30282" lon="6.37176">
        <ele>482</ele>
        <time>2022-08-21T16:59:55Z</time>
      </trkpt>
      <trkpt lat="47.30296" lon="6.37232">
        <ele>483</ele>
        <time>2022-08-21T17:00:27Z</time>
      </trkpt>
      <trkpt lat="47.30301" lon="6.37285">
        <ele>482</ele>
        <time>2022-08-21T17:00:56Z</time>
      </trkpt>
      <trkpt lat="47.303" lon="6.37339">
        <ele>480</ele>
        <time>2022-08-21T17:01:25Z</time>
      </trkpt>
      <trkpt lat="47.30291" lon="6.37387">
        <ele>481</ele>
        <time>2022-08-21T17:01:52Z</time>
      </trkpt>
      <trkpt lat="47.30274" lon="6.37444">
        <ele>482</ele>
        <time>2022-08-21T17:02:26Z</time>
      </trkpt>
      <trkpt lat="47.30245" lon="6.37498">
        <ele>483</ele>
        <time>2022-08-21T17:03:04Z</time>
      </trkpt>
      <trkpt lat="47.30217" lon="6.37533">
        <ele>485</ele>
        <time>2022-08-21T17:03:33Z</time>
      </trkpt>
      <trkpt lat="47.30182" lon="6.37563">
        <ele>487</ele>
        <time>2022-08-21T17:04:05Z</time>
      </trkpt>
      <trkpt lat="47.3015" lon="6.37577">
        <ele>488</ele>
        <time>2022-08-21T17:04:32Z</time>
      </trkpt>
      <trkpt lat="47.29966" lon="6.37625">
        <ele>493</ele>
        <time>2022-08-21T17:07:02Z</time>
      </trkpt>
      <trkpt lat="47.29902" lon="6.37648">
        <ele>493</ele>
        <time>2022-08-21T17:07:54Z</time>
      </trkpt>
      <trkpt lat="47.29846" lon="6.37678">
        <ele>492</ele>
        <time>2022-08-21T17:08:42Z</time>
      </trkpt>
      <trkpt lat="47.29753" lon="6.37749">
        <ele>496</ele>
        <time>2022-08-21T17:10:06Z</time>
      </trkpt>
      <trkpt lat="47.29699" lon="6.37785">
        <ele>495</ele>
        <time>2022-08-21T17:10:53Z</time>
      </trkpt>
      <trkpt lat="47.29655" lon="6.37803">
        <ele>496</ele>
        <time>2022-08-21T17:11:30Z</time>
      </trkpt>
      <trkpt lat="47.29167" lon="6.37917">
        <ele>502</ele>
        <time>2022-08-21T17:18:06Z</time>
      </trkpt>
      <trkpt lat="47.29125" lon="6.37931">
        <ele>503</ele>
        <time>2022-08-21T17:18:40Z</time>
      </trkpt>
      <trkpt lat="47.29099" lon="6.37945">
        <ele>504</ele>
        <time>2022-08-21T17:19:02Z</time>
      </trkpt>
      <trkpt lat="47.29058" lon="6.37972">
        <ele>505</ele>
        <time>2022-08-21T17:19:38Z</time>
      </trkpt>
      <trkpt lat="47.29017" lon="6.3801">
        <ele>507</ele>
        <time>2022-08-21T17:20:17Z</time>
      </trkpt>
      <trkpt lat="47.28951" lon="6.38085">
        <ele>511</ele>
        <time>2022-08-21T17:21:24Z</time>
      </trkpt>
      <trkpt lat="47.28896" lon="6.38155">
        <ele>513</ele>
        <time>2022-08-21T17:22:22Z</time>
      </trkpt>
      <trkpt lat="47.2888" lon="6.3817">
        <ele>513</ele>
        <time>2022-08-21T17:22:37Z</time>
      </trkpt>
      <trkpt lat="47.28832" lon="6.38202">
        <ele>514</ele>
        <time>2022-08-21T17:23:19Z</time>
      </trkpt>
      <trkpt lat="47.2878" lon="6.38239">
        <ele>514</ele>
        <time>2022-08-21T17:24:05Z</time>
      </trkpt>
      <trkpt lat="47.28696" lon="6.38325">
        <ele>512</ele>
        <time>2022-08-21T17:25:27Z</time>
      </trkpt>
      <trkpt lat="47.28653" lon="6.38379">
        <ele>515</ele>
        <time>2022-08-21T17:26:13Z</time>
      </trkpt>
      <trkpt lat="47.2861" lon="6.38418">
        <ele>521</ele>
        <time>2022-08-21T17:26:53Z</time>
      </trkpt>
      <trkpt lat="47.28571" lon="6.38438">
        <ele>524</ele>
        <time>2022-08-21T17:27:26Z</time>
      </trkpt>
      <trkpt lat="47.28384" lon="6.38494">
        <ele>521</ele>
        <time>2022-08-21T17:29:59Z</time>
      </trkpt>
      <trkpt lat="47.28361" lon="6.38505">
        <ele>521</ele>
        <time>2022-08-21T17:30:18Z</time>
      </trkpt>
      <trkpt lat="47.28341" lon="6.38518">
        <ele>522</ele>
        <time>2022-08-21T17:30:36Z</time>
      </trkpt>
      <trkpt lat="47.28311" lon="6.38536">
        <ele>523</ele>
        <time>2022-08-21T17:31:02Z</time>
      </trkpt>
      <trkpt lat="47.28287" lon="6.38548">
        <ele>523</ele>
        <time>2022-08-21T17:31:22Z</time>
      </trkpt>
      <trkpt lat="47.28251" lon="6.38554">
        <ele>523</ele>
        <time>2022-08-21T17:31:51Z</time>
      </trkpt>
      <trkpt lat="47.2823" lon="6.38553">
        <ele>525</ele>
        <time>2022-08-21T17:32:08Z</time>
      </trkpt>
      <trkpt lat="47.28212" lon="6.38549">
        <ele>525</ele>
        <time>2022-08-21T17:32:22Z</time>
      </trkpt>
      <trkpt lat="47.2819" lon="6.38532">
        <ele>525</ele>
        <time>2022-08-21T17:32:42Z</time>
      </trkpt>
      <trkpt lat="47.28176" lon="6.3852">
        <ele>525</ele>
        <time>2022-08-21T17:32:55Z</time>
      </trkpt>
      <trkpt lat="47.28168" lon="6.38517">
        <ele>525</ele>
        <time>2022-08-21T17:33:02Z</time>
      </trkpt>
      <trkpt lat="47.28156" lon="6.38519">
        <ele>526</ele>
        <time>2022-08-21T17:33:11Z</time>
      </trkpt>
      <trkpt lat="47.2812" lon="6.38542">
        <ele>530</ele>
        <time>2022-08-21T17:33:43Z</time>
      </trkpt>
      <trkpt lat="47.28099" lon="6.38545">
        <ele>531</ele>
        <time>2022-08-21T17:34:00Z</time>
      </trkpt>
      <trkpt lat="47.28029" lon="6.38539">
        <ele>533</ele>
        <time>2022-08-21T17:34:56Z</time>
      </trkpt>
      <trkpt lat="47.28013" lon="6.38536">
        <ele>534</ele>
        <time>2022-08-21T17:35:09Z</time>
      </trkpt>
      <trkpt lat="47.28001" lon="6.3853">
        <ele>534</ele>
        <time>2022-08-21T17:35:19Z</time>
      </trkpt>
      <trkpt lat="47.27918" lon="6.38477">
        <ele>540</ele>
        <time>2022-08-21T17:36:31Z</time>
      </trkpt>
      <trkpt lat="47.27904" lon="6.38473">
        <ele>540</ele>
        <time>2022-08-21T17:36:43Z</time>
      </trkpt>
      <trkpt lat="47.27884" lon="6.38473">
        <ele>541</ele>
        <time>2022-08-21T17:36:59Z</time>
      </trkpt>
      <trkpt lat="47.27871" lon="6.38477">
        <ele>542</ele>
        <time>2022-08-21T17:37:09Z</time>
      </trkpt>
      <trkpt lat="47.27824" lon="6.38504">
        <ele>548</ele>
        <time>2022-08-21T17:37:50Z</time>
      </trkpt>
      <trkpt lat="47.2781" lon="6.38507">
        <ele>550</ele>
        <time>2022-08-21T17:38:01Z</time>
      </trkpt>
      <trkpt lat="47.27792" lon="6.38504">
        <ele>551</ele>
        <time>2022-08-21T17:38:16Z</time>
      </trkpt>
      <trkpt lat="47.27748" lon="6.38486">
        <ele>553</ele>
        <time>2022-08-21T17:38:52Z</time>
      </trkpt>
      <trkpt lat="47.27734" lon="6.38474">
        <ele>553</ele>
        <time>2022-08-21T17:39:05Z</time>
      </trkpt>
      <trkpt lat="47.2772" lon="6.38458">
        <ele>552</ele>
        <time>2022-08-21T17:39:19Z</time>
      </trkpt>
      <trkpt lat="47.27708" lon="6.38438">
        <ele>552</ele>
        <time>2022-08-21T17:39:34Z</time>
      </trkpt>
      <trkpt lat="47.27623" lon="6.38268">
        <ele>555</ele>
        <time>2022-08-21T17:41:29Z</time>
      </trkpt>
      <trkpt lat="47.27612" lon="6.3825">
        <ele>556</ele>
        <time>2022-08-21T17:41:42Z</time>
      </trkpt>
      <trkpt lat="47.276" lon="6.38239">
        <ele>560</ele>
        <time>2022-08-21T17:41:53Z</time>
      </trkpt>
      <trkpt lat="47.27591" lon="6.38233">
        <ele>562</ele>
        <time>2022-08-21T17:42:01Z</time>
      </trkpt>
      <trkpt lat="47.27583" lon="6.38232">
        <ele>564</ele>
        <time>2022-08-21T17:42:07Z</time>
      </trkpt>
      <trkpt lat="47.27572" lon="6.38232">
        <ele>564</ele>
        <time>2022-08-21T17:42:16Z</time>
      </trkpt>
      <trkpt lat="47.27548" lon="6.38236">
        <ele>563</ele>
        <time>2022-08-21T17:42:36Z</time>
      </trkpt>
      <trkpt lat="47.27396" lon="6.3831">
        <ele>568</ele>
        <time>2022-08-21T17:44:44Z</time>
      </trkpt>
      <trkpt lat="47.27371" lon="6.38311">
        <ele>569</ele>
        <time>2022-08-21T17:45:04Z</time>
      </trkpt>
      <trkpt lat="47.27357" lon="6.38306">
        <ele>569</ele>
        <time>2022-08-21T17:45:15Z</time>
      </trkpt>
      <trkpt lat="47.27345" lon="6.38298">
        <ele>569</ele>
        <time>2022-08-21T17:45:26Z</time>
      </trkpt>
      <trkpt lat="47.27329" lon="6.3828">
        <ele>568</ele>
        <time>2022-08-21T17:45:42Z</time>
      </trkpt>
      <trkpt lat="47.27286" lon="6.38204">
        <ele>577</ele>
        <time>2022-08-21T17:46:36Z</time>
      </trkpt>
      <trkpt lat="47.27262" lon="6.38156">
        <ele>579</ele>
        <time>2022-08-21T17:47:08Z</time>
      </trkpt>
      <trkpt lat="47.27243" lon="6.38127">
        <ele>578</ele>
        <time>2022-08-21T17:47:30Z</time>
      </trkpt>
      <trkpt lat="47.27107" lon="6.37956">
        <ele>582</ele>
        <time>2022-08-21T17:49:53Z</time>
      </trkpt>
      <trkpt lat="47.27029" lon="6.37877">
        <ele>584</ele>
        <time>2022-08-21T17:51:09Z</time>
      </trkpt>
      <trkpt lat="47.27005" lon="6.37863">
        <ele>585</ele>
        <time>2022-08-21T17:51:30Z</time>
      </trkpt>
      <trkpt lat="47.26915" lon="6.37819">
        <ele>588</ele>
        <time>2022-08-21T17:52:46Z</time>
      </trkpt>
      <trkpt lat="47.26823" lon="6.37795">
        <ele>587</ele>
        <time>2022-08-21T17:54:00Z</time>
      </trkpt>
      <trkpt lat="47.26687" lon="6.37762">
        <ele>591</ele>
        <time>2022-08-21T17:55:51Z</time>
      </trkpt>
      <trkpt lat="47.26663" lon="6.37761">
        <ele>593</ele>
        <time>2022-08-21T17:56:10Z</time>
      </trkpt>
      <trkpt lat="47.26615" lon="6.37772">
        <ele>591</ele>
        <time>2022-08-21T17:56:49Z</time>
      </trkpt>
      <trkpt lat="47.26585" lon="6.37788">
        <ele>590</ele>
        <time>2022-08-21T17:57:14Z</time>
      </trkpt>
      <trkpt lat="47.26336" lon="6.37958">
        <ele>572</ele>
        <time>2022-08-21T18:00:54Z</time>
      </trkpt>
      <trkpt lat="47.26099" lon="6.38113">
        <ele>556</ele>
        <time>2022-08-21T18:04:22Z</time>
      </trkpt>
      <trkpt lat="47.25613" lon="6.38359">
        <ele>539</ele>
        <time>2022-08-21T18:11:13Z</time>
      </trkpt>
      <trkpt lat="47.2546" lon="6.38438">
        <ele>540</ele>
        <time>2022-08-21T18:13:23Z</time>
      </trkpt>
      <trkpt lat="47.25421" lon="6.3846">
        <ele>539</ele>
        <time>2022-08-21T18:13:56Z</time>
      </trkpt>
      <trkpt lat="47.25396" lon="6.38478">
        <ele>539</ele>
        <time>2022-08-21T18:14:19Z</time>
      </trkpt>
      <trkpt lat="47.25377" lon="6.38496">
        <ele>539</ele>
        <time>2022-08-21T18:14:37Z</time>
      </trkpt>
      <trkpt lat="47.25341" lon="6.38538">
        <ele>541</ele>
        <time>2022-08-21T18:15:14Z</time>
      </trkpt>
      <trkpt lat="47.25234" lon="6.38691">
        <ele>539</ele>
        <time>2022-08-21T18:17:13Z</time>
      </trkpt>
      <trkpt lat="47.25168" lon="6.38779">
        <ele>532</ele>
        <time>2022-08-21T18:18:24Z</time>
      </trkpt>
      <trkpt lat="47.25137" lon="6.38835">
        <ele>533</ele>
        <time>2022-08-21T18:19:03Z</time>
      </trkpt>
      <trkpt lat="47.25113" lon="6.38887">
        <ele>535</ele>
        <time>2022-08-21T18:19:38Z</time>
      </trkpt>
      <trkpt lat="47.25094" lon="6.38915">
        <ele>536</ele>
        <time>2022-08-21T18:19:59Z</time>
      </trkpt>
      <trkpt lat="47.25071" lon="6.3894">
        <ele>535</ele>
        <time>2022-08-21T18:20:22Z</time>
      </trkpt>
      <trkpt lat="47.2505" lon="6.38958">
        <ele>533</ele>
        <time>2022-08-21T18:20:42Z</time>
      </trkpt>
      <trkpt lat="47.24997" lon="6.38992">
        <ele>529</ele>
        <time>2022-08-21T18:21:28Z</time>
      </trkpt>
      <trkpt lat="47.24943" lon="6.39025">
        <ele>527</ele>
        <time>2022-08-21T18:22:15Z</time>
      </trkpt>
      <trkpt lat="47.24919" lon="6.39036">
        <ele>526</ele>
        <time>2022-08-21T18:22:35Z</time>
      </trkpt>
      <trkpt lat="47.24885" lon="6.39042">
        <ele>527</ele>
        <time>2022-08-21T18:23:02Z</time>
      </trkpt>
      <trkpt lat="47.24818" lon="6.39046">
        <ele>529</ele>
        <time>2022-08-21T18:23:56Z</time>
      </trkpt>
      <trkpt lat="47.24774" lon="6.39052">
        <ele>531</ele>
        <time>2022-08-21T18:24:31Z</time>
      </trkpt>
      <trkpt lat="47.2471" lon="6.39072">
        <ele>534</ele>
        <time>2022-08-21T18:25:24Z</time>
      </trkpt>
      <trkpt lat="47.2469" lon="6.3908">
        <ele>534</ele>
        <time>2022-08-21T18:25:40Z</time>
      </trkpt>
      <trkpt lat="47.24557" lon="6.39183">
        <ele>542</ele>
        <time>2022-08-21T18:27:41Z</time>
      </trkpt>
      <trkpt lat="47.24532" lon="6.39218">
        <ele>542</ele>
        <time>2022-08-21T18:28:08Z</time>
      </trkpt>
      <trkpt lat="47.24508" lon="6.3926">
        <ele>542</ele>
        <time>2022-08-21T18:28:38Z</time>
      </trkpt>
      <trkpt lat="47.24479" lon="6.39298">
        <ele>543</ele>
        <time>2022-08-21T18:29:09Z</time>
      </trkpt>
      <trkpt lat="47.24458" lon="6.39316">
        <ele>543</ele>
        <time>2022-08-21T18:29:29Z</time>
      </trkpt>
      <trkpt lat="47.24438" lon="6.39329">
        <ele>544</ele>
        <time>2022-08-21T18:29:46Z</time>
      </trkpt>
      <trkpt lat="47.24421" lon="6.39338">
        <ele>544</ele>
        <time>2022-08-21T18:30:00Z</time>
      </trkpt>
      <trkpt lat="47.24396" lon="6.39346">
        <ele>544</ele>
        <time>2022-08-21T18:30:21Z</time>
      </trkpt>
      <trkpt lat="47.24374" lon="6.39349">
        <ele>544</ele>
        <time>2022-08-21T18:30:39Z</time>
      </trkpt>
      <trkpt lat="47.24358" lon="6.39348">
        <ele>544</ele>
        <time>2022-08-21T18:30:51Z</time>
      </trkpt>
      <trkpt lat="47.24341" lon="6.39345">
        <ele>545</ele>
        <time>2022-08-21T18:31:05Z</time>
      </trkpt>
      <trkpt lat="47.24321" lon="6.39337">
        <ele>545</ele>
        <time>2022-08-21T18:31:22Z</time>
      </trkpt>
      <trkpt lat="47.24119" lon="6.39229">
        <ele>544</ele>
        <time>2022-08-21T18:34:14Z</time>
      </trkpt>
      <trkpt lat="47.24087" lon="6.39209">
        <ele>543</ele>
        <time>2022-08-21T18:34:42Z</time>
      </trkpt>
      <trkpt lat="47.24007" lon="6.39145">
        <ele>540</ele>
        <time>2022-08-21T18:35:55Z</time>
      </trkpt>
      <trkpt lat="47.23986" lon="6.39133">
        <ele>538</ele>
        <time>2022-08-21T18:36:13Z</time>
      </trkpt>
      <trkpt lat="47.23941" lon="6.39117">
        <ele>537</ele>
        <time>2022-08-21T18:36:50Z</time>
      </trkpt>
      <trkpt lat="47.23917" lon="6.39113">
        <ele>536</ele>
        <time>2022-08-21T18:37:09Z</time>
      </trkpt>
      <trkpt lat="47.2389" lon="6.39115">
        <ele>535</ele>
        <time>2022-08-21T18:37:31Z</time>
      </trkpt>
      <trkpt lat="47.23838" lon="6.39129">
        <ele>533</ele>
        <time>2022-08-21T18:38:13Z</time>
      </trkpt>
      <trkpt lat="47.23814" lon="6.39143">
        <ele>534</ele>
        <time>2022-08-21T18:38:34Z</time>
      </trkpt>
      <trkpt lat="47.23786" lon="6.39163">
        <ele>534</ele>
        <time>2022-08-21T18:38:59Z</time>
      </trkpt>
      <trkpt lat="47.23761" lon="6.39188">
        <ele>534</ele>
        <time>2022-08-21T18:39:23Z</time>
      </trkpt>
      <trkpt lat="47.23734" lon="6.39223">
        <ele>533</ele>
        <time>2022-08-21T18:39:52Z</time>
      </trkpt>
      <trkpt lat="47.23686" lon="6.39306">
        <ele>533</ele>
        <time>2022-08-21T18:40:51Z</time>
      </trkpt>
      <trkpt lat="47.2366" lon="6.39354">
        <ele>534</ele>
        <time>2022-08-21T18:41:24Z</time>
      </trkpt>
      <trkpt lat="47.23591" lon="6.39471">
        <ele>536</ele>
        <time>2022-08-21T18:42:48Z</time>
      </trkpt>
      <trkpt lat="47.23471" lon="6.39649">
        <ele>537</ele>
        <time>2022-08-21T18:45:05Z</time>
      </trkpt>
      <trkpt lat="47.23441" lon="6.39681">
        <ele>537</ele>
        <time>2022-08-21T18:45:34Z</time>
      </trkpt>
      <trkpt lat="47.23325" lon="6.39782">
        <ele>541</ele>
        <time>2022-08-21T18:47:22Z</time>
      </trkpt>
      <trkpt lat="47.23305" lon="6.39795">
        <ele>541</ele>
        <time>2022-08-21T18:47:40Z</time>
      </trkpt>
      <trkpt lat="47.23261" lon="6.39812">
        <ele>539</ele>
        <time>2022-08-21T18:48:16Z</time>
      </trkpt>
      <trkpt lat="47.23235" lon="6.39814">
        <ele>538</ele>
        <time>2022-08-21T18:48:37Z</time>
      </trkpt>
      <trkpt lat="47.2321" lon="6.39811">
        <ele>537</ele>
        <time>2022-08-21T18:48:57Z</time>
      </trkpt>
      <trkpt lat="47.2319" lon="6.39804">
        <ele>536</ele>
        <time>2022-08-21T18:49:14Z</time>
      </trkpt>
      <trkpt lat="47.23166" lon="6.39793">
        <ele>535</ele>
        <time>2022-08-21T18:49:34Z</time>
      </trkpt>
      <trkpt lat="47.23076" lon="6.39717">
        <ele>539</ele>
        <time>2022-08-21T18:50:57Z</time>
      </trkpt>
      <trkpt lat="47.23055" lon="6.39693">
        <ele>540</ele>
        <time>2022-08-21T18:51:18Z</time>
      </trkpt>
      <trkpt lat="47.23036" lon="6.39667">
        <ele>541</ele>
        <time>2022-08-21T18:51:39Z</time>
      </trkpt>
      <trkpt lat="47.22842" lon="6.39369">
        <ele>548</ele>
        <time>2022-08-21T18:55:23Z</time>
      </trkpt>
      <trkpt lat="47.22831" lon="6.39347">
        <ele>550</ele>
        <time>2022-08-21T18:55:38Z</time>
      </trkpt>
      <trkpt lat="47.22806" lon="6.39309">
        <ele>554</ele>
        <time>2022-08-21T18:56:07Z</time>
      </trkpt>
      <trkpt lat="47.22783" lon="6.39279">
        <ele>557</ele>
        <time>2022-08-21T18:56:32Z</time>
      </trkpt>
      <trkpt lat="47.22681" lon="6.39124">
        <ele>567</ele>
        <time>2022-08-21T18:58:29Z</time>
      </trkpt>
      <trkpt lat="47.22646" lon="6.39068">
        <ele>567</ele>
        <time>2022-08-21T18:59:10Z</time>
      </trkpt>
      <trkpt lat="47.22628" lon="6.39046">
        <ele>567</ele>
        <time>2022-08-21T18:59:29Z</time>
      </trkpt>
      <trkpt lat="47.22609" lon="6.39029">
        <ele>567</ele>
        <time>2022-08-21T18:59:47Z</time>
      </trkpt>
      <trkpt lat="47.22598" lon="6.39022">
        <ele>567</ele>
        <time>2022-08-21T18:59:56Z</time>
      </trkpt>
      <trkpt lat="47.22498" lon="6.38992">
        <ele>571</ele>
        <time>2022-08-21T19:01:18Z</time>
      </trkpt>
      <trkpt lat="47.22457" lon="6.38986">
        <ele>571</ele>
        <time>2022-08-21T19:01:51Z</time>
      </trkpt>
      <trkpt lat="47.22329" lon="6.39012">
        <ele>578</ele>
        <time>2022-08-21T19:03:35Z</time>
      </trkpt>
      <trkpt lat="47.22283" lon="6.39023">
        <ele>578</ele>
        <time>2022-08-21T19:04:12Z</time>
      </trkpt>
      <trkpt lat="47.22257" lon="6.39033">
        <ele>579</ele>
        <time>2022-08-21T19:04:33Z</time>
      </trkpt>
      <trkpt lat="47.22189" lon="6.39072">
        <ele>583</ele>
        <time>2022-08-21T19:05:32Z</time>
      </trkpt>
      <trkpt lat="47.22101" lon="6.39126">
        <ele>589</ele>
        <time>2022-08-21T19:06:48Z</time>
      </trkpt>
      <trkpt lat="47.22075" lon="6.39145">
        <ele>590</ele>
        <time>2022-08-21T19:07:11Z</time>
      </trkpt>
      <trkpt lat="47.22053" lon="6.39171">
        <ele>593</ele>
        <time>2022-08-21T19:07:34Z</time>
      </trkpt>
      <trkpt lat="47.22032" lon="6.39199">
        <ele>595</ele>
        <time>2022-08-21T19:07:57Z</time>
      </trkpt>
      <trkpt lat="47.22011" lon="6.39247">
        <ele>598</ele>
        <time>2022-08-21T19:08:28Z</time>
      </trkpt>
      <trkpt lat="47.21985" lon="6.39328">
        <ele>601</ele>
        <time>2022-08-21T19:09:17Z</time>
      </trkpt>
      <trkpt lat="47.21976" lon="6.39346">
        <ele>602</ele>
        <time>2022-08-21T19:09:29Z</time>
      </trkpt>
      <trkpt lat="47.21964" lon="6.39363">
        <ele>602</ele>
        <time>2022-08-21T19:09:42Z</time>
      </trkpt>
      <trkpt lat="47.21952" lon="6.39376">
        <ele>603</ele>
        <time>2022-08-21T19:09:54Z</time>
      </trkpt>
      <trkpt lat="47.21938" lon="6.39385">
        <ele>603</ele>
        <time>2022-08-21T19:10:06Z</time>
      </trkpt>
      <trkpt lat="47.21924" lon="6.39391">
        <ele>603</ele>
        <time>2022-08-21T19:10:18Z</time>
      </trkpt>
      <trkpt lat="47.21909" lon="6.39393">
        <ele>604</ele>
        <time>2022-08-21T19:10:30Z</time>
      </trkpt>
      <trkpt lat="47.21895" lon="6.39392">
        <ele>605</ele>
        <time>2022-08-21T19:10:41Z</time>
      </trkpt>
      <trkpt lat="47.21714" lon="6.39338">
        <ele>613</ele>
        <time>2022-08-21T19:13:09Z</time>
      </trkpt>
      <trkpt lat="47.21686" lon="6.39325">
        <ele>614</ele>
        <time>2022-08-21T19:13:32Z</time>
      </trkpt>
      <trkpt lat="47.21648" lon="6.39296">
        <ele>614</ele>
        <time>2022-08-21T19:14:07Z</time>
      </trkpt>
      <trkpt lat="47.21542" lon="6.39186">
        <ele>615</ele>
        <time>2022-08-21T19:15:51Z</time>
      </trkpt>
      <trkpt lat="47.21527" lon="6.39177">
        <ele>616</ele>
        <time>2022-08-21T19:16:04Z</time>
      </trkpt>
      <trkpt lat="47.21511" lon="6.39171">
        <ele>619</ele>
        <time>2022-08-21T19:16:17Z</time>
      </trkpt>
      <trkpt lat="47.21493" lon="6.39169">
        <ele>620</ele>
        <time>2022-08-21T19:16:31Z</time>
      </trkpt>
      <trkpt lat="47.21474" lon="6.39174">
        <ele>621</ele>
        <time>2022-08-21T19:16:47Z</time>
      </trkpt>
      <trkpt lat="47.21455" lon="6.39184">
        <ele>622</ele>
        <time>2022-08-21T19:17:03Z</time>
      </trkpt>
      <trkpt lat="47.21441" lon="6.39199">
        <ele>623</ele>
        <time>2022-08-21T19:17:17Z</time>
      </trkpt>
      <trkpt lat="47.21429" lon="6.39217">
        <ele>624</ele>
        <time>2022-08-21T19:17:30Z</time>
      </trkpt>
      <trkpt lat="47.21417" lon="6.39242">
        <ele>625</ele>
        <time>2022-08-21T19:17:47Z</time>
      </trkpt>
      <trkpt lat="47.21382" lon="6.39337">
        <ele>629</ele>
        <time>2022-08-21T19:18:46Z</time>
      </trkpt>
      <trkpt lat="47.2136" lon="6.39369">
        <ele>629</ele>
        <time>2022-08-21T19:19:11Z</time>
      </trkpt>
      <trkpt lat="47.21346" lon="6.3938">
        <ele>629</ele>
        <time>2022-08-21T19:19:23Z</time>
      </trkpt>
      <trkpt lat="47.21328" lon="6.39389">
        <ele>629</ele>
        <time>2022-08-21T19:19:39Z</time>
      </trkpt>
      <trkpt lat="47.21308" lon="6.39392">
        <ele>630</ele>
        <time>2022-08-21T19:19:55Z</time>
      </trkpt>
      <trkpt lat="47.21214" lon="6.39382">
        <ele>632</ele>
        <time>2022-08-21T19:21:10Z</time>
      </trkpt>
      <trkpt lat="47.21192" lon="6.39375">
        <ele>633</ele>
        <time>2022-08-21T19:21:28Z</time>
      </trkpt>
      <trkpt lat="47.21172" lon="6.39363">
        <ele>634</ele>
        <time>2022-08-21T19:21:45Z</time>
      </trkpt>
      <trkpt lat="47.21145" lon="6.39339">
        <ele>635</ele>
        <time>2022-08-21T19:22:11Z</time>
      </trkpt>
      <trkpt lat="47.21072" lon="6.39261">
        <ele>638</ele>
        <time>2022-08-21T19:23:23Z</time>
      </trkpt>
      <trkpt lat="47.21027" lon="6.39215">
        <ele>639</ele>
        <time>2022-08-21T19:24:07Z</time>
      </trkpt>
      <trkpt lat="47.21011" lon="6.39201">
        <ele>640</ele>
        <time>2022-08-21T19:24:22Z</time>
      </trkpt>
      <trkpt lat="47.20993" lon="6.39189">
        <ele>641</ele>
        <time>2022-08-21T19:24:37Z</time>
      </trkpt>
      <trkpt lat="47.20828" lon="6.3911">
        <ele>644</ele>
        <time>2022-08-21T19:26:56Z</time>
      </trkpt>
      <trkpt lat="47.20805" lon="6.39101">
        <ele>647</ele>
        <time>2022-08-21T19:27:15Z</time>
      </trkpt>
      <trkpt lat="47.20787" lon="6.39096">
        <ele>648</ele>
        <time>2022-08-21T19:27:30Z</time>
      </trkpt>
      <trkpt lat="47.20765" lon="6.39096">
        <ele>650</ele>
        <time>2022-08-21T19:27:48Z</time>
      </trkpt>
      <trkpt lat="47.20739" lon="6.39102">
        <ele>651</ele>
        <time>2022-08-21T19:28:09Z</time>
      </trkpt>
      <trkpt lat="47.20716" lon="6.39111">
        <ele>651</ele>
        <time>2022-08-21T19:28:28Z</time>
      </trkpt>
      <trkpt lat="47.20687" lon="6.39132">
        <ele>652</ele>
        <time>2022-08-21T19:28:54Z</time>
      </trkpt>
      <trkpt lat="47.2067" lon="6.39151">
        <ele>653</ele>
        <time>2022-08-21T19:29:11Z</time>
      </trkpt>
      <trkpt lat="47.20648" lon="6.39182">
        <ele>654</ele>
        <time>2022-08-21T19:29:35Z</time>
      </trkpt>
      <trkpt lat="47.20494" lon="6.39421">
        <ele>656</ele>
        <time>2022-08-21T19:32:34Z</time>
      </trkpt>
      <trkpt lat="47.20463" lon="6.39456">
        <ele>656</ele>
        <time>2022-08-21T19:33:06Z</time>
      </trkpt>
      <trkpt lat="47.20439" lon="6.39475">
        <ele>657</ele>
        <time>2022-08-21T19:33:28Z</time>
      </trkpt>
      <trkpt lat="47.20418" lon="6.39488">
        <ele>657</ele>
        <time>2022-08-21T19:33:46Z</time>
      </trkpt>
      <trkpt lat="47.20385" lon="6.39501">
        <ele>660</ele>
        <time>2022-08-21T19:34:13Z</time>
      </trkpt>
      <trkpt lat="47.20368" lon="6.39505">
        <ele>661</ele>
        <time>2022-08-21T19:34:27Z</time>
      </trkpt>
      <trkpt lat="47.20352" lon="6.39506">
        <ele>662</ele>
        <time>2022-08-21T19:34:40Z</time>
      </trkpt>
      <trkpt lat="47.20113" lon="6.39501">
        <ele>663</ele>
        <time>2022-08-21T19:37:51Z</time>
      </trkpt>
      <trkpt lat="47.20085" lon="6.39505">
        <ele>662</ele>
        <time>2022-08-21T19:38:14Z</time>
      </trkpt>
      <trkpt lat="47.19842" lon="6.39555">
        <ele>637</ele>
        <time>2022-08-21T19:41:30Z</time>
      </trkpt>
      <trkpt lat="47.19649" lon="6.39586">
        <ele>643</ele>
        <time>2022-08-21T19:44:06Z</time>
      </trkpt>
      <trkpt lat="47.19614" lon="6.39588">
        <ele>645</ele>
        <time>2022-08-21T19:44:34Z</time>
      </trkpt>
      <trkpt lat="47.19575" lon="6.39587">
        <ele>647</ele>
        <time>2022-08-21T19:45:05Z</time>
      </trkpt>
      <trkpt lat="47.19367" lon="6.39567">
        <ele>653</ele>
        <time>2022-08-21T19:47:52Z</time>
      </trkpt>
      <trkpt lat="47.19327" lon="6.39558">
        <ele>654</ele>
        <time>2022-08-21T19:48:24Z</time>
      </trkpt>
      <trkpt lat="47.19201" lon="6.39518">
        <ele>658</ele>
        <time>2022-08-21T19:50:07Z</time>
      </trkpt>
      <trkpt lat="47.19189" lon="6.39515">
        <ele>658</ele>
        <time>2022-08-21T19:50:17Z</time>
      </trkpt>
      <trkpt lat="47.19173" lon="6.39513">
        <ele>658</ele>
        <time>2022-08-21T19:50:30Z</time>
      </trkpt>
      <trkpt lat="47.19081" lon="6.39526">
        <ele>658</ele>
        <time>2022-08-21T19:51:44Z</time>
      </trkpt>
      <trkpt lat="47.18897" lon="6.39579">
        <ele>655</ele>
        <time>2022-08-21T19:54:14Z</time>
      </trkpt>
      <trkpt lat="47.18797" lon="6.39595">
        <ele>655</ele>
        <time>2022-08-21T19:55:35Z</time>
      </trkpt>
      <trkpt lat="47.18554" lon="6.39618">
        <ele>648</ele>
        <time>2022-08-21T19:58:50Z</time>
      </trkpt>
      <trkpt lat="47.1853" lon="6.39624">
        <ele>648</ele>
        <time>2022-08-21T19:59:09Z</time>
      </trkpt>
      <trkpt lat="47.18513" lon="6.39632">
        <ele>648</ele>
        <time>2022-08-21T19:59:23Z</time>
      </trkpt>
      <trkpt lat="47.18503" lon="6.39639">
        <ele>648</ele>
        <time>2022-08-21T19:59:32Z</time>
      </trkpt>
      <trkpt lat="47.18485" lon="6.39657">
        <ele>648</ele>
        <time>2022-08-21T19:59:50Z</time>
      </trkpt>
      <trkpt lat="47.18454" lon="6.39693">
        <ele>648</ele>
        <time>2022-08-21T20:00:21Z</time>
      </trkpt>
      <trkpt lat="47.18364" lon="6.39806">
        <ele>652</ele>
        <time>2022-08-21T20:01:56Z</time>
      </trkpt>
      <trkpt lat="47.18338" lon="6.39837">
        <ele>654</ele>
        <time>2022-08-21T20:02:23Z</time>
      </trkpt>
      <trkpt lat="47.18333" lon="6.39841">
        <ele>654</ele>
        <time>2022-08-21T20:02:27Z</time>
      </trkpt>
      <trkpt lat="47.18326" lon="6.39842">
        <ele>654</ele>
        <time>2022-08-21T20:02:33Z</time>
      </trkpt>
      <trkpt lat="47.18319" lon="6.39868">
        <ele>655</ele>
        <time>2022-08-21T20:02:48Z</time>
      </trkpt>
      <trkpt lat="47.18303" lon="6.39903">
        <ele>655</ele>
        <time>2022-08-21T20:03:11Z</time>
      </trkpt>
      <trkpt lat="47.18299" lon="6.39925">
        <ele>656</ele>
        <time>2022-08-21T20:03:24Z</time>
      </trkpt>
      <trkpt lat="47.18302" lon="6.39986">
        <ele>657</ele>
        <time>2022-08-21T20:03:57Z</time>
      </trkpt>
      <trkpt lat="47.18293" lon="6.39989">
        <ele>657</ele>
        <time>2022-08-21T20:04:04Z</time>
      </trkpt>
      <trkpt lat="47.18277" lon="6.4">
        <ele>657</ele>
        <time>2022-08-21T20:04:18Z</time>
      </trkpt>
      <trkpt lat="47.18269" lon="6.4001">
        <ele>657</ele>
        <time>2022-08-21T20:04:27Z</time>
      </trkpt>
      <trkpt lat="47.18259" lon="6.40028">
        <ele>657</ele>
        <time>2022-08-21T20:04:39Z</time>
      </trkpt>
      <trkpt lat="47.1822" lon="6.40116">
        <ele>658</ele>
        <time>2022-08-21T20:05:37Z</time>
      </trkpt>
      <trkpt lat="47.18151" lon="6.40241">
        <ele>663</ele>
        <time>2022-08-21T20:07:04Z</time>
      </trkpt>
      <trkpt lat="47.1813" lon="6.40275">
        <ele>663</ele>
        <time>2022-08-21T20:07:29Z</time>
      </trkpt>
      <trkpt lat="47.18114" lon="6.40296">
        <ele>663</ele>
        <time>2022-08-21T20:07:46Z</time>
      </trkpt>
      <trkpt lat="47.18096" lon="6.40315">
        <ele>663</ele>
        <time>2022-08-21T20:08:04Z</time>
      </trkpt>
      <trkpt lat="47.18027" lon="6.40359">
        <ele>664</ele>
        <time>2022-08-21T20:09:04Z</time>
      </trkpt>
      <trkpt lat="47.17917" lon="6.40424">
        <ele>668</ele>
        <time>2022-08-21T20:10:39Z</time>
      </trkpt>
      <trkpt lat="47.17676" lon="6.40531">
        <ele>683</ele>
        <time>2022-08-21T20:14:01Z</time>
      </trkpt>
      <trkpt lat="47.17506" lon="6.40563">
        <ele>691</ele>
        <time>2022-08-21T20:16:18Z</time>
      </trkpt>
      <trkpt lat="47.17442" lon="6.40569">
        <ele>696</ele>
        <time>2022-08-21T20:17:09Z</time>
      </trkpt>
      <trkpt lat="47.17284" lon="6.40543">
        <ele>709</ele>
        <time>2022-08-21T20:19:17Z</time>
      </trkpt>
      <trkpt lat="47.17244" lon="6.4054">
        <ele>712</ele>
        <time>2022-08-21T20:19:49Z</time>
      </trkpt>
      <trkpt lat="47.1721" lon="6.40544">
        <ele>715</ele>
        <time>2022-08-21T20:20:16Z</time>
      </trkpt>
      <trkpt lat="47.1701" lon="6.40582">
        <ele>727</ele>
        <time>2022-08-21T20:22:57Z</time>
      </trkpt>
      <trkpt lat="47.16877" lon="6.40605">
        <ele>739</ele>
        <time>2022-08-21T20:24:45Z</time>
      </trkpt>
      <trkpt lat="47.16848" lon="6.40606">
        <ele>742</ele>
        <time>2022-08-21T20:25:08Z</time>
      </trkpt>
      <trkpt lat="47.16778" lon="6.40597">
        <ele>750</ele>
        <time>2022-08-21T20:26:04Z</time>
      </trkpt>
      <trkpt lat="47.16766" lon="6.40598">
        <ele>752</ele>
        <time>2022-08-21T20:26:14Z</time>
      </trkpt>
      <trkpt lat="47.16749" lon="6.40605">
        <ele>755</ele>
        <time>2022-08-21T20:26:28Z</time>
      </trkpt>
      <trkpt lat="47.16743" lon="6.40614">
        <ele>756</ele>
        <time>2022-08-21T20:26:35Z</time>
      </trkpt>
      <trkpt lat="47.16737" lon="6.40633">
        <ele>758</ele>
        <time>2022-08-21T20:26:46Z</time>
      </trkpt>
      <trkpt lat="47.16726" lon="6.40677">
        <ele>762</ele>
        <time>2022-08-21T20:27:12Z</time>
      </trkpt>
      <trkpt lat="47.1672" lon="6.40686">
        <ele>763</ele>
        <time>2022-08-21T20:27:19Z</time>
      </trkpt>
      <trkpt lat="47.16711" lon="6.40693">
        <ele>764</ele>
        <time>2022-08-21T20:27:27Z</time>
      </trkpt>
      <trkpt lat="47.16693" lon="6.40696">
        <ele>765</ele>
        <time>2022-08-21T20:27:41Z</time>
      </trkpt>
      <trkpt lat="47.16668" lon="6.4069">
        <ele>767</ele>
        <time>2022-08-21T20:28:02Z</time>
      </trkpt>
      <trkpt lat="47.16657" lon="6.40692">
        <ele>768</ele>
        <time>2022-08-21T20:28:10Z</time>
      </trkpt>
      <trkpt lat="47.1664" lon="6.40702">
        <ele>771</ele>
        <time>2022-08-21T20:28:25Z</time>
      </trkpt>
      <trkpt lat="47.16613" lon="6.40732">
        <ele>774</ele>
        <time>2022-08-21T20:28:52Z</time>
      </trkpt>
      <trkpt lat="47.16607" lon="6.40737">
        <ele>775</ele>
        <time>2022-08-21T20:28:58Z</time>
      </trkpt>
      <trkpt lat="47.16597" lon="6.40742">
        <ele>776</ele>
        <time>2022-08-21T20:29:06Z</time>
      </trkpt>
      <trkpt lat="47.16589" lon="6.40744">
        <ele>777</ele>
        <time>2022-08-21T20:29:13Z</time>
      </trkpt>
      <trkpt lat="47.16579" lon="6.40742">
        <ele>778</ele>
        <time>2022-08-21T20:29:21Z</time>
      </trkpt>
      <trkpt lat="47.16556" lon="6.40734">
        <ele>780</ele>
        <time>2022-08-21T20:29:40Z</time>
      </trkpt>
      <trkpt lat="47.16541" lon="6.40737">
        <ele>781</ele>
        <time>2022-08-21T20:29:52Z</time>
      </trkpt>
      <trkpt lat="47.16529" lon="6.40742">
        <ele>782</ele>
        <time>2022-08-21T20:30:02Z</time>
      </trkpt>
      <trkpt lat="47.16361" lon="6.40872">
        <ele>781</ele>
        <time>2022-08-21T20:32:34Z</time>
      </trkpt>
      <trkpt lat="47.16347" lon="6.40889">
        <ele>783</ele>
        <time>2022-08-21T20:32:48Z</time>
      </trkpt>
      <trkpt lat="47.16341" lon="6.40905">
        <ele>784</ele>
        <time>2022-08-21T20:32:58Z</time>
      </trkpt>
      <trkpt lat="47.16339" lon="6.4092">
        <ele>785</ele>
        <time>2022-08-21T20:33:07Z</time>
      </trkpt>
      <trkpt lat="47.16344" lon="6.40943">
        <ele>787</ele>
        <time>2022-08-21T20:33:20Z</time>
      </trkpt>
      <trkpt lat="47.16348" lon="6.40952">
        <ele>788</ele>
        <time>2022-08-21T20:33:26Z</time>
      </trkpt>
      <trkpt lat="47.1636" lon="6.4096">
        <ele>789</ele>
        <time>2022-08-21T20:33:36Z</time>
      </trkpt>
      <trkpt lat="47.16409" lon="6.40986">
        <ele>791</ele>
        <time>2022-08-21T20:34:18Z</time>
      </trkpt>
      <trkpt lat="47.16453" lon="6.41015">
        <ele>794</ele>
        <time>2022-08-21T20:34:56Z</time>
      </trkpt>
      <trkpt lat="47.16466" lon="6.41027">
        <ele>795</ele>
        <time>2022-08-21T20:35:09Z</time>
      </trkpt>
      <trkpt lat="47.16505" lon="6.41082">
        <ele>797</ele>
        <time>2022-08-21T20:35:52Z</time>
      </trkpt>
      <trkpt lat="47.16518" lon="6.41107">
        <ele>796</ele>
        <time>2022-08-21T20:36:09Z</time>
      </trkpt>
      <trkpt lat="47.1653" lon="6.41135">
        <ele>796</ele>
        <time>2022-08-21T20:36:27Z</time>
      </trkpt>
      <trkpt lat="47.16541" lon="6.41204">
        <ele>796</ele>
        <time>2022-08-21T20:37:06Z</time>
      </trkpt>
      <trkpt lat="47.16574" lon="6.41539">
        <ele>801</ele>
        <time>2022-08-21T20:40:10Z</time>
      </trkpt>
      <trkpt lat="47.16575" lon="6.41562">
        <ele>802</ele>
        <time>2022-08-21T20:40:23Z</time>
      </trkpt>
      <trkpt lat="47.16573" lon="6.4159">
        <ele>802</ele>
        <time>2022-08-21T20:40:38Z</time>
      </trkpt>
      <trkpt lat="47.16567" lon="6.4162">
        <ele>802</ele>
        <time>2022-08-21T20:40:55Z</time>
      </trkpt>
      <trkpt lat="47.16553" lon="6.41655">
        <ele>802</ele>
        <time>2022-08-21T20:41:17Z</time>
      </trkpt>
      <trkpt lat="47.16537" lon="6.41682">
        <ele>801</ele>
        <time>2022-08-21T20:41:36Z</time>
      </trkpt>
      <trkpt lat="47.16526" lon="6.41693">
        <ele>801</ele>
        <time>2022-08-21T20:41:47Z</time>
      </trkpt>
      <trkpt lat="47.16514" lon="6.417">
        <ele>800</ele>
        <time>2022-08-21T20:41:57Z</time>
      </trkpt>
      <trkpt lat="47.16506" lon="6.41706">
        <ele>800</ele>
        <time>2022-08-21T20:42:05Z</time>
      </trkpt>
      <trkpt lat="47.16491" lon="6.4171">
        <ele>800</ele>
        <time>2022-08-21T20:42:17Z</time>
      </trkpt>
      <trkpt lat="47.16466" lon="6.4171">
        <ele>800</ele>
        <time>2022-08-21T20:42:37Z</time>
      </trkpt>
      <trkpt lat="47.16453" lon="6.41706">
        <ele>800</ele>
        <time>2022-08-21T20:42:47Z</time>
      </trkpt>
      <trkpt lat="47.16428" lon="6.41693">
        <ele>800</ele>
        <time>2022-08-21T20:43:09Z</time>
      </trkpt>
      <trkpt lat="47.16334" lon="6.41613">
        <ele>808</ele>
        <time>2022-08-21T20:44:36Z</time>
      </trkpt>
      <trkpt lat="47.16312" lon="6.41605">
        <ele>807</ele>
        <time>2022-08-21T20:44:54Z</time>
      </trkpt>
      <trkpt lat="47.16295" lon="6.41612">
        <ele>806</ele>
        <time>2022-08-21T20:45:08Z</time>
      </trkpt>
      <trkpt lat="47.16288" lon="6.41618">
        <ele>806</ele>
        <time>2022-08-21T20:45:14Z</time>
      </trkpt>
      <trkpt lat="47.1628" lon="6.41632">
        <ele>805</ele>
        <time>2022-08-21T20:45:24Z</time>
      </trkpt>
      <trkpt lat="47.16211" lon="6.41822">
        <ele>793</ele>
        <time>2022-08-21T20:47:22Z</time>
      </trkpt>
      <trkpt lat="47.16204" lon="6.41834">
        <ele>791</ele>
        <time>2022-08-21T20:47:30Z</time>
      </trkpt>
      <trkpt lat="47.16161" lon="6.41881">
        <ele>783</ele>
        <time>2022-08-21T20:48:13Z</time>
      </trkpt>
      <trkpt lat="47.16125" lon="6.41914">
        <ele>779</ele>
        <time>2022-08-21T20:48:47Z</time>
      </trkpt>
      <trkpt lat="47.16111" lon="6.41922">
        <ele>778</ele>
        <time>2022-08-21T20:48:59Z</time>
      </trkpt>
      <trkpt lat="47.16067" lon="6.41932">
        <ele>775</ele>
        <time>2022-08-21T20:49:35Z</time>
      </trkpt>
      <trkpt lat="47.16035" lon="6.41934">
        <ele>774</ele>
        <time>2022-08-21T20:50:00Z</time>
      </trkpt>
      <trkpt lat="47.16003" lon="6.41928">
        <ele>772</ele>
        <time>2022-08-21T20:50:26Z</time>
      </trkpt>
      <trkpt lat="47.1598" lon="6.41918">
        <ele>771</ele>
        <time>2022-08-21T20:50:45Z</time>
      </trkpt>
      <trkpt lat="47.15963" lon="6.41909">
        <ele>769</ele>
        <time>2022-08-21T20:51:00Z</time>
      </trkpt>
      <trkpt lat="47.15952" lon="6.419">
        <ele>769</ele>
        <time>2022-08-21T20:51:10Z</time>
      </trkpt>
      <trkpt lat="47.15852" lon="6.41791">
        <ele>762</ele>
        <time>2022-08-21T20:52:50Z</time>
      </trkpt>
      <trkpt lat="47.15828" lon="6.41769">
        <ele>761</ele>
        <time>2022-08-21T20:53:12Z</time>
      </trkpt>
      <trkpt lat="47.15807" lon="6.41757">
        <ele>761</ele>
        <time>2022-08-21T20:53:30Z</time>
      </trkpt>
      <trkpt lat="47.15578" lon="6.41701">
        <ele>770</ele>
        <time>2022-08-21T20:56:36Z</time>
      </trkpt>
      <trkpt lat="47.15504" lon="6.41714">
        <ele>768</ele>
        <time>2022-08-21T20:57:36Z</time>
      </trkpt>
      <trkpt lat="47.15395" lon="6.41698">
        <ele>765</ele>
        <time>2022-08-21T20:59:04Z</time>
      </trkpt>
      <trkpt lat="47.15331" lon="6.4172">
        <ele>765</ele>
        <time>2022-08-21T20:59:56Z</time>
      </trkpt>
      <trkpt lat="47.15272" lon="6.41751">
        <ele>764</ele>
        <time>2022-08-21T21:00:46Z</time>
      </trkpt>
      <trkpt lat="47.15218" lon="6.4176">
        <ele>765</ele>
        <time>2022-08-21T21:01:30Z</time>
      </trkpt>
      <trkpt lat="47.15131" lon="6.4182">
        <ele>756</ele>
        <time>2022-08-21T21:02:47Z</time>
      </trkpt>
      <trkpt lat="47.15019" lon="6.41872">
        <ele>744</ele>
        <time>2022-08-21T21:04:21Z</time>
      </trkpt>
      <trkpt lat="47.14846" lon="6.41992">
        <ele>722</ele>
        <time>2022-08-21T21:06:54Z</time>
      </trkpt>
      <trkpt lat="47.1466" lon="6.42118">
        <ele>717</ele>
        <time>2022-08-21T21:09:38Z</time>
      </trkpt>
      <trkpt lat="47.14644" lon="6.42138">
        <ele>716</ele>
        <time>2022-08-21T21:09:55Z</time>
      </trkpt>
      <trkpt lat="47.14567" lon="6.42251">
        <ele>718</ele>
        <time>2022-08-21T21:11:22Z</time>
      </trkpt>
      <trkpt lat="47.14515" lon="6.42322">
        <ele>718</ele>
        <time>2022-08-21T21:12:19Z</time>
      </trkpt>
      <trkpt lat="47.14502" lon="6.42337">
        <ele>718</ele>
        <time>2022-08-21T21:12:32Z</time>
      </trkpt>
      <trkpt lat="47.14435" lon="6.42404">
        <ele>719</ele>
        <time>2022-08-21T21:13:37Z</time>
      </trkpt>
      <trkpt lat="47.14384" lon="6.42467">
        <ele>721</ele>
        <time>2022-08-21T21:14:30Z</time>
      </trkpt>
      <trkpt lat="47.14363" lon="6.42495">
        <ele>722</ele>
        <time>2022-08-21T21:14:53Z</time>
      </trkpt>
      <trkpt lat="47.14346" lon="6.42518">
        <ele>723</ele>
        <time>2022-08-21T21:15:11Z</time>
      </trkpt>
      <trkpt lat="47.14322" lon="6.4255">
        <ele>724</ele>
        <time>2022-08-21T21:15:37Z</time>
      </trkpt>
      <trkpt lat="47.14292" lon="6.42599">
        <ele>723</ele>
        <time>2022-08-21T21:16:13Z</time>
      </trkpt>
      <trkpt lat="47.14282" lon="6.42618">
        <ele>722</ele>
        <time>2022-08-21T21:16:26Z</time>
      </trkpt>
      <trkpt lat="47.1424" lon="6.42712">
        <ele>719</ele>
        <time>2022-08-21T21:17:28Z</time>
      </trkpt>
      <trkpt lat="47.14224" lon="6.42742">
        <ele>719</ele>
        <time>2022-08-21T21:17:48Z</time>
      </trkpt>
      <trkpt lat="47.14152" lon="6.42861">
        <ele>714</ele>
        <time>2022-08-21T21:19:15Z</time>
      </trkpt>
      <trkpt lat="47.14034" lon="6.43043">
        <ele>712</ele>
        <time>2022-08-21T21:21:32Z</time>
      </trkpt>
      <trkpt lat="47.13991" lon="6.43098">
        <ele>709</ele>
        <time>2022-08-21T21:22:18Z</time>
      </trkpt>
      <trkpt lat="47.13969" lon="6.43133">
        <ele>709</ele>
        <time>2022-08-21T21:22:44Z</time>
      </trkpt>
      <trkpt lat="47.13887" lon="6.43295">
        <ele>707</ele>
        <time>2022-08-21T21:24:34Z</time>
      </trkpt>
      <trkpt lat="47.13863" lon="6.43347">
        <ele>708</ele>
        <time>2022-08-21T21:25:08Z</time>
      </trkpt>
      <trkpt lat="47.13834" lon="6.43422">
        <ele>708</ele>
        <time>2022-08-21T21:25:55Z</time>
      </trkpt>
      <trkpt lat="47.13815" lon="6.43454">
        <ele>708</ele>
        <time>2022-08-21T21:26:18Z</time>
      </trkpt>
      <trkpt lat="47.13799" lon="6.43476">
        <ele>707</ele>
        <time>2022-08-21T21:26:35Z</time>
      </trkpt>
      <trkpt lat="47.13775" lon="6.43514">
        <ele>706</ele>
        <time>2022-08-21T21:27:04Z</time>
      </trkpt>
      <trkpt lat="47.13764" lon="6.43547">
        <ele>706</ele>
        <time>2022-08-21T21:27:24Z</time>
      </trkpt>
      <trkpt lat="47.1376" lon="6.43564">
        <ele>705</ele>
        <time>2022-08-21T21:27:34Z</time>
      </trkpt>
      <trkpt lat="47.13756" lon="6.43602">
        <ele>706</ele>
        <time>2022-08-21T21:27:54Z</time>
      </trkpt>
      <trkpt lat="47.13757" lon="6.43814">
        <ele>703</ele>
        <time>2022-08-21T21:29:50Z</time>
      </trkpt>
      <trkpt lat="47.13761" lon="6.43848">
        <ele>702</ele>
        <time>2022-08-21T21:30:09Z</time>
      </trkpt>
      <trkpt lat="47.13768" lon="6.43871">
        <ele>702</ele>
        <time>2022-08-21T21:30:22Z</time>
      </trkpt>
      <trkpt lat="47.13779" lon="6.43893">
        <ele>702</ele>
        <time>2022-08-21T21:30:37Z</time>
      </trkpt>
      <trkpt lat="47.13813" lon="6.43931">
        <ele>700</ele>
        <time>2022-08-21T21:31:12Z</time>
      </trkpt>
      <trkpt lat="47.13868" lon="6.43984">
        <ele>698</ele>
        <time>2022-08-21T21:32:04Z</time>
      </trkpt>
      <trkpt lat="47.1398" lon="6.44053">
        <ele>699</ele>
        <time>2022-08-21T21:33:41Z</time>
      </trkpt>
      <trkpt lat="47.14009" lon="6.44069">
        <ele>699</ele>
        <time>2022-08-21T21:34:06Z</time>
      </trkpt>
      <trkpt lat="47.14166" lon="6.44184">
        <ele>697</ele>
        <time>2022-08-21T21:36:27Z</time>
      </trkpt>
      <trkpt lat="47.14473" lon="6.44428">
        <ele>696</ele>
        <time>2022-08-21T21:41:06Z</time>
      </trkpt>
      <trkpt lat="47.1446" lon="6.44499">
        <ele>698</ele>
        <time>2022-08-21T21:41:46Z</time>
      </trkpt>
      <trkpt lat="47.1446" lon="6.44517">
        <ele>698</ele>
        <time>2022-08-21T21:41:56Z</time>
      </trkpt>
      <trkpt lat="47.14463" lon="6.44533">
        <ele>699</ele>
        <time>2022-08-21T21:42:05Z</time>
      </trkpt>
      <trkpt lat="47.14471" lon="6.44557">
        <ele>699</ele>
        <time>2022-08-21T21:42:20Z</time>
      </trkpt>
      <trkpt lat="47.14495" lon="6.44599">
        <ele>701</ele>
        <time>2022-08-21T21:42:49Z</time>
      </trkpt>
      <trkpt lat="47.14504" lon="6.44619">
        <ele>701</ele>
        <time>2022-08-21T21:43:02Z</time>
      </trkpt>
      <trkpt lat="47.14514" lon="6.44653">
        <ele>703</ele>
        <time>2022-08-21T21:43:23Z</time>
      </trkpt>
      <trkpt lat="47.14517" lon="6.44676">
        <ele>704</ele>
        <time>2022-08-21T21:43:35Z</time>
      </trkpt>
      <trkpt lat="47.14518" lon="6.44738">
        <ele>709</ele>
        <time>2022-08-21T21:44:09Z</time>
      </trkpt>
      <trkpt lat="47.14514" lon="6.44842">
        <ele>716</ele>
        <time>2022-08-21T21:45:06Z</time>
      </trkpt>
      <trkpt lat="47.14514" lon="6.44872">
        <ele>717</ele>
        <time>2022-08-21T21:45:22Z</time>
      </trkpt>
      <trkpt lat="47.14516" lon="6.44896">
        <ele>718</ele>
        <time>2022-08-21T21:45:35Z</time>
      </trkpt>
      <trkpt lat="47.14464" lon="6.45989">
        <ele>731</ele>
        <time>2022-08-21T21:55:32Z</time>
      </trkpt>
      <trkpt lat="47.1445" lon="6.47367">
        <ele>711</ele>
        <time>2022-08-21T22:08:03Z</time>
      </trkpt>
      <trkpt lat="47.1445" lon="6.47416">
        <ele>711</ele>
        <time>2022-08-21T22:08:29Z</time>
      </trkpt>
      <trkpt lat="47.14441" lon="6.48169">
        <ele>735</ele>
        <time>2022-08-21T22:15:19Z</time>
      </trkpt>
      <trkpt lat="47.14435" lon="6.48275">
        <ele>735</ele>
        <time>2022-08-21T22:16:17Z</time>
      </trkpt>
      <trkpt lat="47.14423" lon="6.48393">
        <ele>735</ele>
        <time>2022-08-21T22:17:22Z</time>
      </trkpt>
      <trkpt lat="47.14375" lon="6.48709">
        <ele>730</ele>
        <time>2022-08-21T22:20:19Z</time>
      </trkpt>
      <trkpt lat="47.1435" lon="6.48871">
        <ele>729</ele>
        <time>2022-08-21T22:21:49Z</time>
      </trkpt>
      <trkpt lat="47.14338" lon="6.48992">
        <ele>738</ele>
        <time>2022-08-21T22:22:56Z</time>
      </trkpt>
      <trkpt lat="47.14332" lon="6.49083">
        <ele>742</ele>
        <time>2022-08-21T22:23:46Z</time>
      </trkpt>
      <trkpt lat="47.14329" lon="6.49217">
        <ele>746</ele>
        <time>2022-08-21T22:24:59Z</time>
      </trkpt>
      <trkpt lat="47.14332" lon="6.49335">
        <ele>748</ele>
        <time>2022-08-21T22:26:03Z</time>
      </trkpt>
      <trkpt lat="47.14344" lon="6.49498">
        <ele>748</ele>
        <time>2022-08-21T22:27:32Z</time>
      </trkpt>
      <trkpt lat="47.14354" lon="6.49591">
        <ele>749</ele>
        <time>2022-08-21T22:28:23Z</time>
      </trkpt>
      <trkpt lat="47.14393" lon="6.49868">
        <ele>755</ele>
        <time>2022-08-21T22:30:57Z</time>
      </trkpt>
      <trkpt lat="47.14402" lon="6.49928">
        <ele>757</ele>
        <time>2022-08-21T22:31:31Z</time>
      </trkpt>
      <trkpt lat="47.1444" lon="6.50197">
        <ele>765</ele>
        <time>2022-08-21T22:34:01Z</time>
      </trkpt>
      <trkpt lat="47.14455" lon="6.5036">
        <ele>772</ele>
        <time>2022-08-21T22:35:30Z</time>
      </trkpt>
      <trkpt lat="47.14462" lon="6.50514">
        <ele>776</ele>
        <time>2022-08-21T22:36:54Z</time>
      </trkpt>
      <trkpt lat="47.14464" lon="6.50588">
        <ele>780</ele>
        <time>2022-08-21T22:37:34Z</time>
      </trkpt>
      <trkpt lat="47.14462" lon="6.50695">
        <ele>783</ele>
        <time>2022-08-21T22:38:33Z</time>
      </trkpt>
      <trkpt lat="47.14454" lon="6.50941">
        <ele>785</ele>
        <time>2022-08-21T22:40:47Z</time>
      </trkpt>
      <trkpt lat="47.14453" lon="6.5101">
        <ele>786</ele>
        <time>2022-08-21T22:41:24Z</time>
      </trkpt>
      <trkpt lat="47.14457" lon="6.51155">
        <ele>786</ele>
        <time>2022-08-21T22:42:44Z</time>
      </trkpt>
      <trkpt lat="47.14487" lon="6.51682">
        <ele>792</ele>
        <time>2022-08-21T22:47:32Z</time>
      </trkpt>
      <trkpt lat="47.14492" lon="6.51966">
        <ele>799</ele>
        <time>2022-08-21T22:50:06Z</time>
      </trkpt>
      <trkpt lat="47.14492" lon="6.52056">
        <ele>801</ele>
        <time>2022-08-21T22:50:55Z</time>
      </trkpt>
      <trkpt lat="47.14487" lon="6.52097">
        <ele>801</ele>
        <time>2022-08-21T22:51:18Z</time>
      </trkpt>
      <trkpt lat="47.14478" lon="6.52223">
        <ele>790</ele>
        <time>2022-08-21T22:52:27Z</time>
      </trkpt>
      <trkpt lat="47.1447" lon="6.52313">
        <ele>786</ele>
        <time>2022-08-21T22:53:16Z</time>
      </trkpt>
      <trkpt lat="47.14459" lon="6.52402">
        <ele>785</ele>
        <time>2022-08-21T22:54:06Z</time>
      </trkpt>
      <trkpt lat="47.14449" lon="6.52443">
        <ele>784</ele>
        <time>2022-08-21T22:54:29Z</time>
      </trkpt>
      <trkpt lat="47.14435" lon="6.52485">
        <ele>784</ele>
        <time>2022-08-21T22:54:55Z</time>
      </trkpt>
      <trkpt lat="47.14424" lon="6.52511">
        <ele>784</ele>
        <time>2022-08-21T22:55:11Z</time>
      </trkpt>
      <trkpt lat="47.14416" lon="6.52521">
        <ele>784</ele>
        <time>2022-08-21T22:55:20Z</time>
      </trkpt>
      <trkpt lat="47.14409" lon="6.52524">
        <ele>785</ele>
        <time>2022-08-21T22:55:26Z</time>
      </trkpt>
      <trkpt lat="47.14403" lon="6.52534">
        <ele>785</ele>
        <time>2022-08-21T22:55:33Z</time>
      </trkpt>
      <trkpt lat="47.14392" lon="6.52541">
        <ele>786</ele>
        <time>2022-08-21T22:55:43Z</time>
      </trkpt>
      <trkpt lat="47.14365" lon="6.52547">
        <ele>787</ele>
        <time>2022-08-21T22:56:04Z</time>
      </trkpt>
      <trkpt lat="47.1424" lon="6.52557">
        <ele>790</ele>
        <time>2022-08-21T22:57:45Z</time>
      </trkpt>
      <trkpt lat="47.14154" lon="6.5258">
        <ele>792</ele>
        <time>2022-08-21T22:58:55Z</time>
      </trkpt>
      <trkpt lat="47.1414" lon="6.52582">
        <ele>793</ele>
        <time>2022-08-21T22:59:06Z</time>
      </trkpt>
      <trkpt lat="47.14119" lon="6.52582">
        <ele>793</ele>
        <time>2022-08-21T22:59:23Z</time>
      </trkpt>
      <trkpt lat="47.1391" lon="6.5251">
        <ele>799</ele>
        <time>2022-08-21T23:02:15Z</time>
      </trkpt>
      <trkpt lat="47.13888" lon="6.52505">
        <ele>798</ele>
        <time>2022-08-21T23:02:32Z</time>
      </trkpt>
      <trkpt lat="47.13874" lon="6.52507">
        <ele>796</ele>
        <time>2022-08-21T23:02:44Z</time>
      </trkpt>
      <trkpt lat="47.13857" lon="6.52513">
        <ele>795</ele>
        <time>2022-08-21T23:02:58Z</time>
      </trkpt>
      <trkpt lat="47.1384" lon="6.52526">
        <ele>794</ele>
        <time>2022-08-21T23:03:13Z</time>
      </trkpt>
      <trkpt lat="47.1382" lon="6.52549">
        <ele>792</ele>
        <time>2022-08-21T23:03:33Z</time>
      </trkpt>
      <trkpt lat="47.13808" lon="6.52573">
        <ele>791</ele>
        <time>2022-08-21T23:03:50Z</time>
      </trkpt>
      <trkpt lat="47.13797" lon="6.52612">
        <ele>790</ele>
        <time>2022-08-21T23:04:13Z</time>
      </trkpt>
      <trkpt lat="47.13795" lon="6.5264">
        <ele>789</ele>
        <time>2022-08-21T23:04:28Z</time>
      </trkpt>
      <trkpt lat="47.13797" lon="6.52664">
        <ele>790</ele>
        <time>2022-08-21T23:04:41Z</time>
      </trkpt>
      <trkpt lat="47.13806" lon="6.52741">
        <ele>788</ele>
        <time>2022-08-21T23:05:24Z</time>
      </trkpt>
      <trkpt lat="47.13807" lon="6.52759">
        <ele>788</ele>
        <time>2022-08-21T23:05:33Z</time>
      </trkpt>
      <trkpt lat="47.13805" lon="6.52791">
        <ele>787</ele>
        <time>2022-08-21T23:05:51Z</time>
      </trkpt>
      <trkpt lat="47.13802" lon="6.52807">
        <ele>787</ele>
        <time>2022-08-21T23:06:00Z</time>
      </trkpt>
      <trkpt lat="47.13794" lon="6.5283">
        <ele>786</ele>
        <time>2022-08-21T23:06:14Z</time>
      </trkpt>
      <trkpt lat="47.13786" lon="6.52846">
        <ele>785</ele>
        <time>2022-08-21T23:06:25Z</time>
      </trkpt>
      <trkpt lat="47.13772" lon="6.52866">
        <ele>784</ele>
        <time>2022-08-21T23:06:41Z</time>
      </trkpt>
      <trkpt lat="47.13513" lon="6.53089">
        <ele>774</ele>
        <time>2022-08-21T23:10:41Z</time>
      </trkpt>
      <trkpt lat="47.13496" lon="6.53107">
        <ele>773</ele>
        <time>2022-08-21T23:10:58Z</time>
      </trkpt>
      <trkpt lat="47.13482" lon="6.53126">
        <ele>773</ele>
        <time>2022-08-21T23:11:13Z</time>
      </trkpt>
      <trkpt lat="47.13461" lon="6.53167">
        <ele>772</ele>
        <time>2022-08-21T23:11:41Z</time>
      </trkpt>
      <trkpt lat="47.13454" lon="6.53187">
        <ele>771</ele>
        <time>2022-08-21T23:11:53Z</time>
      </trkpt>
      <trkpt lat="47.13437" lon="6.53269">
        <ele>768</ele>
        <time>2022-08-21T23:12:40Z</time>
      </trkpt>
      <trkpt lat="47.13427" lon="6.53301">
        <ele>767</ele>
        <time>2022-08-21T23:12:59Z</time>
      </trkpt>
      <trkpt lat="47.13408" lon="6.53342">
        <ele>766</ele>
        <time>2022-08-21T23:13:26Z</time>
      </trkpt>
      <trkpt lat="47.13321" lon="6.53468">
        <ele>762</ele>
        <time>2022-08-21T23:15:04Z</time>
      </trkpt>
      <trkpt lat="47.1329" lon="6.53521">
        <ele>762</ele>
        <time>2022-08-21T23:15:42Z</time>
      </trkpt>
      <trkpt lat="47.13273" lon="6.53566">
        <ele>761</ele>
        <time>2022-08-21T23:16:10Z</time>
      </trkpt>
      <trkpt lat="47.13266" lon="6.53596">
        <ele>760</ele>
        <time>2022-08-21T23:16:27Z</time>
      </trkpt>
      <trkpt lat="47.13259" lon="6.5364">
        <ele>757</ele>
        <time>2022-08-21T23:16:52Z</time>
      </trkpt>
      <trkpt lat="47.13246" lon="6.53793">
        <ele>754</ele>
        <time>2022-08-21T23:18:16Z</time>
      </trkpt>
      <trkpt lat="47.13241" lon="6.5382">
        <ele>754</ele>
        <time>2022-08-21T23:18:31Z</time>
      </trkpt>
      <trkpt lat="47.13231" lon="6.53849">
        <ele>753</ele>
        <time>2022-08-21T23:18:49Z</time>
      </trkpt>
      <trkpt lat="47.13219" lon="6.53873">
        <ele>753</ele>
        <time>2022-08-21T23:19:05Z</time>
      </trkpt>
      <trkpt lat="47.13175" lon="6.53944">
        <ele>750</ele>
        <time>2022-08-21T23:19:57Z</time>
      </trkpt>
      <trkpt lat="47.13165" lon="6.53971">
        <ele>749</ele>
        <time>2022-08-21T23:20:14Z</time>
      </trkpt>
      <trkpt lat="47.13157" lon="6.53999">
        <ele>749</ele>
        <time>2022-08-21T23:20:31Z</time>
      </trkpt>
      <trkpt lat="47.13147" lon="6.54049">
        <ele>748</ele>
        <time>2022-08-21T23:20:59Z</time>
      </trkpt>
      <trkpt lat="47.1314" lon="6.54095">
        <ele>747</ele>
        <time>2022-08-21T23:21:25Z</time>
      </trkpt>
      <trkpt lat="47.13137" lon="6.54135">
        <ele>746</ele>
        <time>2022-08-21T23:21:47Z</time>
      </trkpt>
      <trkpt lat="47.13138" lon="6.54154">
        <ele>745</ele>
        <time>2022-08-21T23:21:57Z</time>
      </trkpt>
      <trkpt lat="47.13149" lon="6.54258">
        <ele>745</ele>
        <time>2022-08-21T23:22:54Z</time>
      </trkpt>
      <trkpt lat="47.13148" lon="6.54283">
        <ele>746</ele>
        <time>2022-08-21T23:23:08Z</time>
      </trkpt>
      <trkpt lat="47.13143" lon="6.54306">
        <ele>746</ele>
        <time>2022-08-21T23:23:21Z</time>
      </trkpt>
      <trkpt lat="47.13136" lon="6.54325">
        <ele>746</ele>
        <time>2022-08-21T23:23:33Z</time>
      </trkpt>
      <trkpt lat="47.13127" lon="6.54343">
        <ele>746</ele>
        <time>2022-08-21T23:23:45Z</time>
      </trkpt>
      <trkpt lat="47.12997" lon="6.54546">
        <ele>740</ele>
        <time>2022-08-21T23:26:17Z</time>
      </trkpt>
      <trkpt lat="47.12975" lon="6.54599">
        <ele>740</ele>
        <time>2022-08-21T23:26:51Z</time>
      </trkpt>
      <trkpt lat="47.12921" lon="6.54769">
        <ele>738</ele>
        <time>2022-08-21T23:28:33Z</time>
      </trkpt>
      <trkpt lat="47.12899" lon="6.54809">
        <ele>738</ele>
        <time>2022-08-21T23:29:01Z</time>
      </trkpt>
      <trkpt lat="47.12774" lon="6.54956">
        <ele>737</ele>
        <time>2022-08-21T23:31:09Z</time>
      </trkpt>
      <trkpt lat="47.1274" lon="6.55027">
        <ele>734</ele>
        <time>2022-08-21T23:31:56Z</time>
      </trkpt>
      <trkpt lat="47.12728" lon="6.55087">
        <ele>734</ele>
        <time>2022-08-21T23:32:30Z</time>
      </trkpt>
      <trkpt lat="47.12725" lon="6.55099">
        <ele>734</ele>
        <time>2022-08-21T23:32:37Z</time>
      </trkpt>
      <trkpt lat="47.12719" lon="6.55179">
        <ele>733</ele>
        <time>2022-08-21T23:33:21Z</time>
      </trkpt>
      <trkpt lat="47.12704" lon="6.55234">
        <ele>732</ele>
        <time>2022-08-21T23:33:54Z</time>
      </trkpt>
      <trkpt lat="47.12674" lon="6.55305">
        <ele>728</ele>
        <time>2022-08-21T23:34:39Z</time>
      </trkpt>
      <trkpt lat="47.12659" lon="6.55362">
        <ele>727</ele>
        <time>2022-08-21T23:35:12Z</time>
      </trkpt>
      <trkpt lat="47.12651" lon="6.5544">
        <ele>725</ele>
        <time>2022-08-21T23:35:55Z</time>
      </trkpt>
      <trkpt lat="47.12653" lon="6.55489">
        <ele>722</ele>
        <time>2022-08-21T23:36:22Z</time>
      </trkpt>
      <trkpt lat="47.12667" lon="6.55534">
        <ele>720</ele>
        <time>2022-08-21T23:36:49Z</time>
      </trkpt>
      <trkpt lat="47.12668" lon="6.5555">
        <ele>718</ele>
        <time>2022-08-21T23:36:58Z</time>
      </trkpt>
      <trkpt lat="47.1268" lon="6.55593">
        <ele>715</ele>
        <time>2022-08-21T23:37:23Z</time>
      </trkpt>
      <trkpt lat="47.12697" lon="6.55643">
        <ele>712</ele>
        <time>2022-08-21T23:37:54Z</time>
      </trkpt>
      <trkpt lat="47.127" lon="6.55678">
        <ele>711</ele>
        <time>2022-08-21T23:38:13Z</time>
      </trkpt>
      <trkpt lat="47.12696" lon="6.55701">
        <ele>710</ele>
        <time>2022-08-21T23:38:26Z</time>
      </trkpt>
      <trkpt lat="47.12691" lon="6.55714">
        <ele>710</ele>
        <time>2022-08-21T23:38:34Z</time>
      </trkpt>
      <trkpt lat="47.12609" lon="6.55807">
        <ele>712</ele>
        <time>2022-08-21T23:39:57Z</time>
      </trkpt>
      <trkpt lat="47.12598" lon="6.55831">
        <ele>713</ele>
        <time>2022-08-21T23:40:13Z</time>
      </trkpt>
      <trkpt lat="47.12598" lon="6.5585">
        <ele>714</ele>
        <time>2022-08-21T23:40:23Z</time>
      </trkpt>
      <trkpt lat="47.12604" lon="6.55884">
        <ele>716</ele>
        <time>2022-08-21T23:40:42Z</time>
      </trkpt>
      <trkpt lat="47.12618" lon="6.55944">
        <ele>718</ele>
        <time>2022-08-21T23:41:17Z</time>
      </trkpt>
      <trkpt lat="47.12636" lon="6.55994">
        <ele>720</ele>
        <time>2022-08-21T23:41:47Z</time>
      </trkpt>
      <trkpt lat="47.12654" lon="6.56031">
        <ele>722</ele>
        <time>2022-08-21T23:42:12Z</time>
      </trkpt>
      <trkpt lat="47.12709" lon="6.56128">
        <ele>723</ele>
        <time>2022-08-21T23:43:21Z</time>
      </trkpt>
      <trkpt lat="47.12718" lon="6.56152">
        <ele>723</ele>
        <time>2022-08-21T23:43:36Z</time>
      </trkpt>
      <trkpt lat="47.1272" lon="6.56176">
        <ele>725</ele>
        <time>2022-08-21T23:43:49Z</time>
      </trkpt>
      <trkpt lat="47.12717" lon="6.56194">
        <ele>727</ele>
        <time>2022-08-21T23:43:59Z</time>
      </trkpt>
      <trkpt lat="47.12707" lon="6.56201">
        <ele>729</ele>
        <time>2022-08-21T23:44:08Z</time>
      </trkpt>
      <trkpt lat="47.12696" lon="6.56203">
        <ele>730</ele>
        <time>2022-08-21T23:44:17Z</time>
      </trkpt>
      <trkpt lat="47.12682" lon="6.56191">
        <ele>732</ele>
        <time>2022-08-21T23:44:30Z</time>
      </trkpt>
      <trkpt lat="47.12673" lon="6.56158">
        <ele>730</ele>
        <time>2022-08-21T23:44:49Z</time>
      </trkpt>
      <trkpt lat="47.12662" lon="6.56131">
        <ele>730</ele>
        <time>2022-08-21T23:45:06Z</time>
      </trkpt>
      <trkpt lat="47.12641" lon="6.56104">
        <ele>731</ele>
        <time>2022-08-21T23:45:29Z</time>
      </trkpt>
      <trkpt lat="47.12452" lon="6.55998">
        <ele>748</ele>
        <time>2022-08-21T23:48:11Z</time>
      </trkpt>
      <trkpt lat="47.12437" lon="6.55978">
        <ele>750</ele>
        <time>2022-08-21T23:48:27Z</time>
      </trkpt>
      <trkpt lat="47.12421" lon="6.5593">
        <ele>749</ele>
        <time>2022-08-21T23:48:56Z</time>
      </trkpt>
      <trkpt lat="47.12363" lon="6.55789">
        <ele>753</ele>
        <time>2022-08-21T23:50:26Z</time>
      </trkpt>
      <trkpt lat="47.12348" lon="6.5577">
        <ele>755</ele>
        <time>2022-08-21T23:50:42Z</time>
      </trkpt>
      <trkpt lat="47.12264" lon="6.5573">
        <ele>767</ele>
        <time>2022-08-21T23:51:52Z</time>
      </trkpt>
      <trkpt lat="47.12233" lon="6.55686">
        <ele>769</ele>
        <time>2022-08-21T23:52:27Z</time>
      </trkpt>
      <trkpt lat="47.12101" lon="6.55586">
        <ele>778</ele>
        <time>2022-08-21T23:54:26Z</time>
      </trkpt>
      <trkpt lat="47.12073" lon="6.55577">
        <ele>780</ele>
        <time>2022-08-21T23:54:49Z</time>
      </trkpt>
      <trkpt lat="47.12036" lon="6.55569">
        <ele>785</ele>
        <time>2022-08-21T23:55:19Z</time>
      </trkpt>
      <trkpt lat="47.11905" lon="6.55484">
        <ele>809</ele>
        <time>2022-08-21T23:57:13Z</time>
      </trkpt>
      <trkpt lat="47.11878" lon="6.55457">
        <ele>816</ele>
        <time>2022-08-21T23:57:39Z</time>
      </trkpt>
      <trkpt lat="47.11862" lon="6.55436">
        <ele>819</ele>
        <time>2022-08-21T23:57:57Z</time>
      </trkpt>
      <trkpt lat="47.11847" lon="6.55387">
        <ele>821</ele>
        <time>2022-08-21T23:58:26Z</time>
      </trkpt>
      <trkpt lat="47.11832" lon="6.55349">
        <ele>822</ele>
        <time>2022-08-21T23:58:50Z</time>
      </trkpt>
      <trkpt lat="47.11818" lon="6.55324">
        <ele>823</ele>
        <time>2022-08-21T23:59:07Z</time>
      </trkpt>
      <trkpt lat="47.11796" lon="6.55298">
        <ele>826</ele>
        <time>2022-08-21T23:59:30Z</time>
      </trkpt>
      <trkpt lat="47.11745" lon="6.55264">
        <ele>833</ele>
        <time>2022-08-22T00:00:15Z</time>
      </trkpt>
      <trkpt lat="47.11731" lon="6.55249">
        <ele>836</ele>
        <time>2022-08-22T00:00:29Z</time>
      </trkpt>
      <trkpt lat="47.1169" lon="6.55183">
        <ele>840</ele>
        <time>2022-08-22T00:01:17Z</time>
      </trkpt>
      <trkpt lat="47.11632" lon="6.55109">
        <ele>843</ele>
        <time>2022-08-22T00:02:19Z</time>
      </trkpt>
      <trkpt lat="47.11576" lon="6.55059">
        <ele>847</ele>
        <time>2022-08-22T00:03:11Z</time>
      </trkpt>
      <trkpt lat="47.11551" lon="6.55051">
        <ele>849</ele>
        <time>2022-08-22T00:03:32Z</time>
      </trkpt>
      <trkpt lat="47.11518" lon="6.55057">
        <ele>852</ele>
        <time>2022-08-22T00:03:59Z</time>
      </trkpt>
      <trkpt lat="47.11471" lon="6.55091">
        <ele>854</ele>
        <time>2022-08-22T00:04:40Z</time>
      </trkpt>
      <trkpt lat="47.11442" lon="6.55082">
        <ele>854</ele>
        <time>2022-08-22T00:05:04Z</time>
      </trkpt>
      <trkpt lat="47.11394" lon="6.55049">
        <ele>858</ele>
        <time>2022-08-22T00:05:47Z</time>
      </trkpt>
      <trkpt lat="47.11342" lon="6.55066">
        <ele>862</ele>
        <time>2022-08-22T00:06:29Z</time>
      </trkpt>
      <trkpt lat="47.1132" lon="6.55061">
        <ele>865</ele>
        <time>2022-08-22T00:06:47Z</time>
      </trkpt>
      <trkpt lat="47.11303" lon="6.55047">
        <ele>867</ele>
        <time>2022-08-22T00:07:03Z</time>
      </trkpt>
      <trkpt lat="47.11295" lon="6.55025">
        <ele>868</ele>
        <time>2022-08-22T00:07:16Z</time>
      </trkpt>
      <trkpt lat="47.11291" lon="6.54987">
        <ele>869</ele>
        <time>2022-08-22T00:07:37Z</time>
      </trkpt>
      <trkpt lat="47.1129" lon="6.54962">
        <ele>869</ele>
        <time>2022-08-22T00:07:51Z</time>
      </trkpt>
      <trkpt lat="47.11282" lon="6.5494">
        <ele>869</ele>
        <time>2022-08-22T00:08:05Z</time>
      </trkpt>
      <trkpt lat="47.11223" lon="6.54847">
        <ele>872</ele>
        <time>2022-08-22T00:09:14Z</time>
      </trkpt>
      <trkpt lat="47.11211" lon="6.54835">
        <ele>873</ele>
        <time>2022-08-22T00:09:25Z</time>
      </trkpt>
      <trkpt lat="47.11194" lon="6.5483">
        <ele>875</ele>
        <time>2022-08-22T00:09:39Z</time>
      </trkpt>
      <trkpt lat="47.1118" lon="6.54836">
        <ele>876</ele>
        <time>2022-08-22T00:09:51Z</time>
      </trkpt>
      <trkpt lat="47.11169" lon="6.5485">
        <ele>877</ele>
        <time>2022-08-22T00:10:03Z</time>
      </trkpt>
      <trkpt lat="47.11167" lon="6.54881">
        <ele>878</ele>
        <time>2022-08-22T00:10:20Z</time>
      </trkpt>
      <trkpt lat="47.11174" lon="6.54905">
        <ele>878</ele>
        <time>2022-08-22T00:10:34Z</time>
      </trkpt>
      <trkpt lat="47.11197" lon="6.54944">
        <ele>878</ele>
        <time>2022-08-22T00:11:02Z</time>
      </trkpt>
      <trkpt lat="47.11208" lon="6.54969">
        <ele>878</ele>
        <time>2022-08-22T00:11:18Z</time>
      </trkpt>
      <trkpt lat="47.11258" lon="6.55183">
        <ele>883</ele>
        <time>2022-08-22T00:13:21Z</time>
      </trkpt>
      <trkpt lat="47.1126" lon="6.55213">
        <ele>885</ele>
        <time>2022-08-22T00:13:38Z</time>
      </trkpt>
      <trkpt lat="47.11254" lon="6.55241">
        <ele>888</ele>
        <time>2022-08-22T00:13:54Z</time>
      </trkpt>
      <trkpt lat="47.11241" lon="6.55287">
        <ele>892</ele>
        <time>2022-08-22T00:14:21Z</time>
      </trkpt>
      <trkpt lat="47.11236" lon="6.55336">
        <ele>893</ele>
        <time>2022-08-22T00:14:48Z</time>
      </trkpt>
      <trkpt lat="47.11233" lon="6.55396">
        <ele>898</ele>
        <time>2022-08-22T00:15:21Z</time>
      </trkpt>
      <trkpt lat="47.11241" lon="6.55447">
        <ele>900</ele>
        <time>2022-08-22T00:15:49Z</time>
      </trkpt>
      <trkpt lat="47.113" lon="6.55603">
        <ele>901</ele>
        <time>2022-08-22T00:17:27Z</time>
      </trkpt>
      <trkpt lat="47.11317" lon="6.5566">
        <ele>903</ele>
        <time>2022-08-22T00:18:00Z</time>
      </trkpt>
      <trkpt lat="47.11345" lon="6.55833">
        <ele>909</ele>
        <time>2022-08-22T00:19:37Z</time>
      </trkpt>
      <trkpt lat="47.11344" lon="6.55852">
        <ele>910</ele>
        <time>2022-08-22T00:19:48Z</time>
      </trkpt>
      <trkpt lat="47.11337" lon="6.55876">
        <ele>910</ele>
        <time>2022-08-22T00:20:02Z</time>
      </trkpt>
      <trkpt lat="47.11283" lon="6.5597">
        <ele>909</ele>
        <time>2022-08-22T00:21:09Z</time>
      </trkpt>
      <trkpt lat="47.11277" lon="6.55985">
        <ele>909</ele>
        <time>2022-08-22T00:21:19Z</time>
      </trkpt>
      <trkpt lat="47.11234" lon="6.56106">
        <ele>908</ele>
        <time>2022-08-22T00:22:33Z</time>
      </trkpt>
      <trkpt lat="47.11215" lon="6.56143">
        <ele>908</ele>
        <time>2022-08-22T00:22:58Z</time>
      </trkpt>
      <trkpt lat="47.11208" lon="6.56153">
        <ele>908</ele>
        <time>2022-08-22T00:23:06Z</time>
      </trkpt>
      <trkpt lat="47.1115" lon="6.56188">
        <ele>907</ele>
        <time>2022-08-22T00:23:56Z</time>
      </trkpt>
      <trkpt lat="47.11142" lon="6.56213">
        <ele>908</ele>
        <time>2022-08-22T00:24:11Z</time>
      </trkpt>
      <trkpt lat="47.11133" lon="6.56284">
        <ele>910</ele>
        <time>2022-08-22T00:24:51Z</time>
      </trkpt>
      <trkpt lat="47.11122" lon="6.56345">
        <ele>910</ele>
        <time>2022-08-22T00:25:25Z</time>
      </trkpt>
      <trkpt lat="47.11101" lon="6.56432">
        <ele>911</ele>
        <time>2022-08-22T00:26:15Z</time>
      </trkpt>
      <trkpt lat="47.11074" lon="6.56564">
        <ele>911</ele>
        <time>2022-08-22T00:27:30Z</time>
      </trkpt>
      <trkpt lat="47.11056" lon="6.56631">
        <ele>909</ele>
        <time>2022-08-22T00:28:10Z</time>
      </trkpt>
      <trkpt lat="47.11035" lon="6.5667">
        <ele>908</ele>
        <time>2022-08-22T00:28:37Z</time>
      </trkpt>
      <trkpt lat="47.10976" lon="6.5674">
        <ele>906</ele>
        <time>2022-08-22T00:29:37Z</time>
      </trkpt>
      <trkpt lat="47.10919" lon="6.56794">
        <ele>907</ele>
        <time>2022-08-22T00:30:32Z</time>
      </trkpt>
      <trkpt lat="47.10799" lon="6.56953">
        <ele>913</ele>
        <time>2022-08-22T00:32:41Z</time>
      </trkpt>
      <trkpt lat="47.10739" lon="6.57041">
        <ele>917</ele>
        <time>2022-08-22T00:33:49Z</time>
      </trkpt>
      <trkpt lat="47.1073" lon="6.57061">
        <ele>917</ele>
        <time>2022-08-22T00:34:02Z</time>
      </trkpt>
      <trkpt lat="47.10629" lon="6.57393">
        <ele>922</ele>
        <time>2022-08-22T00:37:20Z</time>
      </trkpt>
      <trkpt lat="47.10586" lon="6.57526">
        <ele>931</ele>
        <time>2022-08-22T00:38:40Z</time>
      </trkpt>
      <trkpt lat="47.10565" lon="6.57633">
        <ele>935</ele>
        <time>2022-08-22T00:39:41Z</time>
      </trkpt>
      <trkpt lat="47.10511" lon="6.57671">
        <ele>941</ele>
        <time>2022-08-22T00:40:29Z</time>
      </trkpt>
      <trkpt lat="47.10467" lon="6.57684">
        <ele>944</ele>
        <time>2022-08-22T00:41:05Z</time>
      </trkpt>
      <trkpt lat="47.10424" lon="6.577">
        <ele>947</ele>
        <time>2022-08-22T00:41:41Z</time>
      </trkpt>
      <trkpt lat="47.10402" lon="6.57727">
        <ele>948</ele>
        <time>2022-08-22T00:42:04Z</time>
      </trkpt>
      <trkpt lat="47.10345" lon="6.57887">
        <ele>957</ele>
        <time>2022-08-22T00:43:42Z</time>
      </trkpt>
      <trkpt lat="47.10328" lon="6.57903">
        <ele>959</ele>
        <time>2022-08-22T00:43:58Z</time>
      </trkpt>
      <trkpt lat="47.10297" lon="6.57903">
        <ele>958</ele>
        <time>2022-08-22T00:44:23Z</time>
      </trkpt>
      <trkpt lat="47.10239" lon="6.5791">
        <ele>958</ele>
        <time>2022-08-22T00:45:10Z</time>
      </trkpt>
      <trkpt lat="47.10216" lon="6.57914">
        <ele>957</ele>
        <time>2022-08-22T00:45:28Z</time>
      </trkpt>
      <trkpt lat="47.10203" lon="6.57921">
        <ele>957</ele>
        <time>2022-08-22T00:45:39Z</time>
      </trkpt>
      <trkpt lat="47.10186" lon="6.57941">
        <ele>958</ele>
        <time>2022-08-22T00:45:57Z</time>
      </trkpt>
      <trkpt lat="47.10168" lon="6.57973">
        <ele>960</ele>
        <time>2022-08-22T00:46:19Z</time>
      </trkpt>
      <trkpt lat="47.10132" lon="6.5806">
        <ele>959</ele>
        <time>2022-08-22T00:47:15Z</time>
      </trkpt>
      <trkpt lat="47.10102" lon="6.58197">
        <ele>961</ele>
        <time>2022-08-22T00:48:33Z</time>
      </trkpt>
      <trkpt lat="47.10093" lon="6.58223">
        <ele>962</ele>
        <time>2022-08-22T00:48:49Z</time>
      </trkpt>
      <trkpt lat="47.10083" lon="6.58236">
        <ele>963</ele>
        <time>2022-08-22T00:49:00Z</time>
      </trkpt>
      <trkpt lat="47.10034" lon="6.58273">
        <ele>968</ele>
        <time>2022-08-22T00:49:44Z</time>
      </trkpt>
      <trkpt lat="47.09968" lon="6.58311">
        <ele>970</ele>
        <time>2022-08-22T00:50:41Z</time>
      </trkpt>
      <trkpt lat="47.09888" lon="6.58388">
        <ele>969</ele>
        <time>2022-08-22T00:51:57Z</time>
      </trkpt>
      <trkpt lat="47.09758" lon="6.58485">
        <ele>970</ele>
        <time>2022-08-22T00:53:54Z</time>
      </trkpt>
      <trkpt lat="47.09727" lon="6.58525">
        <ele>975</ele>
        <time>2022-08-22T00:54:27Z</time>
      </trkpt>
      <trkpt lat="47.09719" lon="6.58546">
        <ele>977</ele>
        <time>2022-08-22T00:54:40Z</time>
      </trkpt>
      <trkpt lat="47.0971" lon="6.58608">
        <ele>980</ele>
        <time>2022-08-22T00:55:15Z</time>
      </trkpt>
      <trkpt lat="47.09713" lon="6.58647">
        <ele>982</ele>
        <time>2022-08-22T00:55:36Z</time>
      </trkpt>
      <trkpt lat="47.09719" lon="6.58672">
        <ele>983</ele>
        <time>2022-08-22T00:55:50Z</time>
      </trkpt>
      <trkpt lat="47.0973" lon="6.58696">
        <ele>985</ele>
        <time>2022-08-22T00:56:06Z</time>
      </trkpt>
      <trkpt lat="47.0981" lon="6.5883">
        <ele>992</ele>
        <time>2022-08-22T00:57:43Z</time>
      </trkpt>
      <trkpt lat="47.09845" lon="6.58856">
        <ele>996</ele>
        <time>2022-08-22T00:58:15Z</time>
      </trkpt>
      <trkpt lat="47.09918" lon="6.58928">
        <ele>1006</ele>
        <time>2022-08-22T00:59:25Z</time>
      </trkpt>
      <trkpt lat="47.0993" lon="6.58954">
        <ele>1005</ele>
        <time>2022-08-22T00:59:42Z</time>
      </trkpt>
      <trkpt lat="47.09938" lon="6.58986">
        <ele>1005</ele>
        <time>2022-08-22T01:00:01Z</time>
      </trkpt>
      <trkpt lat="47.09933" lon="6.59087">
        <ele>1000</ele>
        <time>2022-08-22T01:00:56Z</time>
      </trkpt>
      <trkpt lat="47.09926" lon="6.59149">
        <ele>999</ele>
        <time>2022-08-22T01:01:30Z</time>
      </trkpt>
      <trkpt lat="47.09911" lon="6.59202">
        <ele>999</ele>
        <time>2022-08-22T01:02:02Z</time>
      </trkpt>
      <trkpt lat="47.097" lon="6.59829">
        <ele>997</ele>
        <time>2022-08-22T01:08:23Z</time>
      </trkpt>
      <trkpt lat="47.09676" lon="6.59882">
        <ele>993</ele>
        <time>2022-08-22T01:08:58Z</time>
      </trkpt>
      <trkpt lat="47.09632" lon="6.59927">
        <ele>990</ele>
        <time>2022-08-22T01:09:40Z</time>
      </trkpt>
      <trkpt lat="47.09604" lon="6.59945">
        <ele>990</ele>
        <time>2022-08-22T01:10:05Z</time>
      </trkpt>
      <trkpt lat="47.09578" lon="6.59956">
        <ele>990</ele>
        <time>2022-08-22T01:10:27Z</time>
      </trkpt>
      <trkpt lat="47.09504" lon="6.59958">
        <ele>991</ele>
        <time>2022-08-22T01:11:26Z</time>
      </trkpt>
      <trkpt lat="47.09443" lon="6.59951">
        <ele>990</ele>
        <time>2022-08-22T01:12:15Z</time>
      </trkpt>
      <trkpt lat="47.09423" lon="6.59969">
        <ele>986</ele>
        <time>2022-08-22T01:12:34Z</time>
      </trkpt>
      <trkpt lat="47.09419" lon="6.59993">
        <ele>982</ele>
        <time>2022-08-22T01:12:47Z</time>
      </trkpt>
      <trkpt lat="47.09421" lon="6.60014">
        <ele>980</ele>
        <time>2022-08-22T01:12:59Z</time>
      </trkpt>
      <trkpt lat="47.0941" lon="6.60015">
        <ele>980</ele>
        <time>2022-08-22T01:13:08Z</time>
      </trkpt>
      <trkpt lat="47.09379" lon="6.59991">
        <ele>983</ele>
        <time>2022-08-22T01:13:36Z</time>
      </trkpt>
      <trkpt lat="47.09368" lon="6.59985">
        <ele>984</ele>
        <time>2022-08-22T01:13:45Z</time>
      </trkpt>
      <trkpt lat="47.09357" lon="6.59988">
        <ele>984</ele>
        <time>2022-08-22T01:13:54Z</time>
      </trkpt>
      <trkpt lat="47.09331" lon="6.6002">
        <ele>981</ele>
        <time>2022-08-22T01:14:21Z</time>
      </trkpt>
      <trkpt lat="47.09308" lon="6.60042">
        <ele>981</ele>
        <time>2022-08-22T01:14:43Z</time>
      </trkpt>
      <trkpt lat="47.09295" lon="6.60046">
        <ele>982</ele>
        <time>2022-08-22T01:14:54Z</time>
      </trkpt>
      <trkpt lat="47.09285" lon="6.60046">
        <ele>983</ele>
        <time>2022-08-22T01:15:02Z</time>
      </trkpt>
      <trkpt lat="47.09237" lon="6.59969">
        <ele>990</ele>
        <time>2022-08-22T01:15:59Z</time>
      </trkpt>
      <trkpt lat="47.09134" lon="6.59855">
        <ele>999</ele>
        <time>2022-08-22T01:17:42Z</time>
      </trkpt>
      <trkpt lat="47.09091" lon="6.59839">
        <ele>1002</ele>
        <time>2022-08-22T01:18:17Z</time>
      </trkpt>
      <trkpt lat="47.09048" lon="6.59791">
        <ele>1010</ele>
        <time>2022-08-22T01:19:01Z</time>
      </trkpt>
      <trkpt lat="47.09001" lon="6.59779">
        <ele>1014</ele>
        <time>2022-08-22T01:19:39Z</time>
      </trkpt>
      <trkpt lat="47.08921" lon="6.59674">
        <ele>1017</ele>
        <time>2022-08-22T01:21:05Z</time>
      </trkpt>
      <trkpt lat="47.08876" lon="6.59629">
        <ele>1017</ele>
        <time>2022-08-22T01:21:48Z</time>
      </trkpt>
      <trkpt lat="47.08766" lon="6.59625">
        <ele>1020</ele>
        <time>2022-08-22T01:23:16Z</time>
      </trkpt>
      <trkpt lat="47.08704" lon="6.59589">
        <ele>1022</ele>
        <time>2022-08-22T01:24:10Z</time>
      </trkpt>
      <trkpt lat="47.08663" lon="6.59547">
        <ele>1024</ele>
        <time>2022-08-22T01:24:50Z</time>
      </trkpt>
      <trkpt lat="47.0864" lon="6.59529">
        <ele>1025</ele>
        <time>2022-08-22T01:25:11Z</time>
      </trkpt>
      <trkpt lat="47.08602" lon="6.59517">
        <ele>1026</ele>
        <time>2022-08-22T01:25:42Z</time>
      </trkpt>
      <trkpt lat="47.08568" lon="6.59513">
        <ele>1028</ele>
        <time>2022-08-22T01:26:09Z</time>
      </trkpt>
      <trkpt lat="47.08514" lon="6.59515">
        <ele>1030</ele>
        <time>2022-08-22T01:26:52Z</time>
      </trkpt>
      <trkpt lat="47.08493" lon="6.59511">
        <ele>1031</ele>
        <time>2022-08-22T01:27:09Z</time>
      </trkpt>
      <trkpt lat="47.08466" lon="6.59492">
        <ele>1032</ele>
        <time>2022-08-22T01:27:33Z</time>
      </trkpt>
      <trkpt lat="47.08427" lon="6.59454">
        <ele>1033</ele>
        <time>2022-08-22T01:28:11Z</time>
      </trkpt>
      <trkpt lat="47.08402" lon="6.59434">
        <ele>1034</ele>
        <time>2022-08-22T01:28:34Z</time>
      </trkpt>
      <trkpt lat="47.08383" lon="6.59423">
        <ele>1035</ele>
        <time>2022-08-22T01:28:50Z</time>
      </trkpt>
      <trkpt lat="47.0836" lon="6.5942">
        <ele>1037</ele>
        <time>2022-08-22T01:29:08Z</time>
      </trkpt>
      <trkpt lat="47.08352" lon="6.59446">
        <ele>1037</ele>
        <time>2022-08-22T01:29:24Z</time>
      </trkpt>
      <trkpt lat="47.08333" lon="6.59464">
        <ele>1038</ele>
        <time>2022-08-22T01:29:42Z</time>
      </trkpt>
      <trkpt lat="47.08293" lon="6.59491">
        <ele>1037</ele>
        <time>2022-08-22T01:30:17Z</time>
      </trkpt>
      <trkpt lat="47.08257" lon="6.5949">
        <ele>1037</ele>
        <time>2022-08-22T01:30:46Z</time>
      </trkpt>
      <trkpt lat="47.08235" lon="6.59479">
        <ele>1037</ele>
        <time>2022-08-22T01:31:05Z</time>
      </trkpt>
      <trkpt lat="47.08214" lon="6.59494">
        <ele>1036</ele>
        <time>2022-08-22T01:31:23Z</time>
      </trkpt>
      <trkpt lat="47.08204" lon="6.59512">
        <ele>1036</ele>
        <time>2022-08-22T01:31:36Z</time>
      </trkpt>
      <trkpt lat="47.08133" lon="6.59568">
        <ele>1040</ele>
        <time>2022-08-22T01:32:41Z</time>
      </trkpt>
      <trkpt lat="47.081" lon="6.59579">
        <ele>1043</ele>
        <time>2022-08-22T01:33:08Z</time>
      </trkpt>
      <trkpt lat="47.08017" lon="6.59585">
        <ele>1053</ele>
        <time>2022-08-22T01:34:14Z</time>
      </trkpt>
      <trkpt lat="47.08001" lon="6.59578">
        <ele>1055</ele>
        <time>2022-08-22T01:34:28Z</time>
      </trkpt>
      <trkpt lat="47.07918" lon="6.59483">
        <ele>1064</ele>
        <time>2022-08-22T01:35:52Z</time>
      </trkpt>
      <trkpt lat="47.07859" lon="6.5941">
        <ele>1070</ele>
        <time>2022-08-22T01:36:54Z</time>
      </trkpt>
      <trkpt lat="47.07846" lon="6.59401">
        <ele>1070</ele>
        <time>2022-08-22T01:37:05Z</time>
      </trkpt>
      <trkpt lat="47.07827" lon="6.59401">
        <ele>1073</ele>
        <time>2022-08-22T01:37:20Z</time>
      </trkpt>
      <trkpt lat="47.07784" lon="6.59423">
        <ele>1081</ele>
        <time>2022-08-22T01:37:57Z</time>
      </trkpt>
      <trkpt lat="47.07767" lon="6.59442">
        <ele>1084</ele>
        <time>2022-08-22T01:38:14Z</time>
      </trkpt>
      <trkpt lat="47.07749" lon="6.595">
        <ele>1087</ele>
        <time>2022-08-22T01:38:49Z</time>
      </trkpt>
      <trkpt lat="47.07736" lon="6.59523">
        <ele>1088</ele>
        <time>2022-08-22T01:39:05Z</time>
      </trkpt>
      <trkpt lat="47.07723" lon="6.5953">
        <ele>1090</ele>
        <time>2022-08-22T01:39:16Z</time>
      </trkpt>
      <trkpt lat="47.07688" lon="6.59537">
        <ele>1095</ele>
        <time>2022-08-22T01:39:44Z</time>
      </trkpt>
      <trkpt lat="47.07679" lon="6.59542">
        <ele>1097</ele>
        <time>2022-08-22T01:39:52Z</time>
      </trkpt>
      <trkpt lat="47.07656" lon="6.59576">
        <ele>1098</ele>
        <time>2022-08-22T01:40:18Z</time>
      </trkpt>
      <trkpt lat="47.07634" lon="6.59598">
        <ele>1101</ele>
        <time>2022-08-22T01:40:40Z</time>
      </trkpt>
      <trkpt lat="47.07613" lon="6.59605">
        <ele>1102</ele>
        <time>2022-08-22T01:40:57Z</time>
      </trkpt>
      <trkpt lat="47.07597" lon="6.59605">
        <ele>1103</ele>
        <time>2022-08-22T01:41:10Z</time>
      </trkpt>
      <trkpt lat="47.07554" lon="6.59597">
        <ele>1103</ele>
        <time>2022-08-22T01:41:44Z</time>
      </trkpt>
      <trkpt lat="47.075" lon="6.5958">
        <ele>1103</ele>
        <time>2022-08-22T01:42:29Z</time>
      </trkpt>
      <trkpt lat="47.07483" lon="6.59579">
        <ele>1102</ele>
        <time>2022-08-22T01:42:42Z</time>
      </trkpt>
      <trkpt lat="47.07463" lon="6.59592">
        <ele>1102</ele>
        <time>2022-08-22T01:43:00Z</time>
      </trkpt>
      <trkpt lat="47.07437" lon="6.5962">
        <ele>1103</ele>
        <time>2022-08-22T01:43:25Z</time>
      </trkpt>
      <trkpt lat="47.0739" lon="6.59684">
        <ele>1105</ele>
        <time>2022-08-22T01:44:17Z</time>
      </trkpt>
      <trkpt lat="47.07382" lon="6.59703">
        <ele>1105</ele>
        <time>2022-08-22T01:44:29Z</time>
      </trkpt>
      <trkpt lat="47.07378" lon="6.5972">
        <ele>1105</ele>
        <time>2022-08-22T01:44:39Z</time>
      </trkpt>
      <trkpt lat="47.07378" lon="6.59734">
        <ele>1106</ele>
        <time>2022-08-22T01:44:46Z</time>
      </trkpt>
      <trkpt lat="47.07385" lon="6.59785">
        <ele>1108</ele>
        <time>2022-08-22T01:45:15Z</time>
      </trkpt>
      <trkpt lat="47.07386" lon="6.59833">
        <ele>1110</ele>
        <time>2022-08-22T01:45:41Z</time>
      </trkpt>
      <trkpt lat="47.07379" lon="6.59916">
        <ele>1111</ele>
        <time>2022-08-22T01:46:27Z</time>
      </trkpt>
      <trkpt lat="47.07361" lon="6.60084">
        <ele>1110</ele>
        <time>2022-08-22T01:47:59Z</time>
      </trkpt>
      <trkpt lat="47.07364" lon="6.60112">
        <ele>1109</ele>
        <time>2022-08-22T01:48:15Z</time>
      </trkpt>
      <trkpt lat="47.07369" lon="6.60129">
        <ele>1109</ele>
        <time>2022-08-22T01:48:25Z</time>
      </trkpt>
      <trkpt lat="47.0737" lon="6.60134">
        <ele>1109</ele>
        <time>2022-08-22T01:48:28Z</time>
      </trkpt>
      <trkpt lat="47.07394" lon="6.60176">
        <ele>1111</ele>
        <time>2022-08-22T01:48:58Z</time>
      </trkpt>
      <trkpt lat="47.07402" lon="6.60203">
        <ele>1112</ele>
        <time>2022-08-22T01:49:14Z</time>
      </trkpt>
      <trkpt lat="47.07404" lon="6.60216">
        <ele>1112</ele>
        <time>2022-08-22T01:49:21Z</time>
      </trkpt>
      <trkpt lat="47.07402" lon="6.60231">
        <ele>1112</ele>
        <time>2022-08-22T01:49:29Z</time>
      </trkpt>
      <trkpt lat="47.07395" lon="6.60254">
        <ele>1111</ele>
        <time>2022-08-22T01:49:43Z</time>
      </trkpt>
      <trkpt lat="47.07394" lon="6.60273">
        <ele>1112</ele>
        <time>2022-08-22T01:49:53Z</time>
      </trkpt>
      <trkpt lat="47.07396" lon="6.60307">
        <ele>1113</ele>
        <time>2022-08-22T01:50:12Z</time>
      </trkpt>
      <trkpt lat="47.074" lon="6.60341">
        <ele>1114</ele>
        <time>2022-08-22T01:50:31Z</time>
      </trkpt>
      <trkpt lat="47.07407" lon="6.60368">
        <ele>1115</ele>
        <time>2022-08-22T01:50:47Z</time>
      </trkpt>
      <trkpt lat="47.0743" lon="6.60418">
        <ele>1117</ele>
        <time>2022-08-22T01:51:19Z</time>
      </trkpt>
      <trkpt lat="47.07465" lon="6.60479">
        <ele>1114</ele>
        <time>2022-08-22T01:52:03Z</time>
      </trkpt>
      <trkpt lat="47.07611" lon="6.60667">
        <ele>1117</ele>
        <time>2022-08-22T01:54:38Z</time>
      </trkpt>
      <trkpt lat="47.07652" lon="6.60712">
        <ele>1118</ele>
        <time>2022-08-22T01:55:19Z</time>
      </trkpt>
      <trkpt lat="47.07676" lon="6.60747">
        <ele>1117</ele>
        <time>2022-08-22T01:55:47Z</time>
      </trkpt>
      <trkpt lat="47.07696" lon="6.60801">
        <ele>1114</ele>
        <time>2022-08-22T01:56:20Z</time>
      </trkpt>
      <trkpt lat="47.07713" lon="6.60832">
        <ele>1114</ele>
        <time>2022-08-22T01:56:42Z</time>
      </trkpt>
      <trkpt lat="47.07708" lon="6.60858">
        <ele>1110</ele>
        <time>2022-08-22T01:56:56Z</time>
      </trkpt>
      <trkpt lat="47.07706" lon="6.60891">
        <ele>1105</ele>
        <time>2022-08-22T01:57:15Z</time>
      </trkpt>
      <trkpt lat="47.07707" lon="6.60906">
        <ele>1103</ele>
        <time>2022-08-22T01:57:23Z</time>
      </trkpt>
      <trkpt lat="47.0771" lon="6.60918">
        <ele>1102</ele>
        <time>2022-08-22T01:57:30Z</time>
      </trkpt>
      <trkpt lat="47.07725" lon="6.6094">
        <ele>1100</ele>
        <time>2022-08-22T01:57:47Z</time>
      </trkpt>
      <trkpt lat="47.07789" lon="6.61017">
        <ele>1094</ele>
        <time>2022-08-22T01:58:53Z</time>
      </trkpt>
      <trkpt lat="47.07819" lon="6.61046">
        <ele>1091</ele>
        <time>2022-08-22T01:59:22Z</time>
      </trkpt>
      <trkpt lat="47.07847" lon="6.61068">
        <ele>1089</ele>
        <time>2022-08-22T01:59:47Z</time>
      </trkpt>
      <trkpt lat="47.07868" lon="6.61081">
        <ele>1087</ele>
        <time>2022-08-22T02:00:05Z</time>
      </trkpt>
      <trkpt lat="47.07938" lon="6.61109">
        <ele>1089</ele>
        <time>2022-08-22T02:01:03Z</time>
      </trkpt>
      <trkpt lat="47.07958" lon="6.61119">
        <ele>1090</ele>
        <time>2022-08-22T02:01:20Z</time>
      </trkpt>
      <trkpt lat="47.0801" lon="6.61167">
        <ele>1085</ele>
        <time>2022-08-22T02:02:10Z</time>
      </trkpt>
      <trkpt lat="47.08061" lon="6.61237">
        <ele>1080</ele>
        <time>2022-08-22T02:03:05Z</time>
      </trkpt>
      <trkpt lat="47.08179" lon="6.61382">
        <ele>1073</ele>
        <time>2022-08-22T02:05:09Z</time>
      </trkpt>
      <trkpt lat="47.08225" lon="6.61413">
        <ele>1074</ele>
        <time>2022-08-22T02:05:49Z</time>
      </trkpt>
      <trkpt lat="47.08238" lon="6.61424">
        <ele>1074</ele>
        <time>2022-08-22T02:06:01Z</time>
      </trkpt>
      <trkpt lat="47.08255" lon="6.61456">
        <ele>1068</ele>
        <time>2022-08-22T02:06:23Z</time>
      </trkpt>
      <trkpt lat="47.08303" lon="6.61504">
        <ele>1064</ele>
        <time>2022-08-22T02:07:10Z</time>
      </trkpt>
      <trkpt lat="47.08346" lon="6.61532">
        <ele>1064</ele>
        <time>2022-08-22T02:07:47Z</time>
      </trkpt>
      <trkpt lat="47.08497" lon="6.61846">
        <ele>1029</ele>
        <time>2022-08-22T02:11:17Z</time>
      </trkpt>
      <trkpt lat="47.08536" lon="6.61934">
        <ele>1027</ele>
        <time>2022-08-22T02:12:14Z</time>
      </trkpt>
      <trkpt lat="47.08617" lon="6.62065">
        <ele>1018</ele>
        <time>2022-08-22T02:13:51Z</time>
      </trkpt>
      <trkpt lat="47.08619" lon="6.62079">
        <ele>1016</ele>
        <time>2022-08-22T02:13:59Z</time>
      </trkpt>
      <trkpt lat="47.08617" lon="6.62087">
        <ele>1015</ele>
        <time>2022-08-22T02:14:03Z</time>
      </trkpt>
      <trkpt lat="47.08611" lon="6.621">
        <ele>1013</ele>
        <time>2022-08-22T02:14:12Z</time>
      </trkpt>
      <trkpt lat="47.08578" lon="6.62144">
        <ele>1009</ele>
        <time>2022-08-22T02:14:47Z</time>
      </trkpt>
      <trkpt lat="47.08576" lon="6.62152">
        <ele>1008</ele>
        <time>2022-08-22T02:14:52Z</time>
      </trkpt>
      <trkpt lat="47.08576" lon="6.62162">
        <ele>1007</ele>
        <time>2022-08-22T02:14:58Z</time>
      </trkpt>
      <trkpt lat="47.08578" lon="6.6217">
        <ele>1006</ele>
        <time>2022-08-22T02:15:02Z</time>
      </trkpt>
      <trkpt lat="47.08585" lon="6.62176">
        <ele>1006</ele>
        <time>2022-08-22T02:15:09Z</time>
      </trkpt>
      <trkpt lat="47.08597" lon="6.62179">
        <ele>1006</ele>
        <time>2022-08-22T02:15:18Z</time>
      </trkpt>
      <trkpt lat="47.08653" lon="6.62173">
        <ele>1007</ele>
        <time>2022-08-22T02:16:03Z</time>
      </trkpt>
      <trkpt lat="47.08669" lon="6.62175">
        <ele>1007</ele>
        <time>2022-08-22T02:16:16Z</time>
      </trkpt>
      <trkpt lat="47.08689" lon="6.62181">
        <ele>1007</ele>
        <time>2022-08-22T02:16:33Z</time>
      </trkpt>
      <trkpt lat="47.08702" lon="6.62192">
        <ele>1005</ele>
        <time>2022-08-22T02:16:45Z</time>
      </trkpt>
      <trkpt lat="47.08706" lon="6.62199">
        <ele>1004</ele>
        <time>2022-08-22T02:16:50Z</time>
      </trkpt>
      <trkpt lat="47.08708" lon="6.62228">
        <ele>998</ele>
        <time>2022-08-22T02:17:05Z</time>
      </trkpt>
      <trkpt lat="47.08707" lon="6.6231">
        <ele>988</ele>
        <time>2022-08-22T02:17:50Z</time>
      </trkpt>
      <trkpt lat="47.08712" lon="6.62358">
        <ele>984</ele>
        <time>2022-08-22T02:18:17Z</time>
      </trkpt>
      <trkpt lat="47.0871" lon="6.62386">
        <ele>983</ele>
        <time>2022-08-22T02:18:32Z</time>
      </trkpt>
      <trkpt lat="47.08688" lon="6.62437">
        <ele>980</ele>
        <time>2022-08-22T02:19:05Z</time>
      </trkpt>
      <trkpt lat="47.0865" lon="6.6251">
        <ele>973</ele>
        <time>2022-08-22T02:19:55Z</time>
      </trkpt>
      <trkpt lat="47.0858" lon="6.62586">
        <ele>961</ele>
        <time>2022-08-22T02:21:05Z</time>
      </trkpt>
      <trkpt lat="47.08576" lon="6.62611">
        <ele>960</ele>
        <time>2022-08-22T02:21:19Z</time>
      </trkpt>
      <trkpt lat="47.08583" lon="6.62647">
        <ele>960</ele>
        <time>2022-08-22T02:21:39Z</time>
      </trkpt>
      <trkpt lat="47.0859" lon="6.62688">
        <ele>959</ele>
        <time>2022-08-22T02:22:02Z</time>
      </trkpt>
      <trkpt lat="47.08588" lon="6.62696">
        <ele>958</ele>
        <time>2022-08-22T02:22:07Z</time>
      </trkpt>
      <trkpt lat="47.08586" lon="6.62703">
        <ele>958</ele>
        <time>2022-08-22T02:22:11Z</time>
      </trkpt>
      <trkpt lat="47.08577" lon="6.62713">
        <ele>956</ele>
        <time>2022-08-22T02:22:20Z</time>
      </trkpt>
      <trkpt lat="47.08564" lon="6.62713">
        <ele>955</ele>
        <time>2022-08-22T02:22:30Z</time>
      </trkpt>
      <trkpt lat="47.0855" lon="6.627">
        <ele>953</ele>
        <time>2022-08-22T02:22:44Z</time>
      </trkpt>
      <trkpt lat="47.08511" lon="6.62612">
        <ele>951</ele>
        <time>2022-08-22T02:23:41Z</time>
      </trkpt>
      <trkpt lat="47.0849" lon="6.62592">
        <ele>950</ele>
        <time>2022-08-22T02:24:01Z</time>
      </trkpt>
      <trkpt lat="47.08472" lon="6.62615">
        <ele>947</ele>
        <time>2022-08-22T02:24:20Z</time>
      </trkpt>
      <trkpt lat="47.08453" lon="6.62666">
        <ele>944</ele>
        <time>2022-08-22T02:24:52Z</time>
      </trkpt>
      <trkpt lat="47.08429" lon="6.62745">
        <ele>940</ele>
        <time>2022-08-22T02:25:39Z</time>
      </trkpt>
      <trkpt lat="47.08412" lon="6.62815">
        <ele>935</ele>
        <time>2022-08-22T02:26:19Z</time>
      </trkpt>
      <trkpt lat="47.08406" lon="6.62856">
        <ele>933</ele>
        <time>2022-08-22T02:26:42Z</time>
      </trkpt>
      <trkpt lat="47.08402" lon="6.62946">
        <ele>930</ele>
        <time>2022-08-22T02:27:31Z</time>
      </trkpt>
      <trkpt lat="47.08385" lon="6.62937">
        <ele>928</ele>
        <time>2022-08-22T02:27:46Z</time>
      </trkpt>
      <trkpt lat="47.0837" lon="6.62994">
        <ele>924</ele>
        <time>2022-08-22T02:28:19Z</time>
      </trkpt>
      <trkpt lat="47.08349" lon="6.63101">
        <ele>919</ele>
        <time>2022-08-22T02:29:20Z</time>
      </trkpt>
      <trkpt lat="47.08339" lon="6.63163">
        <ele>918</ele>
        <time>2022-08-22T02:29:55Z</time>
      </trkpt>
      <trkpt lat="47.0833" lon="6.63239">
        <ele>915</ele>
        <time>2022-08-22T02:30:37Z</time>
      </trkpt>
      <trkpt lat="47.08329" lon="6.63271">
        <ele>914</ele>
        <time>2022-08-22T02:30:54Z</time>
      </trkpt>
      <trkpt lat="47.08323" lon="6.63323">
        <ele>913</ele>
        <time>2022-08-22T02:31:23Z</time>
      </trkpt>
      <trkpt lat="47.08311" lon="6.63372">
        <ele>911</ele>
        <time>2022-08-22T02:31:51Z</time>
      </trkpt>
    </trkseg>
  </trk>
</gpx>